<?xml version="1.0" encoding="UTF-8" standalone="no" ?>
<gpx xmlns="http://www.topografix.com/GPX/1/1" creator="www.cicloide.com" version="1.1" xmlns:xsi="http://www.w3.org/2001/XMLSchema-instance" xsi:schemaLocation="http://www.topografix.com/GPX/1/1 http://www.topografix.com/GPX/1/1/gpx.xsd">
  <trk>
    <name>www.cicloide.com 15884</name>
    <desc>www.cicloide.com 15884</desc>
    <trkseg>
      <trkpt lat="41.984017988" lon="2.606105747">
        <ele>168.85</ele>
        <time>2013-10-20T08:13:05Z</time>
      </trkpt>
      <trkpt lat="41.984056377" lon="2.606158637">
        <ele>168.85</ele>
        <time>2013-10-20T08:13:09Z</time>
      </trkpt>
      <trkpt lat="41.984070878" lon="2.606164001">
        <ele>168.85</ele>
        <time>2013-10-20T08:13:11Z</time>
      </trkpt>
      <trkpt lat="41.984076074" lon="2.606173473">
        <ele>168.85</ele>
        <time>2013-10-20T08:13:13Z</time>
      </trkpt>
      <trkpt lat="41.984080768" lon="2.606154698">
        <ele>168.85</ele>
        <time>2013-10-20T08:13:16Z</time>
      </trkpt>
      <trkpt lat="41.984077248" lon="2.606172886">
        <ele>168.85</ele>
        <time>2013-10-20T08:13:19Z</time>
      </trkpt>
      <trkpt lat="41.984073895" lon="2.606179340">
        <ele>168.85</ele>
        <time>2013-10-20T08:13:22Z</time>
      </trkpt>
      <trkpt lat="41.984068028" lon="2.606172635">
        <ele>168.85</ele>
        <time>2013-10-20T08:13:26Z</time>
      </trkpt>
      <trkpt lat="41.984066351" lon="2.606163582">
        <ele>168.85</ele>
        <time>2013-10-20T08:13:28Z</time>
      </trkpt>
      <trkpt lat="41.984067860" lon="2.606157966">
        <ele>168.85</ele>
        <time>2013-10-20T08:13:31Z</time>
      </trkpt>
      <trkpt lat="41.984068531" lon="2.606154698">
        <ele>168.85</ele>
        <time>2013-10-20T08:13:33Z</time>
      </trkpt>
      <trkpt lat="41.984069285" lon="2.606144136">
        <ele>168.85</ele>
        <time>2013-10-20T08:13:38Z</time>
      </trkpt>
      <trkpt lat="41.984072973" lon="2.606130977">
        <ele>168.85</ele>
        <time>2013-10-20T08:13:44Z</time>
      </trkpt>
      <trkpt lat="41.984070459" lon="2.606135671">
        <ele>168.85</ele>
        <time>2013-10-20T08:13:51Z</time>
      </trkpt>
      <trkpt lat="41.984068698" lon="2.606123349">
        <ele>168.85</ele>
        <time>2013-10-20T08:13:58Z</time>
      </trkpt>
      <trkpt lat="41.984077332" lon="2.606108094">
        <ele>168.85</ele>
        <time>2013-10-20T08:14:04Z</time>
      </trkpt>
      <trkpt lat="41.984088731" lon="2.606089822">
        <ele>168.85</ele>
        <time>2013-10-20T08:14:14Z</time>
      </trkpt>
      <trkpt lat="41.984121504" lon="2.606019749">
        <ele>169.81</ele>
        <time>2013-10-20T08:14:18Z</time>
      </trkpt>
      <trkpt lat="41.984210353" lon="2.605850686">
        <ele>171.25</ele>
        <time>2013-10-20T08:14:26Z</time>
      </trkpt>
      <trkpt lat="41.984287382" lon="2.605688664">
        <ele>172.21</ele>
        <time>2013-10-20T08:14:33Z</time>
      </trkpt>
      <trkpt lat="41.984339182" lon="2.605577687">
        <ele>173.17</ele>
        <time>2013-10-20T08:14:41Z</time>
      </trkpt>
      <trkpt lat="41.984356952" lon="2.605548099">
        <ele>173.17</ele>
        <time>2013-10-20T08:14:43Z</time>
      </trkpt>
      <trkpt lat="41.984397018" lon="2.605448690">
        <ele>174.14</ele>
        <time>2013-10-20T08:14:49Z</time>
      </trkpt>
      <trkpt lat="41.984463654" lon="2.605330840">
        <ele>175.10</ele>
        <time>2013-10-20T08:14:56Z</time>
      </trkpt>
      <trkpt lat="41.984484357" lon="2.605313322">
        <ele>175.58</ele>
        <time>2013-10-20T08:15:03Z</time>
      </trkpt>
      <trkpt lat="41.984461391" lon="2.605268814">
        <ele>176.54</ele>
        <time>2013-10-20T08:15:21Z</time>
      </trkpt>
      <trkpt lat="41.984477400" lon="2.605212823">
        <ele>176.54</ele>
        <time>2013-10-20T08:15:34Z</time>
      </trkpt>
      <trkpt lat="41.984484944" lon="2.605205615">
        <ele>176.54</ele>
        <time>2013-10-20T08:15:35Z</time>
      </trkpt>
      <trkpt lat="41.984590975" lon="2.605154988">
        <ele>176.54</ele>
        <time>2013-10-20T08:15:41Z</time>
      </trkpt>
      <trkpt lat="41.984753081" lon="2.605037138">
        <ele>176.54</ele>
        <time>2013-10-20T08:15:49Z</time>
      </trkpt>
      <trkpt lat="41.984921473" lon="2.604906297">
        <ele>175.10</ele>
        <time>2013-10-20T08:15:56Z</time>
      </trkpt>
      <trkpt lat="41.985122807" lon="2.604609158">
        <ele>174.14</ele>
        <time>2013-10-20T08:16:04Z</time>
      </trkpt>
      <trkpt lat="41.985265969" lon="2.604357785">
        <ele>172.21</ele>
        <time>2013-10-20T08:16:11Z</time>
      </trkpt>
      <trkpt lat="41.985314249" lon="2.604256616">
        <ele>171.25</ele>
        <time>2013-10-20T08:16:13Z</time>
      </trkpt>
      <trkpt lat="41.985356494" lon="2.603953861">
        <ele>171.25</ele>
        <time>2013-10-20T08:16:20Z</time>
      </trkpt>
      <trkpt lat="41.985315590" lon="2.603766023">
        <ele>172.69</ele>
        <time>2013-10-20T08:16:25Z</time>
      </trkpt>
      <trkpt lat="41.985276782" lon="2.603424879">
        <ele>172.69</ele>
        <time>2013-10-20T08:16:33Z</time>
      </trkpt>
      <trkpt lat="41.985401505" lon="2.603265958">
        <ele>172.69</ele>
        <time>2013-10-20T08:16:38Z</time>
      </trkpt>
      <trkpt lat="41.985475014" lon="2.603222205">
        <ele>172.69</ele>
        <time>2013-10-20T08:16:40Z</time>
      </trkpt>
      <trkpt lat="41.985912801" lon="2.602995391">
        <ele>172.69</ele>
        <time>2013-10-20T08:16:52Z</time>
      </trkpt>
      <trkpt lat="41.986170461" lon="2.602904112">
        <ele>172.69</ele>
        <time>2013-10-20T08:17:01Z</time>
      </trkpt>
      <trkpt lat="41.986178004" lon="2.602822556">
        <ele>172.69</ele>
        <time>2013-10-20T08:17:06Z</time>
      </trkpt>
      <trkpt lat="41.986129389" lon="2.602632119">
        <ele>173.66</ele>
        <time>2013-10-20T08:17:12Z</time>
      </trkpt>
      <trkpt lat="41.986059652" lon="2.602317714">
        <ele>175.58</ele>
        <time>2013-10-20T08:17:20Z</time>
      </trkpt>
      <trkpt lat="41.985962003" lon="2.602057372">
        <ele>177.02</ele>
        <time>2013-10-20T08:17:27Z</time>
      </trkpt>
      <trkpt lat="41.985861168" lon="2.601761155">
        <ele>178.46</ele>
        <time>2013-10-20T08:17:35Z</time>
      </trkpt>
      <trkpt lat="41.985729153" lon="2.601445241">
        <ele>179.90</ele>
        <time>2013-10-20T08:17:44Z</time>
      </trkpt>
      <trkpt lat="41.985590684" lon="2.601182804">
        <ele>182.31</ele>
        <time>2013-10-20T08:17:52Z</time>
      </trkpt>
      <trkpt lat="41.985392285" lon="2.600944926">
        <ele>184.23</ele>
        <time>2013-10-20T08:18:01Z</time>
      </trkpt>
      <trkpt lat="41.985218528" lon="2.600720291">
        <ele>186.15</ele>
        <time>2013-10-20T08:18:09Z</time>
      </trkpt>
      <trkpt lat="41.985012333" lon="2.600475791">
        <ele>188.56</ele>
        <time>2013-10-20T08:18:18Z</time>
      </trkpt>
      <trkpt lat="41.984808234" lon="2.600317540">
        <ele>190.96</ele>
        <time>2013-10-20T08:18:27Z</time>
      </trkpt>
      <trkpt lat="41.984592316" lon="2.600185777">
        <ele>192.40</ele>
        <time>2013-10-20T08:18:36Z</time>
      </trkpt>
      <trkpt lat="41.984397353" lon="2.600041859">
        <ele>193.36</ele>
        <time>2013-10-20T08:18:44Z</time>
      </trkpt>
      <trkpt lat="41.984107255" lon="2.599843795">
        <ele>193.36</ele>
        <time>2013-10-20T08:18:54Z</time>
      </trkpt>
      <trkpt lat="41.983866778" lon="2.599710942">
        <ele>193.84</ele>
        <time>2013-10-20T08:19:01Z</time>
      </trkpt>
      <trkpt lat="41.983458747" lon="2.599487480">
        <ele>193.84</ele>
        <time>2013-10-20T08:19:12Z</time>
      </trkpt>
      <trkpt lat="41.983149958" lon="2.599334594">
        <ele>193.84</ele>
        <time>2013-10-20T08:19:20Z</time>
      </trkpt>
      <trkpt lat="41.982788363" lon="2.599143403">
        <ele>193.84</ele>
        <time>2013-10-20T08:19:30Z</time>
      </trkpt>
      <trkpt lat="41.982419056" lon="2.598983728">
        <ele>194.32</ele>
        <time>2013-10-20T08:19:40Z</time>
      </trkpt>
      <trkpt lat="41.982106495" lon="2.598817934">
        <ele>195.28</ele>
        <time>2013-10-20T08:19:49Z</time>
      </trkpt>
      <trkpt lat="41.981820756" lon="2.598692792">
        <ele>196.25</ele>
        <time>2013-10-20T08:19:58Z</time>
      </trkpt>
      <trkpt lat="41.981569047" lon="2.598604028">
        <ele>196.73</ele>
        <time>2013-10-20T08:20:07Z</time>
      </trkpt>
      <trkpt lat="41.981417167" lon="2.598570249">
        <ele>197.21</ele>
        <time>2013-10-20T08:20:14Z</time>
      </trkpt>
      <trkpt lat="41.981285152" lon="2.598513252">
        <ele>197.21</ele>
        <time>2013-10-20T08:20:20Z</time>
      </trkpt>
      <trkpt lat="41.981009220" lon="2.598447454">
        <ele>197.21</ele>
        <time>2013-10-20T08:20:30Z</time>
      </trkpt>
      <trkpt lat="41.980756757" lon="2.598399090">
        <ele>197.21</ele>
        <time>2013-10-20T08:20:37Z</time>
      </trkpt>
      <trkpt lat="41.980416787" lon="2.598400683">
        <ele>196.25</ele>
        <time>2013-10-20T08:20:46Z</time>
      </trkpt>
      <trkpt lat="41.980017389" lon="2.598397665">
        <ele>194.80</ele>
        <time>2013-10-20T08:20:56Z</time>
      </trkpt>
      <trkpt lat="41.979789318" lon="2.598402024">
        <ele>194.32</ele>
        <time>2013-10-20T08:21:01Z</time>
      </trkpt>
      <trkpt lat="41.979338539" lon="2.598509312">
        <ele>193.84</ele>
        <time>2013-10-20T08:21:11Z</time>
      </trkpt>
      <trkpt lat="41.979040479" lon="2.598591120">
        <ele>193.36</ele>
        <time>2013-10-20T08:21:20Z</time>
      </trkpt>
      <trkpt lat="41.978866386" lon="2.598663958">
        <ele>193.36</ele>
        <time>2013-10-20T08:21:25Z</time>
      </trkpt>
      <trkpt lat="41.978667903" lon="2.598863280">
        <ele>193.36</ele>
        <time>2013-10-20T08:21:32Z</time>
      </trkpt>
      <trkpt lat="41.978428432" lon="2.599140386">
        <ele>192.88</ele>
        <time>2013-10-20T08:21:42Z</time>
      </trkpt>
      <trkpt lat="41.978222321" lon="2.599387400">
        <ele>192.88</ele>
        <time>2013-10-20T08:21:50Z</time>
      </trkpt>
      <trkpt lat="41.978031800" lon="2.599673810">
        <ele>192.40</ele>
        <time>2013-10-20T08:21:58Z</time>
      </trkpt>
      <trkpt lat="41.977865587" lon="2.599989975">
        <ele>191.92</ele>
        <time>2013-10-20T08:22:06Z</time>
      </trkpt>
      <trkpt lat="41.977702811" lon="2.600120565">
        <ele>191.92</ele>
        <time>2013-10-20T08:22:11Z</time>
      </trkpt>
      <trkpt lat="41.977366780" lon="2.600147220">
        <ele>191.92</ele>
        <time>2013-10-20T08:22:20Z</time>
      </trkpt>
      <trkpt lat="41.977050782" lon="2.600063149">
        <ele>191.92</ele>
        <time>2013-10-20T08:22:29Z</time>
      </trkpt>
      <trkpt lat="41.976890101" lon="2.599823846">
        <ele>191.92</ele>
        <time>2013-10-20T08:22:36Z</time>
      </trkpt>
      <trkpt lat="41.976850371" lon="2.599581693">
        <ele>192.88</ele>
        <time>2013-10-20T08:22:42Z</time>
      </trkpt>
      <trkpt lat="41.976917510" lon="2.599209033">
        <ele>193.36</ele>
        <time>2013-10-20T08:22:50Z</time>
      </trkpt>
      <trkpt lat="41.977063020" lon="2.598873506">
        <ele>193.84</ele>
        <time>2013-10-20T08:22:58Z</time>
      </trkpt>
      <trkpt lat="41.977247338" lon="2.598527920">
        <ele>194.32</ele>
        <time>2013-10-20T08:23:07Z</time>
      </trkpt>
      <trkpt lat="41.977497538" lon="2.598136318">
        <ele>194.32</ele>
        <time>2013-10-20T08:23:16Z</time>
      </trkpt>
      <trkpt lat="41.977748995" lon="2.597850243">
        <ele>193.36</ele>
        <time>2013-10-20T08:23:24Z</time>
      </trkpt>
      <trkpt lat="41.977958040" lon="2.597688137">
        <ele>192.88</ele>
        <time>2013-10-20T08:23:30Z</time>
      </trkpt>
      <trkpt lat="41.978262806" lon="2.597431902">
        <ele>192.40</ele>
        <time>2013-10-20T08:23:39Z</time>
      </trkpt>
      <trkpt lat="41.978572601" lon="2.597178015">
        <ele>191.92</ele>
        <time>2013-10-20T08:23:49Z</time>
      </trkpt>
      <trkpt lat="41.978743172" lon="2.597027056">
        <ele>191.92</ele>
        <time>2013-10-20T08:23:55Z</time>
      </trkpt>
      <trkpt lat="41.978990858" lon="2.596838883">
        <ele>191.92</ele>
        <time>2013-10-20T08:24:03Z</time>
      </trkpt>
      <trkpt lat="41.979198896" lon="2.596688679">
        <ele>191.92</ele>
        <time>2013-10-20T08:24:10Z</time>
      </trkpt>
      <trkpt lat="41.979427722" lon="2.596512827">
        <ele>191.92</ele>
        <time>2013-10-20T08:24:19Z</time>
      </trkpt>
      <trkpt lat="41.979629559" lon="2.596331358">
        <ele>193.36</ele>
        <time>2013-10-20T08:24:28Z</time>
      </trkpt>
      <trkpt lat="41.979771548" lon="2.596120637">
        <ele>193.84</ele>
        <time>2013-10-20T08:24:36Z</time>
      </trkpt>
      <trkpt lat="41.979899959" lon="2.595849148">
        <ele>194.32</ele>
        <time>2013-10-20T08:24:44Z</time>
      </trkpt>
      <trkpt lat="41.979987131" lon="2.595545974">
        <ele>194.80</ele>
        <time>2013-10-20T08:24:51Z</time>
      </trkpt>
      <trkpt lat="41.980004900" lon="2.595197874">
        <ele>194.80</ele>
        <time>2013-10-20T08:24:59Z</time>
      </trkpt>
      <trkpt lat="41.979994674" lon="2.594818928">
        <ele>194.80</ele>
        <time>2013-10-20T08:25:06Z</time>
      </trkpt>
      <trkpt lat="41.979958465" lon="2.594484741">
        <ele>194.80</ele>
        <time>2013-10-20T08:25:13Z</time>
      </trkpt>
      <trkpt lat="41.979830305" lon="2.594030442">
        <ele>194.80</ele>
        <time>2013-10-20T08:25:22Z</time>
      </trkpt>
      <trkpt lat="41.979687310" lon="2.593482098">
        <ele>194.80</ele>
        <time>2013-10-20T08:25:32Z</time>
      </trkpt>
      <trkpt lat="41.979618662" lon="2.593164424">
        <ele>196.25</ele>
        <time>2013-10-20T08:25:40Z</time>
      </trkpt>
      <trkpt lat="41.979597959" lon="2.592840547">
        <ele>196.73</ele>
        <time>2013-10-20T08:25:47Z</time>
      </trkpt>
      <trkpt lat="41.979587817" lon="2.592516838">
        <ele>196.73</ele>
        <time>2013-10-20T08:25:54Z</time>
      </trkpt>
      <trkpt lat="41.979630564" lon="2.592079806">
        <ele>196.73</ele>
        <time>2013-10-20T08:26:02Z</time>
      </trkpt>
      <trkpt lat="41.979663924" lon="2.591653418">
        <ele>196.73</ele>
        <time>2013-10-20T08:26:10Z</time>
      </trkpt>
      <trkpt lat="41.979675827" lon="2.591532635">
        <ele>196.73</ele>
        <time>2013-10-20T08:26:12Z</time>
      </trkpt>
      <trkpt lat="41.979750929" lon="2.591059477">
        <ele>194.80</ele>
        <time>2013-10-20T08:26:20Z</time>
      </trkpt>
      <trkpt lat="41.979834077" lon="2.590757477">
        <ele>193.84</ele>
        <time>2013-10-20T08:26:25Z</time>
      </trkpt>
      <trkpt lat="41.979864839" lon="2.590630239">
        <ele>193.84</ele>
        <time>2013-10-20T08:26:27Z</time>
      </trkpt>
      <trkpt lat="41.979997524" lon="2.590201840">
        <ele>193.84</ele>
        <time>2013-10-20T08:26:34Z</time>
      </trkpt>
      <trkpt lat="41.980086540" lon="2.590013080">
        <ele>193.36</ele>
        <time>2013-10-20T08:26:37Z</time>
      </trkpt>
      <trkpt lat="41.980354593" lon="2.589608485">
        <ele>193.36</ele>
        <time>2013-10-20T08:26:45Z</time>
      </trkpt>
      <trkpt lat="41.980653408" lon="2.589149157">
        <ele>193.36</ele>
        <time>2013-10-20T08:26:54Z</time>
      </trkpt>
      <trkpt lat="41.980832362" lon="2.588926618">
        <ele>193.36</ele>
        <time>2013-10-20T08:26:59Z</time>
      </trkpt>
      <trkpt lat="41.981131009" lon="2.588607099">
        <ele>193.36</ele>
        <time>2013-10-20T08:27:08Z</time>
      </trkpt>
      <trkpt lat="41.981461927" lon="2.588317169">
        <ele>193.36</ele>
        <time>2013-10-20T08:27:16Z</time>
      </trkpt>
      <trkpt lat="41.981808267" lon="2.588027239">
        <ele>193.36</ele>
        <time>2013-10-20T08:27:25Z</time>
      </trkpt>
      <trkpt lat="41.982074225" lon="2.587783410">
        <ele>193.36</ele>
        <time>2013-10-20T08:27:33Z</time>
      </trkpt>
      <trkpt lat="41.982412686" lon="2.587426425">
        <ele>193.36</ele>
        <time>2013-10-20T08:27:43Z</time>
      </trkpt>
      <trkpt lat="41.982502037" lon="2.587312934">
        <ele>193.36</ele>
        <time>2013-10-20T08:27:46Z</time>
      </trkpt>
      <trkpt lat="41.982725079" lon="2.586947231">
        <ele>193.36</ele>
        <time>2013-10-20T08:27:55Z</time>
      </trkpt>
      <trkpt lat="41.982806049" lon="2.586769200">
        <ele>193.36</ele>
        <time>2013-10-20T08:27:59Z</time>
      </trkpt>
      <trkpt lat="41.982951894" lon="2.586270057">
        <ele>193.36</ele>
        <time>2013-10-20T08:28:08Z</time>
      </trkpt>
      <trkpt lat="41.983002688" lon="2.585743003">
        <ele>193.36</ele>
        <time>2013-10-20T08:28:17Z</time>
      </trkpt>
      <trkpt lat="41.982992630" lon="2.585051161">
        <ele>193.36</ele>
        <time>2013-10-20T08:28:29Z</time>
      </trkpt>
      <trkpt lat="41.982994977" lon="2.584939346">
        <ele>193.36</ele>
        <time>2013-10-20T08:28:31Z</time>
      </trkpt>
      <trkpt lat="41.983073515" lon="2.584509941">
        <ele>193.36</ele>
        <time>2013-10-20T08:28:39Z</time>
      </trkpt>
      <trkpt lat="41.983224473" lon="2.584108867">
        <ele>193.36</ele>
        <time>2013-10-20T08:28:47Z</time>
      </trkpt>
      <trkpt lat="41.983342658" lon="2.583800749">
        <ele>193.36</ele>
        <time>2013-10-20T08:28:54Z</time>
      </trkpt>
      <trkpt lat="41.983354896" lon="2.583784823">
        <ele>193.36</ele>
        <time>2013-10-20T08:28:55Z</time>
      </trkpt>
      <trkpt lat="41.983367636" lon="2.583683570">
        <ele>193.36</ele>
        <time>2013-10-20T08:29:02Z</time>
      </trkpt>
      <trkpt lat="41.983403343" lon="2.583586759">
        <ele>193.36</ele>
        <time>2013-10-20T08:29:10Z</time>
      </trkpt>
      <trkpt lat="41.983458412" lon="2.583501012">
        <ele>193.36</ele>
        <time>2013-10-20T08:29:20Z</time>
      </trkpt>
      <trkpt lat="41.983492191" lon="2.583429095">
        <ele>193.36</ele>
        <time>2013-10-20T08:29:27Z</time>
      </trkpt>
      <trkpt lat="41.983491101" lon="2.583415349">
        <ele>193.36</ele>
        <time>2013-10-20T08:29:28Z</time>
      </trkpt>
      <trkpt lat="41.983520103" lon="2.583336223">
        <ele>193.36</ele>
        <time>2013-10-20T08:29:34Z</time>
      </trkpt>
      <trkpt lat="41.983559582" lon="2.583260954">
        <ele>193.36</ele>
        <time>2013-10-20T08:29:40Z</time>
      </trkpt>
      <trkpt lat="41.983614064" lon="2.583147212">
        <ele>193.84</ele>
        <time>2013-10-20T08:29:49Z</time>
      </trkpt>
      <trkpt lat="41.983633342" lon="2.583100776">
        <ele>193.84</ele>
        <time>2013-10-20T08:29:56Z</time>
      </trkpt>
      <trkpt lat="41.983705008" lon="2.582976975">
        <ele>193.84</ele>
        <time>2013-10-20T08:30:03Z</time>
      </trkpt>
      <trkpt lat="41.983801986" lon="2.582823838">
        <ele>193.84</ele>
        <time>2013-10-20T08:30:11Z</time>
      </trkpt>
      <trkpt lat="41.983955040" lon="2.582558215">
        <ele>193.84</ele>
        <time>2013-10-20T08:30:20Z</time>
      </trkpt>
      <trkpt lat="41.984066268" lon="2.582302902">
        <ele>193.84</ele>
        <time>2013-10-20T08:30:28Z</time>
      </trkpt>
      <trkpt lat="41.984189063" lon="2.582032502">
        <ele>193.84</ele>
        <time>2013-10-20T08:30:36Z</time>
      </trkpt>
      <trkpt lat="41.984356868" lon="2.581775429">
        <ele>193.84</ele>
        <time>2013-10-20T08:30:44Z</time>
      </trkpt>
      <trkpt lat="41.984533978" lon="2.581486170">
        <ele>193.84</ele>
        <time>2013-10-20T08:30:52Z</time>
      </trkpt>
      <trkpt lat="41.984705639" lon="2.581240748">
        <ele>194.80</ele>
        <time>2013-10-20T08:31:00Z</time>
      </trkpt>
      <trkpt lat="41.984915354" lon="2.580914356">
        <ele>194.80</ele>
        <time>2013-10-20T08:31:09Z</time>
      </trkpt>
      <trkpt lat="41.985225653" lon="2.580401300">
        <ele>195.28</ele>
        <time>2013-10-20T08:31:23Z</time>
      </trkpt>
      <trkpt lat="41.985359260" lon="2.580159650">
        <ele>195.28</ele>
        <time>2013-10-20T08:31:30Z</time>
      </trkpt>
      <trkpt lat="41.985499070" lon="2.579756564">
        <ele>195.77</ele>
        <time>2013-10-20T08:31:39Z</time>
      </trkpt>
      <trkpt lat="41.985703756" lon="2.579202604">
        <ele>195.77</ele>
        <time>2013-10-20T08:31:51Z</time>
      </trkpt>
      <trkpt lat="41.985799897" lon="2.578795830">
        <ele>195.77</ele>
        <time>2013-10-20T08:32:00Z</time>
      </trkpt>
      <trkpt lat="41.985863767" lon="2.578364414">
        <ele>196.25</ele>
        <time>2013-10-20T08:32:09Z</time>
      </trkpt>
      <trkpt lat="41.985915399" lon="2.578107341">
        <ele>196.25</ele>
        <time>2013-10-20T08:32:14Z</time>
      </trkpt>
      <trkpt lat="41.986056467" lon="2.577580790">
        <ele>196.25</ele>
        <time>2013-10-20T08:32:24Z</time>
      </trkpt>
      <trkpt lat="41.986149338" lon="2.577105871">
        <ele>196.25</ele>
        <time>2013-10-20T08:32:33Z</time>
      </trkpt>
      <trkpt lat="41.986160821" lon="2.576602957">
        <ele>194.80</ele>
        <time>2013-10-20T08:32:43Z</time>
      </trkpt>
      <trkpt lat="41.986144393" lon="2.576115717">
        <ele>196.25</ele>
        <time>2013-10-20T08:32:53Z</time>
      </trkpt>
      <trkpt lat="41.986139615" lon="2.575704333">
        <ele>196.73</ele>
        <time>2013-10-20T08:33:02Z</time>
      </trkpt>
      <trkpt lat="41.986116816" lon="2.575103267">
        <ele>198.17</ele>
        <time>2013-10-20T08:33:15Z</time>
      </trkpt>
      <trkpt lat="41.986077338" lon="2.574721052">
        <ele>199.13</ele>
        <time>2013-10-20T08:33:24Z</time>
      </trkpt>
      <trkpt lat="41.986042218" lon="2.574361217">
        <ele>200.09</ele>
        <time>2013-10-20T08:33:32Z</time>
      </trkpt>
      <trkpt lat="41.986010199" lon="2.573970620">
        <ele>201.05</ele>
        <time>2013-10-20T08:33:41Z</time>
      </trkpt>
      <trkpt lat="41.985940629" lon="2.573637942">
        <ele>202.01</ele>
        <time>2013-10-20T08:33:49Z</time>
      </trkpt>
      <trkpt lat="41.985846332" lon="2.573189008">
        <ele>202.98</ele>
        <time>2013-10-20T08:33:59Z</time>
      </trkpt>
      <trkpt lat="41.985839627" lon="2.572722806">
        <ele>202.98</ele>
        <time>2013-10-20T08:34:08Z</time>
      </trkpt>
      <trkpt lat="41.985921937" lon="2.572257443">
        <ele>202.98</ele>
        <time>2013-10-20T08:34:17Z</time>
      </trkpt>
      <trkpt lat="41.986072057" lon="2.571884951">
        <ele>202.98</ele>
        <time>2013-10-20T08:34:26Z</time>
      </trkpt>
      <trkpt lat="41.986243802" lon="2.571591249">
        <ele>202.98</ele>
        <time>2013-10-20T08:34:34Z</time>
      </trkpt>
      <trkpt lat="41.986407752" lon="2.571412044">
        <ele>202.98</ele>
        <time>2013-10-20T08:34:40Z</time>
      </trkpt>
      <trkpt lat="41.986725929" lon="2.571132843">
        <ele>202.98</ele>
        <time>2013-10-20T08:34:50Z</time>
      </trkpt>
      <trkpt lat="41.987119208" lon="2.570864874">
        <ele>202.98</ele>
        <time>2013-10-20T08:35:01Z</time>
      </trkpt>
      <trkpt lat="41.987364798" lon="2.570798154">
        <ele>202.98</ele>
        <time>2013-10-20T08:35:08Z</time>
      </trkpt>
      <trkpt lat="41.987742906" lon="2.570636886">
        <ele>203.46</ele>
        <time>2013-10-20T08:35:19Z</time>
      </trkpt>
      <trkpt lat="41.988048510" lon="2.570479809">
        <ele>203.94</ele>
        <time>2013-10-20T08:35:28Z</time>
      </trkpt>
      <trkpt lat="41.988406669" lon="2.570385177">
        <ele>204.42</ele>
        <time>2013-10-20T08:35:38Z</time>
      </trkpt>
      <trkpt lat="41.988772874" lon="2.570334131">
        <ele>204.90</ele>
        <time>2013-10-20T08:35:48Z</time>
      </trkpt>
      <trkpt lat="41.989109743" lon="2.570286271">
        <ele>205.38</ele>
        <time>2013-10-20T08:35:57Z</time>
      </trkpt>
      <trkpt lat="41.989491957" lon="2.570223323">
        <ele>205.38</ele>
        <time>2013-10-20T08:36:07Z</time>
      </trkpt>
      <trkpt lat="41.989865790" lon="2.570164146">
        <ele>205.38</ele>
        <time>2013-10-20T08:36:16Z</time>
      </trkpt>
      <trkpt lat="41.990310953" lon="2.570146796">
        <ele>205.86</ele>
        <time>2013-10-20T08:36:27Z</time>
      </trkpt>
      <trkpt lat="41.990727618" lon="2.570132379">
        <ele>205.86</ele>
        <time>2013-10-20T08:36:37Z</time>
      </trkpt>
      <trkpt lat="41.991064989" lon="2.570139671">
        <ele>205.86</ele>
        <time>2013-10-20T08:36:45Z</time>
      </trkpt>
      <trkpt lat="41.991488024" lon="2.570087536">
        <ele>205.86</ele>
        <time>2013-10-20T08:36:54Z</time>
      </trkpt>
      <trkpt lat="41.991583745" lon="2.570051829">
        <ele>205.86</ele>
        <time>2013-10-20T08:36:56Z</time>
      </trkpt>
      <trkpt lat="41.991991441" lon="2.569715966">
        <ele>205.38</ele>
        <time>2013-10-20T08:37:06Z</time>
      </trkpt>
      <trkpt lat="41.992135693" lon="2.569550423">
        <ele>205.38</ele>
        <time>2013-10-20T08:37:10Z</time>
      </trkpt>
      <trkpt lat="41.992485806" lon="2.569239120">
        <ele>205.38</ele>
        <time>2013-10-20T08:37:19Z</time>
      </trkpt>
      <trkpt lat="41.992804150" lon="2.568881129">
        <ele>205.38</ele>
        <time>2013-10-20T08:37:28Z</time>
      </trkpt>
      <trkpt lat="41.992977907" lon="2.568392799">
        <ele>205.38</ele>
        <time>2013-10-20T08:37:37Z</time>
      </trkpt>
      <trkpt lat="41.993040185" lon="2.567951073">
        <ele>205.38</ele>
        <time>2013-10-20T08:37:45Z</time>
      </trkpt>
      <trkpt lat="41.993050830" lon="2.567483362">
        <ele>205.86</ele>
        <time>2013-10-20T08:37:53Z</time>
      </trkpt>
      <trkpt lat="41.993034401" lon="2.567000146">
        <ele>206.34</ele>
        <time>2013-10-20T08:38:01Z</time>
      </trkpt>
      <trkpt lat="41.993032138" lon="2.566941975">
        <ele>206.34</ele>
        <time>2013-10-20T08:38:02Z</time>
      </trkpt>
      <trkpt lat="41.992913283" lon="2.566322385">
        <ele>206.82</ele>
        <time>2013-10-20T08:38:13Z</time>
      </trkpt>
      <trkpt lat="41.992886880" lon="2.566210822">
        <ele>206.82</ele>
        <time>2013-10-20T08:38:15Z</time>
      </trkpt>
      <trkpt lat="41.992793757" lon="2.565526188">
        <ele>207.78</ele>
        <time>2013-10-20T08:38:27Z</time>
      </trkpt>
      <trkpt lat="41.992700466" lon="2.565059903">
        <ele>209.22</ele>
        <time>2013-10-20T08:38:36Z</time>
      </trkpt>
      <trkpt lat="41.992555292" lon="2.564619434">
        <ele>209.70</ele>
        <time>2013-10-20T08:38:45Z</time>
      </trkpt>
      <trkpt lat="41.992424534" lon="2.564222551">
        <ele>210.67</ele>
        <time>2013-10-20T08:38:53Z</time>
      </trkpt>
      <trkpt lat="41.992239042" lon="2.563809071">
        <ele>211.63</ele>
        <time>2013-10-20T08:39:02Z</time>
      </trkpt>
      <trkpt lat="41.992105351" lon="2.563610839">
        <ele>212.11</ele>
        <time>2013-10-20T08:39:07Z</time>
      </trkpt>
      <trkpt lat="41.991954058" lon="2.563279419">
        <ele>212.11</ele>
        <time>2013-10-20T08:39:13Z</time>
      </trkpt>
      <trkpt lat="41.991769153" lon="2.562820258">
        <ele>212.11</ele>
        <time>2013-10-20T08:39:22Z</time>
      </trkpt>
      <trkpt lat="41.991638898" lon="2.562517923">
        <ele>212.11</ele>
        <time>2013-10-20T08:39:28Z</time>
      </trkpt>
      <trkpt lat="41.991528257" lon="2.562317176">
        <ele>212.11</ele>
        <time>2013-10-20T08:39:32Z</time>
      </trkpt>
      <trkpt lat="41.991156603" lon="2.561895315">
        <ele>212.11</ele>
        <time>2013-10-20T08:39:43Z</time>
      </trkpt>
      <trkpt lat="41.991124584" lon="2.561863212">
        <ele>212.11</ele>
        <time>2013-10-20T08:39:44Z</time>
      </trkpt>
      <trkpt lat="41.991030037" lon="2.561748380">
        <ele>212.11</ele>
        <time>2013-10-20T08:39:47Z</time>
      </trkpt>
      <trkpt lat="41.990974632" lon="2.561649055">
        <ele>212.11</ele>
        <time>2013-10-20T08:39:49Z</time>
      </trkpt>
      <trkpt lat="41.990876229" lon="2.561373877">
        <ele>212.11</ele>
        <time>2013-10-20T08:39:54Z</time>
      </trkpt>
      <trkpt lat="41.990828619" lon="2.561025525">
        <ele>212.11</ele>
        <time>2013-10-20T08:40:00Z</time>
      </trkpt>
      <trkpt lat="41.990844461" lon="2.560675413">
        <ele>212.59</ele>
        <time>2013-10-20T08:40:06Z</time>
      </trkpt>
      <trkpt lat="41.990903638" lon="2.560447090">
        <ele>212.59</ele>
        <time>2013-10-20T08:40:10Z</time>
      </trkpt>
      <trkpt lat="41.991107485" lon="2.559991953">
        <ele>213.07</ele>
        <time>2013-10-20T08:40:19Z</time>
      </trkpt>
      <trkpt lat="41.991246038" lon="2.559711326">
        <ele>213.55</ele>
        <time>2013-10-20T08:40:25Z</time>
      </trkpt>
      <trkpt lat="41.991504788" lon="2.559374374">
        <ele>214.03</ele>
        <time>2013-10-20T08:40:33Z</time>
      </trkpt>
      <trkpt lat="41.991769069" lon="2.559050078">
        <ele>214.03</ele>
        <time>2013-10-20T08:40:41Z</time>
      </trkpt>
      <trkpt lat="41.992082301" lon="2.558670294">
        <ele>212.59</ele>
        <time>2013-10-20T08:40:50Z</time>
      </trkpt>
      <trkpt lat="41.992241808" lon="2.558385980">
        <ele>212.59</ele>
        <time>2013-10-20T08:40:56Z</time>
      </trkpt>
      <trkpt lat="41.992297632" lon="2.558228735">
        <ele>212.59</ele>
        <time>2013-10-20T08:40:59Z</time>
      </trkpt>
      <trkpt lat="41.992380277" lon="2.557842246">
        <ele>212.59</ele>
        <time>2013-10-20T08:41:06Z</time>
      </trkpt>
      <trkpt lat="41.992397460" lon="2.557520632">
        <ele>212.11</ele>
        <time>2013-10-20T08:41:11Z</time>
      </trkpt>
      <trkpt lat="41.992274414" lon="2.556943622">
        <ele>211.63</ele>
        <time>2013-10-20T08:41:20Z</time>
      </trkpt>
      <trkpt lat="41.992018347" lon="2.556413467">
        <ele>211.63</ele>
        <time>2013-10-20T08:41:30Z</time>
      </trkpt>
      <trkpt lat="41.991881889" lon="2.556178103">
        <ele>211.63</ele>
        <time>2013-10-20T08:41:35Z</time>
      </trkpt>
      <trkpt lat="41.991636970" lon="2.555904769">
        <ele>213.07</ele>
        <time>2013-10-20T08:41:42Z</time>
      </trkpt>
      <trkpt lat="41.991203626" lon="2.555627747">
        <ele>213.07</ele>
        <time>2013-10-20T08:41:52Z</time>
      </trkpt>
      <trkpt lat="41.990858543" lon="2.555427336">
        <ele>213.07</ele>
        <time>2013-10-20T08:42:00Z</time>
      </trkpt>
      <trkpt lat="41.990817220" lon="2.555397915">
        <ele>213.07</ele>
        <time>2013-10-20T08:42:01Z</time>
      </trkpt>
      <trkpt lat="41.990415643" lon="2.555188787">
        <ele>213.07</ele>
        <time>2013-10-20T08:42:10Z</time>
      </trkpt>
      <trkpt lat="41.990021861" lon="2.555061130">
        <ele>213.07</ele>
        <time>2013-10-20T08:42:19Z</time>
      </trkpt>
      <trkpt lat="41.989675856" lon="2.554999272">
        <ele>213.55</ele>
        <time>2013-10-20T08:42:26Z</time>
      </trkpt>
      <trkpt lat="41.989261623" lon="2.554879243">
        <ele>213.55</ele>
        <time>2013-10-20T08:42:35Z</time>
      </trkpt>
      <trkpt lat="41.988837415" lon="2.554678077">
        <ele>214.03</ele>
        <time>2013-10-20T08:42:45Z</time>
      </trkpt>
      <trkpt lat="41.988446147" lon="2.554496358">
        <ele>214.51</ele>
        <time>2013-10-20T08:42:54Z</time>
      </trkpt>
      <trkpt lat="41.988279012" lon="2.554397367">
        <ele>214.51</ele>
        <time>2013-10-20T08:42:58Z</time>
      </trkpt>
      <trkpt lat="41.987897468" lon="2.554210451">
        <ele>214.99</ele>
        <time>2013-10-20T08:43:07Z</time>
      </trkpt>
      <trkpt lat="41.987574932" lon="2.554031665">
        <ele>215.47</ele>
        <time>2013-10-20T08:43:15Z</time>
      </trkpt>
      <trkpt lat="41.987213086" lon="2.553836283">
        <ele>215.95</ele>
        <time>2013-10-20T08:43:24Z</time>
      </trkpt>
      <trkpt lat="41.987173607" lon="2.553815160">
        <ele>215.95</ele>
        <time>2013-10-20T08:43:25Z</time>
      </trkpt>
      <trkpt lat="41.986785692" lon="2.553598572">
        <ele>216.43</ele>
        <time>2013-10-20T08:43:35Z</time>
      </trkpt>
      <trkpt lat="41.986416050" lon="2.553400927">
        <ele>216.91</ele>
        <time>2013-10-20T08:43:44Z</time>
      </trkpt>
      <trkpt lat="41.986212873" lon="2.553283915">
        <ele>217.40</ele>
        <time>2013-10-20T08:43:49Z</time>
      </trkpt>
      <trkpt lat="41.986013468" lon="2.553166234">
        <ele>217.40</ele>
        <time>2013-10-20T08:43:54Z</time>
      </trkpt>
      <trkpt lat="41.985651956" lon="2.552961631">
        <ele>217.88</ele>
        <time>2013-10-20T08:44:03Z</time>
      </trkpt>
      <trkpt lat="41.985328750" lon="2.552776894">
        <ele>218.36</ele>
        <time>2013-10-20T08:44:11Z</time>
      </trkpt>
      <trkpt lat="41.985211152" lon="2.552714281">
        <ele>218.36</ele>
        <time>2013-10-20T08:44:14Z</time>
      </trkpt>
      <trkpt lat="41.985065139" lon="2.552615626">
        <ele>218.84</ele>
        <time>2013-10-20T08:44:18Z</time>
      </trkpt>
      <trkpt lat="41.984955168" lon="2.552535495">
        <ele>218.84</ele>
        <time>2013-10-20T08:44:21Z</time>
      </trkpt>
      <trkpt lat="41.984843270" lon="2.552439271">
        <ele>219.32</ele>
        <time>2013-10-20T08:44:24Z</time>
      </trkpt>
      <trkpt lat="41.984604470" lon="2.552126878">
        <ele>219.32</ele>
        <time>2013-10-20T08:44:32Z</time>
      </trkpt>
      <trkpt lat="41.984442867" lon="2.551728318">
        <ele>219.32</ele>
        <time>2013-10-20T08:44:40Z</time>
      </trkpt>
      <trkpt lat="41.984385534" lon="2.551410560">
        <ele>219.80</ele>
        <time>2013-10-20T08:44:46Z</time>
      </trkpt>
      <trkpt lat="41.984415039" lon="2.551097580">
        <ele>220.28</ele>
        <time>2013-10-20T08:44:52Z</time>
      </trkpt>
      <trkpt lat="41.984557699" lon="2.550833466">
        <ele>220.28</ele>
        <time>2013-10-20T08:44:57Z</time>
      </trkpt>
      <trkpt lat="41.984843773" lon="2.550534735">
        <ele>220.76</ele>
        <time>2013-10-20T08:45:05Z</time>
      </trkpt>
      <trkpt lat="41.985033623" lon="2.550367265">
        <ele>220.76</ele>
        <time>2013-10-20T08:45:10Z</time>
      </trkpt>
      <trkpt lat="41.985238309" lon="2.550159477">
        <ele>221.24</ele>
        <time>2013-10-20T08:45:16Z</time>
      </trkpt>
      <trkpt lat="41.985346603" lon="2.550055039">
        <ele>221.72</ele>
        <time>2013-10-20T08:45:19Z</time>
      </trkpt>
      <trkpt lat="41.985726220" lon="2.549691432">
        <ele>221.72</ele>
        <time>2013-10-20T08:45:29Z</time>
      </trkpt>
      <trkpt lat="41.985987987" lon="2.549442573">
        <ele>222.20</ele>
        <time>2013-10-20T08:45:36Z</time>
      </trkpt>
      <trkpt lat="41.986311863" lon="2.549113751">
        <ele>222.20</ele>
        <time>2013-10-20T08:45:45Z</time>
      </trkpt>
      <trkpt lat="41.986540354" lon="2.548826671">
        <ele>222.68</ele>
        <time>2013-10-20T08:45:52Z</time>
      </trkpt>
      <trkpt lat="41.986720984" lon="2.548392153">
        <ele>223.16</ele>
        <time>2013-10-20T08:46:00Z</time>
      </trkpt>
      <trkpt lat="41.986748393" lon="2.548276231">
        <ele>223.16</ele>
        <time>2013-10-20T08:46:02Z</time>
      </trkpt>
      <trkpt lat="41.986771024" lon="2.547775329">
        <ele>223.16</ele>
        <time>2013-10-20T08:46:10Z</time>
      </trkpt>
      <trkpt lat="41.986712099" lon="2.547194128">
        <ele>223.64</ele>
        <time>2013-10-20T08:46:20Z</time>
      </trkpt>
      <trkpt lat="41.986639847" lon="2.546806297">
        <ele>224.61</ele>
        <time>2013-10-20T08:46:27Z</time>
      </trkpt>
      <trkpt lat="41.986519399" lon="2.546417796">
        <ele>225.09</ele>
        <time>2013-10-20T08:46:35Z</time>
      </trkpt>
      <trkpt lat="41.986368357" lon="2.546091404">
        <ele>226.05</ele>
        <time>2013-10-20T08:46:42Z</time>
      </trkpt>
      <trkpt lat="41.986114805" lon="2.545535349">
        <ele>226.53</ele>
        <time>2013-10-20T08:46:53Z</time>
      </trkpt>
      <trkpt lat="41.986090665" lon="2.545488243">
        <ele>226.53</ele>
        <time>2013-10-20T08:46:54Z</time>
      </trkpt>
      <trkpt lat="41.985843566" lon="2.544952974">
        <ele>227.97</ele>
        <time>2013-10-20T08:47:05Z</time>
      </trkpt>
      <trkpt lat="41.985802244" lon="2.544856499">
        <ele>228.45</ele>
        <time>2013-10-20T08:47:07Z</time>
      </trkpt>
      <trkpt lat="41.985729070" lon="2.544718868">
        <ele>228.45</ele>
        <time>2013-10-20T08:47:10Z</time>
      </trkpt>
      <trkpt lat="41.985499573" lon="2.544246883">
        <ele>229.41</ele>
        <time>2013-10-20T08:47:20Z</time>
      </trkpt>
      <trkpt lat="41.985436960" lon="2.544096344">
        <ele>229.89</ele>
        <time>2013-10-20T08:47:23Z</time>
      </trkpt>
      <trkpt lat="41.985179049" lon="2.543573145">
        <ele>230.37</ele>
        <time>2013-10-20T08:47:34Z</time>
      </trkpt>
      <trkpt lat="41.984946451" lon="2.543115410">
        <ele>230.37</ele>
        <time>2013-10-20T08:47:43Z</time>
      </trkpt>
      <trkpt lat="41.984825081" lon="2.542852721">
        <ele>230.37</ele>
        <time>2013-10-20T08:47:48Z</time>
      </trkpt>
      <trkpt lat="41.984634477" lon="2.542433877">
        <ele>230.37</ele>
        <time>2013-10-20T08:47:56Z</time>
      </trkpt>
      <trkpt lat="41.984429204" lon="2.541967173">
        <ele>230.37</ele>
        <time>2013-10-20T08:48:05Z</time>
      </trkpt>
      <trkpt lat="41.984286041" lon="2.541489823">
        <ele>230.85</ele>
        <time>2013-10-20T08:48:14Z</time>
      </trkpt>
      <trkpt lat="41.984237175" lon="2.541203162">
        <ele>232.78</ele>
        <time>2013-10-20T08:48:21Z</time>
      </trkpt>
      <trkpt lat="41.984202641" lon="2.540994956">
        <ele>234.22</ele>
        <time>2013-10-20T08:48:28Z</time>
      </trkpt>
      <trkpt lat="41.984205156" lon="2.540789348">
        <ele>235.66</ele>
        <time>2013-10-20T08:48:35Z</time>
      </trkpt>
      <trkpt lat="41.984201132" lon="2.540579213">
        <ele>237.58</ele>
        <time>2013-10-20T08:48:42Z</time>
      </trkpt>
      <trkpt lat="41.984220998" lon="2.540315351">
        <ele>239.02</ele>
        <time>2013-10-20T08:48:50Z</time>
      </trkpt>
      <trkpt lat="41.984252514" lon="2.540156263">
        <ele>239.99</ele>
        <time>2013-10-20T08:48:55Z</time>
      </trkpt>
      <trkpt lat="41.984276989" lon="2.540029780">
        <ele>240.47</ele>
        <time>2013-10-20T08:48:59Z</time>
      </trkpt>
      <trkpt lat="41.984373213" lon="2.539710932">
        <ele>241.43</ele>
        <time>2013-10-20T08:49:08Z</time>
      </trkpt>
      <trkpt lat="41.984491817" lon="2.539354869">
        <ele>241.43</ele>
        <time>2013-10-20T08:49:17Z</time>
      </trkpt>
      <trkpt lat="41.984605727" lon="2.538950023">
        <ele>241.43</ele>
        <time>2013-10-20T08:49:26Z</time>
      </trkpt>
      <trkpt lat="41.984693234" lon="2.538628158">
        <ele>239.99</ele>
        <time>2013-10-20T08:49:32Z</time>
      </trkpt>
      <trkpt lat="41.984802953" lon="2.538282237">
        <ele>239.02</ele>
        <time>2013-10-20T08:49:37Z</time>
      </trkpt>
      <trkpt lat="41.984861291" lon="2.538135553">
        <ele>238.54</ele>
        <time>2013-10-20T08:49:39Z</time>
      </trkpt>
      <trkpt lat="41.984978889" lon="2.537889544">
        <ele>238.54</ele>
        <time>2013-10-20T08:49:43Z</time>
      </trkpt>
      <trkpt lat="41.985118113" lon="2.537481933">
        <ele>239.99</ele>
        <time>2013-10-20T08:49:51Z</time>
      </trkpt>
      <trkpt lat="41.985193382" lon="2.536996704">
        <ele>241.43</ele>
        <time>2013-10-20T08:50:01Z</time>
      </trkpt>
      <trkpt lat="41.985216852" lon="2.536736697">
        <ele>243.35</ele>
        <time>2013-10-20T08:50:08Z</time>
      </trkpt>
      <trkpt lat="41.985235376" lon="2.536514577">
        <ele>245.27</ele>
        <time>2013-10-20T08:50:16Z</time>
      </trkpt>
      <trkpt lat="41.985253816" lon="2.536274436">
        <ele>247.68</ele>
        <time>2013-10-20T08:50:24Z</time>
      </trkpt>
      <trkpt lat="41.985290193" lon="2.536045777">
        <ele>249.12</ele>
        <time>2013-10-20T08:50:32Z</time>
      </trkpt>
      <trkpt lat="41.985325732" lon="2.535897166">
        <ele>250.56</ele>
        <time>2013-10-20T08:50:38Z</time>
      </trkpt>
      <trkpt lat="41.985368815" lon="2.535696168">
        <ele>252.00</ele>
        <time>2013-10-20T08:50:46Z</time>
      </trkpt>
      <trkpt lat="41.985398236" lon="2.535497349">
        <ele>253.44</ele>
        <time>2013-10-20T08:50:54Z</time>
      </trkpt>
      <trkpt lat="41.985382813" lon="2.535376063">
        <ele>254.89</ele>
        <time>2013-10-20T08:51:01Z</time>
      </trkpt>
      <trkpt lat="41.985367810" lon="2.535224686">
        <ele>255.85</ele>
        <time>2013-10-20T08:51:09Z</time>
      </trkpt>
      <trkpt lat="41.985355656" lon="2.535009355">
        <ele>257.29</ele>
        <time>2013-10-20T08:51:16Z</time>
      </trkpt>
      <trkpt lat="41.985373593" lon="2.534752617">
        <ele>259.69</ele>
        <time>2013-10-20T08:51:24Z</time>
      </trkpt>
      <trkpt lat="41.985327660" lon="2.534521696">
        <ele>261.62</ele>
        <time>2013-10-20T08:51:32Z</time>
      </trkpt>
      <trkpt lat="41.985310477" lon="2.534247691">
        <ele>264.02</ele>
        <time>2013-10-20T08:51:41Z</time>
      </trkpt>
      <trkpt lat="41.985377700" lon="2.533921049">
        <ele>265.94</ele>
        <time>2013-10-20T08:51:51Z</time>
      </trkpt>
      <trkpt lat="41.985402427" lon="2.533649391">
        <ele>267.38</ele>
        <time>2013-10-20T08:51:59Z</time>
      </trkpt>
      <trkpt lat="41.985442828" lon="2.533356024">
        <ele>269.31</ele>
        <time>2013-10-20T08:52:08Z</time>
      </trkpt>
      <trkpt lat="41.985535364" lon="2.533106831">
        <ele>271.23</ele>
        <time>2013-10-20T08:52:17Z</time>
      </trkpt>
      <trkpt lat="41.985589846" lon="2.532881441">
        <ele>272.67</ele>
        <time>2013-10-20T08:52:25Z</time>
      </trkpt>
      <trkpt lat="41.985552631" lon="2.532679689">
        <ele>274.59</ele>
        <time>2013-10-20T08:52:32Z</time>
      </trkpt>
      <trkpt lat="41.985536370" lon="2.532512805">
        <ele>276.04</ele>
        <time>2013-10-20T08:52:38Z</time>
      </trkpt>
      <trkpt lat="41.985533101" lon="2.532283895">
        <ele>277.96</ele>
        <time>2013-10-20T08:52:46Z</time>
      </trkpt>
      <trkpt lat="41.985532095" lon="2.532015842">
        <ele>279.40</ele>
        <time>2013-10-20T08:52:55Z</time>
      </trkpt>
      <trkpt lat="41.985531508" lon="2.531781484">
        <ele>281.32</ele>
        <time>2013-10-20T08:53:03Z</time>
      </trkpt>
      <trkpt lat="41.985526228" lon="2.531527680">
        <ele>283.73</ele>
        <time>2013-10-20T08:53:12Z</time>
      </trkpt>
      <trkpt lat="41.985520193" lon="2.531273876">
        <ele>285.17</ele>
        <time>2013-10-20T08:53:21Z</time>
      </trkpt>
      <trkpt lat="41.985520109" lon="2.531031304">
        <ele>287.57</ele>
        <time>2013-10-20T08:53:30Z</time>
      </trkpt>
      <trkpt lat="41.985562689" lon="2.530860648">
        <ele>289.49</ele>
        <time>2013-10-20T08:53:37Z</time>
      </trkpt>
      <trkpt lat="41.985581716" lon="2.530595612">
        <ele>291.42</ele>
        <time>2013-10-20T08:53:47Z</time>
      </trkpt>
      <trkpt lat="41.985551876" lon="2.530496706">
        <ele>292.38</ele>
        <time>2013-10-20T08:53:51Z</time>
      </trkpt>
      <trkpt lat="41.985516253" lon="2.530376426">
        <ele>293.34</ele>
        <time>2013-10-20T08:53:56Z</time>
      </trkpt>
      <trkpt lat="41.985506614" lon="2.530097476">
        <ele>295.74</ele>
        <time>2013-10-20T08:54:07Z</time>
      </trkpt>
      <trkpt lat="41.985514241" lon="2.529890527">
        <ele>297.67</ele>
        <time>2013-10-20T08:54:15Z</time>
      </trkpt>
      <trkpt lat="41.985444588" lon="2.529674944">
        <ele>299.11</ele>
        <time>2013-10-20T08:54:24Z</time>
      </trkpt>
      <trkpt lat="41.985344676" lon="2.529423152">
        <ele>301.51</ele>
        <time>2013-10-20T08:54:35Z</time>
      </trkpt>
      <trkpt lat="41.985270580" lon="2.529235313">
        <ele>302.95</ele>
        <time>2013-10-20T08:54:43Z</time>
      </trkpt>
      <trkpt lat="41.985228335" lon="2.529056527">
        <ele>303.43</ele>
        <time>2013-10-20T08:54:50Z</time>
      </trkpt>
      <trkpt lat="41.985210565" lon="2.528805992">
        <ele>304.88</ele>
        <time>2013-10-20T08:54:59Z</time>
      </trkpt>
      <trkpt lat="41.985205452" lon="2.528587811">
        <ele>306.80</ele>
        <time>2013-10-20T08:55:07Z</time>
      </trkpt>
      <trkpt lat="41.985088776" lon="2.528354543">
        <ele>308.72</ele>
        <time>2013-10-20T08:55:17Z</time>
      </trkpt>
      <trkpt lat="41.984922647" lon="2.528156311">
        <ele>311.12</ele>
        <time>2013-10-20T08:55:28Z</time>
      </trkpt>
      <trkpt lat="41.984816532" lon="2.527965623">
        <ele>313.05</ele>
        <time>2013-10-20T08:55:37Z</time>
      </trkpt>
      <trkpt lat="41.984717877" lon="2.527740568">
        <ele>314.97</ele>
        <time>2013-10-20T08:55:47Z</time>
      </trkpt>
      <trkpt lat="41.984596507" lon="2.527511407">
        <ele>317.85</ele>
        <time>2013-10-20T08:55:58Z</time>
      </trkpt>
      <trkpt lat="41.984396263" lon="2.527386852">
        <ele>319.78</ele>
        <time>2013-10-20T08:56:09Z</time>
      </trkpt>
      <trkpt lat="41.984284113" lon="2.527265147">
        <ele>321.22</ele>
        <time>2013-10-20T08:56:16Z</time>
      </trkpt>
      <trkpt lat="41.984180765" lon="2.527074207">
        <ele>322.18</ele>
        <time>2013-10-20T08:56:25Z</time>
      </trkpt>
      <trkpt lat="41.984095437" lon="2.526897433">
        <ele>324.10</ele>
        <time>2013-10-20T08:56:33Z</time>
      </trkpt>
      <trkpt lat="41.984001727" lon="2.526730130">
        <ele>326.50</ele>
        <time>2013-10-20T08:56:41Z</time>
      </trkpt>
      <trkpt lat="41.983893684" lon="2.526642958">
        <ele>327.47</ele>
        <time>2013-10-20T08:56:48Z</time>
      </trkpt>
      <trkpt lat="41.983751527" lon="2.526547153">
        <ele>328.91</ele>
        <time>2013-10-20T08:56:56Z</time>
      </trkpt>
      <trkpt lat="41.983667289" lon="2.526391250">
        <ele>330.35</ele>
        <time>2013-10-20T08:57:03Z</time>
      </trkpt>
      <trkpt lat="41.983569808" lon="2.526201735">
        <ele>331.31</ele>
        <time>2013-10-20T08:57:11Z</time>
      </trkpt>
      <trkpt lat="41.983410803" lon="2.526097548">
        <ele>332.27</ele>
        <time>2013-10-20T08:57:19Z</time>
      </trkpt>
      <trkpt lat="41.983275854" lon="2.526061506">
        <ele>333.23</ele>
        <time>2013-10-20T08:57:25Z</time>
      </trkpt>
      <trkpt lat="41.983050884" lon="2.525915660">
        <ele>335.64</ele>
        <time>2013-10-20T08:57:36Z</time>
      </trkpt>
      <trkpt lat="41.982849048" lon="2.525795715">
        <ele>337.08</ele>
        <time>2013-10-20T08:57:46Z</time>
      </trkpt>
      <trkpt lat="41.982660203" lon="2.525743915">
        <ele>339.00</ele>
        <time>2013-10-20T08:57:55Z</time>
      </trkpt>
      <trkpt lat="41.982466330" lon="2.525675100">
        <ele>340.44</ele>
        <time>2013-10-20T08:58:04Z</time>
      </trkpt>
      <trkpt lat="41.982274217" lon="2.525566806">
        <ele>341.89</ele>
        <time>2013-10-20T08:58:13Z</time>
      </trkpt>
      <trkpt lat="41.982070369" lon="2.525535038">
        <ele>343.33</ele>
        <time>2013-10-20T08:58:22Z</time>
      </trkpt>
      <trkpt lat="41.982048324" lon="2.525543253">
        <ele>343.81</ele>
        <time>2013-10-20T08:58:23Z</time>
      </trkpt>
      <trkpt lat="41.981780439" lon="2.525540738">
        <ele>346.21</ele>
        <time>2013-10-20T08:58:35Z</time>
      </trkpt>
      <trkpt lat="41.981555888" lon="2.525493883">
        <ele>348.13</ele>
        <time>2013-10-20T08:58:45Z</time>
      </trkpt>
      <trkpt lat="41.981410462" lon="2.525466139">
        <ele>349.58</ele>
        <time>2013-10-20T08:58:52Z</time>
      </trkpt>
      <trkpt lat="41.981250200" lon="2.525448286">
        <ele>350.06</ele>
        <time>2013-10-20T08:59:00Z</time>
      </trkpt>
      <trkpt lat="41.981072336" lon="2.525408304">
        <ele>350.06</ele>
        <time>2013-10-20T08:59:08Z</time>
      </trkpt>
      <trkpt lat="41.980995138" lon="2.525372346">
        <ele>350.06</ele>
        <time>2013-10-20T08:59:12Z</time>
      </trkpt>
      <trkpt lat="41.980936046" lon="2.525270925">
        <ele>350.06</ele>
        <time>2013-10-20T08:59:17Z</time>
      </trkpt>
      <trkpt lat="41.980819789" lon="2.525212167">
        <ele>350.06</ele>
        <time>2013-10-20T08:59:24Z</time>
      </trkpt>
      <trkpt lat="41.980792799" lon="2.525186267">
        <ele>350.06</ele>
        <time>2013-10-20T08:59:31Z</time>
      </trkpt>
      <trkpt lat="41.980801433" lon="2.525179646">
        <ele>350.06</ele>
        <time>2013-10-20T08:59:41Z</time>
      </trkpt>
      <trkpt lat="41.980807635" lon="2.525174533">
        <ele>350.54</ele>
        <time>2013-10-20T09:00:02Z</time>
      </trkpt>
      <trkpt lat="41.980802774" lon="2.525155170">
        <ele>350.54</ele>
        <time>2013-10-20T09:00:16Z</time>
      </trkpt>
      <trkpt lat="41.980806546" lon="2.525147711">
        <ele>350.54</ele>
        <time>2013-10-20T09:00:40Z</time>
      </trkpt>
      <trkpt lat="41.980815430" lon="2.525169839">
        <ele>350.54</ele>
        <time>2013-10-20T09:01:02Z</time>
      </trkpt>
      <trkpt lat="41.980800008" lon="2.525190207">
        <ele>350.54</ele>
        <time>2013-10-20T09:01:30Z</time>
      </trkpt>
      <trkpt lat="41.980803193" lon="2.525167408">
        <ele>350.54</ele>
        <time>2013-10-20T09:01:48Z</time>
      </trkpt>
      <trkpt lat="41.980800511" lon="2.525150728">
        <ele>350.54</ele>
        <time>2013-10-20T09:02:09Z</time>
      </trkpt>
      <trkpt lat="41.980793973" lon="2.525170342">
        <ele>351.02</ele>
        <time>2013-10-20T09:02:35Z</time>
      </trkpt>
      <trkpt lat="41.980788692" lon="2.525174114">
        <ele>351.02</ele>
        <time>2013-10-20T09:02:53Z</time>
      </trkpt>
      <trkpt lat="41.980790117" lon="2.525185178">
        <ele>351.02</ele>
        <time>2013-10-20T09:03:13Z</time>
      </trkpt>
      <trkpt lat="41.980812916" lon="2.525196493">
        <ele>351.02</ele>
        <time>2013-10-20T09:03:21Z</time>
      </trkpt>
      <trkpt lat="41.980821717" lon="2.525195739">
        <ele>351.02</ele>
        <time>2013-10-20T09:03:30Z</time>
      </trkpt>
      <trkpt lat="41.980832781" lon="2.525203785">
        <ele>351.02</ele>
        <time>2013-10-20T09:03:32Z</time>
      </trkpt>
      <trkpt lat="41.980911822" lon="2.525259190">
        <ele>351.02</ele>
        <time>2013-10-20T09:03:39Z</time>
      </trkpt>
      <trkpt lat="41.980938225" lon="2.525305542">
        <ele>351.02</ele>
        <time>2013-10-20T09:03:43Z</time>
      </trkpt>
      <trkpt lat="41.981014333" lon="2.525410483">
        <ele>351.02</ele>
        <time>2013-10-20T09:03:50Z</time>
      </trkpt>
      <trkpt lat="41.981067809" lon="2.525485166">
        <ele>351.02</ele>
        <time>2013-10-20T09:03:54Z</time>
      </trkpt>
      <trkpt lat="41.981087758" lon="2.525494051">
        <ele>351.02</ele>
        <time>2013-10-20T09:04:01Z</time>
      </trkpt>
      <trkpt lat="41.981094129" lon="2.525487848">
        <ele>351.02</ele>
        <time>2013-10-20T09:04:13Z</time>
      </trkpt>
      <trkpt lat="41.981222875" lon="2.525411154">
        <ele>351.50</ele>
        <time>2013-10-20T09:04:23Z</time>
      </trkpt>
      <trkpt lat="41.981219187" lon="2.525308727">
        <ele>351.98</ele>
        <time>2013-10-20T09:04:28Z</time>
      </trkpt>
      <trkpt lat="41.981140397" lon="2.525126756">
        <ele>353.42</ele>
        <time>2013-10-20T09:04:36Z</time>
      </trkpt>
      <trkpt lat="41.981174008" lon="2.524904635">
        <ele>354.86</ele>
        <time>2013-10-20T09:04:44Z</time>
      </trkpt>
      <trkpt lat="41.981287583" lon="2.524741859">
        <ele>355.83</ele>
        <time>2013-10-20T09:04:52Z</time>
      </trkpt>
      <trkpt lat="41.981427058" lon="2.524529964">
        <ele>358.23</ele>
        <time>2013-10-20T09:05:02Z</time>
      </trkpt>
      <trkpt lat="41.981501657" lon="2.524339360">
        <ele>359.67</ele>
        <time>2013-10-20T09:05:10Z</time>
      </trkpt>
      <trkpt lat="41.981532670" lon="2.524114725">
        <ele>361.59</ele>
        <time>2013-10-20T09:05:19Z</time>
      </trkpt>
      <trkpt lat="41.981558570" lon="2.523868464">
        <ele>363.04</ele>
        <time>2013-10-20T09:05:29Z</time>
      </trkpt>
      <trkpt lat="41.981628894" lon="2.523852706">
        <ele>364.00</ele>
        <time>2013-10-20T09:05:34Z</time>
      </trkpt>
      <trkpt lat="41.981629229" lon="2.523908530">
        <ele>364.48</ele>
        <time>2013-10-20T09:05:36Z</time>
      </trkpt>
      <trkpt lat="41.981582794" lon="2.524097207">
        <ele>365.92</ele>
        <time>2013-10-20T09:05:44Z</time>
      </trkpt>
      <trkpt lat="41.981567120" lon="2.524389316">
        <ele>368.32</ele>
        <time>2013-10-20T09:05:56Z</time>
      </trkpt>
      <trkpt lat="41.981522863" lon="2.524631050">
        <ele>370.24</ele>
        <time>2013-10-20T09:06:06Z</time>
      </trkpt>
      <trkpt lat="41.981457316" lon="2.524810842">
        <ele>372.17</ele>
        <time>2013-10-20T09:06:14Z</time>
      </trkpt>
      <trkpt lat="41.981419011" lon="2.524923495">
        <ele>373.13</ele>
        <time>2013-10-20T09:06:19Z</time>
      </trkpt>
      <trkpt lat="41.981490760" lon="2.524983090">
        <ele>374.09</ele>
        <time>2013-10-20T09:06:24Z</time>
      </trkpt>
      <trkpt lat="41.981507021" lon="2.524958950">
        <ele>374.09</ele>
        <time>2013-10-20T09:06:25Z</time>
      </trkpt>
      <trkpt lat="41.981584973" lon="2.524757701">
        <ele>375.53</ele>
        <time>2013-10-20T09:06:33Z</time>
      </trkpt>
      <trkpt lat="41.981658063" lon="2.524498784">
        <ele>376.97</ele>
        <time>2013-10-20T09:06:43Z</time>
      </trkpt>
      <trkpt lat="41.981697123" lon="2.524274987">
        <ele>378.90</ele>
        <time>2013-10-20T09:06:52Z</time>
      </trkpt>
      <trkpt lat="41.981719335" lon="2.524099218">
        <ele>379.86</ele>
        <time>2013-10-20T09:07:00Z</time>
      </trkpt>
      <trkpt lat="41.981766525" lon="2.523854551">
        <ele>381.78</ele>
        <time>2013-10-20T09:07:09Z</time>
      </trkpt>
      <trkpt lat="41.981810446" lon="2.523606614">
        <ele>383.22</ele>
        <time>2013-10-20T09:07:18Z</time>
      </trkpt>
      <trkpt lat="41.981898205" lon="2.523335208">
        <ele>385.15</ele>
        <time>2013-10-20T09:07:28Z</time>
      </trkpt>
      <trkpt lat="41.982004739" lon="2.523148291">
        <ele>385.63</ele>
        <time>2013-10-20T09:07:35Z</time>
      </trkpt>
      <trkpt lat="41.982197020" lon="2.523075369">
        <ele>386.11</ele>
        <time>2013-10-20T09:07:42Z</time>
      </trkpt>
      <trkpt lat="41.982478149" lon="2.522972355">
        <ele>386.11</ele>
        <time>2013-10-20T09:07:51Z</time>
      </trkpt>
      <trkpt lat="41.982781154" lon="2.522818212">
        <ele>387.07</ele>
        <time>2013-10-20T09:08:02Z</time>
      </trkpt>
      <trkpt lat="41.982946445" lon="2.522754174">
        <ele>388.51</ele>
        <time>2013-10-20T09:08:10Z</time>
      </trkpt>
      <trkpt lat="41.983075527" lon="2.522671613">
        <ele>389.95</ele>
        <time>2013-10-20T09:08:17Z</time>
      </trkpt>
      <trkpt lat="41.983270155" lon="2.522548063">
        <ele>392.36</ele>
        <time>2013-10-20T09:08:27Z</time>
      </trkpt>
      <trkpt lat="41.983416084" lon="2.522429543">
        <ele>394.28</ele>
        <time>2013-10-20T09:08:36Z</time>
      </trkpt>
      <trkpt lat="41.983536196" lon="2.522290990">
        <ele>396.20</ele>
        <time>2013-10-20T09:08:45Z</time>
      </trkpt>
      <trkpt lat="41.983652956" lon="2.522156209">
        <ele>398.60</ele>
        <time>2013-10-20T09:08:54Z</time>
      </trkpt>
      <trkpt lat="41.983782792" lon="2.521997121">
        <ele>400.05</ele>
        <time>2013-10-20T09:09:04Z</time>
      </trkpt>
      <trkpt lat="41.983895445" lon="2.521888659">
        <ele>401.01</ele>
        <time>2013-10-20T09:09:12Z</time>
      </trkpt>
      <trkpt lat="41.984019329" lon="2.521850605">
        <ele>402.93</ele>
        <time>2013-10-20T09:09:20Z</time>
      </trkpt>
      <trkpt lat="41.984109351" lon="2.521957474">
        <ele>403.89</ele>
        <time>2013-10-20T09:09:27Z</time>
      </trkpt>
      <trkpt lat="41.984186297" lon="2.522138272">
        <ele>406.77</ele>
        <time>2013-10-20T09:09:37Z</time>
      </trkpt>
      <trkpt lat="41.984293250" lon="2.522296355">
        <ele>408.70</ele>
        <time>2013-10-20T09:09:46Z</time>
      </trkpt>
      <trkpt lat="41.984393749" lon="2.522432896">
        <ele>410.14</ele>
        <time>2013-10-20T09:09:54Z</time>
      </trkpt>
      <trkpt lat="41.984505228" lon="2.522603384">
        <ele>412.06</ele>
        <time>2013-10-20T09:10:04Z</time>
      </trkpt>
      <trkpt lat="41.984509168" lon="2.522648395">
        <ele>412.06</ele>
        <time>2013-10-20T09:10:06Z</time>
      </trkpt>
      <trkpt lat="41.984451500" lon="2.522700027">
        <ele>412.54</ele>
        <time>2013-10-20T09:10:10Z</time>
      </trkpt>
      <trkpt lat="41.984289981" lon="2.522605563">
        <ele>412.54</ele>
        <time>2013-10-20T09:10:17Z</time>
      </trkpt>
      <trkpt lat="41.984148830" lon="2.522446475">
        <ele>413.02</ele>
        <time>2013-10-20T09:10:25Z</time>
      </trkpt>
      <trkpt lat="41.984002481" lon="2.522305910">
        <ele>413.98</ele>
        <time>2013-10-20T09:10:33Z</time>
      </trkpt>
      <trkpt lat="41.983837023" lon="2.522351340">
        <ele>415.43</ele>
        <time>2013-10-20T09:10:42Z</time>
      </trkpt>
      <trkpt lat="41.983741972" lon="2.522512440">
        <ele>416.39</ele>
        <time>2013-10-20T09:10:49Z</time>
      </trkpt>
      <trkpt lat="41.983676174" lon="2.522755348">
        <ele>417.35</ele>
        <time>2013-10-20T09:10:58Z</time>
      </trkpt>
      <trkpt lat="41.983522534" lon="2.522995908">
        <ele>418.79</ele>
        <time>2013-10-20T09:11:09Z</time>
      </trkpt>
      <trkpt lat="41.983367971" lon="2.523161032">
        <ele>420.23</ele>
        <time>2013-10-20T09:11:18Z</time>
      </trkpt>
      <trkpt lat="41.983183486" lon="2.523345015">
        <ele>421.19</ele>
        <time>2013-10-20T09:11:28Z</time>
      </trkpt>
      <trkpt lat="41.983001766" lon="2.523495721">
        <ele>422.64</ele>
        <time>2013-10-20T09:11:37Z</time>
      </trkpt>
      <trkpt lat="41.982817113" lon="2.523624551">
        <ele>423.60</ele>
        <time>2013-10-20T09:11:46Z</time>
      </trkpt>
      <trkpt lat="41.982818035" lon="2.523701581">
        <ele>425.04</ele>
        <time>2013-10-20T09:11:51Z</time>
      </trkpt>
      <trkpt lat="41.982831781" lon="2.523697977">
        <ele>425.04</ele>
        <time>2013-10-20T09:11:52Z</time>
      </trkpt>
      <trkpt lat="41.983009142" lon="2.523598902">
        <ele>426.48</ele>
        <time>2013-10-20T09:12:01Z</time>
      </trkpt>
      <trkpt lat="41.983147863" lon="2.523495051">
        <ele>427.44</ele>
        <time>2013-10-20T09:12:08Z</time>
      </trkpt>
      <trkpt lat="41.983338802" lon="2.523330933">
        <ele>427.92</ele>
        <time>2013-10-20T09:12:16Z</time>
      </trkpt>
      <trkpt lat="41.983523204" lon="2.523166732">
        <ele>427.92</ele>
        <time>2013-10-20T09:12:23Z</time>
      </trkpt>
      <trkpt lat="41.983756389" lon="2.522887111">
        <ele>428.89</ele>
        <time>2013-10-20T09:12:33Z</time>
      </trkpt>
      <trkpt lat="41.983810787" lon="2.522840256">
        <ele>428.89</ele>
        <time>2013-10-20T09:12:35Z</time>
      </trkpt>
      <trkpt lat="41.983967026" lon="2.522929440">
        <ele>429.37</ele>
        <time>2013-10-20T09:12:41Z</time>
      </trkpt>
      <trkpt lat="41.983988819" lon="2.523207803">
        <ele>429.37</ele>
        <time>2013-10-20T09:12:47Z</time>
      </trkpt>
      <trkpt lat="41.983903491" lon="2.523531261">
        <ele>430.33</ele>
        <time>2013-10-20T09:12:55Z</time>
      </trkpt>
      <trkpt lat="41.983813805" lon="2.523771151">
        <ele>430.33</ele>
        <time>2013-10-20T09:13:01Z</time>
      </trkpt>
      <trkpt lat="41.983839537" lon="2.523962845">
        <ele>430.33</ele>
        <time>2013-10-20T09:13:05Z</time>
      </trkpt>
      <trkpt lat="41.984002230" lon="2.524110701">
        <ele>430.33</ele>
        <time>2013-10-20T09:13:11Z</time>
      </trkpt>
      <trkpt lat="41.984265086" lon="2.524212793">
        <ele>430.33</ele>
        <time>2013-10-20T09:13:19Z</time>
      </trkpt>
      <trkpt lat="41.984406405" lon="2.524110031">
        <ele>430.33</ele>
        <time>2013-10-20T09:13:24Z</time>
      </trkpt>
      <trkpt lat="41.984530541" lon="2.523814234">
        <ele>429.37</ele>
        <time>2013-10-20T09:13:31Z</time>
      </trkpt>
      <trkpt lat="41.984686612" lon="2.523506702">
        <ele>429.37</ele>
        <time>2013-10-20T09:13:40Z</time>
      </trkpt>
      <trkpt lat="41.984772024" lon="2.523458422">
        <ele>430.81</ele>
        <time>2013-10-20T09:13:43Z</time>
      </trkpt>
      <trkpt lat="41.984923653" lon="2.523501421">
        <ele>431.77</ele>
        <time>2013-10-20T09:13:49Z</time>
      </trkpt>
      <trkpt lat="41.985033456" lon="2.523627401">
        <ele>434.17</ele>
        <time>2013-10-20T09:13:57Z</time>
      </trkpt>
      <trkpt lat="41.985082322" lon="2.523663443">
        <ele>435.13</ele>
        <time>2013-10-20T09:14:01Z</time>
      </trkpt>
      <trkpt lat="41.985129512" lon="2.523689930">
        <ele>436.10</ele>
        <time>2013-10-20T09:14:05Z</time>
      </trkpt>
      <trkpt lat="41.985263036" lon="2.523721781">
        <ele>438.98</ele>
        <time>2013-10-20T09:14:15Z</time>
      </trkpt>
      <trkpt lat="41.985376192" lon="2.523770899">
        <ele>441.38</ele>
        <time>2013-10-20T09:14:24Z</time>
      </trkpt>
      <trkpt lat="41.985528072" lon="2.523814317">
        <ele>443.79</ele>
        <time>2013-10-20T09:14:36Z</time>
      </trkpt>
      <trkpt lat="41.985631756" lon="2.523808953">
        <ele>446.19</ele>
        <time>2013-10-20T09:14:44Z</time>
      </trkpt>
      <trkpt lat="41.985776679" lon="2.523820352">
        <ele>448.59</ele>
        <time>2013-10-20T09:14:54Z</time>
      </trkpt>
      <trkpt lat="41.985908191" lon="2.523884558">
        <ele>451.00</ele>
        <time>2013-10-20T09:15:03Z</time>
      </trkpt>
      <trkpt lat="41.985929732" lon="2.523913643">
        <ele>451.00</ele>
        <time>2013-10-20T09:15:05Z</time>
      </trkpt>
      <trkpt lat="41.985904587" lon="2.524084298">
        <ele>451.96</ele>
        <time>2013-10-20T09:15:13Z</time>
      </trkpt>
      <trkpt lat="41.985783133" lon="2.524214805">
        <ele>451.96</ele>
        <time>2013-10-20T09:15:21Z</time>
      </trkpt>
      <trkpt lat="41.985653800" lon="2.524324775">
        <ele>452.44</ele>
        <time>2013-10-20T09:15:29Z</time>
      </trkpt>
      <trkpt lat="41.985525725" lon="2.524411277">
        <ele>453.88</ele>
        <time>2013-10-20T09:15:37Z</time>
      </trkpt>
      <trkpt lat="41.985483061" lon="2.524452683">
        <ele>454.36</ele>
        <time>2013-10-20T09:15:40Z</time>
      </trkpt>
      <trkpt lat="41.985521366" lon="2.524532144">
        <ele>456.28</ele>
        <time>2013-10-20T09:15:47Z</time>
      </trkpt>
      <trkpt lat="41.985573166" lon="2.524519068">
        <ele>457.24</ele>
        <time>2013-10-20T09:15:51Z</time>
      </trkpt>
      <trkpt lat="41.985670061" lon="2.524477829">
        <ele>458.69</ele>
        <time>2013-10-20T09:15:58Z</time>
      </trkpt>
      <trkpt lat="41.985738122" lon="2.524444636">
        <ele>459.65</ele>
        <time>2013-10-20T09:16:03Z</time>
      </trkpt>
      <trkpt lat="41.985858654" lon="2.524398452">
        <ele>461.57</ele>
        <time>2013-10-20T09:16:11Z</time>
      </trkpt>
      <trkpt lat="41.986016401" lon="2.524337516">
        <ele>463.97</ele>
        <time>2013-10-20T09:16:21Z</time>
      </trkpt>
      <trkpt lat="41.986131653" lon="2.524338522">
        <ele>465.90</ele>
        <time>2013-10-20T09:16:29Z</time>
      </trkpt>
      <trkpt lat="41.986287556" lon="2.524391663">
        <ele>468.30</ele>
        <time>2013-10-20T09:16:40Z</time>
      </trkpt>
      <trkpt lat="41.986320748" lon="2.524405493">
        <ele>469.74</ele>
        <time>2013-10-20T09:16:43Z</time>
      </trkpt>
      <trkpt lat="41.986412865" lon="2.524431896">
        <ele>471.18</ele>
        <time>2013-10-20T09:16:50Z</time>
      </trkpt>
      <trkpt lat="41.986542282" lon="2.524449666">
        <ele>473.11</ele>
        <time>2013-10-20T09:16:59Z</time>
      </trkpt>
      <trkpt lat="41.986627107" lon="2.524474308">
        <ele>474.07</ele>
        <time>2013-10-20T09:17:05Z</time>
      </trkpt>
      <trkpt lat="41.986792146" lon="2.524527450">
        <ele>476.95</ele>
        <time>2013-10-20T09:17:16Z</time>
      </trkpt>
      <trkpt lat="41.986938243" lon="2.524548321">
        <ele>478.87</ele>
        <time>2013-10-20T09:17:26Z</time>
      </trkpt>
      <trkpt lat="41.986967412" lon="2.524548907">
        <ele>479.35</ele>
        <time>2013-10-20T09:17:28Z</time>
      </trkpt>
      <trkpt lat="41.987065564" lon="2.524559469">
        <ele>480.32</ele>
        <time>2013-10-20T09:17:34Z</time>
      </trkpt>
      <trkpt lat="41.987280476" lon="2.524598864">
        <ele>482.24</ele>
        <time>2013-10-20T09:17:46Z</time>
      </trkpt>
      <trkpt lat="41.987426321" lon="2.524634319">
        <ele>483.68</ele>
        <time>2013-10-20T09:17:54Z</time>
      </trkpt>
      <trkpt lat="41.987578872" lon="2.524699111">
        <ele>486.08</ele>
        <time>2013-10-20T09:18:03Z</time>
      </trkpt>
      <trkpt lat="41.987723795" lon="2.524729286">
        <ele>487.05</ele>
        <time>2013-10-20T09:18:11Z</time>
      </trkpt>
      <trkpt lat="41.987904341" lon="2.524679497">
        <ele>488.01</ele>
        <time>2013-10-20T09:18:20Z</time>
      </trkpt>
      <trkpt lat="41.988050103" lon="2.524591571">
        <ele>490.41</ele>
        <time>2013-10-20T09:18:29Z</time>
      </trkpt>
      <trkpt lat="41.988208604" lon="2.524556786">
        <ele>492.81</ele>
        <time>2013-10-20T09:18:38Z</time>
      </trkpt>
      <trkpt lat="41.988351348" lon="2.524606072">
        <ele>493.29</ele>
        <time>2013-10-20T09:18:45Z</time>
      </trkpt>
      <trkpt lat="41.988476825" lon="2.524749654">
        <ele>495.22</ele>
        <time>2013-10-20T09:18:53Z</time>
      </trkpt>
      <trkpt lat="41.988571289" lon="2.524904719">
        <ele>496.66</ele>
        <time>2013-10-20T09:19:01Z</time>
      </trkpt>
      <trkpt lat="41.988621413" lon="2.525032711">
        <ele>497.62</ele>
        <time>2013-10-20T09:19:07Z</time>
      </trkpt>
      <trkpt lat="41.988664580" lon="2.525173946">
        <ele>499.06</ele>
        <time>2013-10-20T09:19:14Z</time>
      </trkpt>
      <trkpt lat="41.988679919" lon="2.525233625">
        <ele>499.54</ele>
        <time>2013-10-20T09:19:17Z</time>
      </trkpt>
      <trkpt lat="41.988735239" lon="2.525395228">
        <ele>500.98</ele>
        <time>2013-10-20T09:19:25Z</time>
      </trkpt>
      <trkpt lat="41.988775975" lon="2.525500421">
        <ele>502.43</ele>
        <time>2013-10-20T09:19:30Z</time>
      </trkpt>
      <trkpt lat="41.988856358" lon="2.525635537">
        <ele>503.87</ele>
        <time>2013-10-20T09:19:38Z</time>
      </trkpt>
      <trkpt lat="41.988888377" lon="2.525689768">
        <ele>504.35</ele>
        <time>2013-10-20T09:19:41Z</time>
      </trkpt>
      <trkpt lat="41.988914863" lon="2.525756823">
        <ele>505.31</ele>
        <time>2013-10-20T09:19:45Z</time>
      </trkpt>
      <trkpt lat="41.988938836" lon="2.525807618">
        <ele>505.79</ele>
        <time>2013-10-20T09:19:48Z</time>
      </trkpt>
      <trkpt lat="41.989009998" lon="2.525965868">
        <ele>507.71</ele>
        <time>2013-10-20T09:19:57Z</time>
      </trkpt>
      <trkpt lat="41.989053416" lon="2.526102745">
        <ele>509.64</ele>
        <time>2013-10-20T09:20:04Z</time>
      </trkpt>
      <trkpt lat="41.989067414" lon="2.526171811">
        <ele>510.60</ele>
        <time>2013-10-20T09:20:08Z</time>
      </trkpt>
      <trkpt lat="41.989112006" lon="2.526356130">
        <ele>512.52</ele>
        <time>2013-10-20T09:20:18Z</time>
      </trkpt>
      <trkpt lat="41.989159447" lon="2.526492252">
        <ele>513.96</ele>
        <time>2013-10-20T09:20:25Z</time>
      </trkpt>
      <trkpt lat="41.989240836" lon="2.526645976">
        <ele>515.40</ele>
        <time>2013-10-20T09:20:32Z</time>
      </trkpt>
      <trkpt lat="41.989332785" lon="2.526779248">
        <ele>516.85</ele>
        <time>2013-10-20T09:20:39Z</time>
      </trkpt>
      <trkpt lat="41.989424232" lon="2.526907491">
        <ele>518.29</ele>
        <time>2013-10-20T09:20:47Z</time>
      </trkpt>
      <trkpt lat="41.989488353" lon="2.527025927">
        <ele>520.21</ele>
        <time>2013-10-20T09:20:54Z</time>
      </trkpt>
      <trkpt lat="41.989534035" lon="2.527190716">
        <ele>522.61</ele>
        <time>2013-10-20T09:21:03Z</time>
      </trkpt>
      <trkpt lat="41.989600503" lon="2.527342428">
        <ele>525.50</ele>
        <time>2013-10-20T09:21:12Z</time>
      </trkpt>
      <trkpt lat="41.989647945" lon="2.527420212">
        <ele>526.46</ele>
        <time>2013-10-20T09:21:17Z</time>
      </trkpt>
      <trkpt lat="41.989711815" lon="2.527493302">
        <ele>527.90</ele>
        <time>2013-10-20T09:21:23Z</time>
      </trkpt>
      <trkpt lat="41.989790605" lon="2.527594975">
        <ele>529.82</ele>
        <time>2013-10-20T09:21:31Z</time>
      </trkpt>
      <trkpt lat="41.989908622" lon="2.527674854">
        <ele>531.75</ele>
        <time>2013-10-20T09:21:41Z</time>
      </trkpt>
      <trkpt lat="41.989950615" lon="2.527707292">
        <ele>532.71</ele>
        <time>2013-10-20T09:21:44Z</time>
      </trkpt>
      <trkpt lat="41.989998560" lon="2.527758003">
        <ele>532.71</ele>
        <time>2013-10-20T09:21:48Z</time>
      </trkpt>
      <trkpt lat="41.990096712" lon="2.527873003">
        <ele>533.67</ele>
        <time>2013-10-20T09:21:56Z</time>
      </trkpt>
      <trkpt lat="41.990192182" lon="2.528007867">
        <ele>534.15</ele>
        <time>2013-10-20T09:22:04Z</time>
      </trkpt>
      <trkpt lat="41.990301230" lon="2.528144073">
        <ele>534.63</ele>
        <time>2013-10-20T09:22:13Z</time>
      </trkpt>
      <trkpt lat="41.990394102" lon="2.528238118">
        <ele>536.07</ele>
        <time>2013-10-20T09:22:21Z</time>
      </trkpt>
      <trkpt lat="41.990491667" lon="2.528338282">
        <ele>537.99</ele>
        <time>2013-10-20T09:22:29Z</time>
      </trkpt>
      <trkpt lat="41.990600129" lon="2.528457640">
        <ele>541.36</ele>
        <time>2013-10-20T09:22:40Z</time>
      </trkpt>
      <trkpt lat="41.990619994" lon="2.528477422">
        <ele>541.84</ele>
        <time>2013-10-20T09:22:42Z</time>
      </trkpt>
      <trkpt lat="41.990727701" lon="2.528557972">
        <ele>544.24</ele>
        <time>2013-10-20T09:22:51Z</time>
      </trkpt>
      <trkpt lat="41.990811940" lon="2.528623099">
        <ele>545.69</ele>
        <time>2013-10-20T09:22:58Z</time>
      </trkpt>
      <trkpt lat="41.990850580" lon="2.528649167">
        <ele>546.65</ele>
        <time>2013-10-20T09:23:01Z</time>
      </trkpt>
      <trkpt lat="41.990921240" lon="2.528670457">
        <ele>547.61</ele>
        <time>2013-10-20T09:23:07Z</time>
      </trkpt>
      <trkpt lat="41.991080496" lon="2.528600636">
        <ele>550.01</ele>
        <time>2013-10-20T09:23:18Z</time>
      </trkpt>
      <trkpt lat="41.991241345" lon="2.528540621">
        <ele>552.90</ele>
        <time>2013-10-20T09:23:30Z</time>
      </trkpt>
      <trkpt lat="41.991380484" lon="2.528568030">
        <ele>555.30</ele>
        <time>2013-10-20T09:23:40Z</time>
      </trkpt>
      <trkpt lat="41.991529850" lon="2.528585213">
        <ele>556.74</ele>
        <time>2013-10-20T09:23:51Z</time>
      </trkpt>
      <trkpt lat="41.991652309" lon="2.528578340">
        <ele>558.18</ele>
        <time>2013-10-20T09:24:00Z</time>
      </trkpt>
      <trkpt lat="41.991829167" lon="2.528573981">
        <ele>560.11</ele>
        <time>2013-10-20T09:24:12Z</time>
      </trkpt>
      <trkpt lat="41.991993872" lon="2.528568449">
        <ele>562.51</ele>
        <time>2013-10-20T09:24:23Z</time>
      </trkpt>
      <trkpt lat="41.992067549" lon="2.528554032">
        <ele>563.47</ele>
        <time>2013-10-20T09:24:28Z</time>
      </trkpt>
      <trkpt lat="41.992237534" lon="2.528463424">
        <ele>565.39</ele>
        <time>2013-10-20T09:24:40Z</time>
      </trkpt>
      <trkpt lat="41.992342056" lon="2.528352196">
        <ele>567.32</ele>
        <time>2013-10-20T09:24:49Z</time>
      </trkpt>
      <trkpt lat="41.992359993" lon="2.528221941">
        <ele>567.80</ele>
        <time>2013-10-20T09:24:56Z</time>
      </trkpt>
      <trkpt lat="41.992353791" lon="2.528206099">
        <ele>567.80</ele>
        <time>2013-10-20T09:24:57Z</time>
      </trkpt>
      <trkpt lat="41.992346750" lon="2.528146672">
        <ele>568.28</ele>
        <time>2013-10-20T09:25:01Z</time>
      </trkpt>
      <trkpt lat="41.992298805" lon="2.527985571">
        <ele>570.20</ele>
        <time>2013-10-20T09:25:11Z</time>
      </trkpt>
      <trkpt lat="41.992261087" lon="2.527802092">
        <ele>572.12</ele>
        <time>2013-10-20T09:25:21Z</time>
      </trkpt>
      <trkpt lat="41.992235857" lon="2.527646104">
        <ele>574.04</ele>
        <time>2013-10-20T09:25:30Z</time>
      </trkpt>
      <trkpt lat="41.992213310" lon="2.527471090">
        <ele>575.97</ele>
        <time>2013-10-20T09:25:40Z</time>
      </trkpt>
      <trkpt lat="41.992199564" lon="2.527278726">
        <ele>577.89</ele>
        <time>2013-10-20T09:25:51Z</time>
      </trkpt>
      <trkpt lat="41.992200653" lon="2.527241426">
        <ele>578.37</ele>
        <time>2013-10-20T09:25:53Z</time>
      </trkpt>
      <trkpt lat="41.992211717" lon="2.527188452">
        <ele>578.85</ele>
        <time>2013-10-20T09:25:57Z</time>
      </trkpt>
      <trkpt lat="41.992221776" lon="2.527063394">
        <ele>580.29</ele>
        <time>2013-10-20T09:26:06Z</time>
      </trkpt>
      <trkpt lat="41.992252286" lon="2.527041266">
        <ele>580.77</ele>
        <time>2013-10-20T09:26:10Z</time>
      </trkpt>
      <trkpt lat="41.992271313" lon="2.527040847">
        <ele>581.25</ele>
        <time>2013-10-20T09:26:12Z</time>
      </trkpt>
      <trkpt lat="41.992281623" lon="2.527104131">
        <ele>581.73</ele>
        <time>2013-10-20T09:26:17Z</time>
      </trkpt>
      <trkpt lat="41.992269804" lon="2.527283168">
        <ele>583.66</ele>
        <time>2013-10-20T09:26:27Z</time>
      </trkpt>
      <trkpt lat="41.992304254" lon="2.527443514">
        <ele>585.10</ele>
        <time>2013-10-20T09:26:36Z</time>
      </trkpt>
      <trkpt lat="41.992361334" lon="2.527577289">
        <ele>586.54</ele>
        <time>2013-10-20T09:26:45Z</time>
      </trkpt>
      <trkpt lat="41.992443729" lon="2.527733192">
        <ele>587.98</ele>
        <time>2013-10-20T09:26:55Z</time>
      </trkpt>
      <trkpt lat="41.992535259" lon="2.527883983">
        <ele>589.43</ele>
        <time>2013-10-20T09:27:05Z</time>
      </trkpt>
      <trkpt lat="41.992635339" lon="2.528019434">
        <ele>590.87</ele>
        <time>2013-10-20T09:27:15Z</time>
      </trkpt>
      <trkpt lat="41.992738772" lon="2.528148516">
        <ele>591.83</ele>
        <time>2013-10-20T09:27:24Z</time>
      </trkpt>
      <trkpt lat="41.992800630" lon="2.528262174">
        <ele>592.79</ele>
        <time>2013-10-20T09:27:31Z</time>
      </trkpt>
      <trkpt lat="41.992806162" lon="2.528407936">
        <ele>594.23</ele>
        <time>2013-10-20T09:27:39Z</time>
      </trkpt>
      <trkpt lat="41.992731479" lon="2.528559648">
        <ele>595.67</ele>
        <time>2013-10-20T09:27:48Z</time>
      </trkpt>
      <trkpt lat="41.992630645" lon="2.528699207">
        <ele>596.64</ele>
        <time>2013-10-20T09:27:57Z</time>
      </trkpt>
      <trkpt lat="41.992555040" lon="2.528829042">
        <ele>598.08</ele>
        <time>2013-10-20T09:28:06Z</time>
      </trkpt>
      <trkpt lat="41.992453200" lon="2.528972876">
        <ele>599.52</ele>
        <time>2013-10-20T09:28:15Z</time>
      </trkpt>
      <trkpt lat="41.992353372" lon="2.529087959">
        <ele>600.48</ele>
        <time>2013-10-20T09:28:23Z</time>
      </trkpt>
      <trkpt lat="41.992216579" lon="2.529229111">
        <ele>601.92</ele>
        <time>2013-10-20T09:28:34Z</time>
      </trkpt>
      <trkpt lat="41.992101831" lon="2.529262052">
        <ele>602.88</ele>
        <time>2013-10-20T09:28:42Z</time>
      </trkpt>
      <trkpt lat="41.991944921" lon="2.529279318">
        <ele>604.33</ele>
        <time>2013-10-20T09:28:51Z</time>
      </trkpt>
      <trkpt lat="41.991804189" lon="2.529323994">
        <ele>605.29</ele>
        <time>2013-10-20T09:28:59Z</time>
      </trkpt>
      <trkpt lat="41.991736044" lon="2.529474868">
        <ele>607.21</ele>
        <time>2013-10-20T09:29:07Z</time>
      </trkpt>
      <trkpt lat="41.991768818" lon="2.529653738">
        <ele>608.17</ele>
        <time>2013-10-20T09:29:15Z</time>
      </trkpt>
      <trkpt lat="41.991781391" lon="2.529835206">
        <ele>610.09</ele>
        <time>2013-10-20T09:29:24Z</time>
      </trkpt>
      <trkpt lat="41.991824641" lon="2.530050956">
        <ele>611.54</ele>
        <time>2013-10-20T09:29:34Z</time>
      </trkpt>
      <trkpt lat="41.991919105" lon="2.530269640">
        <ele>612.98</ele>
        <time>2013-10-20T09:29:44Z</time>
      </trkpt>
      <trkpt lat="41.992013066" lon="2.530547249">
        <ele>614.42</ele>
        <time>2013-10-20T09:29:56Z</time>
      </trkpt>
      <trkpt lat="41.992015329" lon="2.530744894">
        <ele>615.86</ele>
        <time>2013-10-20T09:30:04Z</time>
      </trkpt>
      <trkpt lat="41.992013066" lon="2.530934576">
        <ele>617.30</ele>
        <time>2013-10-20T09:30:12Z</time>
      </trkpt>
      <trkpt lat="41.992035781" lon="2.531164744">
        <ele>618.75</ele>
        <time>2013-10-20T09:30:22Z</time>
      </trkpt>
      <trkpt lat="41.992096382" lon="2.531383008">
        <ele>620.19</ele>
        <time>2013-10-20T09:30:32Z</time>
      </trkpt>
      <trkpt lat="41.992169473" lon="2.531549557">
        <ele>621.63</ele>
        <time>2013-10-20T09:30:40Z</time>
      </trkpt>
      <trkpt lat="41.992245245" lon="2.531723062">
        <ele>622.11</ele>
        <time>2013-10-20T09:30:49Z</time>
      </trkpt>
      <trkpt lat="41.992232505" lon="2.531876870">
        <ele>623.55</ele>
        <time>2013-10-20T09:30:57Z</time>
      </trkpt>
      <trkpt lat="41.992200402" lon="2.532066301">
        <ele>625.96</ele>
        <time>2013-10-20T09:31:07Z</time>
      </trkpt>
      <trkpt lat="41.992187578" lon="2.532309209">
        <ele>628.36</ele>
        <time>2013-10-20T09:31:19Z</time>
      </trkpt>
      <trkpt lat="41.992152541" lon="2.532488246">
        <ele>630.28</ele>
        <time>2013-10-20T09:31:28Z</time>
      </trkpt>
      <trkpt lat="41.992104094" lon="2.532694776">
        <ele>632.68</ele>
        <time>2013-10-20T09:31:38Z</time>
      </trkpt>
      <trkpt lat="41.992061681" lon="2.532911700">
        <ele>634.61</ele>
        <time>2013-10-20T09:31:48Z</time>
      </trkpt>
      <trkpt lat="41.992089928" lon="2.533113536">
        <ele>635.57</ele>
        <time>2013-10-20T09:31:57Z</time>
      </trkpt>
      <trkpt lat="41.992146339" lon="2.533323922">
        <ele>636.53</ele>
        <time>2013-10-20T09:32:06Z</time>
      </trkpt>
      <trkpt lat="41.992239378" lon="2.533513185">
        <ele>637.97</ele>
        <time>2013-10-20T09:32:16Z</time>
      </trkpt>
      <trkpt lat="41.992401651" lon="2.533676968">
        <ele>639.41</ele>
        <time>2013-10-20T09:32:28Z</time>
      </trkpt>
      <trkpt lat="41.992564763" lon="2.533800517">
        <ele>640.38</ele>
        <time>2013-10-20T09:32:39Z</time>
      </trkpt>
      <trkpt lat="41.992701053" lon="2.533912918">
        <ele>641.82</ele>
        <time>2013-10-20T09:32:48Z</time>
      </trkpt>
      <trkpt lat="41.992846982" lon="2.534025739">
        <ele>643.26</ele>
        <time>2013-10-20T09:32:58Z</time>
      </trkpt>
      <trkpt lat="41.992988468" lon="2.534092878">
        <ele>644.22</ele>
        <time>2013-10-20T09:33:07Z</time>
      </trkpt>
      <trkpt lat="41.993046052" lon="2.534120203">
        <ele>645.18</ele>
        <time>2013-10-20T09:33:11Z</time>
      </trkpt>
      <trkpt lat="41.993197765" lon="2.534216930">
        <ele>646.62</ele>
        <time>2013-10-20T09:33:21Z</time>
      </trkpt>
      <trkpt lat="41.993317710" lon="2.534364284">
        <ele>648.55</ele>
        <time>2013-10-20T09:33:30Z</time>
      </trkpt>
      <trkpt lat="41.993405217" lon="2.534580704">
        <ele>649.99</ele>
        <time>2013-10-20T09:33:40Z</time>
      </trkpt>
      <trkpt lat="41.993497166" lon="2.534796957">
        <ele>650.95</ele>
        <time>2013-10-20T09:33:50Z</time>
      </trkpt>
      <trkpt lat="41.993600180" lon="2.535016731">
        <ele>652.39</ele>
        <time>2013-10-20T09:34:00Z</time>
      </trkpt>
      <trkpt lat="41.993697745" lon="2.535200965">
        <ele>652.87</ele>
        <time>2013-10-20T09:34:08Z</time>
      </trkpt>
      <trkpt lat="41.993718951" lon="2.535383691">
        <ele>653.83</ele>
        <time>2013-10-20T09:34:15Z</time>
      </trkpt>
      <trkpt lat="41.993632953" lon="2.535548563">
        <ele>655.28</ele>
        <time>2013-10-20T09:34:24Z</time>
      </trkpt>
      <trkpt lat="41.993456430" lon="2.535697677">
        <ele>656.72</ele>
        <time>2013-10-20T09:34:35Z</time>
      </trkpt>
      <trkpt lat="41.993394069" lon="2.535840504">
        <ele>658.64</ele>
        <time>2013-10-20T09:34:43Z</time>
      </trkpt>
      <trkpt lat="41.993479480" lon="2.535861878">
        <ele>659.60</ele>
        <time>2013-10-20T09:34:49Z</time>
      </trkpt>
      <trkpt lat="41.993634546" lon="2.535738329">
        <ele>661.52</ele>
        <time>2013-10-20T09:34:59Z</time>
      </trkpt>
      <trkpt lat="41.993753401" lon="2.535657444">
        <ele>662.49</ele>
        <time>2013-10-20T09:35:07Z</time>
      </trkpt>
      <trkpt lat="41.993847111" lon="2.535555771">
        <ele>663.45</ele>
        <time>2013-10-20T09:35:14Z</time>
      </trkpt>
      <trkpt lat="41.993918608" lon="2.535418140">
        <ele>664.41</ele>
        <time>2013-10-20T09:35:21Z</time>
      </trkpt>
      <trkpt lat="41.993967307" lon="2.535227871">
        <ele>665.85</ele>
        <time>2013-10-20T09:35:30Z</time>
      </trkpt>
      <trkpt lat="41.993938976" lon="2.535084289">
        <ele>667.77</ele>
        <time>2013-10-20T09:35:38Z</time>
      </trkpt>
      <trkpt lat="41.993892373" lon="2.534945569">
        <ele>669.22</ele>
        <time>2013-10-20T09:35:46Z</time>
      </trkpt>
      <trkpt lat="41.993845937" lon="2.534759658">
        <ele>671.62</ele>
        <time>2013-10-20T09:35:57Z</time>
      </trkpt>
      <trkpt lat="41.993818277" lon="2.534598893">
        <ele>673.06</ele>
        <time>2013-10-20T09:36:06Z</time>
      </trkpt>
      <trkpt lat="41.993790784" lon="2.534390687">
        <ele>675.46</ele>
        <time>2013-10-20T09:36:17Z</time>
      </trkpt>
      <trkpt lat="41.993776870" lon="2.534329415">
        <ele>676.42</ele>
        <time>2013-10-20T09:36:20Z</time>
      </trkpt>
      <trkpt lat="41.993758179" lon="2.534173931">
        <ele>678.35</ele>
        <time>2013-10-20T09:36:29Z</time>
      </trkpt>
      <trkpt lat="41.993736134" lon="2.534004700">
        <ele>679.79</ele>
        <time>2013-10-20T09:36:38Z</time>
      </trkpt>
      <trkpt lat="41.993704115" lon="2.533791632">
        <ele>682.19</ele>
        <time>2013-10-20T09:36:49Z</time>
      </trkpt>
      <trkpt lat="41.993629516" lon="2.533617456">
        <ele>683.15</ele>
        <time>2013-10-20T09:36:59Z</time>
      </trkpt>
      <trkpt lat="41.993558438" lon="2.533425678">
        <ele>684.12</ele>
        <time>2013-10-20T09:37:08Z</time>
      </trkpt>
      <trkpt lat="41.993544524" lon="2.533184615">
        <ele>685.08</ele>
        <time>2013-10-20T09:37:17Z</time>
      </trkpt>
      <trkpt lat="41.993562377" lon="2.532962913">
        <ele>687.00</ele>
        <time>2013-10-20T09:37:26Z</time>
      </trkpt>
      <trkpt lat="41.993570424" lon="2.532690166">
        <ele>688.92</ele>
        <time>2013-10-20T09:37:38Z</time>
      </trkpt>
      <trkpt lat="41.993571262" lon="2.532437200">
        <ele>689.88</ele>
        <time>2013-10-20T09:37:48Z</time>
      </trkpt>
      <trkpt lat="41.993581740" lon="2.532210302">
        <ele>690.84</ele>
        <time>2013-10-20T09:37:57Z</time>
      </trkpt>
      <trkpt lat="41.993582242" lon="2.531977034">
        <ele>692.29</ele>
        <time>2013-10-20T09:38:06Z</time>
      </trkpt>
      <trkpt lat="41.993582662" lon="2.531779640">
        <ele>693.25</ele>
        <time>2013-10-20T09:38:15Z</time>
      </trkpt>
      <trkpt lat="41.993658350" lon="2.531779556">
        <ele>695.17</ele>
        <time>2013-10-20T09:38:22Z</time>
      </trkpt>
      <trkpt lat="41.993679305" lon="2.531845522">
        <ele>696.61</ele>
        <time>2013-10-20T09:38:26Z</time>
      </trkpt>
      <trkpt lat="41.993709815" lon="2.532036210">
        <ele>699.02</ele>
        <time>2013-10-20T09:38:37Z</time>
      </trkpt>
      <trkpt lat="41.993736637" lon="2.532246177">
        <ele>701.42</ele>
        <time>2013-10-20T09:38:48Z</time>
      </trkpt>
      <trkpt lat="41.993755329" lon="2.532391267">
        <ele>703.34</ele>
        <time>2013-10-20T09:38:56Z</time>
      </trkpt>
      <trkpt lat="41.993763208" lon="2.532532000">
        <ele>704.78</ele>
        <time>2013-10-20T09:39:04Z</time>
      </trkpt>
      <trkpt lat="41.993815930" lon="2.532722269">
        <ele>707.19</ele>
        <time>2013-10-20T09:39:15Z</time>
      </trkpt>
      <trkpt lat="41.993874687" lon="2.532845064">
        <ele>708.15</ele>
        <time>2013-10-20T09:39:23Z</time>
      </trkpt>
      <trkpt lat="41.993954986" lon="2.533014378">
        <ele>710.55</ele>
        <time>2013-10-20T09:39:34Z</time>
      </trkpt>
      <trkpt lat="41.994013408" lon="2.533134910">
        <ele>711.99</ele>
        <time>2013-10-20T09:39:42Z</time>
      </trkpt>
      <trkpt lat="41.994072416" lon="2.533307661">
        <ele>714.40</ele>
        <time>2013-10-20T09:39:52Z</time>
      </trkpt>
      <trkpt lat="41.994103010" lon="2.533476389">
        <ele>715.84</ele>
        <time>2013-10-20T09:40:01Z</time>
      </trkpt>
      <trkpt lat="41.994148775" lon="2.533629442">
        <ele>717.28</ele>
        <time>2013-10-20T09:40:09Z</time>
      </trkpt>
      <trkpt lat="41.994210131" lon="2.533805378">
        <ele>718.24</ele>
        <time>2013-10-20T09:40:18Z</time>
      </trkpt>
      <trkpt lat="41.994291016" lon="2.533957594">
        <ele>719.20</ele>
        <time>2013-10-20T09:40:26Z</time>
      </trkpt>
      <trkpt lat="41.994428898" lon="2.534142079">
        <ele>721.13</ele>
        <time>2013-10-20T09:40:37Z</time>
      </trkpt>
      <trkpt lat="41.994546161" lon="2.534290691">
        <ele>722.09</ele>
        <time>2013-10-20T09:40:46Z</time>
      </trkpt>
      <trkpt lat="41.994649343" lon="2.534434775">
        <ele>723.53</ele>
        <time>2013-10-20T09:40:55Z</time>
      </trkpt>
      <trkpt lat="41.994744477" lon="2.534564695">
        <ele>724.97</ele>
        <time>2013-10-20T09:41:03Z</time>
      </trkpt>
      <trkpt lat="41.994843467" lon="2.534707690">
        <ele>726.89</ele>
        <time>2013-10-20T09:41:13Z</time>
      </trkpt>
      <trkpt lat="41.994910606" lon="2.534830569">
        <ele>728.34</ele>
        <time>2013-10-20T09:41:21Z</time>
      </trkpt>
      <trkpt lat="41.994966262" lon="2.534968954">
        <ele>729.78</ele>
        <time>2013-10-20T09:41:29Z</time>
      </trkpt>
      <trkpt lat="41.995004735" lon="2.535124019">
        <ele>731.70</ele>
        <time>2013-10-20T09:41:38Z</time>
      </trkpt>
      <trkpt lat="41.995009848" lon="2.535161486">
        <ele>731.70</ele>
        <time>2013-10-20T09:41:40Z</time>
      </trkpt>
      <trkpt lat="41.995028037" lon="2.535282186">
        <ele>733.62</ele>
        <time>2013-10-20T09:41:47Z</time>
      </trkpt>
      <trkpt lat="41.995017057" lon="2.535494583">
        <ele>735.55</ele>
        <time>2013-10-20T09:41:58Z</time>
      </trkpt>
      <trkpt lat="41.995005825" lon="2.535606649">
        <ele>736.99</ele>
        <time>2013-10-20T09:42:04Z</time>
      </trkpt>
      <trkpt lat="41.994998197" lon="2.535874116">
        <ele>738.43</ele>
        <time>2013-10-20T09:42:17Z</time>
      </trkpt>
      <trkpt lat="41.995012614" lon="2.536108390">
        <ele>739.87</ele>
        <time>2013-10-20T09:42:27Z</time>
      </trkpt>
      <trkpt lat="41.995137253" lon="2.536291702">
        <ele>741.79</ele>
        <time>2013-10-20T09:42:38Z</time>
      </trkpt>
      <trkpt lat="41.995220988" lon="2.536384574">
        <ele>743.24</ele>
        <time>2013-10-20T09:42:46Z</time>
      </trkpt>
      <trkpt lat="41.995319140" lon="2.536504519">
        <ele>745.64</ele>
        <time>2013-10-20T09:42:56Z</time>
      </trkpt>
      <trkpt lat="41.995371276" lon="2.536633516">
        <ele>748.04</ele>
        <time>2013-10-20T09:43:05Z</time>
      </trkpt>
      <trkpt lat="41.995399858" lon="2.536772740">
        <ele>749.97</ele>
        <time>2013-10-20T09:43:13Z</time>
      </trkpt>
      <trkpt lat="41.995409665" lon="2.536867623">
        <ele>750.93</ele>
        <time>2013-10-20T09:43:18Z</time>
      </trkpt>
      <trkpt lat="41.995398936" lon="2.537056802">
        <ele>753.33</ele>
        <time>2013-10-20T09:43:30Z</time>
      </trkpt>
      <trkpt lat="41.995407067" lon="2.537231314">
        <ele>756.21</ele>
        <time>2013-10-20T09:43:41Z</time>
      </trkpt>
      <trkpt lat="41.995421567" lon="2.537402807">
        <ele>758.14</ele>
        <time>2013-10-20T09:43:51Z</time>
      </trkpt>
      <trkpt lat="41.995445037" lon="2.537581258">
        <ele>760.54</ele>
        <time>2013-10-20T09:44:01Z</time>
      </trkpt>
      <trkpt lat="41.995513098" lon="2.537764319">
        <ele>762.46</ele>
        <time>2013-10-20T09:44:12Z</time>
      </trkpt>
      <trkpt lat="41.995576213" lon="2.537884180">
        <ele>763.42</ele>
        <time>2013-10-20T09:44:20Z</time>
      </trkpt>
      <trkpt lat="41.995663385" lon="2.538063469">
        <ele>765.83</ele>
        <time>2013-10-20T09:44:31Z</time>
      </trkpt>
      <trkpt lat="41.995727339" lon="2.538123064">
        <ele>767.27</ele>
        <time>2013-10-20T09:44:38Z</time>
      </trkpt>
      <trkpt lat="41.995779726" lon="2.537978560">
        <ele>769.67</ele>
        <time>2013-10-20T09:44:47Z</time>
      </trkpt>
      <trkpt lat="41.995775367" lon="2.537834140">
        <ele>769.67</ele>
        <time>2013-10-20T09:44:55Z</time>
      </trkpt>
      <trkpt lat="41.995799759" lon="2.537648146">
        <ele>770.63</ele>
        <time>2013-10-20T09:45:04Z</time>
      </trkpt>
      <trkpt lat="41.995838148" lon="2.537497355">
        <ele>772.56</ele>
        <time>2013-10-20T09:45:12Z</time>
      </trkpt>
      <trkpt lat="41.995922051" lon="2.537330304">
        <ele>774.48</ele>
        <time>2013-10-20T09:45:21Z</time>
      </trkpt>
      <trkpt lat="41.995989274" lon="2.537172389">
        <ele>775.44</ele>
        <time>2013-10-20T09:45:30Z</time>
      </trkpt>
      <trkpt lat="41.996024142" lon="2.536996117">
        <ele>776.88</ele>
        <time>2013-10-20T09:45:39Z</time>
      </trkpt>
      <trkpt lat="41.996093544" lon="2.536812470">
        <ele>778.32</ele>
        <time>2013-10-20T09:45:49Z</time>
      </trkpt>
      <trkpt lat="41.996157666" lon="2.536608119">
        <ele>780.25</ele>
        <time>2013-10-20T09:46:00Z</time>
      </trkpt>
      <trkpt lat="41.996197648" lon="2.536448947">
        <ele>782.65</ele>
        <time>2013-10-20T09:46:10Z</time>
      </trkpt>
      <trkpt lat="41.996245257" lon="2.536324895">
        <ele>784.57</ele>
        <time>2013-10-20T09:46:19Z</time>
      </trkpt>
      <trkpt lat="41.996291609" lon="2.536239148">
        <ele>786.02</ele>
        <time>2013-10-20T09:46:25Z</time>
      </trkpt>
      <trkpt lat="41.996394036" lon="2.536331852">
        <ele>786.98</ele>
        <time>2013-10-20T09:46:33Z</time>
      </trkpt>
      <trkpt lat="41.996408620" lon="2.536485157">
        <ele>787.46</ele>
        <time>2013-10-20T09:46:41Z</time>
      </trkpt>
      <trkpt lat="41.996417002" lon="2.536538465">
        <ele>787.94</ele>
        <time>2013-10-20T09:46:44Z</time>
      </trkpt>
      <trkpt lat="41.996431754" lon="2.536656734">
        <ele>788.90</ele>
        <time>2013-10-20T09:46:50Z</time>
      </trkpt>
      <trkpt lat="41.996468299" lon="2.536822109">
        <ele>790.82</ele>
        <time>2013-10-20T09:46:59Z</time>
      </trkpt>
      <trkpt lat="41.996501408" lon="2.537025789">
        <ele>792.26</ele>
        <time>2013-10-20T09:47:10Z</time>
      </trkpt>
      <trkpt lat="41.996535187" lon="2.537205246">
        <ele>794.19</ele>
        <time>2013-10-20T09:47:18Z</time>
      </trkpt>
      <trkpt lat="41.996575001" lon="2.537390151">
        <ele>795.63</ele>
        <time>2013-10-20T09:47:27Z</time>
      </trkpt>
      <trkpt lat="41.996646666" lon="2.537652588">
        <ele>797.07</ele>
        <time>2013-10-20T09:47:39Z</time>
      </trkpt>
      <trkpt lat="41.996706764" lon="2.537834392">
        <ele>798.51</ele>
        <time>2013-10-20T09:47:48Z</time>
      </trkpt>
      <trkpt lat="41.996773652" lon="2.538033126">
        <ele>799.95</ele>
        <time>2013-10-20T09:47:57Z</time>
      </trkpt>
      <trkpt lat="41.996871637" lon="2.538244434">
        <ele>801.88</ele>
        <time>2013-10-20T09:48:08Z</time>
      </trkpt>
      <trkpt lat="41.996973728" lon="2.538255834">
        <ele>803.80</ele>
        <time>2013-10-20T09:48:16Z</time>
      </trkpt>
      <trkpt lat="41.997052099" lon="2.538058691">
        <ele>805.72</ele>
        <time>2013-10-20T09:48:27Z</time>
      </trkpt>
      <trkpt lat="41.997086381" lon="2.537985685">
        <ele>806.68</ele>
        <time>2013-10-20T09:48:31Z</time>
      </trkpt>
      <trkpt lat="41.997187718" lon="2.537816454">
        <ele>807.64</ele>
        <time>2013-10-20T09:48:40Z</time>
      </trkpt>
      <trkpt lat="41.997360134" lon="2.537716710">
        <ele>808.61</ele>
        <time>2013-10-20T09:48:50Z</time>
      </trkpt>
      <trkpt lat="41.997544955" lon="2.537822238">
        <ele>809.09</ele>
        <time>2013-10-20T09:48:58Z</time>
      </trkpt>
      <trkpt lat="41.997717287" lon="2.538063553">
        <ele>809.09</ele>
        <time>2013-10-20T09:49:06Z</time>
      </trkpt>
      <trkpt lat="41.997965726" lon="2.538282907">
        <ele>809.57</ele>
        <time>2013-10-20T09:49:15Z</time>
      </trkpt>
      <trkpt lat="41.998188433" lon="2.538309226">
        <ele>811.01</ele>
        <time>2013-10-20T09:49:22Z</time>
      </trkpt>
      <trkpt lat="41.998440729" lon="2.538284248">
        <ele>811.01</ele>
        <time>2013-10-20T09:49:31Z</time>
      </trkpt>
      <trkpt lat="41.998610043" lon="2.538383155">
        <ele>812.45</ele>
        <time>2013-10-20T09:49:38Z</time>
      </trkpt>
      <trkpt lat="41.998780699" lon="2.538551463">
        <ele>812.93</ele>
        <time>2013-10-20T09:49:45Z</time>
      </trkpt>
      <trkpt lat="41.998939033" lon="2.538819014">
        <ele>812.93</ele>
        <time>2013-10-20T09:49:53Z</time>
      </trkpt>
      <trkpt lat="41.999144390" lon="2.539090336">
        <ele>813.89</ele>
        <time>2013-10-20T09:50:03Z</time>
      </trkpt>
      <trkpt lat="41.999365001" lon="2.539286305">
        <ele>814.37</ele>
        <time>2013-10-20T09:50:12Z</time>
      </trkpt>
      <trkpt lat="41.999413449" lon="2.539327208">
        <ele>814.85</ele>
        <time>2013-10-20T09:50:14Z</time>
      </trkpt>
      <trkpt lat="41.999540015" lon="2.539253364">
        <ele>815.34</ele>
        <time>2013-10-20T09:50:20Z</time>
      </trkpt>
      <trkpt lat="41.999590474" lon="2.539131491">
        <ele>815.82</ele>
        <time>2013-10-20T09:50:26Z</time>
      </trkpt>
      <trkpt lat="41.999589636" lon="2.539133419">
        <ele>815.82</ele>
        <time>2013-10-20T09:50:33Z</time>
      </trkpt>
      <trkpt lat="41.999605813" lon="2.539147249">
        <ele>815.82</ele>
        <time>2013-10-20T09:50:49Z</time>
      </trkpt>
      <trkpt lat="41.999591983" lon="2.539133167">
        <ele>815.82</ele>
        <time>2013-10-20T09:51:07Z</time>
      </trkpt>
      <trkpt lat="41.999588798" lon="2.539122271">
        <ele>816.30</ele>
        <time>2013-10-20T09:51:23Z</time>
      </trkpt>
      <trkpt lat="41.999594749" lon="2.539106597">
        <ele>816.30</ele>
        <time>2013-10-20T09:51:45Z</time>
      </trkpt>
      <trkpt lat="41.999593827" lon="2.539113386">
        <ele>816.30</ele>
        <time>2013-10-20T09:51:59Z</time>
      </trkpt>
      <trkpt lat="41.999595252" lon="2.539102909">
        <ele>816.30</ele>
        <time>2013-10-20T09:52:15Z</time>
      </trkpt>
      <trkpt lat="41.999599946" lon="2.538955555">
        <ele>816.30</ele>
        <time>2013-10-20T09:52:22Z</time>
      </trkpt>
      <trkpt lat="41.999625595" lon="2.538717676">
        <ele>816.78</ele>
        <time>2013-10-20T09:52:30Z</time>
      </trkpt>
      <trkpt lat="41.999688207" lon="2.538408971">
        <ele>816.78</ele>
        <time>2013-10-20T09:52:38Z</time>
      </trkpt>
      <trkpt lat="41.999857187" lon="2.538371504">
        <ele>816.78</ele>
        <time>2013-10-20T09:52:42Z</time>
      </trkpt>
      <trkpt lat="41.999960200" lon="2.538408049">
        <ele>815.34</ele>
        <time>2013-10-20T09:52:44Z</time>
      </trkpt>
      <trkpt lat="42.000382564" lon="2.538583817">
        <ele>813.41</ele>
        <time>2013-10-20T09:52:51Z</time>
      </trkpt>
      <trkpt lat="42.000753631" lon="2.538693788">
        <ele>810.53</ele>
        <time>2013-10-20T09:52:56Z</time>
      </trkpt>
      <trkpt lat="42.001220503" lon="2.538814320">
        <ele>809.57</ele>
        <time>2013-10-20T09:53:02Z</time>
      </trkpt>
      <trkpt lat="42.001654686" lon="2.539127552">
        <ele>806.68</ele>
        <time>2013-10-20T09:53:08Z</time>
      </trkpt>
      <trkpt lat="42.001978227" lon="2.539296698">
        <ele>806.68</ele>
        <time>2013-10-20T09:53:13Z</time>
      </trkpt>
      <trkpt lat="42.002181572" lon="2.539360652">
        <ele>806.68</ele>
        <time>2013-10-20T09:53:17Z</time>
      </trkpt>
      <trkpt lat="42.002317694" lon="2.539355623">
        <ele>808.13</ele>
        <time>2013-10-20T09:53:20Z</time>
      </trkpt>
      <trkpt lat="42.002463288" lon="2.539342296">
        <ele>808.13</ele>
        <time>2013-10-20T09:53:23Z</time>
      </trkpt>
      <trkpt lat="42.002769227" lon="2.539305918">
        <ele>807.16</ele>
        <time>2013-10-20T09:53:29Z</time>
      </trkpt>
      <trkpt lat="42.002878779" lon="2.539329555">
        <ele>806.68</ele>
        <time>2013-10-20T09:53:31Z</time>
      </trkpt>
      <trkpt lat="42.003422178" lon="2.539646559">
        <ele>803.80</ele>
        <time>2013-10-20T09:53:40Z</time>
      </trkpt>
      <trkpt lat="42.003834400" lon="2.539972028">
        <ele>802.36</ele>
        <time>2013-10-20T09:53:47Z</time>
      </trkpt>
      <trkpt lat="42.004209909" lon="2.540208817">
        <ele>802.36</ele>
        <time>2013-10-20T09:53:55Z</time>
      </trkpt>
      <trkpt lat="42.004288531" lon="2.540260282">
        <ele>802.36</ele>
        <time>2013-10-20T09:53:57Z</time>
      </trkpt>
      <trkpt lat="42.004356508" lon="2.540321637">
        <ele>804.28</ele>
        <time>2013-10-20T09:53:59Z</time>
      </trkpt>
      <trkpt lat="42.004558428" lon="2.540629170">
        <ele>805.72</ele>
        <time>2013-10-20T09:54:07Z</time>
      </trkpt>
      <trkpt lat="42.004754733" lon="2.540932175">
        <ele>806.68</ele>
        <time>2013-10-20T09:54:15Z</time>
      </trkpt>
      <trkpt lat="42.004930250" lon="2.541144321">
        <ele>807.64</ele>
        <time>2013-10-20T09:54:22Z</time>
      </trkpt>
      <trkpt lat="42.005144826" lon="2.541359736">
        <ele>810.05</ele>
        <time>2013-10-20T09:54:31Z</time>
      </trkpt>
      <trkpt lat="42.005319421" lon="2.541605242">
        <ele>811.49</ele>
        <time>2013-10-20T09:54:40Z</time>
      </trkpt>
      <trkpt lat="42.005493430" lon="2.541918725">
        <ele>812.93</ele>
        <time>2013-10-20T09:54:49Z</time>
      </trkpt>
      <trkpt lat="42.005725022" lon="2.542249643">
        <ele>813.41</ele>
        <time>2013-10-20T09:54:59Z</time>
      </trkpt>
      <trkpt lat="42.005891738" lon="2.542479391">
        <ele>814.37</ele>
        <time>2013-10-20T09:55:06Z</time>
      </trkpt>
      <trkpt lat="42.006090054" lon="2.542797987">
        <ele>815.34</ele>
        <time>2013-10-20T09:55:15Z</time>
      </trkpt>
      <trkpt lat="42.006265487" lon="2.543090096">
        <ele>815.82</ele>
        <time>2013-10-20T09:55:23Z</time>
      </trkpt>
      <trkpt lat="42.006500348" lon="2.543449345">
        <ele>816.78</ele>
        <time>2013-10-20T09:55:33Z</time>
      </trkpt>
      <trkpt lat="42.006718193" lon="2.543680769">
        <ele>817.26</ele>
        <time>2013-10-20T09:55:41Z</time>
      </trkpt>
      <trkpt lat="42.006992114" lon="2.544031971">
        <ele>817.74</ele>
        <time>2013-10-20T09:55:51Z</time>
      </trkpt>
      <trkpt lat="42.007183724" lon="2.544268340">
        <ele>817.74</ele>
        <time>2013-10-20T09:55:58Z</time>
      </trkpt>
      <trkpt lat="42.007434092" lon="2.544539914">
        <ele>818.70</ele>
        <time>2013-10-20T09:56:06Z</time>
      </trkpt>
      <trkpt lat="42.007705498" lon="2.544840489">
        <ele>819.18</ele>
        <time>2013-10-20T09:56:15Z</time>
      </trkpt>
      <trkpt lat="42.007975814" lon="2.545149362">
        <ele>820.14</ele>
        <time>2013-10-20T09:56:24Z</time>
      </trkpt>
      <trkpt lat="42.008048318" lon="2.545218848">
        <ele>820.14</ele>
        <time>2013-10-20T09:56:26Z</time>
      </trkpt>
      <trkpt lat="42.008334057" lon="2.545579019">
        <ele>820.14</ele>
        <time>2013-10-20T09:56:34Z</time>
      </trkpt>
      <trkpt lat="42.008450733" lon="2.545686056">
        <ele>818.22</ele>
        <time>2013-10-20T09:56:37Z</time>
      </trkpt>
      <trkpt lat="42.008682409" lon="2.545788985">
        <ele>818.70</ele>
        <time>2013-10-20T09:56:43Z</time>
      </trkpt>
      <trkpt lat="42.009011566" lon="2.545910942">
        <ele>819.66</ele>
        <time>2013-10-20T09:56:51Z</time>
      </trkpt>
      <trkpt lat="42.009049871" lon="2.545932400">
        <ele>819.66</ele>
        <time>2013-10-20T09:56:52Z</time>
      </trkpt>
      <trkpt lat="42.009416999" lon="2.546216798">
        <ele>820.62</ele>
        <time>2013-10-20T09:57:02Z</time>
      </trkpt>
      <trkpt lat="42.009690332" lon="2.546433470">
        <ele>821.10</ele>
        <time>2013-10-20T09:57:10Z</time>
      </trkpt>
      <trkpt lat="42.009723944" lon="2.546464567">
        <ele>821.10</ele>
        <time>2013-10-20T09:57:11Z</time>
      </trkpt>
      <trkpt lat="42.009846739" lon="2.546636480">
        <ele>821.10</ele>
        <time>2013-10-20T09:57:15Z</time>
      </trkpt>
      <trkpt lat="42.010002307" lon="2.547087342">
        <ele>820.14</ele>
        <time>2013-10-20T09:57:22Z</time>
      </trkpt>
      <trkpt lat="42.010137675" lon="2.547734425">
        <ele>817.26</ele>
        <time>2013-10-20T09:57:30Z</time>
      </trkpt>
      <trkpt lat="42.010256362" lon="2.547923102">
        <ele>815.82</ele>
        <time>2013-10-20T09:57:34Z</time>
      </trkpt>
      <trkpt lat="42.010365914" lon="2.547853699">
        <ele>815.82</ele>
        <time>2013-10-20T09:57:37Z</time>
      </trkpt>
      <trkpt lat="42.010445710" lon="2.547732413">
        <ele>817.26</ele>
        <time>2013-10-20T09:57:40Z</time>
      </trkpt>
      <trkpt lat="42.010669506" lon="2.547427564">
        <ele>818.70</ele>
        <time>2013-10-20T09:57:49Z</time>
      </trkpt>
      <trkpt lat="42.010927166" lon="2.547195217">
        <ele>819.66</ele>
        <time>2013-10-20T09:57:57Z</time>
      </trkpt>
      <trkpt lat="42.010994389" lon="2.547140316">
        <ele>819.66</ele>
        <time>2013-10-20T09:57:59Z</time>
      </trkpt>
      <trkpt lat="42.011241571" lon="2.547052809">
        <ele>819.66</ele>
        <time>2013-10-20T09:58:05Z</time>
      </trkpt>
      <trkpt lat="42.011427733" lon="2.547086672">
        <ele>818.22</ele>
        <time>2013-10-20T09:58:09Z</time>
      </trkpt>
      <trkpt lat="42.011802237" lon="2.547297393">
        <ele>815.82</ele>
        <time>2013-10-20T09:58:16Z</time>
      </trkpt>
      <trkpt lat="42.012146146" lon="2.547645325">
        <ele>813.41</ele>
        <time>2013-10-20T09:58:22Z</time>
      </trkpt>
      <trkpt lat="42.012286376" lon="2.547776921">
        <ele>811.49</ele>
        <time>2013-10-20T09:58:24Z</time>
      </trkpt>
      <trkpt lat="42.012625591" lon="2.547904159">
        <ele>809.09</ele>
        <time>2013-10-20T09:58:28Z</time>
      </trkpt>
      <trkpt lat="42.012965813" lon="2.547756050">
        <ele>808.13</ele>
        <time>2013-10-20T09:58:32Z</time>
      </trkpt>
      <trkpt lat="42.013298239" lon="2.547539797">
        <ele>809.57</ele>
        <time>2013-10-20T09:58:37Z</time>
      </trkpt>
      <trkpt lat="42.013508289" lon="2.547403759">
        <ele>810.53</ele>
        <time>2013-10-20T09:58:42Z</time>
      </trkpt>
      <trkpt lat="42.013770140" lon="2.547292028">
        <ele>812.45</ele>
        <time>2013-10-20T09:58:49Z</time>
      </trkpt>
      <trkpt lat="42.013970970" lon="2.547325220">
        <ele>813.41</ele>
        <time>2013-10-20T09:58:55Z</time>
      </trkpt>
      <trkpt lat="42.014058142" lon="2.547400658">
        <ele>814.85</ele>
        <time>2013-10-20T09:59:01Z</time>
      </trkpt>
      <trkpt lat="42.014068033" lon="2.547412225">
        <ele>814.85</ele>
        <time>2013-10-20T09:59:06Z</time>
      </trkpt>
      <trkpt lat="42.014048922" lon="2.547405184">
        <ele>814.85</ele>
        <time>2013-10-20T09:59:13Z</time>
      </trkpt>
      <trkpt lat="42.013984465" lon="2.547398311">
        <ele>815.34</ele>
        <time>2013-10-20T09:59:20Z</time>
      </trkpt>
      <trkpt lat="42.014009192" lon="2.547406022">
        <ele>815.34</ele>
        <time>2013-10-20T09:59:38Z</time>
      </trkpt>
      <trkpt lat="42.014000810" lon="2.547407196">
        <ele>815.34</ele>
        <time>2013-10-20T10:00:01Z</time>
      </trkpt>
      <trkpt lat="42.014002403" lon="2.547397053">
        <ele>815.34</ele>
        <time>2013-10-20T10:00:25Z</time>
      </trkpt>
      <trkpt lat="42.014005839" lon="2.547398814">
        <ele>815.34</ele>
        <time>2013-10-20T10:00:43Z</time>
      </trkpt>
      <trkpt lat="42.014018496" lon="2.547406357">
        <ele>815.34</ele>
        <time>2013-10-20T10:00:48Z</time>
      </trkpt>
      <trkpt lat="42.014016987" lon="2.547410381">
        <ele>815.34</ele>
        <time>2013-10-20T10:00:51Z</time>
      </trkpt>
      <trkpt lat="42.014070380" lon="2.547432676">
        <ele>815.34</ele>
        <time>2013-10-20T10:00:57Z</time>
      </trkpt>
      <trkpt lat="42.014107931" lon="2.547485399">
        <ele>815.34</ele>
        <time>2013-10-20T10:01:04Z</time>
      </trkpt>
      <trkpt lat="42.014109691" lon="2.547488500">
        <ele>815.34</ele>
        <time>2013-10-20T10:01:13Z</time>
      </trkpt>
      <trkpt lat="42.014146571" lon="2.547531667">
        <ele>815.34</ele>
        <time>2013-10-20T10:01:21Z</time>
      </trkpt>
      <trkpt lat="42.014226199" lon="2.547575253">
        <ele>813.89</ele>
        <time>2013-10-20T10:01:24Z</time>
      </trkpt>
      <trkpt lat="42.014526523" lon="2.547565446">
        <ele>811.01</ele>
        <time>2013-10-20T10:01:30Z</time>
      </trkpt>
      <trkpt lat="42.014638086" lon="2.547543234">
        <ele>810.05</ele>
        <time>2013-10-20T10:01:32Z</time>
      </trkpt>
      <trkpt lat="42.014781920" lon="2.547479448">
        <ele>808.61</ele>
        <time>2013-10-20T10:01:35Z</time>
      </trkpt>
      <trkpt lat="42.014926004" lon="2.547318012">
        <ele>807.16</ele>
        <time>2013-10-20T10:01:41Z</time>
      </trkpt>
      <trkpt lat="42.014990377" lon="2.547125731">
        <ele>806.68</ele>
        <time>2013-10-20T10:01:48Z</time>
      </trkpt>
      <trkpt lat="42.015134965" lon="2.546823647">
        <ele>806.68</ele>
        <time>2013-10-20T10:01:57Z</time>
      </trkpt>
      <trkpt lat="42.015255665" lon="2.546478397">
        <ele>806.20</ele>
        <time>2013-10-20T10:02:05Z</time>
      </trkpt>
      <trkpt lat="42.015299837" lon="2.546063157">
        <ele>805.72</ele>
        <time>2013-10-20T10:02:13Z</time>
      </trkpt>
      <trkpt lat="42.015361947" lon="2.545606679">
        <ele>805.72</ele>
        <time>2013-10-20T10:02:22Z</time>
      </trkpt>
      <trkpt lat="42.015387512" lon="2.545302332">
        <ele>804.76</ele>
        <time>2013-10-20T10:02:28Z</time>
      </trkpt>
      <trkpt lat="42.015424895" lon="2.545136957">
        <ele>804.76</ele>
        <time>2013-10-20T10:02:31Z</time>
      </trkpt>
      <trkpt lat="42.015531848" lon="2.544921626">
        <ele>803.80</ele>
        <time>2013-10-20T10:02:35Z</time>
      </trkpt>
      <trkpt lat="42.015703258" lon="2.544755664">
        <ele>803.32</ele>
        <time>2013-10-20T10:02:40Z</time>
      </trkpt>
      <trkpt lat="42.015863604" lon="2.544674108">
        <ele>803.32</ele>
        <time>2013-10-20T10:02:44Z</time>
      </trkpt>
      <trkpt lat="42.016243137" lon="2.544422316">
        <ele>802.36</ele>
        <time>2013-10-20T10:02:53Z</time>
      </trkpt>
      <trkpt lat="42.016686875" lon="2.544108162">
        <ele>800.92</ele>
        <time>2013-10-20T10:03:04Z</time>
      </trkpt>
      <trkpt lat="42.016823248" lon="2.544023589">
        <ele>799.95</ele>
        <time>2013-10-20T10:03:07Z</time>
      </trkpt>
      <trkpt lat="42.017026090" lon="2.543774479">
        <ele>799.95</ele>
        <time>2013-10-20T10:03:12Z</time>
      </trkpt>
      <trkpt lat="42.017052326" lon="2.543528889">
        <ele>798.99</ele>
        <time>2013-10-20T10:03:15Z</time>
      </trkpt>
      <trkpt lat="42.016887118" lon="2.542900246">
        <ele>795.63</ele>
        <time>2013-10-20T10:03:22Z</time>
      </trkpt>
      <trkpt lat="42.016849735" lon="2.542807878">
        <ele>795.63</ele>
        <time>2013-10-20T10:03:23Z</time>
      </trkpt>
      <trkpt lat="42.016818135" lon="2.542402445">
        <ele>791.30</ele>
        <time>2013-10-20T10:03:28Z</time>
      </trkpt>
      <trkpt lat="42.016857949" lon="2.542339497">
        <ele>791.30</ele>
        <time>2013-10-20T10:03:29Z</time>
      </trkpt>
      <trkpt lat="42.016989042" lon="2.542124920">
        <ele>790.34</ele>
        <time>2013-10-20T10:03:32Z</time>
      </trkpt>
      <trkpt lat="42.016957023" lon="2.541897268">
        <ele>789.38</ele>
        <time>2013-10-20T10:03:35Z</time>
      </trkpt>
      <trkpt lat="42.016863230" lon="2.541808587">
        <ele>789.86</ele>
        <time>2013-10-20T10:03:37Z</time>
      </trkpt>
      <trkpt lat="42.016609007" lon="2.541537181">
        <ele>788.42</ele>
        <time>2013-10-20T10:03:42Z</time>
      </trkpt>
      <trkpt lat="42.016378169" lon="2.541388318">
        <ele>787.94</ele>
        <time>2013-10-20T10:03:46Z</time>
      </trkpt>
      <trkpt lat="42.016114139" lon="2.541268709">
        <ele>790.82</ele>
        <time>2013-10-20T10:03:52Z</time>
      </trkpt>
      <trkpt lat="42.015822030" lon="2.540900743">
        <ele>791.30</ele>
        <time>2013-10-20T10:03:59Z</time>
      </trkpt>
      <trkpt lat="42.015683645" lon="2.540704523">
        <ele>789.86</ele>
        <time>2013-10-20T10:04:02Z</time>
      </trkpt>
      <trkpt lat="42.015639053" lon="2.540638138">
        <ele>789.86</ele>
        <time>2013-10-20T10:04:03Z</time>
      </trkpt>
      <trkpt lat="42.015249294" lon="2.540236310">
        <ele>789.86</ele>
        <time>2013-10-20T10:04:11Z</time>
      </trkpt>
      <trkpt lat="42.015162542" lon="2.540132542">
        <ele>789.38</ele>
        <time>2013-10-20T10:04:13Z</time>
      </trkpt>
      <trkpt lat="42.014986689" lon="2.539681763">
        <ele>789.38</ele>
        <time>2013-10-20T10:04:19Z</time>
      </trkpt>
      <trkpt lat="42.014979397" lon="2.539501552">
        <ele>788.42</ele>
        <time>2013-10-20T10:04:21Z</time>
      </trkpt>
      <trkpt lat="42.014981744" lon="2.539299800">
        <ele>786.50</ele>
        <time>2013-10-20T10:04:23Z</time>
      </trkpt>
      <trkpt lat="42.015069167" lon="2.539051612">
        <ele>784.57</ele>
        <time>2013-10-20T10:04:26Z</time>
      </trkpt>
      <trkpt lat="42.015246193" lon="2.538851619">
        <ele>783.13</ele>
        <time>2013-10-20T10:04:29Z</time>
      </trkpt>
      <trkpt lat="42.015332694" lon="2.538710300">
        <ele>782.17</ele>
        <time>2013-10-20T10:04:31Z</time>
      </trkpt>
      <trkpt lat="42.015348452" lon="2.538534113">
        <ele>781.21</ele>
        <time>2013-10-20T10:04:33Z</time>
      </trkpt>
      <trkpt lat="42.015339316" lon="2.538332193">
        <ele>779.77</ele>
        <time>2013-10-20T10:04:35Z</time>
      </trkpt>
      <trkpt lat="42.015432607" lon="2.537759960">
        <ele>776.88</ele>
        <time>2013-10-20T10:04:40Z</time>
      </trkpt>
      <trkpt lat="42.015494298" lon="2.537544545">
        <ele>774.48</ele>
        <time>2013-10-20T10:04:42Z</time>
      </trkpt>
      <trkpt lat="42.015449203" lon="2.537289065">
        <ele>772.56</ele>
        <time>2013-10-20T10:04:46Z</time>
      </trkpt>
      <trkpt lat="42.015255665" lon="2.537206000">
        <ele>772.56</ele>
        <time>2013-10-20T10:04:50Z</time>
      </trkpt>
      <trkpt lat="42.015157680" lon="2.537182363">
        <ele>772.56</ele>
        <time>2013-10-20T10:04:52Z</time>
      </trkpt>
      <trkpt lat="42.015065647" lon="2.537151769">
        <ele>774.48</ele>
        <time>2013-10-20T10:04:54Z</time>
      </trkpt>
      <trkpt lat="42.014716792" lon="2.537026795">
        <ele>775.92</ele>
        <time>2013-10-20T10:05:03Z</time>
      </trkpt>
      <trkpt lat="42.014433149" lon="2.536897546">
        <ele>777.84</ele>
        <time>2013-10-20T10:05:12Z</time>
      </trkpt>
      <trkpt lat="42.014144727" lon="2.536716078">
        <ele>778.81</ele>
        <time>2013-10-20T10:05:21Z</time>
      </trkpt>
      <trkpt lat="42.013941131" lon="2.536582722">
        <ele>779.29</ele>
        <time>2013-10-20T10:05:27Z</time>
      </trkpt>
      <trkpt lat="42.013804171" lon="2.536383233">
        <ele>779.77</ele>
        <time>2013-10-20T10:05:33Z</time>
      </trkpt>
      <trkpt lat="42.013785814" lon="2.536332690">
        <ele>779.77</ele>
        <time>2013-10-20T10:05:34Z</time>
      </trkpt>
      <trkpt lat="42.013743821" lon="2.536060194">
        <ele>778.32</ele>
        <time>2013-10-20T10:05:38Z</time>
      </trkpt>
      <trkpt lat="42.013761004" lon="2.535736485">
        <ele>776.88</ele>
        <time>2013-10-20T10:05:42Z</time>
      </trkpt>
      <trkpt lat="42.013748934" lon="2.535425265">
        <ele>774.96</ele>
        <time>2013-10-20T10:05:46Z</time>
      </trkpt>
      <trkpt lat="42.013779695" lon="2.534819253">
        <ele>772.08</ele>
        <time>2013-10-20T10:05:53Z</time>
      </trkpt>
      <trkpt lat="42.013786233" lon="2.534713977">
        <ele>772.08</ele>
        <time>2013-10-20T10:05:54Z</time>
      </trkpt>
      <trkpt lat="42.013838201" lon="2.534149120">
        <ele>768.23</ele>
        <time>2013-10-20T10:05:59Z</time>
      </trkpt>
      <trkpt lat="42.013883044" lon="2.533935298">
        <ele>767.27</ele>
        <time>2013-10-20T10:06:01Z</time>
      </trkpt>
      <trkpt lat="42.014034338" lon="2.533552915">
        <ele>764.39</ele>
        <time>2013-10-20T10:06:05Z</time>
      </trkpt>
      <trkpt lat="42.014248579" lon="2.533181178">
        <ele>760.54</ele>
        <time>2013-10-20T10:06:09Z</time>
      </trkpt>
      <trkpt lat="42.014382690" lon="2.533031729">
        <ele>759.58</ele>
        <time>2013-10-20T10:06:11Z</time>
      </trkpt>
      <trkpt lat="42.014541024" lon="2.532926117">
        <ele>758.14</ele>
        <time>2013-10-20T10:06:13Z</time>
      </trkpt>
      <trkpt lat="42.014704303" lon="2.532850177">
        <ele>755.73</ele>
        <time>2013-10-20T10:06:15Z</time>
      </trkpt>
      <trkpt lat="42.014864397" lon="2.532828300">
        <ele>755.25</ele>
        <time>2013-10-20T10:06:17Z</time>
      </trkpt>
      <trkpt lat="42.014947127" lon="2.532830563">
        <ele>754.29</ele>
        <time>2013-10-20T10:06:18Z</time>
      </trkpt>
      <trkpt lat="42.015226160" lon="2.532720089">
        <ele>752.37</ele>
        <time>2013-10-20T10:06:22Z</time>
      </trkpt>
      <trkpt lat="42.015297239" lon="2.532568545">
        <ele>752.37</ele>
        <time>2013-10-20T10:06:24Z</time>
      </trkpt>
      <trkpt lat="42.015415759" lon="2.532150874">
        <ele>750.93</ele>
        <time>2013-10-20T10:06:29Z</time>
      </trkpt>
      <trkpt lat="42.015431936" lon="2.531881145">
        <ele>748.52</ele>
        <time>2013-10-20T10:06:32Z</time>
      </trkpt>
      <trkpt lat="42.015397654" lon="2.531583755">
        <ele>746.12</ele>
        <time>2013-10-20T10:06:36Z</time>
      </trkpt>
      <trkpt lat="42.015513408" lon="2.531510078">
        <ele>745.64</ele>
        <time>2013-10-20T10:06:39Z</time>
      </trkpt>
      <trkpt lat="42.015827813" lon="2.531567745">
        <ele>743.72</ele>
        <time>2013-10-20T10:06:44Z</time>
      </trkpt>
      <trkpt lat="42.016064602" lon="2.531480657">
        <ele>742.28</ele>
        <time>2013-10-20T10:06:48Z</time>
      </trkpt>
      <trkpt lat="42.016108104" lon="2.531410333">
        <ele>741.79</ele>
        <time>2013-10-20T10:06:49Z</time>
      </trkpt>
      <trkpt lat="42.016364926" lon="2.531197517">
        <ele>740.35</ele>
        <time>2013-10-20T10:06:54Z</time>
      </trkpt>
      <trkpt lat="42.016501299" lon="2.531161223">
        <ele>739.39</ele>
        <time>2013-10-20T10:06:56Z</time>
      </trkpt>
      <trkpt lat="42.016643121" lon="2.531147561">
        <ele>738.43</ele>
        <time>2013-10-20T10:06:58Z</time>
      </trkpt>
      <trkpt lat="42.016878401" lon="2.530992663">
        <ele>736.99</ele>
        <time>2013-10-20T10:07:02Z</time>
      </trkpt>
      <trkpt lat="42.016942271" lon="2.530665685">
        <ele>736.99</ele>
        <time>2013-10-20T10:07:06Z</time>
      </trkpt>
      <trkpt lat="42.016855267" lon="2.530466950">
        <ele>736.99</ele>
        <time>2013-10-20T10:07:09Z</time>
      </trkpt>
      <trkpt lat="42.016632979" lon="2.530179786">
        <ele>736.99</ele>
        <time>2013-10-20T10:07:14Z</time>
      </trkpt>
      <trkpt lat="42.016474142" lon="2.529934196">
        <ele>736.99</ele>
        <time>2013-10-20T10:07:18Z</time>
      </trkpt>
      <trkpt lat="42.016302984" lon="2.529736551">
        <ele>736.99</ele>
        <time>2013-10-20T10:07:22Z</time>
      </trkpt>
      <trkpt lat="42.016226121" lon="2.529412926">
        <ele>736.99</ele>
        <time>2013-10-20T10:07:27Z</time>
      </trkpt>
      <trkpt lat="42.016225786" lon="2.529201534">
        <ele>736.99</ele>
        <time>2013-10-20T10:07:30Z</time>
      </trkpt>
      <trkpt lat="42.016113050" lon="2.528845890">
        <ele>735.55</ele>
        <time>2013-10-20T10:07:35Z</time>
      </trkpt>
      <trkpt lat="42.015949519" lon="2.528684622">
        <ele>734.58</ele>
        <time>2013-10-20T10:07:38Z</time>
      </trkpt>
      <trkpt lat="42.015624133" lon="2.528646904">
        <ele>733.14</ele>
        <time>2013-10-20T10:07:43Z</time>
      </trkpt>
      <trkpt lat="42.015251893" lon="2.528684957">
        <ele>731.22</ele>
        <time>2013-10-20T10:07:49Z</time>
      </trkpt>
      <trkpt lat="42.015032371" lon="2.528631816">
        <ele>728.34</ele>
        <time>2013-10-20T10:07:52Z</time>
      </trkpt>
      <trkpt lat="42.014726934" lon="2.528491755">
        <ele>723.05</ele>
        <time>2013-10-20T10:07:56Z</time>
      </trkpt>
      <trkpt lat="42.014612186" lon="2.528407265">
        <ele>721.13</ele>
        <time>2013-10-20T10:07:58Z</time>
      </trkpt>
      <trkpt lat="42.014486122" lon="2.528342389">
        <ele>719.68</ele>
        <time>2013-10-20T10:08:03Z</time>
      </trkpt>
      <trkpt lat="42.014486625" lon="2.528348592">
        <ele>719.20</ele>
        <time>2013-10-20T10:08:09Z</time>
      </trkpt>
      <trkpt lat="42.014494169" lon="2.528351442">
        <ele>719.20</ele>
        <time>2013-10-20T10:08:19Z</time>
      </trkpt>
      <trkpt lat="42.014507664" lon="2.528343395">
        <ele>719.20</ele>
        <time>2013-10-20T10:08:42Z</time>
      </trkpt>
      <trkpt lat="42.014497941" lon="2.528347418">
        <ele>719.20</ele>
        <time>2013-10-20T10:08:49Z</time>
      </trkpt>
      <trkpt lat="42.014478327" lon="2.528353118">
        <ele>718.72</ele>
        <time>2013-10-20T10:08:51Z</time>
      </trkpt>
      <trkpt lat="42.014457121" lon="2.528354375">
        <ele>718.24</ele>
        <time>2013-10-20T10:08:57Z</time>
      </trkpt>
      <trkpt lat="42.014464665" lon="2.528353286">
        <ele>718.24</ele>
        <time>2013-10-20T10:09:05Z</time>
      </trkpt>
      <trkpt lat="42.014465587" lon="2.528344820">
        <ele>718.72</ele>
        <time>2013-10-20T10:09:18Z</time>
      </trkpt>
      <trkpt lat="42.014456283" lon="2.528344904">
        <ele>718.72</ele>
        <time>2013-10-20T10:09:32Z</time>
      </trkpt>
      <trkpt lat="42.014431891" lon="2.528353872">
        <ele>718.72</ele>
        <time>2013-10-20T10:09:55Z</time>
      </trkpt>
      <trkpt lat="42.014408338" lon="2.528367116">
        <ele>718.24</ele>
        <time>2013-10-20T10:10:08Z</time>
      </trkpt>
      <trkpt lat="42.014288225" lon="2.528448839">
        <ele>716.80</ele>
        <time>2013-10-20T10:10:14Z</time>
      </trkpt>
      <trkpt lat="42.014273306" lon="2.528450097">
        <ele>715.84</ele>
        <time>2013-10-20T10:10:18Z</time>
      </trkpt>
      <trkpt lat="42.014275653" lon="2.528448336">
        <ele>715.84</ele>
        <time>2013-10-20T10:10:31Z</time>
      </trkpt>
      <trkpt lat="42.014215890" lon="2.528468034">
        <ele>715.84</ele>
        <time>2013-10-20T10:10:37Z</time>
      </trkpt>
      <trkpt lat="42.014194181" lon="2.528472225">
        <ele>715.84</ele>
        <time>2013-10-20T10:10:46Z</time>
      </trkpt>
      <trkpt lat="42.014183284" lon="2.528469123">
        <ele>715.84</ele>
        <time>2013-10-20T10:11:05Z</time>
      </trkpt>
      <trkpt lat="42.014180602" lon="2.528461664">
        <ele>715.84</ele>
        <time>2013-10-20T10:11:21Z</time>
      </trkpt>
      <trkpt lat="42.014182111" lon="2.528458730">
        <ele>715.84</ele>
        <time>2013-10-20T10:11:36Z</time>
      </trkpt>
      <trkpt lat="42.014175154" lon="2.528458395">
        <ele>715.84</ele>
        <time>2013-10-20T10:11:45Z</time>
      </trkpt>
      <trkpt lat="42.014173142" lon="2.528452192">
        <ele>715.84</ele>
        <time>2013-10-20T10:11:59Z</time>
      </trkpt>
      <trkpt lat="42.014165850" lon="2.528481780">
        <ele>715.84</ele>
        <time>2013-10-20T10:12:08Z</time>
      </trkpt>
      <trkpt lat="42.014160569" lon="2.528485217">
        <ele>715.84</ele>
        <time>2013-10-20T10:12:23Z</time>
      </trkpt>
      <trkpt lat="42.014160485" lon="2.528492509">
        <ele>715.84</ele>
        <time>2013-10-20T10:12:40Z</time>
      </trkpt>
      <trkpt lat="42.014165347" lon="2.528489911">
        <ele>716.32</ele>
        <time>2013-10-20T10:12:58Z</time>
      </trkpt>
      <trkpt lat="42.014151265" lon="2.528490749">
        <ele>716.32</ele>
        <time>2013-10-20T10:13:08Z</time>
      </trkpt>
      <trkpt lat="42.014167610" lon="2.528487061">
        <ele>716.32</ele>
        <time>2013-10-20T10:13:12Z</time>
      </trkpt>
      <trkpt lat="42.014212537" lon="2.528498544">
        <ele>715.84</ele>
        <time>2013-10-20T10:13:19Z</time>
      </trkpt>
      <trkpt lat="42.014221757" lon="2.528511117">
        <ele>715.36</ele>
        <time>2013-10-20T10:13:27Z</time>
      </trkpt>
      <trkpt lat="42.014227373" lon="2.528515643">
        <ele>715.36</ele>
        <time>2013-10-20T10:13:40Z</time>
      </trkpt>
      <trkpt lat="42.014158055" lon="2.528527378">
        <ele>715.36</ele>
        <time>2013-10-20T10:13:48Z</time>
      </trkpt>
      <trkpt lat="42.014153277" lon="2.528564007">
        <ele>715.36</ele>
        <time>2013-10-20T10:14:06Z</time>
      </trkpt>
      <trkpt lat="42.014138189" lon="2.528580938">
        <ele>714.88</ele>
        <time>2013-10-20T10:14:09Z</time>
      </trkpt>
      <trkpt lat="42.014103656" lon="2.528595439">
        <ele>714.88</ele>
        <time>2013-10-20T10:14:17Z</time>
      </trkpt>
      <trkpt lat="42.014105249" lon="2.528578256">
        <ele>714.88</ele>
        <time>2013-10-20T10:14:31Z</time>
      </trkpt>
      <trkpt lat="42.014075493" lon="2.528567527">
        <ele>714.88</ele>
        <time>2013-10-20T10:14:41Z</time>
      </trkpt>
      <trkpt lat="42.014084378" lon="2.528570880">
        <ele>714.40</ele>
        <time>2013-10-20T10:14:51Z</time>
      </trkpt>
      <trkpt lat="42.014082785" lon="2.528547159">
        <ele>714.40</ele>
        <time>2013-10-20T10:15:07Z</time>
      </trkpt>
      <trkpt lat="42.014082450" lon="2.528554032">
        <ele>714.40</ele>
        <time>2013-10-20T10:15:29Z</time>
      </trkpt>
      <trkpt lat="42.014082114" lon="2.528547159">
        <ele>714.40</ele>
        <time>2013-10-20T10:15:44Z</time>
      </trkpt>
      <trkpt lat="42.014090413" lon="2.528565599">
        <ele>714.40</ele>
        <time>2013-10-20T10:16:00Z</time>
      </trkpt>
      <trkpt lat="42.014080690" lon="2.528571969">
        <ele>714.40</ele>
        <time>2013-10-20T10:16:19Z</time>
      </trkpt>
      <trkpt lat="42.014082198" lon="2.528579681">
        <ele>714.40</ele>
        <time>2013-10-20T10:16:28Z</time>
      </trkpt>
      <trkpt lat="42.014069625" lon="2.528582028">
        <ele>714.40</ele>
        <time>2013-10-20T10:16:41Z</time>
      </trkpt>
      <trkpt lat="42.014063339" lon="2.528590577">
        <ele>714.40</ele>
        <time>2013-10-20T10:16:52Z</time>
      </trkpt>
      <trkpt lat="42.014055376" lon="2.528598624">
        <ele>714.40</ele>
        <time>2013-10-20T10:16:57Z</time>
      </trkpt>
      <trkpt lat="42.013929815" lon="2.528627709">
        <ele>713.44</ele>
        <time>2013-10-20T10:17:03Z</time>
      </trkpt>
      <trkpt lat="42.013852450" lon="2.528641036">
        <ele>711.99</ele>
        <time>2013-10-20T10:17:05Z</time>
      </trkpt>
      <trkpt lat="42.013590264" lon="2.528593343">
        <ele>710.07</ele>
        <time>2013-10-20T10:17:11Z</time>
      </trkpt>
      <trkpt lat="42.013517090" lon="2.528352866">
        <ele>709.11</ele>
        <time>2013-10-20T10:17:15Z</time>
      </trkpt>
      <trkpt lat="42.013575596" lon="2.528161927">
        <ele>707.67</ele>
        <time>2013-10-20T10:17:18Z</time>
      </trkpt>
      <trkpt lat="42.013756142" lon="2.527949613">
        <ele>705.75</ele>
        <time>2013-10-20T10:17:22Z</time>
      </trkpt>
      <trkpt lat="42.013814396" lon="2.527933185">
        <ele>705.75</ele>
        <time>2013-10-20T10:17:23Z</time>
      </trkpt>
      <trkpt lat="42.014239443" lon="2.527875936">
        <ele>703.82</ele>
        <time>2013-10-20T10:17:31Z</time>
      </trkpt>
      <trkpt lat="42.014453433" lon="2.527762780">
        <ele>703.82</ele>
        <time>2013-10-20T10:17:36Z</time>
      </trkpt>
      <trkpt lat="42.014643283" lon="2.527738222">
        <ele>701.42</ele>
        <time>2013-10-20T10:17:40Z</time>
      </trkpt>
      <trkpt lat="42.014788877" lon="2.527659096">
        <ele>699.98</ele>
        <time>2013-10-20T10:17:43Z</time>
      </trkpt>
      <trkpt lat="42.014906558" lon="2.527440329">
        <ele>698.05</ele>
        <time>2013-10-20T10:17:46Z</time>
      </trkpt>
      <trkpt lat="42.014968668" lon="2.527241845">
        <ele>697.09</ele>
        <time>2013-10-20T10:17:48Z</time>
      </trkpt>
      <trkpt lat="42.015081237" lon="2.526939342">
        <ele>694.69</ele>
        <time>2013-10-20T10:17:51Z</time>
      </trkpt>
      <trkpt lat="42.015132618" lon="2.526658800">
        <ele>693.25</ele>
        <time>2013-10-20T10:17:54Z</time>
      </trkpt>
      <trkpt lat="42.015096660" lon="2.525997971">
        <ele>689.88</ele>
        <time>2013-10-20T10:18:00Z</time>
      </trkpt>
      <trkpt lat="42.015129014" lon="2.525576529">
        <ele>686.04</ele>
        <time>2013-10-20T10:18:04Z</time>
      </trkpt>
      <trkpt lat="42.015106551" lon="2.525152823">
        <ele>682.67</ele>
        <time>2013-10-20T10:18:08Z</time>
      </trkpt>
      <trkpt lat="42.015052739" lon="2.524955262">
        <ele>681.71</ele>
        <time>2013-10-20T10:18:10Z</time>
      </trkpt>
      <trkpt lat="42.015034466" lon="2.524710259">
        <ele>680.27</ele>
        <time>2013-10-20T10:18:13Z</time>
      </trkpt>
      <trkpt lat="42.015193555" lon="2.524580256">
        <ele>677.39</ele>
        <time>2013-10-20T10:18:16Z</time>
      </trkpt>
      <trkpt lat="42.015601502" lon="2.524451510">
        <ele>674.02</ele>
        <time>2013-10-20T10:18:21Z</time>
      </trkpt>
      <trkpt lat="42.016063261" lon="2.524295187">
        <ele>671.14</ele>
        <time>2013-10-20T10:18:26Z</time>
      </trkpt>
      <trkpt lat="42.016222433" lon="2.524252859">
        <ele>669.22</ele>
        <time>2013-10-20T10:18:28Z</time>
      </trkpt>
      <trkpt lat="42.016731131" lon="2.524260151">
        <ele>664.89</ele>
        <time>2013-10-20T10:18:34Z</time>
      </trkpt>
      <trkpt lat="42.016976637" lon="2.524250176">
        <ele>661.04</ele>
        <time>2013-10-20T10:18:37Z</time>
      </trkpt>
      <trkpt lat="42.017176294" lon="2.524324524">
        <ele>659.12</ele>
        <time>2013-10-20T10:18:40Z</time>
      </trkpt>
      <trkpt lat="42.017318451" lon="2.524535915">
        <ele>658.16</ele>
        <time>2013-10-20T10:18:43Z</time>
      </trkpt>
      <trkpt lat="42.017397325" lon="2.524701207">
        <ele>658.16</ele>
        <time>2013-10-20T10:18:45Z</time>
      </trkpt>
      <trkpt lat="42.017595808" lon="2.524862391">
        <ele>656.24</ele>
        <time>2013-10-20T10:18:49Z</time>
      </trkpt>
      <trkpt lat="42.017690105" lon="2.524710175">
        <ele>655.76</ele>
        <time>2013-10-20T10:18:52Z</time>
      </trkpt>
      <trkpt lat="42.017697900" lon="2.524401973">
        <ele>655.76</ele>
        <time>2013-10-20T10:18:56Z</time>
      </trkpt>
      <trkpt lat="42.017727488" lon="2.523721781">
        <ele>654.80</ele>
        <time>2013-10-20T10:19:04Z</time>
      </trkpt>
      <trkpt lat="42.017730338" lon="2.523509132">
        <ele>653.83</ele>
        <time>2013-10-20T10:19:06Z</time>
      </trkpt>
      <trkpt lat="42.017635622" lon="2.523023988">
        <ele>653.35</ele>
        <time>2013-10-20T10:19:11Z</time>
      </trkpt>
      <trkpt lat="42.017406880" lon="2.522349412">
        <ele>653.35</ele>
        <time>2013-10-20T10:19:19Z</time>
      </trkpt>
      <trkpt lat="42.017299759" lon="2.522106253">
        <ele>654.80</ele>
        <time>2013-10-20T10:19:23Z</time>
      </trkpt>
      <trkpt lat="42.016935817" lon="2.521653966">
        <ele>654.80</ele>
        <time>2013-10-20T10:19:33Z</time>
      </trkpt>
      <trkpt lat="42.016871025" lon="2.521573835">
        <ele>654.80</ele>
        <time>2013-10-20T10:19:38Z</time>
      </trkpt>
      <trkpt lat="42.016866415" lon="2.521566459">
        <ele>654.80</ele>
        <time>2013-10-20T10:19:55Z</time>
      </trkpt>
      <trkpt lat="42.016853088" lon="2.521536954">
        <ele>654.80</ele>
        <time>2013-10-20T10:20:03Z</time>
      </trkpt>
      <trkpt lat="42.016818722" lon="2.521484735">
        <ele>654.80</ele>
        <time>2013-10-20T10:20:15Z</time>
      </trkpt>
      <trkpt lat="42.016680337" lon="2.521300249">
        <ele>654.80</ele>
        <time>2013-10-20T10:20:22Z</time>
      </trkpt>
      <trkpt lat="42.016510519" lon="2.520914095">
        <ele>655.28</ele>
        <time>2013-10-20T10:20:30Z</time>
      </trkpt>
      <trkpt lat="42.016388479" lon="2.520524085">
        <ele>655.28</ele>
        <time>2013-10-20T10:20:38Z</time>
      </trkpt>
      <trkpt lat="42.016329135" lon="2.520286626">
        <ele>655.28</ele>
        <time>2013-10-20T10:20:45Z</time>
      </trkpt>
      <trkpt lat="42.016323854" lon="2.520293247">
        <ele>655.28</ele>
        <time>2013-10-20T10:21:01Z</time>
      </trkpt>
      <trkpt lat="42.016319831" lon="2.520287883">
        <ele>655.28</ele>
        <time>2013-10-20T10:21:02Z</time>
      </trkpt>
      <trkpt lat="42.016295859" lon="2.520221415">
        <ele>655.28</ele>
        <time>2013-10-20T10:21:06Z</time>
      </trkpt>
      <trkpt lat="42.016228971" lon="2.519987559">
        <ele>653.83</ele>
        <time>2013-10-20T10:21:13Z</time>
      </trkpt>
      <trkpt lat="42.016221595" lon="2.519948248">
        <ele>653.83</ele>
        <time>2013-10-20T10:21:14Z</time>
      </trkpt>
      <trkpt lat="42.016170382" lon="2.519725541">
        <ele>652.87</ele>
        <time>2013-10-20T10:21:21Z</time>
      </trkpt>
      <trkpt lat="42.016087736" lon="2.519554886">
        <ele>651.91</ele>
        <time>2013-10-20T10:21:28Z</time>
      </trkpt>
      <trkpt lat="42.016074493" lon="2.519532590">
        <ele>651.91</ele>
        <time>2013-10-20T10:21:33Z</time>
      </trkpt>
      <trkpt lat="42.016086898" lon="2.519495961">
        <ele>651.43</ele>
        <time>2013-10-20T10:21:40Z</time>
      </trkpt>
      <trkpt lat="42.016082875" lon="2.519512641">
        <ele>650.95</ele>
        <time>2013-10-20T10:22:04Z</time>
      </trkpt>
      <trkpt lat="42.016082037" lon="2.519509540">
        <ele>650.95</ele>
        <time>2013-10-20T10:22:18Z</time>
      </trkpt>
      <trkpt lat="42.016072733" lon="2.519511803">
        <ele>650.95</ele>
        <time>2013-10-20T10:22:33Z</time>
      </trkpt>
      <trkpt lat="42.016075918" lon="2.519509791">
        <ele>650.95</ele>
        <time>2013-10-20T10:22:50Z</time>
      </trkpt>
      <trkpt lat="42.016072481" lon="2.519484897">
        <ele>650.95</ele>
        <time>2013-10-20T10:23:10Z</time>
      </trkpt>
      <trkpt lat="42.016060160" lon="2.519460589">
        <ele>650.95</ele>
        <time>2013-10-20T10:23:35Z</time>
      </trkpt>
      <trkpt lat="42.016056388" lon="2.519444496">
        <ele>650.95</ele>
        <time>2013-10-20T10:23:52Z</time>
      </trkpt>
      <trkpt lat="42.016059154" lon="2.519444077">
        <ele>650.95</ele>
        <time>2013-10-20T10:24:05Z</time>
      </trkpt>
      <trkpt lat="42.016058316" lon="2.519445418">
        <ele>650.95</ele>
        <time>2013-10-20T10:24:17Z</time>
      </trkpt>
      <trkpt lat="42.016064602" lon="2.519453632">
        <ele>650.95</ele>
        <time>2013-10-20T10:24:31Z</time>
      </trkpt>
      <trkpt lat="42.016059992" lon="2.519443155">
        <ele>651.43</ele>
        <time>2013-10-20T10:24:51Z</time>
      </trkpt>
      <trkpt lat="42.016043396" lon="2.519427984">
        <ele>651.43</ele>
        <time>2013-10-20T10:25:10Z</time>
      </trkpt>
      <trkpt lat="42.016046665" lon="2.519440054">
        <ele>651.43</ele>
        <time>2013-10-20T10:25:33Z</time>
      </trkpt>
      <trkpt lat="42.016055466" lon="2.519434941">
        <ele>651.43</ele>
        <time>2013-10-20T10:25:52Z</time>
      </trkpt>
      <trkpt lat="42.016056220" lon="2.519435444">
        <ele>651.43</ele>
        <time>2013-10-20T10:26:11Z</time>
      </trkpt>
      <trkpt lat="42.016060327" lon="2.519457404">
        <ele>651.43</ele>
        <time>2013-10-20T10:26:30Z</time>
      </trkpt>
      <trkpt lat="42.016087317" lon="2.519459248">
        <ele>651.43</ele>
        <time>2013-10-20T10:26:52Z</time>
      </trkpt>
      <trkpt lat="42.016087066" lon="2.519469642">
        <ele>651.43</ele>
        <time>2013-10-20T10:27:16Z</time>
      </trkpt>
      <trkpt lat="42.016086647" lon="2.519474671">
        <ele>651.43</ele>
        <time>2013-10-20T10:27:33Z</time>
      </trkpt>
      <trkpt lat="42.016084300" lon="2.519463691">
        <ele>651.43</ele>
        <time>2013-10-20T10:28:00Z</time>
      </trkpt>
      <trkpt lat="42.016084970" lon="2.519469306">
        <ele>651.43</ele>
        <time>2013-10-20T10:28:26Z</time>
      </trkpt>
      <trkpt lat="42.016081198" lon="2.519461595">
        <ele>651.43</ele>
        <time>2013-10-20T10:28:50Z</time>
      </trkpt>
      <trkpt lat="42.016080193" lon="2.519464361">
        <ele>651.43</ele>
        <time>2013-10-20T10:29:05Z</time>
      </trkpt>
      <trkpt lat="42.016087233" lon="2.519457739">
        <ele>651.43</ele>
        <time>2013-10-20T10:29:27Z</time>
      </trkpt>
      <trkpt lat="42.016077259" lon="2.519461595">
        <ele>650.95</ele>
        <time>2013-10-20T10:29:45Z</time>
      </trkpt>
      <trkpt lat="42.016071308" lon="2.519461344">
        <ele>650.95</ele>
        <time>2013-10-20T10:30:08Z</time>
      </trkpt>
      <trkpt lat="42.016072984" lon="2.519463691">
        <ele>650.95</ele>
        <time>2013-10-20T10:30:28Z</time>
      </trkpt>
      <trkpt lat="42.016101147" lon="2.519480790">
        <ele>650.95</ele>
        <time>2013-10-20T10:30:45Z</time>
      </trkpt>
      <trkpt lat="42.016088491" lon="2.519470648">
        <ele>650.95</ele>
        <time>2013-10-20T10:31:03Z</time>
      </trkpt>
      <trkpt lat="42.016078432" lon="2.519467965">
        <ele>650.95</ele>
        <time>2013-10-20T10:31:28Z</time>
      </trkpt>
      <trkpt lat="42.016078600" lon="2.519464613">
        <ele>650.95</ele>
        <time>2013-10-20T10:31:42Z</time>
      </trkpt>
      <trkpt lat="42.016086814" lon="2.519476431">
        <ele>650.95</ele>
        <time>2013-10-20T10:32:05Z</time>
      </trkpt>
      <trkpt lat="42.016090502" lon="2.519470480">
        <ele>650.95</ele>
        <time>2013-10-20T10:32:36Z</time>
      </trkpt>
      <trkpt lat="42.016094023" lon="2.519475341">
        <ele>650.95</ele>
        <time>2013-10-20T10:32:53Z</time>
      </trkpt>
      <trkpt lat="42.016105841" lon="2.519491602">
        <ele>650.95</ele>
        <time>2013-10-20T10:33:15Z</time>
      </trkpt>
      <trkpt lat="42.016109362" lon="2.519506354">
        <ele>650.95</ele>
        <time>2013-10-20T10:33:30Z</time>
      </trkpt>
      <trkpt lat="42.016107601" lon="2.519497470">
        <ele>650.47</ele>
        <time>2013-10-20T10:33:48Z</time>
      </trkpt>
      <trkpt lat="42.016099974" lon="2.519491016">
        <ele>650.47</ele>
        <time>2013-10-20T10:34:06Z</time>
      </trkpt>
      <trkpt lat="42.016105590" lon="2.519512808">
        <ele>650.47</ele>
        <time>2013-10-20T10:34:25Z</time>
      </trkpt>
      <trkpt lat="42.016108607" lon="2.519513060">
        <ele>650.47</ele>
        <time>2013-10-20T10:34:43Z</time>
      </trkpt>
      <trkpt lat="42.016113972" lon="2.519499314">
        <ele>650.47</ele>
        <time>2013-10-20T10:34:59Z</time>
      </trkpt>
      <trkpt lat="42.016115648" lon="2.519503337">
        <ele>650.47</ele>
        <time>2013-10-20T10:35:19Z</time>
      </trkpt>
      <trkpt lat="42.016117743" lon="2.519516748">
        <ele>650.47</ele>
        <time>2013-10-20T10:35:39Z</time>
      </trkpt>
      <trkpt lat="42.016134926" lon="2.519522615">
        <ele>650.47</ele>
        <time>2013-10-20T10:36:02Z</time>
      </trkpt>
      <trkpt lat="42.016132663" lon="2.519514736">
        <ele>650.47</ele>
        <time>2013-10-20T10:36:20Z</time>
      </trkpt>
      <trkpt lat="42.016126042" lon="2.519518341">
        <ele>650.47</ele>
        <time>2013-10-20T10:36:36Z</time>
      </trkpt>
      <trkpt lat="42.016116989" lon="2.519516748">
        <ele>650.47</ele>
        <time>2013-10-20T10:36:43Z</time>
      </trkpt>
      <trkpt lat="42.016116905" lon="2.519562932">
        <ele>651.43</ele>
        <time>2013-10-20T10:36:47Z</time>
      </trkpt>
      <trkpt lat="42.016117743" lon="2.519593861">
        <ele>651.43</ele>
        <time>2013-10-20T10:36:54Z</time>
      </trkpt>
      <trkpt lat="42.016132579" lon="2.519672065">
        <ele>651.43</ele>
        <time>2013-10-20T10:37:01Z</time>
      </trkpt>
      <trkpt lat="42.016168957" lon="2.519728223">
        <ele>651.43</ele>
        <time>2013-10-20T10:37:06Z</time>
      </trkpt>
      <trkpt lat="42.016209441" lon="2.519678603">
        <ele>651.91</ele>
        <time>2013-10-20T10:37:12Z</time>
      </trkpt>
      <trkpt lat="42.016284627" lon="2.519577768">
        <ele>650.47</ele>
        <time>2013-10-20T10:37:18Z</time>
      </trkpt>
      <trkpt lat="42.016386551" lon="2.519549773">
        <ele>648.55</ele>
        <time>2013-10-20T10:37:23Z</time>
      </trkpt>
      <trkpt lat="42.016500294" lon="2.519486908">
        <ele>647.10</ele>
        <time>2013-10-20T10:37:29Z</time>
      </trkpt>
      <trkpt lat="42.016660975" lon="2.519435779">
        <ele>646.14</ele>
        <time>2013-10-20T10:37:34Z</time>
      </trkpt>
      <trkpt lat="42.016807071" lon="2.519441059">
        <ele>645.18</ele>
        <time>2013-10-20T10:37:37Z</time>
      </trkpt>
      <trkpt lat="42.017176378" lon="2.519599813">
        <ele>643.74</ele>
        <time>2013-10-20T10:37:44Z</time>
      </trkpt>
      <trkpt lat="42.017287103" lon="2.519626216">
        <ele>642.78</ele>
        <time>2013-10-20T10:37:49Z</time>
      </trkpt>
      <trkpt lat="42.017400761" lon="2.519648763">
        <ele>641.82</ele>
        <time>2013-10-20T10:37:56Z</time>
      </trkpt>
      <trkpt lat="42.017524562" lon="2.519668460">
        <ele>641.34</ele>
        <time>2013-10-20T10:38:02Z</time>
      </trkpt>
      <trkpt lat="42.017787167" lon="2.519731744">
        <ele>640.86</ele>
        <time>2013-10-20T10:38:09Z</time>
      </trkpt>
      <trkpt lat="42.017951872" lon="2.519848085">
        <ele>639.89</ele>
        <time>2013-10-20T10:38:15Z</time>
      </trkpt>
      <trkpt lat="42.018160413" lon="2.519944979">
        <ele>637.97</ele>
        <time>2013-10-20T10:38:21Z</time>
      </trkpt>
      <trkpt lat="42.018440453" lon="2.520075653">
        <ele>637.97</ele>
        <time>2013-10-20T10:38:27Z</time>
      </trkpt>
      <trkpt lat="42.018842113" lon="2.520358710">
        <ele>637.49</ele>
        <time>2013-10-20T10:38:35Z</time>
      </trkpt>
      <trkpt lat="42.019183341" lon="2.520560630">
        <ele>636.05</ele>
        <time>2013-10-20T10:38:43Z</time>
      </trkpt>
      <trkpt lat="42.019352571" lon="2.520619974">
        <ele>635.09</ele>
        <time>2013-10-20T10:38:48Z</time>
      </trkpt>
      <trkpt lat="42.019429350" lon="2.520634139">
        <ele>635.09</ele>
        <time>2013-10-20T10:38:50Z</time>
      </trkpt>
      <trkpt lat="42.019692122" lon="2.520616621">
        <ele>632.20</ele>
        <time>2013-10-20T10:38:57Z</time>
      </trkpt>
      <trkpt lat="42.019811397" lon="2.520647131">
        <ele>631.72</ele>
        <time>2013-10-20T10:39:02Z</time>
      </trkpt>
      <trkpt lat="42.020008623" lon="2.520698010">
        <ele>629.80</ele>
        <time>2013-10-20T10:39:08Z</time>
      </trkpt>
      <trkpt lat="42.020127562" lon="2.520761042">
        <ele>627.88</ele>
        <time>2013-10-20T10:39:14Z</time>
      </trkpt>
      <trkpt lat="42.020156983" lon="2.520766657">
        <ele>627.40</ele>
        <time>2013-10-20T10:39:16Z</time>
      </trkpt>
      <trkpt lat="42.020246418" lon="2.520786522">
        <ele>625.96</ele>
        <time>2013-10-20T10:39:21Z</time>
      </trkpt>
      <trkpt lat="42.020368709" lon="2.520788199">
        <ele>625.47</ele>
        <time>2013-10-20T10:39:26Z</time>
      </trkpt>
      <trkpt lat="42.020532492" lon="2.520931194">
        <ele>624.03</ele>
        <time>2013-10-20T10:39:31Z</time>
      </trkpt>
      <trkpt lat="42.020661406" lon="2.521122637">
        <ele>622.59</ele>
        <time>2013-10-20T10:39:37Z</time>
      </trkpt>
      <trkpt lat="42.020772130" lon="2.521227746">
        <ele>622.11</ele>
        <time>2013-10-20T10:39:41Z</time>
      </trkpt>
      <trkpt lat="42.020844969" lon="2.521198828">
        <ele>620.67</ele>
        <time>2013-10-20T10:39:45Z</time>
      </trkpt>
      <trkpt lat="42.020885119" lon="2.521147447">
        <ele>620.67</ele>
        <time>2013-10-20T10:39:48Z</time>
      </trkpt>
      <trkpt lat="42.020931722" lon="2.520838071">
        <ele>619.71</ele>
        <time>2013-10-20T10:39:55Z</time>
      </trkpt>
      <trkpt lat="42.020902385" lon="2.520695495">
        <ele>619.23</ele>
        <time>2013-10-20T10:39:58Z</time>
      </trkpt>
      <trkpt lat="42.020917892" lon="2.520470189">
        <ele>617.30</ele>
        <time>2013-10-20T10:40:06Z</time>
      </trkpt>
      <trkpt lat="42.020954185" lon="2.520305737">
        <ele>615.38</ele>
        <time>2013-10-20T10:40:10Z</time>
      </trkpt>
      <trkpt lat="42.020998190" lon="2.520095183">
        <ele>613.94</ele>
        <time>2013-10-20T10:40:18Z</time>
      </trkpt>
      <trkpt lat="42.021041022" lon="2.519864681">
        <ele>612.98</ele>
        <time>2013-10-20T10:40:24Z</time>
      </trkpt>
      <trkpt lat="42.021097097" lon="2.519589335">
        <ele>612.50</ele>
        <time>2013-10-20T10:40:30Z</time>
      </trkpt>
      <trkpt lat="42.021159626" lon="2.519495123">
        <ele>611.06</ele>
        <time>2013-10-20T10:40:35Z</time>
      </trkpt>
      <trkpt lat="42.021176725" lon="2.519477185">
        <ele>611.06</ele>
        <time>2013-10-20T10:40:37Z</time>
      </trkpt>
      <trkpt lat="42.021245876" lon="2.519474000">
        <ele>610.09</ele>
        <time>2013-10-20T10:40:41Z</time>
      </trkpt>
      <trkpt lat="42.021389290" lon="2.519443406">
        <ele>609.13</ele>
        <time>2013-10-20T10:40:47Z</time>
      </trkpt>
      <trkpt lat="42.021529184" lon="2.519318181">
        <ele>608.17</ele>
        <time>2013-10-20T10:40:52Z</time>
      </trkpt>
      <trkpt lat="42.021707635" lon="2.519308793">
        <ele>606.73</ele>
        <time>2013-10-20T10:40:59Z</time>
      </trkpt>
      <trkpt lat="42.021752143" lon="2.519322036">
        <ele>606.25</ele>
        <time>2013-10-20T10:41:01Z</time>
      </trkpt>
      <trkpt lat="42.021794974" lon="2.519177700">
        <ele>606.25</ele>
        <time>2013-10-20T10:41:06Z</time>
      </trkpt>
      <trkpt lat="42.021741833" lon="2.518988688">
        <ele>606.25</ele>
        <time>2013-10-20T10:41:11Z</time>
      </trkpt>
      <trkpt lat="42.021654074" lon="2.518832114">
        <ele>605.29</ele>
        <time>2013-10-20T10:41:16Z</time>
      </trkpt>
      <trkpt lat="42.021631192" lon="2.518771848">
        <ele>604.81</ele>
        <time>2013-10-20T10:41:18Z</time>
      </trkpt>
      <trkpt lat="42.021534213" lon="2.518578729">
        <ele>602.40</ele>
        <time>2013-10-20T10:41:25Z</time>
      </trkpt>
      <trkpt lat="42.021420387" lon="2.518468591">
        <ele>600.96</ele>
        <time>2013-10-20T10:41:29Z</time>
      </trkpt>
      <trkpt lat="42.021354673" lon="2.518381838">
        <ele>600.48</ele>
        <time>2013-10-20T10:41:31Z</time>
      </trkpt>
      <trkpt lat="42.021239505" lon="2.518114707">
        <ele>598.56</ele>
        <time>2013-10-20T10:41:37Z</time>
      </trkpt>
      <trkpt lat="42.021168678" lon="2.517883953">
        <ele>597.12</ele>
        <time>2013-10-20T10:41:42Z</time>
      </trkpt>
      <trkpt lat="42.021094918" lon="2.517714052">
        <ele>594.71</ele>
        <time>2013-10-20T10:41:47Z</time>
      </trkpt>
      <trkpt lat="42.021074801" lon="2.517422949">
        <ele>591.83</ele>
        <time>2013-10-20T10:41:53Z</time>
      </trkpt>
      <trkpt lat="42.021059546" lon="2.517263357">
        <ele>590.87</ele>
        <time>2013-10-20T10:41:57Z</time>
      </trkpt>
      <trkpt lat="42.021072538" lon="2.517032436">
        <ele>589.91</ele>
        <time>2013-10-20T10:42:01Z</time>
      </trkpt>
      <trkpt lat="42.021131882" lon="2.516503789">
        <ele>587.98</ele>
        <time>2013-10-20T10:42:09Z</time>
      </trkpt>
      <trkpt lat="42.021188795" lon="2.516342186">
        <ele>586.06</ele>
        <time>2013-10-20T10:42:12Z</time>
      </trkpt>
      <trkpt lat="42.021326593" lon="2.516156611">
        <ele>582.70</ele>
        <time>2013-10-20T10:42:17Z</time>
      </trkpt>
      <trkpt lat="42.021358696" lon="2.516077234">
        <ele>581.73</ele>
        <time>2013-10-20T10:42:19Z</time>
      </trkpt>
      <trkpt lat="42.021357187" lon="2.515889647">
        <ele>580.29</ele>
        <time>2013-10-20T10:42:23Z</time>
      </trkpt>
      <trkpt lat="42.021318463" lon="2.515533919">
        <ele>578.37</ele>
        <time>2013-10-20T10:42:30Z</time>
      </trkpt>
      <trkpt lat="42.021311254" lon="2.515485472">
        <ele>577.89</ele>
        <time>2013-10-20T10:42:31Z</time>
      </trkpt>
      <trkpt lat="42.021294742" lon="2.515079955">
        <ele>576.93</ele>
        <time>2013-10-20T10:42:38Z</time>
      </trkpt>
      <trkpt lat="42.021295748" lon="2.514969398">
        <ele>575.97</ele>
        <time>2013-10-20T10:42:40Z</time>
      </trkpt>
      <trkpt lat="42.021257443" lon="2.514735124">
        <ele>575.01</ele>
        <time>2013-10-20T10:42:44Z</time>
      </trkpt>
      <trkpt lat="42.021175216" lon="2.514521888">
        <ele>573.08</ele>
        <time>2013-10-20T10:42:49Z</time>
      </trkpt>
      <trkpt lat="42.021189130" lon="2.514225253">
        <ele>571.16</ele>
        <time>2013-10-20T10:42:54Z</time>
      </trkpt>
      <trkpt lat="42.021240008" lon="2.514117797">
        <ele>569.24</ele>
        <time>2013-10-20T10:42:57Z</time>
      </trkpt>
      <trkpt lat="42.021264232" lon="2.514057614">
        <ele>568.76</ele>
        <time>2013-10-20T10:43:00Z</time>
      </trkpt>
      <trkpt lat="42.021283762" lon="2.514033558">
        <ele>568.28</ele>
        <time>2013-10-20T10:43:02Z</time>
      </trkpt>
      <trkpt lat="42.021301112" lon="2.514004641">
        <ele>567.32</ele>
        <time>2013-10-20T10:43:04Z</time>
      </trkpt>
      <trkpt lat="42.021356014" lon="2.513899364">
        <ele>565.87</ele>
        <time>2013-10-20T10:43:12Z</time>
      </trkpt>
      <trkpt lat="42.021363977" lon="2.513879164">
        <ele>565.87</ele>
        <time>2013-10-20T10:43:13Z</time>
      </trkpt>
      <trkpt lat="42.021481826" lon="2.513727367">
        <ele>563.47</ele>
        <time>2013-10-20T10:43:21Z</time>
      </trkpt>
      <trkpt lat="42.021571010" lon="2.513632903">
        <ele>562.03</ele>
        <time>2013-10-20T10:43:27Z</time>
      </trkpt>
      <trkpt lat="42.021682992" lon="2.513510695">
        <ele>561.07</ele>
        <time>2013-10-20T10:43:35Z</time>
      </trkpt>
      <trkpt lat="42.021830681" lon="2.513386392">
        <ele>559.62</ele>
        <time>2013-10-20T10:43:43Z</time>
      </trkpt>
      <trkpt lat="42.022071828" lon="2.513133510">
        <ele>558.18</ele>
        <time>2013-10-20T10:43:52Z</time>
      </trkpt>
      <trkpt lat="42.022105105" lon="2.513110208">
        <ele>558.18</ele>
        <time>2013-10-20T10:43:53Z</time>
      </trkpt>
      <trkpt lat="42.022195964" lon="2.512897978">
        <ele>558.18</ele>
        <time>2013-10-20T10:43:58Z</time>
      </trkpt>
      <trkpt lat="42.022221445" lon="2.512721874">
        <ele>558.18</ele>
        <time>2013-10-20T10:44:03Z</time>
      </trkpt>
      <trkpt lat="42.022252291" lon="2.512616095">
        <ele>558.18</ele>
        <time>2013-10-20T10:44:06Z</time>
      </trkpt>
      <trkpt lat="42.022330159" lon="2.512524313">
        <ele>558.18</ele>
        <time>2013-10-20T10:44:10Z</time>
      </trkpt>
      <trkpt lat="42.022530654" lon="2.512271431">
        <ele>557.70</ele>
        <time>2013-10-20T10:44:18Z</time>
      </trkpt>
      <trkpt lat="42.022557141" lon="2.512252069">
        <ele>557.70</ele>
        <time>2013-10-20T10:44:19Z</time>
      </trkpt>
      <trkpt lat="42.022704578" lon="2.512158359">
        <ele>557.70</ele>
        <time>2013-10-20T10:44:26Z</time>
      </trkpt>
      <trkpt lat="42.022854866" lon="2.512200939">
        <ele>557.70</ele>
        <time>2013-10-20T10:44:33Z</time>
      </trkpt>
      <trkpt lat="42.022972464" lon="2.512196580">
        <ele>557.22</ele>
        <time>2013-10-20T10:44:39Z</time>
      </trkpt>
      <trkpt lat="42.023079668" lon="2.512149558">
        <ele>556.26</ele>
        <time>2013-10-20T10:44:47Z</time>
      </trkpt>
      <trkpt lat="42.023091738" lon="2.512142098">
        <ele>556.26</ele>
        <time>2013-10-20T10:44:48Z</time>
      </trkpt>
      <trkpt lat="42.023187208" lon="2.512089627">
        <ele>554.82</ele>
        <time>2013-10-20T10:44:55Z</time>
      </trkpt>
      <trkpt lat="42.023197183" lon="2.512089460">
        <ele>554.82</ele>
        <time>2013-10-20T10:44:56Z</time>
      </trkpt>
      <trkpt lat="42.023234566" lon="2.512043275">
        <ele>554.34</ele>
        <time>2013-10-20T10:45:00Z</time>
      </trkpt>
      <trkpt lat="42.023213695" lon="2.511958618">
        <ele>553.86</ele>
        <time>2013-10-20T10:45:05Z</time>
      </trkpt>
      <trkpt lat="42.023163068" lon="2.511924588">
        <ele>552.90</ele>
        <time>2013-10-20T10:45:11Z</time>
      </trkpt>
      <trkpt lat="42.023098779" lon="2.511923079">
        <ele>552.41</ele>
        <time>2013-10-20T10:45:17Z</time>
      </trkpt>
      <trkpt lat="42.023047147" lon="2.511939927">
        <ele>550.97</ele>
        <time>2013-10-20T10:45:23Z</time>
      </trkpt>
      <trkpt lat="42.022985372" lon="2.511954008">
        <ele>550.49</ele>
        <time>2013-10-20T10:45:30Z</time>
      </trkpt>
      <trkpt lat="42.022932901" lon="2.511919307">
        <ele>550.01</ele>
        <time>2013-10-20T10:45:35Z</time>
      </trkpt>
      <trkpt lat="42.022889064" lon="2.511787879">
        <ele>549.05</ele>
        <time>2013-10-20T10:45:42Z</time>
      </trkpt>
      <trkpt lat="42.022818572" lon="2.511709173">
        <ele>549.05</ele>
        <time>2013-10-20T10:45:48Z</time>
      </trkpt>
      <trkpt lat="42.022813878" lon="2.511680171">
        <ele>550.49</ele>
        <time>2013-10-20T10:45:50Z</time>
      </trkpt>
      <trkpt lat="42.022856375" lon="2.511597274">
        <ele>551.45</ele>
        <time>2013-10-20T10:45:56Z</time>
      </trkpt>
      <trkpt lat="42.022934829" lon="2.511599286">
        <ele>551.93</ele>
        <time>2013-10-20T10:46:03Z</time>
      </trkpt>
      <trkpt lat="42.023042453" lon="2.511640944">
        <ele>552.41</ele>
        <time>2013-10-20T10:46:10Z</time>
      </trkpt>
      <trkpt lat="42.023141275" lon="2.511640106">
        <ele>552.90</ele>
        <time>2013-10-20T10:46:18Z</time>
      </trkpt>
      <trkpt lat="42.023191902" lon="2.511621247">
        <ele>552.90</ele>
        <time>2013-10-20T10:46:26Z</time>
      </trkpt>
      <trkpt lat="42.023217299" lon="2.511628707">
        <ele>552.90</ele>
        <time>2013-10-20T10:46:35Z</time>
      </trkpt>
      <trkpt lat="42.023260466" lon="2.511626946">
        <ele>553.38</ele>
        <time>2013-10-20T10:46:42Z</time>
      </trkpt>
      <trkpt lat="42.023281253" lon="2.511618062">
        <ele>553.38</ele>
        <time>2013-10-20T10:46:51Z</time>
      </trkpt>
      <trkpt lat="42.023291228" lon="2.511612362">
        <ele>553.38</ele>
        <time>2013-10-20T10:47:02Z</time>
      </trkpt>
      <trkpt lat="42.023309333" lon="2.511625689">
        <ele>553.38</ele>
        <time>2013-10-20T10:47:14Z</time>
      </trkpt>
      <trkpt lat="42.023298101" lon="2.511613954">
        <ele>553.38</ele>
        <time>2013-10-20T10:47:26Z</time>
      </trkpt>
      <trkpt lat="42.023308830" lon="2.511597945">
        <ele>553.38</ele>
        <time>2013-10-20T10:47:44Z</time>
      </trkpt>
      <trkpt lat="42.023308830" lon="2.511596017">
        <ele>553.38</ele>
        <time>2013-10-20T10:48:00Z</time>
      </trkpt>
      <trkpt lat="42.023300112" lon="2.511607752">
        <ele>553.38</ele>
        <time>2013-10-20T10:48:09Z</time>
      </trkpt>
      <trkpt lat="42.023297598" lon="2.511612446">
        <ele>553.38</ele>
        <time>2013-10-20T10:48:25Z</time>
      </trkpt>
      <trkpt lat="42.023274296" lon="2.511598867">
        <ele>553.38</ele>
        <time>2013-10-20T10:48:37Z</time>
      </trkpt>
      <trkpt lat="42.023287707" lon="2.511607919">
        <ele>553.38</ele>
        <time>2013-10-20T10:48:52Z</time>
      </trkpt>
      <trkpt lat="42.023326013" lon="2.511599035">
        <ele>553.86</ele>
        <time>2013-10-20T10:49:01Z</time>
      </trkpt>
      <trkpt lat="42.023358367" lon="2.511550755">
        <ele>554.34</ele>
        <time>2013-10-20T10:49:10Z</time>
      </trkpt>
      <trkpt lat="42.023337160" lon="2.511530722">
        <ele>554.34</ele>
        <time>2013-10-20T10:49:18Z</time>
      </trkpt>
      <trkpt lat="42.023341435" lon="2.511570368">
        <ele>554.34</ele>
        <time>2013-10-20T10:49:30Z</time>
      </trkpt>
      <trkpt lat="42.023349985" lon="2.511565339">
        <ele>554.34</ele>
        <time>2013-10-20T10:49:40Z</time>
      </trkpt>
      <trkpt lat="42.023339005" lon="2.511545893">
        <ele>554.34</ele>
        <time>2013-10-20T10:49:56Z</time>
      </trkpt>
      <trkpt lat="42.023347554" lon="2.511516138">
        <ele>554.34</ele>
        <time>2013-10-20T10:50:07Z</time>
      </trkpt>
      <trkpt lat="42.023361300" lon="2.511524603">
        <ele>554.34</ele>
        <time>2013-10-20T10:50:23Z</time>
      </trkpt>
      <trkpt lat="42.023356355" lon="2.511503984">
        <ele>554.34</ele>
        <time>2013-10-20T10:50:42Z</time>
      </trkpt>
      <trkpt lat="42.023341771" lon="2.511507253">
        <ele>554.82</ele>
        <time>2013-10-20T10:50:51Z</time>
      </trkpt>
      <trkpt lat="42.023324755" lon="2.511505576">
        <ele>554.82</ele>
        <time>2013-10-20T10:50:59Z</time>
      </trkpt>
      <trkpt lat="42.023306986" lon="2.511487639">
        <ele>554.82</ele>
        <time>2013-10-20T10:51:14Z</time>
      </trkpt>
      <trkpt lat="42.023228615" lon="2.511478670">
        <ele>555.30</ele>
        <time>2013-10-20T10:51:23Z</time>
      </trkpt>
      <trkpt lat="42.023147310" lon="2.511473222">
        <ele>555.78</ele>
        <time>2013-10-20T10:51:31Z</time>
      </trkpt>
      <trkpt lat="42.023061647" lon="2.511423685">
        <ele>556.26</ele>
        <time>2013-10-20T10:51:37Z</time>
      </trkpt>
      <trkpt lat="42.023015547" lon="2.511384206">
        <ele>556.26</ele>
        <time>2013-10-20T10:51:41Z</time>
      </trkpt>
      <trkpt lat="42.022952850" lon="2.511365263">
        <ele>557.22</ele>
        <time>2013-10-20T10:51:49Z</time>
      </trkpt>
      <trkpt lat="42.022903229" lon="2.511364006">
        <ele>557.70</ele>
        <time>2013-10-20T10:51:58Z</time>
      </trkpt>
      <trkpt lat="42.022855453" lon="2.511351098">
        <ele>558.18</ele>
        <time>2013-10-20T10:52:06Z</time>
      </trkpt>
      <trkpt lat="42.022787978" lon="2.511335172">
        <ele>558.66</ele>
        <time>2013-10-20T10:52:14Z</time>
      </trkpt>
      <trkpt lat="42.022717654" lon="2.511329640">
        <ele>559.62</ele>
        <time>2013-10-20T10:52:19Z</time>
      </trkpt>
      <trkpt lat="42.022604582" lon="2.511328467">
        <ele>560.11</ele>
        <time>2013-10-20T10:52:28Z</time>
      </trkpt>
      <trkpt lat="42.022539790" lon="2.511316229">
        <ele>560.11</ele>
        <time>2013-10-20T10:52:32Z</time>
      </trkpt>
      <trkpt lat="42.022435435" lon="2.511364341">
        <ele>560.59</ele>
        <time>2013-10-20T10:52:40Z</time>
      </trkpt>
      <trkpt lat="42.022347090" lon="2.511396276">
        <ele>560.59</ele>
        <time>2013-10-20T10:52:47Z</time>
      </trkpt>
      <trkpt lat="42.022225385" lon="2.511426870">
        <ele>560.59</ele>
        <time>2013-10-20T10:52:55Z</time>
      </trkpt>
      <trkpt lat="42.022167047" lon="2.511445227">
        <ele>560.59</ele>
        <time>2013-10-20T10:52:59Z</time>
      </trkpt>
      <trkpt lat="42.022013574" lon="2.511530722">
        <ele>561.07</ele>
        <time>2013-10-20T10:53:09Z</time>
      </trkpt>
      <trkpt lat="42.021904693" lon="2.511594592">
        <ele>562.51</ele>
        <time>2013-10-20T10:53:16Z</time>
      </trkpt>
      <trkpt lat="42.021808218" lon="2.511683859">
        <ele>563.47</ele>
        <time>2013-10-20T10:53:23Z</time>
      </trkpt>
      <trkpt lat="42.021684752" lon="2.511755189">
        <ele>564.91</ele>
        <time>2013-10-20T10:53:32Z</time>
      </trkpt>
      <trkpt lat="42.021674191" lon="2.511757872">
        <ele>564.91</ele>
        <time>2013-10-20T10:53:33Z</time>
      </trkpt>
      <trkpt lat="42.021607722" lon="2.511787711">
        <ele>565.39</ele>
        <time>2013-10-20T10:53:38Z</time>
      </trkpt>
      <trkpt lat="42.021555252" lon="2.511808582">
        <ele>565.87</ele>
        <time>2013-10-20T10:53:42Z</time>
      </trkpt>
      <trkpt lat="42.021456261" lon="2.511867256">
        <ele>567.32</ele>
        <time>2013-10-20T10:53:49Z</time>
      </trkpt>
      <trkpt lat="42.021318295" lon="2.511909249">
        <ele>568.76</ele>
        <time>2013-10-20T10:53:58Z</time>
      </trkpt>
      <trkpt lat="42.021160045" lon="2.511841775">
        <ele>568.76</ele>
        <time>2013-10-20T10:54:06Z</time>
      </trkpt>
      <trkpt lat="42.020953180" lon="2.511778575">
        <ele>569.24</ele>
        <time>2013-10-20T10:54:13Z</time>
      </trkpt>
      <trkpt lat="42.020815800" lon="2.511737671">
        <ele>569.72</ele>
        <time>2013-10-20T10:54:20Z</time>
      </trkpt>
      <trkpt lat="42.020692838" lon="2.511730044">
        <ele>569.72</ele>
        <time>2013-10-20T10:54:26Z</time>
      </trkpt>
      <trkpt lat="42.020526457" lon="2.511707580">
        <ele>570.68</ele>
        <time>2013-10-20T10:54:34Z</time>
      </trkpt>
      <trkpt lat="42.020360160" lon="2.511617642">
        <ele>571.64</ele>
        <time>2013-10-20T10:54:43Z</time>
      </trkpt>
      <trkpt lat="42.020266283" lon="2.511480682">
        <ele>572.12</ele>
        <time>2013-10-20T10:54:51Z</time>
      </trkpt>
      <trkpt lat="42.020164443" lon="2.511402647">
        <ele>573.08</ele>
        <time>2013-10-20T10:55:00Z</time>
      </trkpt>
      <trkpt lat="42.020016167" lon="2.511333580">
        <ele>573.56</ele>
        <time>2013-10-20T10:55:08Z</time>
      </trkpt>
      <trkpt lat="42.019873004" lon="2.511257472">
        <ele>574.04</ele>
        <time>2013-10-20T10:55:16Z</time>
      </trkpt>
      <trkpt lat="42.019729170" lon="2.511157979">
        <ele>574.53</ele>
        <time>2013-10-20T10:55:24Z</time>
      </trkpt>
      <trkpt lat="42.019573854" lon="2.511115315">
        <ele>575.01</ele>
        <time>2013-10-20T10:55:32Z</time>
      </trkpt>
      <trkpt lat="42.019546948" lon="2.511080698">
        <ele>575.01</ele>
        <time>2013-10-20T10:55:36Z</time>
      </trkpt>
      <trkpt lat="42.019561532" lon="2.510993945">
        <ele>575.49</ele>
        <time>2013-10-20T10:55:41Z</time>
      </trkpt>
      <trkpt lat="42.019531525" lon="2.510888249">
        <ele>576.45</ele>
        <time>2013-10-20T10:55:48Z</time>
      </trkpt>
      <trkpt lat="42.019471594" lon="2.510803341">
        <ele>576.93</ele>
        <time>2013-10-20T10:55:54Z</time>
      </trkpt>
      <trkpt lat="42.019404707" lon="2.510653304">
        <ele>577.41</ele>
        <time>2013-10-20T10:56:03Z</time>
      </trkpt>
      <trkpt lat="42.019343519" lon="2.510531935">
        <ele>577.89</ele>
        <time>2013-10-20T10:56:10Z</time>
      </trkpt>
      <trkpt lat="42.019325833" lon="2.510489187">
        <ele>578.37</ele>
        <time>2013-10-20T10:56:13Z</time>
      </trkpt>
      <trkpt lat="42.019243858" lon="2.510395058">
        <ele>578.85</ele>
        <time>2013-10-20T10:56:19Z</time>
      </trkpt>
      <trkpt lat="42.019098432" lon="2.510225744">
        <ele>578.85</ele>
        <time>2013-10-20T10:56:29Z</time>
      </trkpt>
      <trkpt lat="42.018968596" lon="2.510121976">
        <ele>580.29</ele>
        <time>2013-10-20T10:56:40Z</time>
      </trkpt>
      <trkpt lat="42.018882011" lon="2.510074366">
        <ele>580.77</ele>
        <time>2013-10-20T10:56:46Z</time>
      </trkpt>
      <trkpt lat="42.018758630" lon="2.510066571">
        <ele>581.73</ele>
        <time>2013-10-20T10:56:54Z</time>
      </trkpt>
      <trkpt lat="42.018584370" lon="2.510039162">
        <ele>582.70</ele>
        <time>2013-10-20T10:57:04Z</time>
      </trkpt>
      <trkpt lat="42.018445398" lon="2.509996750">
        <ele>583.66</ele>
        <time>2013-10-20T10:57:12Z</time>
      </trkpt>
      <trkpt lat="42.018304833" lon="2.509892647">
        <ele>583.66</ele>
        <time>2013-10-20T10:57:20Z</time>
      </trkpt>
      <trkpt lat="42.018271725" lon="2.509883008">
        <ele>583.66</ele>
        <time>2013-10-20T10:57:25Z</time>
      </trkpt>
      <trkpt lat="42.018238365" lon="2.509840427">
        <ele>583.66</ele>
        <time>2013-10-20T10:57:32Z</time>
      </trkpt>
      <trkpt lat="42.018147002" lon="2.509738587">
        <ele>584.14</ele>
        <time>2013-10-20T10:57:39Z</time>
      </trkpt>
      <trkpt lat="42.018053963" lon="2.509639346">
        <ele>584.14</ele>
        <time>2013-10-20T10:57:45Z</time>
      </trkpt>
      <trkpt lat="42.017886912" lon="2.509490567">
        <ele>584.14</ele>
        <time>2013-10-20T10:57:54Z</time>
      </trkpt>
      <trkpt lat="42.017800327" lon="2.509379088">
        <ele>584.14</ele>
        <time>2013-10-20T10:58:01Z</time>
      </trkpt>
      <trkpt lat="42.017714664" lon="2.509266099">
        <ele>584.14</ele>
        <time>2013-10-20T10:58:08Z</time>
      </trkpt>
      <trkpt lat="42.017702175" lon="2.509249922">
        <ele>584.14</ele>
        <time>2013-10-20T10:58:09Z</time>
      </trkpt>
      <trkpt lat="42.017658756" lon="2.509170462">
        <ele>582.70</ele>
        <time>2013-10-20T10:58:13Z</time>
      </trkpt>
      <trkpt lat="42.017518024" lon="2.509126960">
        <ele>582.22</ele>
        <time>2013-10-20T10:58:20Z</time>
      </trkpt>
      <trkpt lat="42.017434373" lon="2.509063593">
        <ele>581.25</ele>
        <time>2013-10-20T10:58:26Z</time>
      </trkpt>
      <trkpt lat="42.017445185" lon="2.509010787">
        <ele>580.77</ele>
        <time>2013-10-20T10:58:31Z</time>
      </trkpt>
      <trkpt lat="42.017457255" lon="2.508939205">
        <ele>580.29</ele>
        <time>2013-10-20T10:58:38Z</time>
      </trkpt>
      <trkpt lat="42.017459854" lon="2.508890506">
        <ele>579.81</ele>
        <time>2013-10-20T10:58:45Z</time>
      </trkpt>
      <trkpt lat="42.017470415" lon="2.508811717">
        <ele>579.33</ele>
        <time>2013-10-20T10:58:51Z</time>
      </trkpt>
      <trkpt lat="42.017493046" lon="2.508637708">
        <ele>578.37</ele>
        <time>2013-10-20T10:58:57Z</time>
      </trkpt>
      <trkpt lat="42.017595724" lon="2.508418019">
        <ele>577.41</ele>
        <time>2013-10-20T10:59:05Z</time>
      </trkpt>
      <trkpt lat="42.017660014" lon="2.508300337">
        <ele>576.45</ele>
        <time>2013-10-20T10:59:10Z</time>
      </trkpt>
      <trkpt lat="42.017805859" lon="2.508097662">
        <ele>575.49</ele>
        <time>2013-10-20T10:59:18Z</time>
      </trkpt>
      <trkpt lat="42.017845170" lon="2.508020130">
        <ele>574.53</ele>
        <time>2013-10-20T10:59:20Z</time>
      </trkpt>
      <trkpt lat="42.018076259" lon="2.507765404">
        <ele>573.08</ele>
        <time>2013-10-20T10:59:27Z</time>
      </trkpt>
      <trkpt lat="42.018122024" lon="2.507692984">
        <ele>573.08</ele>
        <time>2013-10-20T10:59:29Z</time>
      </trkpt>
      <trkpt lat="42.018158402" lon="2.507514449">
        <ele>573.08</ele>
        <time>2013-10-20T10:59:35Z</time>
      </trkpt>
      <trkpt lat="42.018160413" lon="2.507490812">
        <ele>573.08</ele>
        <time>2013-10-20T10:59:36Z</time>
      </trkpt>
      <trkpt lat="42.018176171" lon="2.507397103">
        <ele>573.08</ele>
        <time>2013-10-20T10:59:40Z</time>
      </trkpt>
      <trkpt lat="42.018175668" lon="2.507250755">
        <ele>571.64</ele>
        <time>2013-10-20T10:59:48Z</time>
      </trkpt>
      <trkpt lat="42.018168041" lon="2.507240193">
        <ele>571.64</ele>
        <time>2013-10-20T10:59:49Z</time>
      </trkpt>
      <trkpt lat="42.018114145" lon="2.507193339">
        <ele>571.64</ele>
        <time>2013-10-20T10:59:57Z</time>
      </trkpt>
      <trkpt lat="42.018052287" lon="2.507164170">
        <ele>573.08</ele>
        <time>2013-10-20T11:00:06Z</time>
      </trkpt>
      <trkpt lat="42.017975676" lon="2.507136761">
        <ele>573.08</ele>
        <time>2013-10-20T11:00:12Z</time>
      </trkpt>
      <trkpt lat="42.017879536" lon="2.506990329">
        <ele>573.08</ele>
        <time>2013-10-20T11:00:18Z</time>
      </trkpt>
      <trkpt lat="42.017717262" lon="2.506821769">
        <ele>573.56</ele>
        <time>2013-10-20T11:00:27Z</time>
      </trkpt>
      <trkpt lat="42.017543254" lon="2.506742392">
        <ele>573.56</ele>
        <time>2013-10-20T11:00:34Z</time>
      </trkpt>
      <trkpt lat="42.017409814" lon="2.506723198">
        <ele>571.64</ele>
        <time>2013-10-20T11:00:40Z</time>
      </trkpt>
      <trkpt lat="42.017247289" lon="2.506764437">
        <ele>570.20</ele>
        <time>2013-10-20T11:00:46Z</time>
      </trkpt>
      <trkpt lat="42.017138659" lon="2.506781620">
        <ele>569.72</ele>
        <time>2013-10-20T11:00:49Z</time>
      </trkpt>
      <trkpt lat="42.016972949" lon="2.506729400">
        <ele>569.24</ele>
        <time>2013-10-20T11:00:55Z</time>
      </trkpt>
      <trkpt lat="42.016632979" lon="2.506714481">
        <ele>569.24</ele>
        <time>2013-10-20T11:01:04Z</time>
      </trkpt>
      <trkpt lat="42.016438184" lon="2.506728897">
        <ele>569.24</ele>
        <time>2013-10-20T11:01:11Z</time>
      </trkpt>
      <trkpt lat="42.016252944" lon="2.506791762">
        <ele>569.24</ele>
        <time>2013-10-20T11:01:18Z</time>
      </trkpt>
      <trkpt lat="42.016201060" lon="2.506807017">
        <ele>570.68</ele>
        <time>2013-10-20T11:01:20Z</time>
      </trkpt>
      <trkpt lat="42.016123192" lon="2.506807352">
        <ele>571.16</ele>
        <time>2013-10-20T11:01:24Z</time>
      </trkpt>
      <trkpt lat="42.016077929" lon="2.506780698">
        <ele>570.20</ele>
        <time>2013-10-20T11:01:31Z</time>
      </trkpt>
      <trkpt lat="42.016076337" lon="2.506782458">
        <ele>570.20</ele>
        <time>2013-10-20T11:01:32Z</time>
      </trkpt>
      <trkpt lat="42.016073571" lon="2.506796958">
        <ele>571.16</ele>
        <time>2013-10-20T11:01:39Z</time>
      </trkpt>
      <trkpt lat="42.016051443" lon="2.506802155">
        <ele>571.64</ele>
        <time>2013-10-20T11:01:47Z</time>
      </trkpt>
      <trkpt lat="42.016026465" lon="2.506805508">
        <ele>572.60</ele>
        <time>2013-10-20T11:01:54Z</time>
      </trkpt>
      <trkpt lat="42.016035098" lon="2.506782709">
        <ele>572.60</ele>
        <time>2013-10-20T11:02:13Z</time>
      </trkpt>
      <trkpt lat="42.016046162" lon="2.506755803">
        <ele>572.60</ele>
        <time>2013-10-20T11:02:27Z</time>
      </trkpt>
      <trkpt lat="42.016037948" lon="2.506751109">
        <ele>572.60</ele>
        <time>2013-10-20T11:02:34Z</time>
      </trkpt>
      <trkpt lat="42.015997547" lon="2.506728143">
        <ele>572.60</ele>
        <time>2013-10-20T11:02:46Z</time>
      </trkpt>
      <trkpt lat="42.015898305" lon="2.506641977">
        <ele>572.60</ele>
        <time>2013-10-20T11:02:54Z</time>
      </trkpt>
      <trkpt lat="42.015875674" lon="2.506633511">
        <ele>572.60</ele>
        <time>2013-10-20T11:03:01Z</time>
      </trkpt>
      <trkpt lat="42.015870310" lon="2.506632506">
        <ele>572.60</ele>
        <time>2013-10-20T11:03:12Z</time>
      </trkpt>
      <trkpt lat="42.015822030" lon="2.506573413">
        <ele>572.60</ele>
        <time>2013-10-20T11:03:18Z</time>
      </trkpt>
      <trkpt lat="42.015710132" lon="2.506483140">
        <ele>573.08</ele>
        <time>2013-10-20T11:03:25Z</time>
      </trkpt>
      <trkpt lat="42.015549283" lon="2.506375013">
        <ele>573.08</ele>
        <time>2013-10-20T11:03:32Z</time>
      </trkpt>
      <trkpt lat="42.015401091" lon="2.506223804">
        <ele>573.08</ele>
        <time>2013-10-20T11:03:40Z</time>
      </trkpt>
      <trkpt lat="42.015298915" lon="2.506088771">
        <ele>573.56</ele>
        <time>2013-10-20T11:03:47Z</time>
      </trkpt>
      <trkpt lat="42.015298999" lon="2.506042755">
        <ele>574.04</ele>
        <time>2013-10-20T11:03:49Z</time>
      </trkpt>
      <trkpt lat="42.015215348" lon="2.505909483">
        <ele>574.04</ele>
        <time>2013-10-20T11:03:56Z</time>
      </trkpt>
      <trkpt lat="42.015193890" lon="2.505883582">
        <ele>574.04</ele>
        <time>2013-10-20T11:03:57Z</time>
      </trkpt>
      <trkpt lat="42.015049135" lon="2.505664480">
        <ele>574.53</ele>
        <time>2013-10-20T11:04:06Z</time>
      </trkpt>
      <trkpt lat="42.015004124" lon="2.505533554">
        <ele>575.49</ele>
        <time>2013-10-20T11:04:11Z</time>
      </trkpt>
      <trkpt lat="42.014936482" lon="2.505443700">
        <ele>575.49</ele>
        <time>2013-10-20T11:04:15Z</time>
      </trkpt>
      <trkpt lat="42.014714697" lon="2.505243457">
        <ele>574.53</ele>
        <time>2013-10-20T11:04:23Z</time>
      </trkpt>
      <trkpt lat="42.014542449" lon="2.505155195">
        <ele>572.60</ele>
        <time>2013-10-20T11:04:29Z</time>
      </trkpt>
      <trkpt lat="42.014314042" lon="2.505070789">
        <ele>570.20</ele>
        <time>2013-10-20T11:04:35Z</time>
      </trkpt>
      <trkpt lat="42.014281939" lon="2.505041034">
        <ele>570.20</ele>
        <time>2013-10-20T11:04:36Z</time>
      </trkpt>
      <trkpt lat="42.014216225" lon="2.504750852">
        <ele>568.28</ele>
        <time>2013-10-20T11:04:41Z</time>
      </trkpt>
      <trkpt lat="42.014178087" lon="2.504543400">
        <ele>567.32</ele>
        <time>2013-10-20T11:04:46Z</time>
      </trkpt>
      <trkpt lat="42.014148667" lon="2.504382216">
        <ele>566.83</ele>
        <time>2013-10-20T11:04:51Z</time>
      </trkpt>
      <trkpt lat="42.014086557" lon="2.504159593">
        <ele>565.39</ele>
        <time>2013-10-20T11:04:57Z</time>
      </trkpt>
      <trkpt lat="42.014049006" lon="2.503892797">
        <ele>564.43</ele>
        <time>2013-10-20T11:05:03Z</time>
      </trkpt>
      <trkpt lat="42.014085803" lon="2.503620720">
        <ele>563.95</ele>
        <time>2013-10-20T11:05:09Z</time>
      </trkpt>
      <trkpt lat="42.014006677" lon="2.503402958">
        <ele>562.51</ele>
        <time>2013-10-20T11:05:15Z</time>
      </trkpt>
      <trkpt lat="42.014003492" lon="2.503296592">
        <ele>561.55</ele>
        <time>2013-10-20T11:05:19Z</time>
      </trkpt>
      <trkpt lat="42.014096028" lon="2.503115710">
        <ele>560.59</ele>
        <time>2013-10-20T11:05:25Z</time>
      </trkpt>
      <trkpt lat="42.014255955" lon="2.502982522">
        <ele>559.14</ele>
        <time>2013-10-20T11:05:31Z</time>
      </trkpt>
      <trkpt lat="42.014329464" lon="2.502874647">
        <ele>556.74</ele>
        <time>2013-10-20T11:05:37Z</time>
      </trkpt>
      <trkpt lat="42.014441279" lon="2.502766185">
        <ele>555.30</ele>
        <time>2013-10-20T11:05:42Z</time>
      </trkpt>
      <trkpt lat="42.014646803" lon="2.502653784">
        <ele>554.34</ele>
        <time>2013-10-20T11:05:48Z</time>
      </trkpt>
      <trkpt lat="42.014705728" lon="2.502624615">
        <ele>553.86</ele>
        <time>2013-10-20T11:05:50Z</time>
      </trkpt>
      <trkpt lat="42.014782087" lon="2.502605001">
        <ele>552.90</ele>
        <time>2013-10-20T11:05:52Z</time>
      </trkpt>
      <trkpt lat="42.014938158" lon="2.502545741">
        <ele>552.41</ele>
        <time>2013-10-20T11:05:56Z</time>
      </trkpt>
      <trkpt lat="42.015093475" lon="2.502320771">
        <ele>552.41</ele>
        <time>2013-10-20T11:06:04Z</time>
      </trkpt>
      <trkpt lat="42.015126248" lon="2.502054645">
        <ele>550.97</ele>
        <time>2013-10-20T11:06:10Z</time>
      </trkpt>
      <trkpt lat="42.015133121" lon="2.501817186">
        <ele>550.01</ele>
        <time>2013-10-20T11:06:15Z</time>
      </trkpt>
      <trkpt lat="42.015169331" lon="2.501532872">
        <ele>548.09</ele>
        <time>2013-10-20T11:06:23Z</time>
      </trkpt>
      <trkpt lat="42.015191795" lon="2.501413933">
        <ele>547.61</ele>
        <time>2013-10-20T11:06:26Z</time>
      </trkpt>
      <trkpt lat="42.015138570" lon="2.501251408">
        <ele>547.13</ele>
        <time>2013-10-20T11:06:30Z</time>
      </trkpt>
      <trkpt lat="42.015004375" lon="2.501096342">
        <ele>546.65</ele>
        <time>2013-10-20T11:06:37Z</time>
      </trkpt>
      <trkpt lat="42.014896919" lon="2.500969943">
        <ele>546.65</ele>
        <time>2013-10-20T11:06:43Z</time>
      </trkpt>
      <trkpt lat="42.014787535" lon="2.500886376">
        <ele>548.09</ele>
        <time>2013-10-20T11:06:48Z</time>
      </trkpt>
      <trkpt lat="42.014712601" lon="2.500709015">
        <ele>549.05</ele>
        <time>2013-10-20T11:06:54Z</time>
      </trkpt>
      <trkpt lat="42.014754930" lon="2.500521260">
        <ele>549.53</ele>
        <time>2013-10-20T11:07:01Z</time>
      </trkpt>
      <trkpt lat="42.014764066" lon="2.500487062">
        <ele>549.53</ele>
        <time>2013-10-20T11:07:02Z</time>
      </trkpt>
      <trkpt lat="42.014819890" lon="2.500224205">
        <ele>549.53</ele>
        <time>2013-10-20T11:07:10Z</time>
      </trkpt>
      <trkpt lat="42.014942182" lon="2.499993032">
        <ele>549.53</ele>
        <time>2013-10-20T11:07:16Z</time>
      </trkpt>
      <trkpt lat="42.014992724" lon="2.499897898">
        <ele>549.53</ele>
        <time>2013-10-20T11:07:18Z</time>
      </trkpt>
      <trkpt lat="42.015084171" lon="2.499759680">
        <ele>547.61</ele>
        <time>2013-10-20T11:07:21Z</time>
      </trkpt>
      <trkpt lat="42.015131277" lon="2.499666725">
        <ele>545.69</ele>
        <time>2013-10-20T11:07:23Z</time>
      </trkpt>
      <trkpt lat="42.015151059" lon="2.499617523">
        <ele>545.69</ele>
        <time>2013-10-20T11:07:24Z</time>
      </trkpt>
      <trkpt lat="42.015198835" lon="2.499517024">
        <ele>544.72</ele>
        <time>2013-10-20T11:07:26Z</time>
      </trkpt>
      <trkpt lat="42.015326576" lon="2.499389954">
        <ele>543.76</ele>
        <time>2013-10-20T11:07:31Z</time>
      </trkpt>
      <trkpt lat="42.015416933" lon="2.499290713">
        <ele>543.76</ele>
        <time>2013-10-20T11:07:36Z</time>
      </trkpt>
      <trkpt lat="42.015517432" lon="2.499125841">
        <ele>543.76</ele>
        <time>2013-10-20T11:07:43Z</time>
      </trkpt>
      <trkpt lat="42.015582727" lon="2.498987875">
        <ele>542.80</ele>
        <time>2013-10-20T11:07:49Z</time>
      </trkpt>
      <trkpt lat="42.015659840" lon="2.498844712">
        <ele>540.88</ele>
        <time>2013-10-20T11:07:55Z</time>
      </trkpt>
      <trkpt lat="42.015659672" lon="2.498830630">
        <ele>540.88</ele>
        <time>2013-10-20T11:07:56Z</time>
      </trkpt>
      <trkpt lat="42.015644836" lon="2.498785284">
        <ele>540.88</ele>
        <time>2013-10-20T11:08:03Z</time>
      </trkpt>
      <trkpt lat="42.015631845" lon="2.498751086">
        <ele>540.88</ele>
        <time>2013-10-20T11:08:11Z</time>
      </trkpt>
      <trkpt lat="42.015609968" lon="2.498694340">
        <ele>540.88</ele>
        <time>2013-10-20T11:08:22Z</time>
      </trkpt>
      <trkpt lat="42.015590103" lon="2.498594679">
        <ele>540.88</ele>
        <time>2013-10-20T11:08:29Z</time>
      </trkpt>
      <trkpt lat="42.015517348" lon="2.498460401">
        <ele>540.88</ele>
        <time>2013-10-20T11:08:36Z</time>
      </trkpt>
      <trkpt lat="42.015485580" lon="2.498416480">
        <ele>540.88</ele>
        <time>2013-10-20T11:08:38Z</time>
      </trkpt>
      <trkpt lat="42.015384830" lon="2.498259990">
        <ele>541.84</ele>
        <time>2013-10-20T11:08:45Z</time>
      </trkpt>
      <trkpt lat="42.015274524" lon="2.498066200">
        <ele>542.80</ele>
        <time>2013-10-20T11:08:53Z</time>
      </trkpt>
      <trkpt lat="42.015137648" lon="2.497930833">
        <ele>544.72</ele>
        <time>2013-10-20T11:09:02Z</time>
      </trkpt>
      <trkpt lat="42.015004124" lon="2.497836704">
        <ele>545.20</ele>
        <time>2013-10-20T11:09:09Z</time>
      </trkpt>
      <trkpt lat="42.014934051" lon="2.497626989">
        <ele>545.69</ele>
        <time>2013-10-20T11:09:16Z</time>
      </trkpt>
      <trkpt lat="42.015016613" lon="2.497433199">
        <ele>546.17</ele>
        <time>2013-10-20T11:09:23Z</time>
      </trkpt>
      <trkpt lat="42.015065144" lon="2.497372933">
        <ele>545.20</ele>
        <time>2013-10-20T11:09:25Z</time>
      </trkpt>
      <trkpt lat="42.015243595" lon="2.497230860">
        <ele>542.32</ele>
        <time>2013-10-20T11:09:31Z</time>
      </trkpt>
      <trkpt lat="42.015405533" lon="2.497082752">
        <ele>540.40</ele>
        <time>2013-10-20T11:09:38Z</time>
      </trkpt>
      <trkpt lat="42.015534195" lon="2.496948977">
        <ele>538.96</ele>
        <time>2013-10-20T11:09:43Z</time>
      </trkpt>
      <trkpt lat="42.015718513" lon="2.496780919">
        <ele>537.99</ele>
        <time>2013-10-20T11:09:49Z</time>
      </trkpt>
      <trkpt lat="42.015839800" lon="2.496674888">
        <ele>537.03</ele>
        <time>2013-10-20T11:09:54Z</time>
      </trkpt>
      <trkpt lat="42.016021268" lon="2.496517895">
        <ele>536.07</ele>
        <time>2013-10-20T11:10:01Z</time>
      </trkpt>
      <trkpt lat="42.016181697" lon="2.496273144">
        <ele>535.11</ele>
        <time>2013-10-20T11:10:08Z</time>
      </trkpt>
      <trkpt lat="42.016280101" lon="2.496134339">
        <ele>534.63</ele>
        <time>2013-10-20T11:10:15Z</time>
      </trkpt>
      <trkpt lat="42.016376409" lon="2.496028476">
        <ele>533.19</ele>
        <time>2013-10-20T11:10:22Z</time>
      </trkpt>
      <trkpt lat="42.016470705" lon="2.495852288">
        <ele>533.19</ele>
        <time>2013-10-20T11:10:29Z</time>
      </trkpt>
      <trkpt lat="42.016491241" lon="2.495830328">
        <ele>533.19</ele>
        <time>2013-10-20T11:10:30Z</time>
      </trkpt>
      <trkpt lat="42.016629794" lon="2.495685656">
        <ele>531.27</ele>
        <time>2013-10-20T11:10:38Z</time>
      </trkpt>
      <trkpt lat="42.016663322" lon="2.495587336">
        <ele>530.30</ele>
        <time>2013-10-20T11:10:44Z</time>
      </trkpt>
      <trkpt lat="42.016700956" lon="2.495474181">
        <ele>526.94</ele>
        <time>2013-10-20T11:10:49Z</time>
      </trkpt>
      <trkpt lat="42.016689725" lon="2.495437719">
        <ele>527.42</ele>
        <time>2013-10-20T11:10:51Z</time>
      </trkpt>
      <trkpt lat="42.016635745" lon="2.495399749">
        <ele>527.42</ele>
        <time>2013-10-20T11:10:55Z</time>
      </trkpt>
      <trkpt lat="42.016586459" lon="2.495365048">
        <ele>528.86</ele>
        <time>2013-10-20T11:10:58Z</time>
      </trkpt>
      <trkpt lat="42.016435837" lon="2.495294724">
        <ele>528.86</ele>
        <time>2013-10-20T11:11:06Z</time>
      </trkpt>
      <trkpt lat="42.016326201" lon="2.495223897">
        <ele>528.86</ele>
        <time>2013-10-20T11:11:13Z</time>
      </trkpt>
      <trkpt lat="42.016236515" lon="2.495141084">
        <ele>528.86</ele>
        <time>2013-10-20T11:11:18Z</time>
      </trkpt>
      <trkpt lat="42.016123611" lon="2.495029605">
        <ele>529.34</ele>
        <time>2013-10-20T11:11:24Z</time>
      </trkpt>
      <trkpt lat="42.015955051" lon="2.494916365">
        <ele>529.34</ele>
        <time>2013-10-20T11:11:31Z</time>
      </trkpt>
      <trkpt lat="42.015789257" lon="2.494863643">
        <ele>527.90</ele>
        <time>2013-10-20T11:11:37Z</time>
      </trkpt>
      <trkpt lat="42.015734271" lon="2.494838832">
        <ele>526.94</ele>
        <time>2013-10-20T11:11:41Z</time>
      </trkpt>
      <trkpt lat="42.015688339" lon="2.494728191">
        <ele>525.02</ele>
        <time>2013-10-20T11:11:48Z</time>
      </trkpt>
      <trkpt lat="42.015581888" lon="2.494567007">
        <ele>524.06</ele>
        <time>2013-10-20T11:11:57Z</time>
      </trkpt>
      <trkpt lat="42.015480719" lon="2.494501545">
        <ele>526.46</ele>
        <time>2013-10-20T11:12:04Z</time>
      </trkpt>
      <trkpt lat="42.015426236" lon="2.494455193">
        <ele>527.42</ele>
        <time>2013-10-20T11:12:08Z</time>
      </trkpt>
      <trkpt lat="42.015278966" lon="2.494379504">
        <ele>528.38</ele>
        <time>2013-10-20T11:12:17Z</time>
      </trkpt>
      <trkpt lat="42.015144605" lon="2.494258553">
        <ele>529.34</ele>
        <time>2013-10-20T11:12:24Z</time>
      </trkpt>
      <trkpt lat="42.014916114" lon="2.494117654">
        <ele>529.34</ele>
        <time>2013-10-20T11:12:33Z</time>
      </trkpt>
      <trkpt lat="42.014710925" lon="2.493902574">
        <ele>527.42</ele>
        <time>2013-10-20T11:12:40Z</time>
      </trkpt>
      <trkpt lat="42.014459719" lon="2.493663271">
        <ele>526.46</ele>
        <time>2013-10-20T11:12:48Z</time>
      </trkpt>
      <trkpt lat="42.014279341" lon="2.493567885">
        <ele>526.46</ele>
        <time>2013-10-20T11:12:54Z</time>
      </trkpt>
      <trkpt lat="42.014085048" lon="2.493420866">
        <ele>527.42</ele>
        <time>2013-10-20T11:13:02Z</time>
      </trkpt>
      <trkpt lat="42.013898216" lon="2.493348614">
        <ele>529.82</ele>
        <time>2013-10-20T11:13:11Z</time>
      </trkpt>
      <trkpt lat="42.013741558" lon="2.493291366">
        <ele>532.23</ele>
        <time>2013-10-20T11:13:19Z</time>
      </trkpt>
      <trkpt lat="42.013596383" lon="2.493201679">
        <ele>532.71</ele>
        <time>2013-10-20T11:13:24Z</time>
      </trkpt>
      <trkpt lat="42.013477528" lon="2.493030018">
        <ele>531.75</ele>
        <time>2013-10-20T11:13:28Z</time>
      </trkpt>
      <trkpt lat="42.013465542" lon="2.492971512">
        <ele>530.79</ele>
        <time>2013-10-20T11:13:29Z</time>
      </trkpt>
      <trkpt lat="42.013410389" lon="2.492475471">
        <ele>528.86</ele>
        <time>2013-10-20T11:13:37Z</time>
      </trkpt>
      <trkpt lat="42.013311315" lon="2.492268773">
        <ele>525.02</ele>
        <time>2013-10-20T11:13:41Z</time>
      </trkpt>
      <trkpt lat="42.013285750" lon="2.492214123">
        <ele>524.06</ele>
        <time>2013-10-20T11:13:42Z</time>
      </trkpt>
      <trkpt lat="42.013259263" lon="2.491949004">
        <ele>521.17</ele>
        <time>2013-10-20T11:13:47Z</time>
      </trkpt>
      <trkpt lat="42.013298239" lon="2.491848253">
        <ele>519.25</ele>
        <time>2013-10-20T11:13:49Z</time>
      </trkpt>
      <trkpt lat="42.013452382" lon="2.491571483">
        <ele>515.40</ele>
        <time>2013-10-20T11:13:54Z</time>
      </trkpt>
      <trkpt lat="42.013503847" lon="2.491468888">
        <ele>514.44</ele>
        <time>2013-10-20T11:13:56Z</time>
      </trkpt>
      <trkpt lat="42.013482389" lon="2.491302591">
        <ele>513.96</ele>
        <time>2013-10-20T11:13:59Z</time>
      </trkpt>
      <trkpt lat="42.013374347" lon="2.490973602">
        <ele>513.48</ele>
        <time>2013-10-20T11:14:04Z</time>
      </trkpt>
      <trkpt lat="42.013167900" lon="2.490624160">
        <ele>512.52</ele>
        <time>2013-10-20T11:14:10Z</time>
      </trkpt>
      <trkpt lat="42.013121967" lon="2.490511591">
        <ele>512.52</ele>
        <time>2013-10-20T11:14:12Z</time>
      </trkpt>
      <trkpt lat="42.013073604" lon="2.490310425">
        <ele>512.04</ele>
        <time>2013-10-20T11:14:15Z</time>
      </trkpt>
      <trkpt lat="42.013152729" lon="2.489998032">
        <ele>510.12</ele>
        <time>2013-10-20T11:14:20Z</time>
      </trkpt>
      <trkpt lat="42.013229843" lon="2.489920080">
        <ele>509.64</ele>
        <time>2013-10-20T11:14:22Z</time>
      </trkpt>
      <trkpt lat="42.013311985" lon="2.489860820">
        <ele>509.16</ele>
        <time>2013-10-20T11:14:24Z</time>
      </trkpt>
      <trkpt lat="42.013396475" lon="2.489791083">
        <ele>508.67</ele>
        <time>2013-10-20T11:14:26Z</time>
      </trkpt>
      <trkpt lat="42.013479120" lon="2.489541889">
        <ele>508.67</ele>
        <time>2013-10-20T11:14:31Z</time>
      </trkpt>
      <trkpt lat="42.013471660" lon="2.489456645">
        <ele>510.12</ele>
        <time>2013-10-20T11:14:33Z</time>
      </trkpt>
      <trkpt lat="42.013390105" lon="2.489217258">
        <ele>511.56</ele>
        <time>2013-10-20T11:14:40Z</time>
      </trkpt>
      <trkpt lat="42.013277033" lon="2.488901847">
        <ele>511.56</ele>
        <time>2013-10-20T11:14:47Z</time>
      </trkpt>
      <trkpt lat="42.013174019" lon="2.488626417">
        <ele>511.56</ele>
        <time>2013-10-20T11:14:53Z</time>
      </trkpt>
      <trkpt lat="42.013126745" lon="2.488539581">
        <ele>511.56</ele>
        <time>2013-10-20T11:14:55Z</time>
      </trkpt>
      <trkpt lat="42.012935638" lon="2.488271360">
        <ele>509.64</ele>
        <time>2013-10-20T11:15:00Z</time>
      </trkpt>
      <trkpt lat="42.012767329" lon="2.487881266">
        <ele>504.83</ele>
        <time>2013-10-20T11:15:05Z</time>
      </trkpt>
      <trkpt lat="42.012713433" lon="2.487717232">
        <ele>502.91</ele>
        <time>2013-10-20T11:15:07Z</time>
      </trkpt>
      <trkpt lat="42.012710584" lon="2.487194369">
        <ele>499.54</ele>
        <time>2013-10-20T11:15:13Z</time>
      </trkpt>
      <trkpt lat="42.012740088" lon="2.486914162">
        <ele>498.58</ele>
        <time>2013-10-20T11:15:16Z</time>
      </trkpt>
      <trkpt lat="42.012689210" lon="2.486281831">
        <ele>496.66</ele>
        <time>2013-10-20T11:15:23Z</time>
      </trkpt>
      <trkpt lat="42.012682337" lon="2.486114026">
        <ele>496.18</ele>
        <time>2013-10-20T11:15:25Z</time>
      </trkpt>
      <trkpt lat="42.012757355" lon="2.485902634">
        <ele>495.70</ele>
        <time>2013-10-20T11:15:29Z</time>
      </trkpt>
      <trkpt lat="42.012785769" lon="2.485869693">
        <ele>495.70</ele>
        <time>2013-10-20T11:15:30Z</time>
      </trkpt>
      <trkpt lat="42.012874953" lon="2.485762321">
        <ele>494.26</ele>
        <time>2013-10-20T11:15:33Z</time>
      </trkpt>
      <trkpt lat="42.013057092" lon="2.485654865">
        <ele>492.33</ele>
        <time>2013-10-20T11:15:37Z</time>
      </trkpt>
      <trkpt lat="42.013149879" lon="2.485541206">
        <ele>491.37</ele>
        <time>2013-10-20T11:15:41Z</time>
      </trkpt>
      <trkpt lat="42.013077376" lon="2.485445234">
        <ele>491.37</ele>
        <time>2013-10-20T11:15:45Z</time>
      </trkpt>
      <trkpt lat="42.013054745" lon="2.485435762">
        <ele>491.37</ele>
        <time>2013-10-20T11:15:46Z</time>
      </trkpt>
      <trkpt lat="42.012901356" lon="2.485310201">
        <ele>494.26</ele>
        <time>2013-10-20T11:15:54Z</time>
      </trkpt>
      <trkpt lat="42.012815022" lon="2.485224873">
        <ele>495.22</ele>
        <time>2013-10-20T11:16:01Z</time>
      </trkpt>
      <trkpt lat="42.012683762" lon="2.485113646">
        <ele>496.18</ele>
        <time>2013-10-20T11:16:07Z</time>
      </trkpt>
      <trkpt lat="42.012653922" lon="2.484909379">
        <ele>496.66</ele>
        <time>2013-10-20T11:16:13Z</time>
      </trkpt>
      <trkpt lat="42.012686360" lon="2.484693964">
        <ele>497.14</ele>
        <time>2013-10-20T11:16:19Z</time>
      </trkpt>
      <trkpt lat="42.012738328" lon="2.484402022">
        <ele>494.74</ele>
        <time>2013-10-20T11:16:25Z</time>
      </trkpt>
      <trkpt lat="42.012784763" lon="2.484273695">
        <ele>493.29</ele>
        <time>2013-10-20T11:16:27Z</time>
      </trkpt>
      <trkpt lat="42.012850142" lon="2.483807745">
        <ele>489.45</ele>
        <time>2013-10-20T11:16:32Z</time>
      </trkpt>
      <trkpt lat="42.012800857" lon="2.483396696">
        <ele>486.56</ele>
        <time>2013-10-20T11:16:37Z</time>
      </trkpt>
      <trkpt lat="42.012699352" lon="2.483006351">
        <ele>485.60</ele>
        <time>2013-10-20T11:16:42Z</time>
      </trkpt>
      <trkpt lat="42.012588711" lon="2.482649617">
        <ele>484.64</ele>
        <time>2013-10-20T11:16:47Z</time>
      </trkpt>
      <trkpt lat="42.012575970" lon="2.482422803">
        <ele>484.64</ele>
        <time>2013-10-20T11:16:50Z</time>
      </trkpt>
      <trkpt lat="42.012467676" lon="2.482201772">
        <ele>482.72</ele>
        <time>2013-10-20T11:16:55Z</time>
      </trkpt>
      <trkpt lat="42.012431802" lon="2.482190457">
        <ele>482.72</ele>
        <time>2013-10-20T11:16:56Z</time>
      </trkpt>
      <trkpt lat="42.012352593" lon="2.482140668">
        <ele>482.24</ele>
        <time>2013-10-20T11:16:59Z</time>
      </trkpt>
      <trkpt lat="42.012232815" lon="2.482160114">
        <ele>483.20</ele>
        <time>2013-10-20T11:17:05Z</time>
      </trkpt>
      <trkpt lat="42.012202976" lon="2.482206131">
        <ele>484.16</ele>
        <time>2013-10-20T11:17:08Z</time>
      </trkpt>
      <trkpt lat="42.012103566" lon="2.482326495">
        <ele>486.08</ele>
        <time>2013-10-20T11:17:15Z</time>
      </trkpt>
      <trkpt lat="42.012077499" lon="2.482504611">
        <ele>487.53</ele>
        <time>2013-10-20T11:17:22Z</time>
      </trkpt>
      <trkpt lat="42.012070961" lon="2.482793283">
        <ele>486.08</ele>
        <time>2013-10-20T11:17:28Z</time>
      </trkpt>
      <trkpt lat="42.012088311" lon="2.483025294">
        <ele>486.08</ele>
        <time>2013-10-20T11:17:34Z</time>
      </trkpt>
      <trkpt lat="42.012102896" lon="2.483114310">
        <ele>486.08</ele>
        <time>2013-10-20T11:17:36Z</time>
      </trkpt>
      <trkpt lat="42.012215046" lon="2.483350764">
        <ele>485.12</ele>
        <time>2013-10-20T11:17:40Z</time>
      </trkpt>
      <trkpt lat="42.012233653" lon="2.483555198">
        <ele>485.12</ele>
        <time>2013-10-20T11:17:44Z</time>
      </trkpt>
      <trkpt lat="42.012193085" lon="2.483633401">
        <ele>486.08</ele>
        <time>2013-10-20T11:17:46Z</time>
      </trkpt>
      <trkpt lat="42.012035757" lon="2.483811014">
        <ele>486.56</ele>
        <time>2013-10-20T11:17:52Z</time>
      </trkpt>
      <trkpt lat="42.011885134" lon="2.484013269">
        <ele>488.49</ele>
        <time>2013-10-20T11:18:00Z</time>
      </trkpt>
      <trkpt lat="42.011828807" lon="2.484164814">
        <ele>490.41</ele>
        <time>2013-10-20T11:18:08Z</time>
      </trkpt>
      <trkpt lat="42.011783210" lon="2.484312503">
        <ele>492.33</ele>
        <time>2013-10-20T11:18:15Z</time>
      </trkpt>
      <trkpt lat="42.011710874" lon="2.484322310">
        <ele>493.29</ele>
        <time>2013-10-20T11:18:21Z</time>
      </trkpt>
      <trkpt lat="42.011712048" lon="2.484301355">
        <ele>493.29</ele>
        <time>2013-10-20T11:18:22Z</time>
      </trkpt>
      <trkpt lat="42.011765105" lon="2.484131957">
        <ele>493.29</ele>
        <time>2013-10-20T11:18:31Z</time>
      </trkpt>
      <trkpt lat="42.011767117" lon="2.484119468">
        <ele>493.29</ele>
        <time>2013-10-20T11:18:32Z</time>
      </trkpt>
      <trkpt lat="42.011778935" lon="2.484086946">
        <ele>493.77</ele>
        <time>2013-10-20T11:18:35Z</time>
      </trkpt>
      <trkpt lat="42.011823778" lon="2.483891648">
        <ele>494.26</ele>
        <time>2013-10-20T11:18:45Z</time>
      </trkpt>
      <trkpt lat="42.011837860" lon="2.483851331">
        <ele>494.74</ele>
        <time>2013-10-20T11:18:47Z</time>
      </trkpt>
      <trkpt lat="42.011862670" lon="2.483707497">
        <ele>495.22</ele>
        <time>2013-10-20T11:18:53Z</time>
      </trkpt>
      <trkpt lat="42.011896785" lon="2.483569531">
        <ele>496.66</ele>
        <time>2013-10-20T11:19:01Z</time>
      </trkpt>
      <trkpt lat="42.011911285" lon="2.483564251">
        <ele>497.14</ele>
        <time>2013-10-20T11:19:09Z</time>
      </trkpt>
      <trkpt lat="42.011916566" lon="2.483538854">
        <ele>497.14</ele>
        <time>2013-10-20T11:19:16Z</time>
      </trkpt>
      <trkpt lat="42.011925199" lon="2.483502560">
        <ele>498.10</ele>
        <time>2013-10-20T11:19:25Z</time>
      </trkpt>
      <trkpt lat="42.011936766" lon="2.483371551">
        <ele>499.54</ele>
        <time>2013-10-20T11:19:35Z</time>
      </trkpt>
      <trkpt lat="42.011940873" lon="2.483323187">
        <ele>500.02</ele>
        <time>2013-10-20T11:19:44Z</time>
      </trkpt>
      <trkpt lat="42.011946238" lon="2.483318912">
        <ele>500.02</ele>
        <time>2013-10-20T11:19:57Z</time>
      </trkpt>
      <trkpt lat="42.011935006" lon="2.483304244">
        <ele>500.02</ele>
        <time>2013-10-20T11:20:17Z</time>
      </trkpt>
      <trkpt lat="42.011927798" lon="2.483301394">
        <ele>500.02</ele>
        <time>2013-10-20T11:20:37Z</time>
      </trkpt>
      <trkpt lat="42.011939197" lon="2.483304915">
        <ele>500.02</ele>
        <time>2013-10-20T11:20:50Z</time>
      </trkpt>
      <trkpt lat="42.011963588" lon="2.483307764">
        <ele>500.02</ele>
        <time>2013-10-20T11:21:06Z</time>
      </trkpt>
      <trkpt lat="42.011972138" lon="2.483309525">
        <ele>500.02</ele>
        <time>2013-10-20T11:21:19Z</time>
      </trkpt>
      <trkpt lat="42.011985214" lon="2.483304998">
        <ele>500.02</ele>
        <time>2013-10-20T11:21:38Z</time>
      </trkpt>
      <trkpt lat="42.011996026" lon="2.483284044">
        <ele>500.02</ele>
        <time>2013-10-20T11:21:51Z</time>
      </trkpt>
      <trkpt lat="42.011986052" lon="2.483295527">
        <ele>500.02</ele>
        <time>2013-10-20T11:22:10Z</time>
      </trkpt>
      <trkpt lat="42.011966354" lon="2.483296449">
        <ele>500.02</ele>
        <time>2013-10-20T11:22:29Z</time>
      </trkpt>
      <trkpt lat="42.011947914" lon="2.483300053">
        <ele>500.02</ele>
        <time>2013-10-20T11:22:50Z</time>
      </trkpt>
      <trkpt lat="42.011938443" lon="2.483303909">
        <ele>500.02</ele>
        <time>2013-10-20T11:23:03Z</time>
      </trkpt>
      <trkpt lat="42.011936347" lon="2.483326708">
        <ele>500.02</ele>
        <time>2013-10-20T11:23:20Z</time>
      </trkpt>
      <trkpt lat="42.011932408" lon="2.483312375">
        <ele>500.02</ele>
        <time>2013-10-20T11:23:33Z</time>
      </trkpt>
      <trkpt lat="42.011962415" lon="2.483289073">
        <ele>498.58</ele>
        <time>2013-10-20T11:23:55Z</time>
      </trkpt>
      <trkpt lat="42.011952189" lon="2.483288905">
        <ele>498.58</ele>
        <time>2013-10-20T11:24:05Z</time>
      </trkpt>
      <trkpt lat="42.011953782" lon="2.483286642">
        <ele>498.58</ele>
        <time>2013-10-20T11:24:23Z</time>
      </trkpt>
      <trkpt lat="42.011937605" lon="2.483296030">
        <ele>498.58</ele>
        <time>2013-10-20T11:24:42Z</time>
      </trkpt>
      <trkpt lat="42.011934839" lon="2.483340873">
        <ele>498.58</ele>
        <time>2013-10-20T11:25:04Z</time>
      </trkpt>
      <trkpt lat="42.011953363" lon="2.483355374">
        <ele>498.10</ele>
        <time>2013-10-20T11:25:24Z</time>
      </trkpt>
      <trkpt lat="42.011932575" lon="2.483356631">
        <ele>498.10</ele>
        <time>2013-10-20T11:25:46Z</time>
      </trkpt>
      <trkpt lat="42.011940119" lon="2.483340202">
        <ele>498.10</ele>
        <time>2013-10-20T11:26:07Z</time>
      </trkpt>
      <trkpt lat="42.011965349" lon="2.483318326">
        <ele>498.10</ele>
        <time>2013-10-20T11:26:31Z</time>
      </trkpt>
      <trkpt lat="42.011982867" lon="2.483301562">
        <ele>498.10</ele>
        <time>2013-10-20T11:26:46Z</time>
      </trkpt>
      <trkpt lat="42.011969707" lon="2.483320002">
        <ele>498.10</ele>
        <time>2013-10-20T11:27:02Z</time>
      </trkpt>
      <trkpt lat="42.011968366" lon="2.483301478">
        <ele>498.10</ele>
        <time>2013-10-20T11:27:23Z</time>
      </trkpt>
      <trkpt lat="42.011986303" lon="2.483296700">
        <ele>498.10</ele>
        <time>2013-10-20T11:27:42Z</time>
      </trkpt>
      <trkpt lat="42.011954536" lon="2.483302065">
        <ele>498.10</ele>
        <time>2013-10-20T11:28:03Z</time>
      </trkpt>
      <trkpt lat="42.011949088" lon="2.483305585">
        <ele>497.62</ele>
        <time>2013-10-20T11:28:21Z</time>
      </trkpt>
      <trkpt lat="42.011960822" lon="2.483291252">
        <ele>498.10</ele>
        <time>2013-10-20T11:28:35Z</time>
      </trkpt>
      <trkpt lat="42.011946657" lon="2.483285050">
        <ele>497.62</ele>
        <time>2013-10-20T11:28:48Z</time>
      </trkpt>
      <trkpt lat="42.011939029" lon="2.483264849">
        <ele>497.62</ele>
        <time>2013-10-20T11:28:55Z</time>
      </trkpt>
      <trkpt lat="42.011904664" lon="2.483299634">
        <ele>497.62</ele>
        <time>2013-10-20T11:29:11Z</time>
      </trkpt>
      <trkpt lat="42.011913548" lon="2.483288570">
        <ele>497.62</ele>
        <time>2013-10-20T11:29:29Z</time>
      </trkpt>
      <trkpt lat="42.011907011" lon="2.483286139">
        <ele>497.62</ele>
        <time>2013-10-20T11:29:42Z</time>
      </trkpt>
      <trkpt lat="42.011911956" lon="2.483278512">
        <ele>497.62</ele>
        <time>2013-10-20T11:30:05Z</time>
      </trkpt>
      <trkpt lat="42.011925367" lon="2.483287564">
        <ele>497.14</ele>
        <time>2013-10-20T11:30:27Z</time>
      </trkpt>
      <trkpt lat="42.011940119" lon="2.483285552">
        <ele>497.14</ele>
        <time>2013-10-20T11:30:45Z</time>
      </trkpt>
      <trkpt lat="42.011934419" lon="2.483286055">
        <ele>498.58</ele>
        <time>2013-10-20T11:31:09Z</time>
      </trkpt>
      <trkpt lat="42.011939365" lon="2.483271136">
        <ele>498.58</ele>
        <time>2013-10-20T11:31:21Z</time>
      </trkpt>
      <trkpt lat="42.011932072" lon="2.483262586">
        <ele>498.58</ele>
        <time>2013-10-20T11:31:30Z</time>
      </trkpt>
      <trkpt lat="42.011919919" lon="2.483205589">
        <ele>499.06</ele>
        <time>2013-10-20T11:31:35Z</time>
      </trkpt>
      <trkpt lat="42.011889828" lon="2.483060666">
        <ele>499.06</ele>
        <time>2013-10-20T11:31:44Z</time>
      </trkpt>
      <trkpt lat="42.011855462" lon="2.482966453">
        <ele>499.06</ele>
        <time>2013-10-20T11:31:51Z</time>
      </trkpt>
      <trkpt lat="42.011797543" lon="2.482817004">
        <ele>500.50</ele>
        <time>2013-10-20T11:32:00Z</time>
      </trkpt>
      <trkpt lat="42.011768122" lon="2.482738549">
        <ele>500.98</ele>
        <time>2013-10-20T11:32:04Z</time>
      </trkpt>
      <trkpt lat="42.011806512" lon="2.482598153">
        <ele>501.95</ele>
        <time>2013-10-20T11:32:12Z</time>
      </trkpt>
      <trkpt lat="42.011836016" lon="2.482474603">
        <ele>503.87</ele>
        <time>2013-10-20T11:32:19Z</time>
      </trkpt>
      <trkpt lat="42.011745910" lon="2.482309647">
        <ele>505.31</ele>
        <time>2013-10-20T11:32:29Z</time>
      </trkpt>
      <trkpt lat="42.011677849" lon="2.482249298">
        <ele>506.75</ele>
        <time>2013-10-20T11:32:35Z</time>
      </trkpt>
      <trkpt lat="42.011624373" lon="2.482173190">
        <ele>508.67</ele>
        <time>2013-10-20T11:32:41Z</time>
      </trkpt>
      <trkpt lat="42.011565783" lon="2.482071266">
        <ele>510.12</ele>
        <time>2013-10-20T11:32:48Z</time>
      </trkpt>
      <trkpt lat="42.011523287" lon="2.481858533">
        <ele>512.04</ele>
        <time>2013-10-20T11:32:58Z</time>
      </trkpt>
      <trkpt lat="42.011532088" lon="2.481699193">
        <ele>514.44</ele>
        <time>2013-10-20T11:33:06Z</time>
      </trkpt>
      <trkpt lat="42.011558743" lon="2.481568017">
        <ele>515.40</ele>
        <time>2013-10-20T11:33:14Z</time>
      </trkpt>
      <trkpt lat="42.011601993" lon="2.481414795">
        <ele>517.33</ele>
        <time>2013-10-20T11:33:23Z</time>
      </trkpt>
      <trkpt lat="42.011629402" lon="2.481326953">
        <ele>518.29</ele>
        <time>2013-10-20T11:33:28Z</time>
      </trkpt>
      <trkpt lat="42.011670725" lon="2.481221257">
        <ele>520.21</ele>
        <time>2013-10-20T11:33:36Z</time>
      </trkpt>
      <trkpt lat="42.011675754" lon="2.481208768">
        <ele>520.21</ele>
        <time>2013-10-20T11:33:37Z</time>
      </trkpt>
      <trkpt lat="42.011697044" lon="2.481137857">
        <ele>521.17</ele>
        <time>2013-10-20T11:33:41Z</time>
      </trkpt>
      <trkpt lat="42.011699391" lon="2.481094104">
        <ele>521.65</ele>
        <time>2013-10-20T11:33:43Z</time>
      </trkpt>
      <trkpt lat="42.011689668" lon="2.481013218">
        <ele>522.13</ele>
        <time>2013-10-20T11:33:47Z</time>
      </trkpt>
      <trkpt lat="42.011660918" lon="2.480850861">
        <ele>524.06</ele>
        <time>2013-10-20T11:33:56Z</time>
      </trkpt>
      <trkpt lat="42.011647172" lon="2.480822195">
        <ele>524.54</ele>
        <time>2013-10-20T11:33:58Z</time>
      </trkpt>
      <trkpt lat="42.011615488" lon="2.480812891">
        <ele>524.54</ele>
        <time>2013-10-20T11:34:01Z</time>
      </trkpt>
      <trkpt lat="42.011590929" lon="2.480919676">
        <ele>525.50</ele>
        <time>2013-10-20T11:34:08Z</time>
      </trkpt>
      <trkpt lat="42.011564861" lon="2.481053116">
        <ele>526.94</ele>
        <time>2013-10-20T11:34:16Z</time>
      </trkpt>
      <trkpt lat="42.011520186" lon="2.481119836">
        <ele>526.94</ele>
        <time>2013-10-20T11:34:20Z</time>
      </trkpt>
      <trkpt lat="42.011437121" lon="2.481233495">
        <ele>527.90</ele>
        <time>2013-10-20T11:34:27Z</time>
      </trkpt>
      <trkpt lat="42.011308040" lon="2.481440025">
        <ele>528.86</ele>
        <time>2013-10-20T11:34:38Z</time>
      </trkpt>
      <trkpt lat="42.011191028" lon="2.481601628">
        <ele>529.82</ele>
        <time>2013-10-20T11:34:46Z</time>
      </trkpt>
      <trkpt lat="42.011097403" lon="2.481733140">
        <ele>531.27</ele>
        <time>2013-10-20T11:34:53Z</time>
      </trkpt>
      <trkpt lat="42.010975781" lon="2.481851493">
        <ele>531.27</ele>
        <time>2013-10-20T11:35:00Z</time>
      </trkpt>
      <trkpt lat="42.010932531" lon="2.481914944">
        <ele>531.75</ele>
        <time>2013-10-20T11:35:03Z</time>
      </trkpt>
      <trkpt lat="42.010865056" lon="2.482092053">
        <ele>532.23</ele>
        <time>2013-10-20T11:35:10Z</time>
      </trkpt>
      <trkpt lat="42.010857093" lon="2.482288776">
        <ele>532.23</ele>
        <time>2013-10-20T11:35:16Z</time>
      </trkpt>
      <trkpt lat="42.010894728" lon="2.482450966">
        <ele>533.67</ele>
        <time>2013-10-20T11:35:23Z</time>
      </trkpt>
      <trkpt lat="42.010965807" lon="2.482591950">
        <ele>534.63</ele>
        <time>2013-10-20T11:35:30Z</time>
      </trkpt>
      <trkpt lat="42.010981984" lon="2.482786494">
        <ele>536.07</ele>
        <time>2013-10-20T11:35:37Z</time>
      </trkpt>
      <trkpt lat="42.010914761" lon="2.482944158">
        <ele>536.55</ele>
        <time>2013-10-20T11:35:44Z</time>
      </trkpt>
      <trkpt lat="42.010831445" lon="2.483076843">
        <ele>537.99</ele>
        <time>2013-10-20T11:35:51Z</time>
      </trkpt>
      <trkpt lat="42.010762210" lon="2.483158315">
        <ele>539.92</ele>
        <time>2013-10-20T11:35:57Z</time>
      </trkpt>
      <trkpt lat="42.010742597" lon="2.483213049">
        <ele>539.92</ele>
        <time>2013-10-20T11:35:59Z</time>
      </trkpt>
      <trkpt lat="42.010729605" lon="2.483331318">
        <ele>540.40</ele>
        <time>2013-10-20T11:36:03Z</time>
      </trkpt>
      <trkpt lat="42.010700268" lon="2.483576572">
        <ele>541.84</ele>
        <time>2013-10-20T11:36:11Z</time>
      </trkpt>
      <trkpt lat="42.010572528" lon="2.483758124">
        <ele>542.80</ele>
        <time>2013-10-20T11:36:19Z</time>
      </trkpt>
      <trkpt lat="42.010415954" lon="2.483854600">
        <ele>543.76</ele>
        <time>2013-10-20T11:36:27Z</time>
      </trkpt>
      <trkpt lat="42.010208166" lon="2.483922577">
        <ele>545.20</ele>
        <time>2013-10-20T11:36:36Z</time>
      </trkpt>
      <trkpt lat="42.010065590" lon="2.483945124">
        <ele>546.17</ele>
        <time>2013-10-20T11:36:43Z</time>
      </trkpt>
      <trkpt lat="42.009938604" lon="2.484008156">
        <ele>547.61</ele>
        <time>2013-10-20T11:36:51Z</time>
      </trkpt>
      <trkpt lat="42.009837686" lon="2.484145703">
        <ele>548.57</ele>
        <time>2013-10-20T11:36:58Z</time>
      </trkpt>
      <trkpt lat="42.009777001" lon="2.484274617">
        <ele>549.53</ele>
        <time>2013-10-20T11:37:04Z</time>
      </trkpt>
      <trkpt lat="42.009725034" lon="2.484408308">
        <ele>550.01</ele>
        <time>2013-10-20T11:37:10Z</time>
      </trkpt>
      <trkpt lat="42.009680861" lon="2.484585586">
        <ele>550.97</ele>
        <time>2013-10-20T11:37:17Z</time>
      </trkpt>
      <trkpt lat="42.009642388" lon="2.484725563">
        <ele>552.41</ele>
        <time>2013-10-20T11:37:22Z</time>
      </trkpt>
      <trkpt lat="42.009588325" lon="2.484909379">
        <ele>552.90</ele>
        <time>2013-10-20T11:37:28Z</time>
      </trkpt>
      <trkpt lat="42.009644316" lon="2.485094199">
        <ele>554.34</ele>
        <time>2013-10-20T11:37:35Z</time>
      </trkpt>
      <trkpt lat="42.009672982" lon="2.485245660">
        <ele>555.30</ele>
        <time>2013-10-20T11:37:41Z</time>
      </trkpt>
      <trkpt lat="42.009677341" lon="2.485279691">
        <ele>555.78</ele>
        <time>2013-10-20T11:37:42Z</time>
      </trkpt>
      <trkpt lat="42.009687650" lon="2.485529723">
        <ele>556.74</ele>
        <time>2013-10-20T11:37:50Z</time>
      </trkpt>
      <trkpt lat="42.009663929" lon="2.485752179">
        <ele>557.70</ele>
        <time>2013-10-20T11:37:58Z</time>
      </trkpt>
      <trkpt lat="42.009632162" lon="2.485916129">
        <ele>559.14</ele>
        <time>2013-10-20T11:38:05Z</time>
      </trkpt>
      <trkpt lat="42.009652614" lon="2.486183595">
        <ele>561.07</ele>
        <time>2013-10-20T11:38:14Z</time>
      </trkpt>
      <trkpt lat="42.009661918" lon="2.486249058">
        <ele>561.55</ele>
        <time>2013-10-20T11:38:16Z</time>
      </trkpt>
      <trkpt lat="42.009654123" lon="2.486454079">
        <ele>562.51</ele>
        <time>2013-10-20T11:38:23Z</time>
      </trkpt>
      <trkpt lat="42.009641382" lon="2.486708889">
        <ele>563.95</ele>
        <time>2013-10-20T11:38:31Z</time>
      </trkpt>
      <trkpt lat="42.009632246" lon="2.486766389">
        <ele>564.43</ele>
        <time>2013-10-20T11:38:33Z</time>
      </trkpt>
      <trkpt lat="42.009584134" lon="2.487024803">
        <ele>566.83</ele>
        <time>2013-10-20T11:38:43Z</time>
      </trkpt>
      <trkpt lat="42.009558904" lon="2.487252288">
        <ele>568.28</ele>
        <time>2013-10-20T11:38:51Z</time>
      </trkpt>
      <trkpt lat="42.009495369" lon="2.487432331">
        <ele>569.72</ele>
        <time>2013-10-20T11:38:59Z</time>
      </trkpt>
      <trkpt lat="42.009392523" lon="2.487471894">
        <ele>571.16</ele>
        <time>2013-10-20T11:39:05Z</time>
      </trkpt>
      <trkpt lat="42.009374251" lon="2.487464853">
        <ele>571.64</ele>
        <time>2013-10-20T11:39:06Z</time>
      </trkpt>
      <trkpt lat="42.009364528" lon="2.487329402">
        <ele>572.60</ele>
        <time>2013-10-20T11:39:13Z</time>
      </trkpt>
      <trkpt lat="42.009421609" lon="2.487137875">
        <ele>574.53</ele>
        <time>2013-10-20T11:39:22Z</time>
      </trkpt>
      <trkpt lat="42.009418759" lon="2.486974847">
        <ele>575.97</ele>
        <time>2013-10-20T11:39:28Z</time>
      </trkpt>
      <trkpt lat="42.009395206" lon="2.486686091">
        <ele>578.37</ele>
        <time>2013-10-20T11:39:40Z</time>
      </trkpt>
      <trkpt lat="42.009386488" lon="2.486523063">
        <ele>581.25</ele>
        <time>2013-10-20T11:39:48Z</time>
      </trkpt>
      <trkpt lat="42.009364444" lon="2.486430442">
        <ele>581.73</ele>
        <time>2013-10-20T11:39:53Z</time>
      </trkpt>
      <trkpt lat="42.009231591" lon="2.486391048">
        <ele>583.66</ele>
        <time>2013-10-20T11:40:02Z</time>
      </trkpt>
      <trkpt lat="42.009143749" lon="2.486461288">
        <ele>585.10</ele>
        <time>2013-10-20T11:40:10Z</time>
      </trkpt>
      <trkpt lat="42.009025312" lon="2.486528762">
        <ele>586.54</ele>
        <time>2013-10-20T11:40:19Z</time>
      </trkpt>
      <trkpt lat="42.008897069" lon="2.486532534">
        <ele>587.50</ele>
        <time>2013-10-20T11:40:26Z</time>
      </trkpt>
      <trkpt lat="42.008785003" lon="2.486501186">
        <ele>588.46</ele>
        <time>2013-10-20T11:40:34Z</time>
      </trkpt>
      <trkpt lat="42.008623651" lon="2.486466485">
        <ele>589.91</ele>
        <time>2013-10-20T11:40:45Z</time>
      </trkpt>
      <trkpt lat="42.008529858" lon="2.486446033">
        <ele>591.35</ele>
        <time>2013-10-20T11:40:52Z</time>
      </trkpt>
      <trkpt lat="42.008457187" lon="2.486392137">
        <ele>591.83</ele>
        <time>2013-10-20T11:40:57Z</time>
      </trkpt>
      <trkpt lat="42.008388120" lon="2.486210334">
        <ele>593.27</ele>
        <time>2013-10-20T11:41:05Z</time>
      </trkpt>
      <trkpt lat="42.008385689" lon="2.486187200">
        <ele>593.27</ele>
        <time>2013-10-20T11:41:06Z</time>
      </trkpt>
      <trkpt lat="42.008362723" lon="2.486047892">
        <ele>593.75</ele>
        <time>2013-10-20T11:41:12Z</time>
      </trkpt>
      <trkpt lat="42.008328189" lon="2.485852846">
        <ele>594.71</ele>
        <time>2013-10-20T11:41:20Z</time>
      </trkpt>
      <trkpt lat="42.008290471" lon="2.485662660">
        <ele>595.67</ele>
        <time>2013-10-20T11:41:28Z</time>
      </trkpt>
      <trkpt lat="42.008274629" lon="2.485593007">
        <ele>596.15</ele>
        <time>2013-10-20T11:41:31Z</time>
      </trkpt>
      <trkpt lat="42.008296590" lon="2.485432912">
        <ele>597.12</ele>
        <time>2013-10-20T11:41:39Z</time>
      </trkpt>
      <trkpt lat="42.008312934" lon="2.485400810">
        <ele>597.60</ele>
        <time>2013-10-20T11:41:41Z</time>
      </trkpt>
      <trkpt lat="42.008351826" lon="2.485268627">
        <ele>599.04</ele>
        <time>2013-10-20T11:41:48Z</time>
      </trkpt>
      <trkpt lat="42.008366579" lon="2.485201739">
        <ele>599.52</ele>
        <time>2013-10-20T11:41:52Z</time>
      </trkpt>
      <trkpt lat="42.008381247" lon="2.485144072">
        <ele>600.00</ele>
        <time>2013-10-20T11:41:55Z</time>
      </trkpt>
      <trkpt lat="42.008423575" lon="2.485037286">
        <ele>600.96</ele>
        <time>2013-10-20T11:42:00Z</time>
      </trkpt>
      <trkpt lat="42.008492475" lon="2.484878198">
        <ele>601.92</ele>
        <time>2013-10-20T11:42:08Z</time>
      </trkpt>
      <trkpt lat="42.008562883" lon="2.484706034">
        <ele>603.36</ele>
        <time>2013-10-20T11:42:18Z</time>
      </trkpt>
      <trkpt lat="42.008554249" lon="2.484663705">
        <ele>603.36</ele>
        <time>2013-10-20T11:42:20Z</time>
      </trkpt>
      <trkpt lat="42.008508400" lon="2.484427503">
        <ele>604.33</ele>
        <time>2013-10-20T11:42:30Z</time>
      </trkpt>
      <trkpt lat="42.008478142" lon="2.484286687">
        <ele>605.29</ele>
        <time>2013-10-20T11:42:36Z</time>
      </trkpt>
      <trkpt lat="42.008496498" lon="2.484138327">
        <ele>606.25</ele>
        <time>2013-10-20T11:42:43Z</time>
      </trkpt>
      <trkpt lat="42.008509574" lon="2.483958871">
        <ele>608.17</ele>
        <time>2013-10-20T11:42:52Z</time>
      </trkpt>
      <trkpt lat="42.008513932" lon="2.483941688">
        <ele>608.17</ele>
        <time>2013-10-20T11:42:53Z</time>
      </trkpt>
      <trkpt lat="42.008619377" lon="2.483728033">
        <ele>609.13</ele>
        <time>2013-10-20T11:43:03Z</time>
      </trkpt>
      <trkpt lat="42.008694646" lon="2.483593504">
        <ele>610.57</ele>
        <time>2013-10-20T11:43:11Z</time>
      </trkpt>
      <trkpt lat="42.008708225" lon="2.483562323">
        <ele>611.06</ele>
        <time>2013-10-20T11:43:13Z</time>
      </trkpt>
      <trkpt lat="42.008743597" lon="2.483351015">
        <ele>612.02</ele>
        <time>2013-10-20T11:43:22Z</time>
      </trkpt>
      <trkpt lat="42.008801096" lon="2.483173654">
        <ele>613.46</ele>
        <time>2013-10-20T11:43:30Z</time>
      </trkpt>
      <trkpt lat="42.008866894" lon="2.483041807">
        <ele>613.94</ele>
        <time>2013-10-20T11:43:37Z</time>
      </trkpt>
      <trkpt lat="42.008954569" lon="2.482864865">
        <ele>614.90</ele>
        <time>2013-10-20T11:43:45Z</time>
      </trkpt>
      <trkpt lat="42.009017433" lon="2.482698903">
        <ele>616.34</ele>
        <time>2013-10-20T11:43:53Z</time>
      </trkpt>
      <trkpt lat="42.009090356" lon="2.482517938">
        <ele>617.30</ele>
        <time>2013-10-20T11:44:01Z</time>
      </trkpt>
      <trkpt lat="42.009124722" lon="2.482427665">
        <ele>617.30</ele>
        <time>2013-10-20T11:44:05Z</time>
      </trkpt>
      <trkpt lat="42.009074263" lon="2.482225074">
        <ele>618.26</ele>
        <time>2013-10-20T11:44:13Z</time>
      </trkpt>
      <trkpt lat="42.008929842" lon="2.482036230">
        <ele>618.75</ele>
        <time>2013-10-20T11:44:23Z</time>
      </trkpt>
      <trkpt lat="42.008857087" lon="2.481882338">
        <ele>619.23</ele>
        <time>2013-10-20T11:44:31Z</time>
      </trkpt>
      <trkpt lat="42.008788607" lon="2.481765830">
        <ele>619.71</ele>
        <time>2013-10-20T11:44:38Z</time>
      </trkpt>
      <trkpt lat="42.008675955" lon="2.481603556">
        <ele>620.19</ele>
        <time>2013-10-20T11:44:46Z</time>
      </trkpt>
      <trkpt lat="42.008673440" lon="2.481571956">
        <ele>620.19</ele>
        <time>2013-10-20T11:44:47Z</time>
      </trkpt>
      <trkpt lat="42.008759774" lon="2.481355703">
        <ele>621.15</ele>
        <time>2013-10-20T11:44:56Z</time>
      </trkpt>
      <trkpt lat="42.008857423" lon="2.481193010">
        <ele>622.59</ele>
        <time>2013-10-20T11:45:05Z</time>
      </trkpt>
      <trkpt lat="42.008970578" lon="2.481028809">
        <ele>624.03</ele>
        <time>2013-10-20T11:45:15Z</time>
      </trkpt>
      <trkpt lat="42.009068311" lon="2.480904673">
        <ele>624.99</ele>
        <time>2013-10-20T11:45:23Z</time>
      </trkpt>
      <trkpt lat="42.009163781" lon="2.480759834">
        <ele>626.44</ele>
        <time>2013-10-20T11:45:31Z</time>
      </trkpt>
      <trkpt lat="42.009258832" lon="2.480644582">
        <ele>627.40</ele>
        <time>2013-10-20T11:45:39Z</time>
      </trkpt>
      <trkpt lat="42.009350782" lon="2.480481135">
        <ele>628.36</ele>
        <time>2013-10-20T11:45:47Z</time>
      </trkpt>
      <trkpt lat="42.009392691" lon="2.480300673">
        <ele>630.28</ele>
        <time>2013-10-20T11:45:56Z</time>
      </trkpt>
      <trkpt lat="42.009401911" lon="2.480137729">
        <ele>631.72</ele>
        <time>2013-10-20T11:46:04Z</time>
      </trkpt>
      <trkpt lat="42.009454130" lon="2.479967744">
        <ele>632.68</ele>
        <time>2013-10-20T11:46:12Z</time>
      </trkpt>
      <trkpt lat="42.009519509" lon="2.479786695">
        <ele>633.65</ele>
        <time>2013-10-20T11:46:20Z</time>
      </trkpt>
      <trkpt lat="42.009542392" lon="2.479613022">
        <ele>635.57</ele>
        <time>2013-10-20T11:46:29Z</time>
      </trkpt>
      <trkpt lat="42.009510457" lon="2.479558372">
        <ele>636.53</ele>
        <time>2013-10-20T11:46:33Z</time>
      </trkpt>
      <trkpt lat="42.009478438" lon="2.479535154">
        <ele>636.53</ele>
        <time>2013-10-20T11:46:35Z</time>
      </trkpt>
      <trkpt lat="42.009431583" lon="2.479625259">
        <ele>637.49</ele>
        <time>2013-10-20T11:46:42Z</time>
      </trkpt>
      <trkpt lat="42.009404593" lon="2.479709162">
        <ele>638.45</ele>
        <time>2013-10-20T11:46:46Z</time>
      </trkpt>
      <trkpt lat="42.009373580" lon="2.479847296">
        <ele>639.41</ele>
        <time>2013-10-20T11:46:53Z</time>
      </trkpt>
      <trkpt lat="42.009337873" lon="2.480029770">
        <ele>640.38</ele>
        <time>2013-10-20T11:47:01Z</time>
      </trkpt>
      <trkpt lat="42.009281296" lon="2.480178297">
        <ele>641.34</ele>
        <time>2013-10-20T11:47:08Z</time>
      </trkpt>
      <trkpt lat="42.009238213" lon="2.480249292">
        <ele>641.82</ele>
        <time>2013-10-20T11:47:11Z</time>
      </trkpt>
      <trkpt lat="42.009151041" lon="2.480413409">
        <ele>643.26</ele>
        <time>2013-10-20T11:47:20Z</time>
      </trkpt>
      <trkpt lat="42.009078202" lon="2.480491194">
        <ele>645.18</ele>
        <time>2013-10-20T11:47:27Z</time>
      </trkpt>
      <trkpt lat="42.008980804" lon="2.480579287">
        <ele>646.62</ele>
        <time>2013-10-20T11:47:35Z</time>
      </trkpt>
      <trkpt lat="42.008888436" lon="2.480659670">
        <ele>648.07</ele>
        <time>2013-10-20T11:47:42Z</time>
      </trkpt>
      <trkpt lat="42.008757175" lon="2.480715326">
        <ele>649.51</ele>
        <time>2013-10-20T11:47:50Z</time>
      </trkpt>
      <trkpt lat="42.008665142" lon="2.480753463">
        <ele>650.95</ele>
        <time>2013-10-20T11:47:56Z</time>
      </trkpt>
      <trkpt lat="42.008557267" lon="2.480819345">
        <ele>652.39</ele>
        <time>2013-10-20T11:48:04Z</time>
      </trkpt>
      <trkpt lat="42.008443357" lon="2.480924622">
        <ele>653.83</ele>
        <time>2013-10-20T11:48:12Z</time>
      </trkpt>
      <trkpt lat="42.008327435" lon="2.481034173">
        <ele>656.24</ele>
        <time>2013-10-20T11:48:21Z</time>
      </trkpt>
      <trkpt lat="42.008252585" lon="2.481132325">
        <ele>656.72</ele>
        <time>2013-10-20T11:48:28Z</time>
      </trkpt>
      <trkpt lat="42.008133394" lon="2.481159650">
        <ele>658.16</ele>
        <time>2013-10-20T11:48:36Z</time>
      </trkpt>
      <trkpt lat="42.008068769" lon="2.481247157">
        <ele>659.60</ele>
        <time>2013-10-20T11:48:43Z</time>
      </trkpt>
      <trkpt lat="42.008060136" lon="2.481345226">
        <ele>659.60</ele>
        <time>2013-10-20T11:48:47Z</time>
      </trkpt>
      <trkpt lat="42.008098358" lon="2.481533064">
        <ele>659.60</ele>
        <time>2013-10-20T11:48:56Z</time>
      </trkpt>
      <trkpt lat="42.008102968" lon="2.481622331">
        <ele>660.08</ele>
        <time>2013-10-20T11:49:00Z</time>
      </trkpt>
      <trkpt lat="42.008128700" lon="2.481759878">
        <ele>661.52</ele>
        <time>2013-10-20T11:49:08Z</time>
      </trkpt>
      <trkpt lat="42.008178237" lon="2.481844033">
        <ele>662.01</ele>
        <time>2013-10-20T11:49:13Z</time>
      </trkpt>
      <trkpt lat="42.008203467" lon="2.481899605">
        <ele>662.49</ele>
        <time>2013-10-20T11:49:16Z</time>
      </trkpt>
      <trkpt lat="42.008237330" lon="2.482001864">
        <ele>663.45</ele>
        <time>2013-10-20T11:49:21Z</time>
      </trkpt>
      <trkpt lat="42.008252752" lon="2.482172603">
        <ele>664.41</ele>
        <time>2013-10-20T11:49:29Z</time>
      </trkpt>
      <trkpt lat="42.008193827" lon="2.482254830">
        <ele>664.41</ele>
        <time>2013-10-20T11:49:35Z</time>
      </trkpt>
      <trkpt lat="42.008111601" lon="2.482310150">
        <ele>664.89</ele>
        <time>2013-10-20T11:49:42Z</time>
      </trkpt>
      <trkpt lat="42.008017472" lon="2.482496061">
        <ele>666.33</ele>
        <time>2013-10-20T11:49:52Z</time>
      </trkpt>
      <trkpt lat="42.008008420" lon="2.482509975">
        <ele>666.81</ele>
        <time>2013-10-20T11:49:53Z</time>
      </trkpt>
      <trkpt lat="42.007971204" lon="2.482608211">
        <ele>667.29</ele>
        <time>2013-10-20T11:49:58Z</time>
      </trkpt>
      <trkpt lat="42.007897192" lon="2.482788757">
        <ele>668.25</ele>
        <time>2013-10-20T11:50:07Z</time>
      </trkpt>
      <trkpt lat="42.007837513" lon="2.482884814">
        <ele>669.22</ele>
        <time>2013-10-20T11:50:13Z</time>
      </trkpt>
      <trkpt lat="42.007800213" lon="2.482962011">
        <ele>670.18</ele>
        <time>2013-10-20T11:50:17Z</time>
      </trkpt>
      <trkpt lat="42.007733158" lon="2.483113723">
        <ele>671.62</ele>
        <time>2013-10-20T11:50:25Z</time>
      </trkpt>
      <trkpt lat="42.007681777" lon="2.483214558">
        <ele>672.58</ele>
        <time>2013-10-20T11:50:31Z</time>
      </trkpt>
      <trkpt lat="42.007605418" lon="2.483366103">
        <ele>673.06</ele>
        <time>2013-10-20T11:50:38Z</time>
      </trkpt>
      <trkpt lat="42.007550265" lon="2.483573136">
        <ele>674.02</ele>
        <time>2013-10-20T11:50:47Z</time>
      </trkpt>
      <trkpt lat="42.007509361" lon="2.483673802">
        <ele>674.50</ele>
        <time>2013-10-20T11:50:52Z</time>
      </trkpt>
      <trkpt lat="42.007425039" lon="2.483845883">
        <ele>674.98</ele>
        <time>2013-10-20T11:51:00Z</time>
      </trkpt>
      <trkpt lat="42.007357146" lon="2.484003546">
        <ele>675.94</ele>
        <time>2013-10-20T11:51:07Z</time>
      </trkpt>
      <trkpt lat="42.007350524" lon="2.484024669">
        <ele>675.94</ele>
        <time>2013-10-20T11:51:08Z</time>
      </trkpt>
      <trkpt lat="42.007255222" lon="2.484176297">
        <ele>676.91</ele>
        <time>2013-10-20T11:51:16Z</time>
      </trkpt>
      <trkpt lat="42.007214989" lon="2.484226002">
        <ele>677.39</ele>
        <time>2013-10-20T11:51:19Z</time>
      </trkpt>
      <trkpt lat="42.007157908" lon="2.484345696">
        <ele>677.39</ele>
        <time>2013-10-20T11:51:26Z</time>
      </trkpt>
      <trkpt lat="42.007083309" lon="2.484415349">
        <ele>677.39</ele>
        <time>2013-10-20T11:51:33Z</time>
      </trkpt>
      <trkpt lat="42.007067970" lon="2.484426329">
        <ele>677.39</ele>
        <time>2013-10-20T11:51:43Z</time>
      </trkpt>
      <trkpt lat="42.007080040" lon="2.484419708">
        <ele>678.35</ele>
        <time>2013-10-20T11:51:57Z</time>
      </trkpt>
      <trkpt lat="42.006996305" lon="2.484417612">
        <ele>678.35</ele>
        <time>2013-10-20T11:52:17Z</time>
      </trkpt>
      <trkpt lat="42.006949199" lon="2.484392383">
        <ele>678.83</ele>
        <time>2013-10-20T11:52:33Z</time>
      </trkpt>
      <trkpt lat="42.006932770" lon="2.484400513">
        <ele>678.83</ele>
        <time>2013-10-20T11:52:54Z</time>
      </trkpt>
      <trkpt lat="42.006950707" lon="2.484383498">
        <ele>678.83</ele>
        <time>2013-10-20T11:53:12Z</time>
      </trkpt>
      <trkpt lat="42.006965543" lon="2.484375870">
        <ele>679.31</ele>
        <time>2013-10-20T11:53:35Z</time>
      </trkpt>
      <trkpt lat="42.006961855" lon="2.484360615">
        <ele>679.31</ele>
        <time>2013-10-20T11:53:55Z</time>
      </trkpt>
      <trkpt lat="42.006994880" lon="2.484364639">
        <ele>679.31</ele>
        <time>2013-10-20T11:54:15Z</time>
      </trkpt>
      <trkpt lat="42.007022876" lon="2.484375703">
        <ele>679.31</ele>
        <time>2013-10-20T11:54:36Z</time>
      </trkpt>
      <trkpt lat="42.007055397" lon="2.484394730">
        <ele>679.79</ele>
        <time>2013-10-20T11:55:00Z</time>
      </trkpt>
      <trkpt lat="42.007026815" lon="2.484417026">
        <ele>679.79</ele>
        <time>2013-10-20T11:55:10Z</time>
      </trkpt>
      <trkpt lat="42.007007872" lon="2.484438399">
        <ele>679.79</ele>
        <time>2013-10-20T11:55:21Z</time>
      </trkpt>
      <trkpt lat="42.007005609" lon="2.484405123">
        <ele>679.79</ele>
        <time>2013-10-20T11:55:38Z</time>
      </trkpt>
      <trkpt lat="42.006985995" lon="2.484402273">
        <ele>679.79</ele>
        <time>2013-10-20T11:55:51Z</time>
      </trkpt>
      <trkpt lat="42.006930004" lon="2.484491122">
        <ele>679.79</ele>
        <time>2013-10-20T11:55:59Z</time>
      </trkpt>
      <trkpt lat="42.006848281" lon="2.484608887">
        <ele>680.27</ele>
        <time>2013-10-20T11:56:07Z</time>
      </trkpt>
      <trkpt lat="42.006782734" lon="2.484704273">
        <ele>680.27</ele>
        <time>2013-10-20T11:56:15Z</time>
      </trkpt>
      <trkpt lat="42.006752308" lon="2.484765294">
        <ele>680.27</ele>
        <time>2013-10-20T11:56:23Z</time>
      </trkpt>
      <trkpt lat="42.006697490" lon="2.484788009">
        <ele>680.27</ele>
        <time>2013-10-20T11:56:38Z</time>
      </trkpt>
      <trkpt lat="42.006577797" lon="2.484956736">
        <ele>678.83</ele>
        <time>2013-10-20T11:56:45Z</time>
      </trkpt>
      <trkpt lat="42.006423570" lon="2.485184473">
        <ele>677.39</ele>
        <time>2013-10-20T11:56:51Z</time>
      </trkpt>
      <trkpt lat="42.006292141" lon="2.485541290">
        <ele>676.91</ele>
        <time>2013-10-20T11:56:58Z</time>
      </trkpt>
      <trkpt lat="42.006253668" lon="2.485715299">
        <ele>677.39</ele>
        <time>2013-10-20T11:57:03Z</time>
      </trkpt>
      <trkpt lat="42.006232797" lon="2.486023166">
        <ele>678.35</ele>
        <time>2013-10-20T11:57:12Z</time>
      </trkpt>
      <trkpt lat="42.006167419" lon="2.486244448">
        <ele>679.79</ele>
        <time>2013-10-20T11:57:19Z</time>
      </trkpt>
      <trkpt lat="42.006048396" lon="2.486340002">
        <ele>680.75</ele>
        <time>2013-10-20T11:57:26Z</time>
      </trkpt>
      <trkpt lat="42.005872627" lon="2.486351653">
        <ele>681.71</ele>
        <time>2013-10-20T11:57:34Z</time>
      </trkpt>
      <trkpt lat="42.005668276" lon="2.486334805">
        <ele>683.63</ele>
        <time>2013-10-20T11:57:44Z</time>
      </trkpt>
      <trkpt lat="42.005531651" lon="2.486360118">
        <ele>684.12</ele>
        <time>2013-10-20T11:57:51Z</time>
      </trkpt>
      <trkpt lat="42.005357391" lon="2.486410410">
        <ele>685.56</ele>
        <time>2013-10-20T11:58:00Z</time>
      </trkpt>
      <trkpt lat="42.005188077" lon="2.486498252">
        <ele>686.52</ele>
        <time>2013-10-20T11:58:08Z</time>
      </trkpt>
      <trkpt lat="42.005036448" lon="2.486710314">
        <ele>686.52</ele>
        <time>2013-10-20T11:58:15Z</time>
      </trkpt>
      <trkpt lat="42.004936871" lon="2.486795223">
        <ele>685.56</ele>
        <time>2013-10-20T11:58:18Z</time>
      </trkpt>
      <trkpt lat="42.004762947" lon="2.486801845">
        <ele>684.60</ele>
        <time>2013-10-20T11:58:22Z</time>
      </trkpt>
      <trkpt lat="42.004487853" lon="2.486813831">
        <ele>683.63</ele>
        <time>2013-10-20T11:58:29Z</time>
      </trkpt>
      <trkpt lat="42.004289956" lon="2.486942409">
        <ele>683.15</ele>
        <time>2013-10-20T11:58:35Z</time>
      </trkpt>
      <trkpt lat="42.004060543" lon="2.487072915">
        <ele>683.15</ele>
        <time>2013-10-20T11:58:41Z</time>
      </trkpt>
      <trkpt lat="42.003858037" lon="2.487211804">
        <ele>683.15</ele>
        <time>2013-10-20T11:58:48Z</time>
      </trkpt>
      <trkpt lat="42.003677239" lon="2.487270644">
        <ele>684.12</ele>
        <time>2013-10-20T11:58:54Z</time>
      </trkpt>
      <trkpt lat="42.003481438" lon="2.487407521">
        <ele>684.12</ele>
        <time>2013-10-20T11:59:01Z</time>
      </trkpt>
      <trkpt lat="42.003398792" lon="2.487392266">
        <ele>683.63</ele>
        <time>2013-10-20T11:59:06Z</time>
      </trkpt>
      <trkpt lat="42.003399966" lon="2.487391512">
        <ele>683.15</ele>
        <time>2013-10-20T11:59:11Z</time>
      </trkpt>
      <trkpt lat="42.003389824" lon="2.487383633">
        <ele>683.15</ele>
        <time>2013-10-20T11:59:24Z</time>
      </trkpt>
      <trkpt lat="42.003373646" lon="2.487397714">
        <ele>682.67</ele>
        <time>2013-10-20T11:59:37Z</time>
      </trkpt>
      <trkpt lat="42.003382867" lon="2.487393439">
        <ele>682.67</ele>
        <time>2013-10-20T11:59:49Z</time>
      </trkpt>
      <trkpt lat="42.003377083" lon="2.487380783">
        <ele>682.19</ele>
        <time>2013-10-20T12:00:02Z</time>
      </trkpt>
      <trkpt lat="42.003372389" lon="2.487369216">
        <ele>682.19</ele>
        <time>2013-10-20T12:00:16Z</time>
      </trkpt>
      <trkpt lat="42.003390326" lon="2.487388075">
        <ele>682.19</ele>
        <time>2013-10-20T12:00:33Z</time>
      </trkpt>
      <trkpt lat="42.003387225" lon="2.487381286">
        <ele>682.19</ele>
        <time>2013-10-20T12:00:48Z</time>
      </trkpt>
      <trkpt lat="42.003378927" lon="2.487385225">
        <ele>682.19</ele>
        <time>2013-10-20T12:01:03Z</time>
      </trkpt>
      <trkpt lat="42.003374904" lon="2.487377765">
        <ele>682.19</ele>
        <time>2013-10-20T12:01:16Z</time>
      </trkpt>
      <trkpt lat="42.003373479" lon="2.487385644">
        <ele>682.19</ele>
        <time>2013-10-20T12:01:29Z</time>
      </trkpt>
      <trkpt lat="42.003363001" lon="2.487386231">
        <ele>681.71</ele>
        <time>2013-10-20T12:01:50Z</time>
      </trkpt>
      <trkpt lat="42.003346908" lon="2.487378939">
        <ele>681.23</ele>
        <time>2013-10-20T12:02:06Z</time>
      </trkpt>
      <trkpt lat="42.003332156" lon="2.487370892">
        <ele>681.23</ele>
        <time>2013-10-20T12:02:23Z</time>
      </trkpt>
      <trkpt lat="42.003344561" lon="2.487373910">
        <ele>681.23</ele>
        <time>2013-10-20T12:02:37Z</time>
      </trkpt>
      <trkpt lat="42.003359649" lon="2.487374161">
        <ele>681.23</ele>
        <time>2013-10-20T12:02:49Z</time>
      </trkpt>
      <trkpt lat="42.003362834" lon="2.487382878">
        <ele>681.23</ele>
        <time>2013-10-20T12:02:58Z</time>
      </trkpt>
      <trkpt lat="42.003364510" lon="2.487379693">
        <ele>680.75</ele>
        <time>2013-10-20T12:03:12Z</time>
      </trkpt>
      <trkpt lat="42.003359230" lon="2.487367623">
        <ele>680.75</ele>
        <time>2013-10-20T12:03:36Z</time>
      </trkpt>
      <trkpt lat="42.003361744" lon="2.487368629">
        <ele>680.75</ele>
        <time>2013-10-20T12:03:51Z</time>
      </trkpt>
      <trkpt lat="42.003372222" lon="2.487388745">
        <ele>680.75</ele>
        <time>2013-10-20T12:04:09Z</time>
      </trkpt>
      <trkpt lat="42.003376832" lon="2.487388578">
        <ele>680.75</ele>
        <time>2013-10-20T12:04:23Z</time>
      </trkpt>
      <trkpt lat="42.003369204" lon="2.487396624">
        <ele>680.27</ele>
        <time>2013-10-20T12:04:31Z</time>
      </trkpt>
      <trkpt lat="42.003368617" lon="2.487394026">
        <ele>681.71</ele>
        <time>2013-10-20T12:04:42Z</time>
      </trkpt>
      <trkpt lat="42.003390410" lon="2.487397546">
        <ele>681.71</ele>
        <time>2013-10-20T12:04:53Z</time>
      </trkpt>
      <trkpt lat="42.003385968" lon="2.487404923">
        <ele>681.71</ele>
        <time>2013-10-20T12:05:03Z</time>
      </trkpt>
      <trkpt lat="42.003391835" lon="2.487409449">
        <ele>681.71</ele>
        <time>2013-10-20T12:05:13Z</time>
      </trkpt>
      <trkpt lat="42.003400217" lon="2.487404839">
        <ele>681.23</ele>
        <time>2013-10-20T12:05:27Z</time>
      </trkpt>
      <trkpt lat="42.003390159" lon="2.487368713">
        <ele>681.23</ele>
        <time>2013-10-20T12:05:34Z</time>
      </trkpt>
      <trkpt lat="42.003353530" lon="2.487336610">
        <ele>680.27</ele>
        <time>2013-10-20T12:05:46Z</time>
      </trkpt>
      <trkpt lat="42.003284044" lon="2.487242230">
        <ele>680.27</ele>
        <time>2013-10-20T12:05:54Z</time>
      </trkpt>
      <trkpt lat="42.003275494" lon="2.487198979">
        <ele>680.27</ele>
        <time>2013-10-20T12:05:57Z</time>
      </trkpt>
      <trkpt lat="42.003191675" lon="2.487009045">
        <ele>678.83</ele>
        <time>2013-10-20T12:06:03Z</time>
      </trkpt>
      <trkpt lat="42.003181533" lon="2.486965543">
        <ele>678.83</ele>
        <time>2013-10-20T12:06:04Z</time>
      </trkpt>
      <trkpt lat="42.003087907" lon="2.486789272">
        <ele>677.39</ele>
        <time>2013-10-20T12:06:09Z</time>
      </trkpt>
      <trkpt lat="42.002921024" lon="2.486642588">
        <ele>677.39</ele>
        <time>2013-10-20T12:06:15Z</time>
      </trkpt>
      <trkpt lat="42.002750620" lon="2.486582239">
        <ele>677.39</ele>
        <time>2013-10-20T12:06:22Z</time>
      </trkpt>
      <trkpt lat="42.002584993" lon="2.486475537">
        <ele>678.83</ele>
        <time>2013-10-20T12:06:30Z</time>
      </trkpt>
      <trkpt lat="42.002405201" lon="2.486376714">
        <ele>680.27</ele>
        <time>2013-10-20T12:06:38Z</time>
      </trkpt>
      <trkpt lat="42.002244520" lon="2.486240257">
        <ele>681.71</ele>
        <time>2013-10-20T12:06:46Z</time>
      </trkpt>
      <trkpt lat="42.002178806" lon="2.486027776">
        <ele>682.19</ele>
        <time>2013-10-20T12:06:53Z</time>
      </trkpt>
      <trkpt lat="42.002139495" lon="2.485771625">
        <ele>682.67</ele>
        <time>2013-10-20T12:07:01Z</time>
      </trkpt>
      <trkpt lat="42.002115104" lon="2.485406844">
        <ele>683.63</ele>
        <time>2013-10-20T12:07:12Z</time>
      </trkpt>
      <trkpt lat="42.002178052" lon="2.485229232">
        <ele>684.12</ele>
        <time>2013-10-20T12:07:19Z</time>
      </trkpt>
      <trkpt lat="42.002348875" lon="2.485060253">
        <ele>684.60</ele>
        <time>2013-10-20T12:07:28Z</time>
      </trkpt>
      <trkpt lat="42.002379134" lon="2.484786248">
        <ele>684.60</ele>
        <time>2013-10-20T12:07:36Z</time>
      </trkpt>
      <trkpt lat="42.002335799" lon="2.484453319">
        <ele>684.60</ele>
        <time>2013-10-20T12:07:45Z</time>
      </trkpt>
      <trkpt lat="42.002308558" lon="2.484130700">
        <ele>684.60</ele>
        <time>2013-10-20T12:07:53Z</time>
      </trkpt>
      <trkpt lat="42.002213926" lon="2.483834819">
        <ele>685.56</ele>
        <time>2013-10-20T12:08:01Z</time>
      </trkpt>
      <trkpt lat="42.002228427" lon="2.483580679">
        <ele>686.04</ele>
        <time>2013-10-20T12:08:08Z</time>
      </trkpt>
      <trkpt lat="42.002401849" lon="2.483323020">
        <ele>684.60</ele>
        <time>2013-10-20T12:08:16Z</time>
      </trkpt>
      <trkpt lat="42.002419786" lon="2.483280859">
        <ele>684.60</ele>
        <time>2013-10-20T12:08:17Z</time>
      </trkpt>
      <trkpt lat="42.002518776" lon="2.483044824">
        <ele>684.12</ele>
        <time>2013-10-20T12:08:23Z</time>
      </trkpt>
      <trkpt lat="42.002542078" lon="2.482793199">
        <ele>683.63</ele>
        <time>2013-10-20T12:08:29Z</time>
      </trkpt>
      <trkpt lat="42.002519195" lon="2.482469742">
        <ele>683.63</ele>
        <time>2013-10-20T12:08:37Z</time>
      </trkpt>
      <trkpt lat="42.002524141" lon="2.482158270">
        <ele>685.56</ele>
        <time>2013-10-20T12:08:46Z</time>
      </trkpt>
      <trkpt lat="42.002518189" lon="2.481949226">
        <ele>687.00</ele>
        <time>2013-10-20T12:08:53Z</time>
      </trkpt>
      <trkpt lat="42.002439735" lon="2.481790389">
        <ele>689.40</ele>
        <time>2013-10-20T12:09:00Z</time>
      </trkpt>
      <trkpt lat="42.002307217" lon="2.481583523">
        <ele>691.33</ele>
        <time>2013-10-20T12:09:09Z</time>
      </trkpt>
      <trkpt lat="42.002231947" lon="2.481409180">
        <ele>692.77</ele>
        <time>2013-10-20T12:09:17Z</time>
      </trkpt>
      <trkpt lat="42.002272683" lon="2.481250175">
        <ele>694.21</ele>
        <time>2013-10-20T12:09:24Z</time>
      </trkpt>
      <trkpt lat="42.002419451" lon="2.481125620">
        <ele>694.69</ele>
        <time>2013-10-20T12:09:33Z</time>
      </trkpt>
      <trkpt lat="42.002509472" lon="2.480928980">
        <ele>695.17</ele>
        <time>2013-10-20T12:09:41Z</time>
      </trkpt>
      <trkpt lat="42.002602008" lon="2.480727647">
        <ele>697.57</ele>
        <time>2013-10-20T12:09:50Z</time>
      </trkpt>
      <trkpt lat="42.002619946" lon="2.480478453">
        <ele>697.57</ele>
        <time>2013-10-20T12:09:58Z</time>
      </trkpt>
      <trkpt lat="42.002628579" lon="2.480184248">
        <ele>697.57</ele>
        <time>2013-10-20T12:10:04Z</time>
      </trkpt>
      <trkpt lat="42.002652887" lon="2.479952572">
        <ele>696.13</ele>
        <time>2013-10-20T12:10:08Z</time>
      </trkpt>
      <trkpt lat="42.002695550" lon="2.479648058">
        <ele>694.69</ele>
        <time>2013-10-20T12:10:13Z</time>
      </trkpt>
      <trkpt lat="42.002619275" lon="2.479357541">
        <ele>694.69</ele>
        <time>2013-10-20T12:10:20Z</time>
      </trkpt>
      <trkpt lat="42.002529840" lon="2.479124440">
        <ele>696.13</ele>
        <time>2013-10-20T12:10:27Z</time>
      </trkpt>
      <trkpt lat="42.002310234" lon="2.478803078">
        <ele>697.09</ele>
        <time>2013-10-20T12:10:38Z</time>
      </trkpt>
      <trkpt lat="42.002195654" lon="2.478615491">
        <ele>698.05</ele>
        <time>2013-10-20T12:10:44Z</time>
      </trkpt>
      <trkpt lat="42.002185763" lon="2.478360011">
        <ele>698.53</ele>
        <time>2013-10-20T12:10:51Z</time>
      </trkpt>
      <trkpt lat="42.002233037" lon="2.478145518">
        <ele>699.50</ele>
        <time>2013-10-20T12:10:58Z</time>
      </trkpt>
      <trkpt lat="42.002287017" lon="2.477945945">
        <ele>701.42</ele>
        <time>2013-10-20T12:11:06Z</time>
      </trkpt>
      <trkpt lat="42.002266732" lon="2.477751233">
        <ele>703.82</ele>
        <time>2013-10-20T12:11:14Z</time>
      </trkpt>
      <trkpt lat="42.002236306" lon="2.477558030">
        <ele>704.78</ele>
        <time>2013-10-20T12:11:22Z</time>
      </trkpt>
      <trkpt lat="42.002235049" lon="2.477340436">
        <ele>705.75</ele>
        <time>2013-10-20T12:11:30Z</time>
      </trkpt>
      <trkpt lat="42.002270337" lon="2.477212025">
        <ele>705.75</ele>
        <time>2013-10-20T12:11:33Z</time>
      </trkpt>
      <trkpt lat="42.002376703" lon="2.476937602">
        <ele>702.86</ele>
        <time>2013-10-20T12:11:37Z</time>
      </trkpt>
      <trkpt lat="42.002425318" lon="2.476772814">
        <ele>701.42</ele>
        <time>2013-10-20T12:11:39Z</time>
      </trkpt>
      <trkpt lat="42.002479465" lon="2.476506102">
        <ele>702.86</ele>
        <time>2013-10-20T12:11:44Z</time>
      </trkpt>
      <trkpt lat="42.002485249" lon="2.476225224">
        <ele>704.30</ele>
        <time>2013-10-20T12:11:52Z</time>
      </trkpt>
      <trkpt lat="42.002459768" lon="2.476011150">
        <ele>705.26</ele>
        <time>2013-10-20T12:11:59Z</time>
      </trkpt>
      <trkpt lat="42.002389108" lon="2.475816858">
        <ele>707.67</ele>
        <time>2013-10-20T12:12:08Z</time>
      </trkpt>
      <trkpt lat="42.002361113" lon="2.475624828">
        <ele>709.59</ele>
        <time>2013-10-20T12:12:16Z</time>
      </trkpt>
      <trkpt lat="42.002368321" lon="2.475473367">
        <ele>711.51</ele>
        <time>2013-10-20T12:12:23Z</time>
      </trkpt>
      <trkpt lat="42.002383325" lon="2.475373539">
        <ele>712.47</ele>
        <time>2013-10-20T12:12:28Z</time>
      </trkpt>
      <trkpt lat="42.002399837" lon="2.475202045">
        <ele>714.88</ele>
        <time>2013-10-20T12:12:36Z</time>
      </trkpt>
      <trkpt lat="42.002429760" lon="2.475018062">
        <ele>716.80</ele>
        <time>2013-10-20T12:12:45Z</time>
      </trkpt>
      <trkpt lat="42.002463288" lon="2.474823099">
        <ele>719.20</ele>
        <time>2013-10-20T12:12:55Z</time>
      </trkpt>
      <trkpt lat="42.002511065" lon="2.474648336">
        <ele>721.61</ele>
        <time>2013-10-20T12:13:04Z</time>
      </trkpt>
      <trkpt lat="42.002546772" lon="2.474519339">
        <ele>723.05</ele>
        <time>2013-10-20T12:13:11Z</time>
      </trkpt>
      <trkpt lat="42.002571163" lon="2.474395454">
        <ele>724.49</ele>
        <time>2013-10-20T12:13:18Z</time>
      </trkpt>
      <trkpt lat="42.002592202" lon="2.474284394">
        <ele>725.93</ele>
        <time>2013-10-20T12:13:24Z</time>
      </trkpt>
      <trkpt lat="42.002616090" lon="2.474122959">
        <ele>727.86</ele>
        <time>2013-10-20T12:13:33Z</time>
      </trkpt>
      <trkpt lat="42.002651462" lon="2.473984909">
        <ele>729.30</ele>
        <time>2013-10-20T12:13:41Z</time>
      </trkpt>
      <trkpt lat="42.002705273" lon="2.473873681">
        <ele>730.74</ele>
        <time>2013-10-20T12:13:49Z</time>
      </trkpt>
      <trkpt lat="42.002764366" lon="2.473778379">
        <ele>732.18</ele>
        <time>2013-10-20T12:13:56Z</time>
      </trkpt>
      <trkpt lat="42.002774424" lon="2.473752060">
        <ele>732.18</ele>
        <time>2013-10-20T12:13:58Z</time>
      </trkpt>
      <trkpt lat="42.002839216" lon="2.473669079">
        <ele>733.62</ele>
        <time>2013-10-20T12:14:06Z</time>
      </trkpt>
      <trkpt lat="42.002894872" lon="2.473607723">
        <ele>734.58</ele>
        <time>2013-10-20T12:14:12Z</time>
      </trkpt>
      <trkpt lat="42.002986067" lon="2.473507476">
        <ele>736.51</ele>
        <time>2013-10-20T12:14:21Z</time>
      </trkpt>
      <trkpt lat="42.003012303" lon="2.473486437">
        <ele>736.51</ele>
        <time>2013-10-20T12:14:23Z</time>
      </trkpt>
      <trkpt lat="42.003066785" lon="2.473430278">
        <ele>736.99</ele>
        <time>2013-10-20T12:14:28Z</time>
      </trkpt>
      <trkpt lat="42.003175498" lon="2.473315865">
        <ele>738.91</ele>
        <time>2013-10-20T12:14:38Z</time>
      </trkpt>
      <trkpt lat="42.003267951" lon="2.473243613">
        <ele>740.83</ele>
        <time>2013-10-20T12:14:47Z</time>
      </trkpt>
      <trkpt lat="42.003304496" lon="2.473229532">
        <ele>741.31</ele>
        <time>2013-10-20T12:14:50Z</time>
      </trkpt>
      <trkpt lat="42.003391668" lon="2.473203967">
        <ele>741.31</ele>
        <time>2013-10-20T12:14:56Z</time>
      </trkpt>
      <trkpt lat="42.003534830" lon="2.473093913">
        <ele>742.28</ele>
        <time>2013-10-20T12:15:06Z</time>
      </trkpt>
      <trkpt lat="42.003639939" lon="2.473008166">
        <ele>743.72</ele>
        <time>2013-10-20T12:15:14Z</time>
      </trkpt>
      <trkpt lat="42.003652512" lon="2.472997185">
        <ele>743.72</ele>
        <time>2013-10-20T12:15:15Z</time>
      </trkpt>
      <trkpt lat="42.003781258" lon="2.472949660">
        <ele>744.68</ele>
        <time>2013-10-20T12:15:24Z</time>
      </trkpt>
      <trkpt lat="42.003837836" lon="2.472939434">
        <ele>745.16</ele>
        <time>2013-10-20T12:15:28Z</time>
      </trkpt>
      <trkpt lat="42.004001367" lon="2.472920826">
        <ele>745.64</ele>
        <time>2013-10-20T12:15:38Z</time>
      </trkpt>
      <trkpt lat="42.004174034" lon="2.472870451">
        <ele>747.56</ele>
        <time>2013-10-20T12:15:48Z</time>
      </trkpt>
      <trkpt lat="42.004360783" lon="2.472801552">
        <ele>748.52</ele>
        <time>2013-10-20T12:15:59Z</time>
      </trkpt>
      <trkpt lat="42.004473184" lon="2.472741286">
        <ele>749.49</ele>
        <time>2013-10-20T12:16:07Z</time>
      </trkpt>
      <trkpt lat="42.004608217" lon="2.472608265">
        <ele>750.45</ele>
        <time>2013-10-20T12:16:16Z</time>
      </trkpt>
      <trkpt lat="42.004729671" lon="2.472477675">
        <ele>751.41</ele>
        <time>2013-10-20T12:16:25Z</time>
      </trkpt>
      <trkpt lat="42.004841401" lon="2.472356221">
        <ele>752.37</ele>
        <time>2013-10-20T12:16:33Z</time>
      </trkpt>
      <trkpt lat="42.004937458" lon="2.472209957">
        <ele>752.85</ele>
        <time>2013-10-20T12:16:40Z</time>
      </trkpt>
      <trkpt lat="42.005090679" lon="2.472078026">
        <ele>753.33</ele>
        <time>2013-10-20T12:16:49Z</time>
      </trkpt>
      <trkpt lat="42.005258904" lon="2.471950202">
        <ele>753.81</ele>
        <time>2013-10-20T12:16:57Z</time>
      </trkpt>
      <trkpt lat="42.005454622" lon="2.471874932">
        <ele>752.37</ele>
        <time>2013-10-20T12:17:04Z</time>
      </trkpt>
      <trkpt lat="42.005733571" lon="2.471935869">
        <ele>751.41</ele>
        <time>2013-10-20T12:17:12Z</time>
      </trkpt>
      <trkpt lat="42.006132047" lon="2.471977778">
        <ele>749.97</ele>
        <time>2013-10-20T12:17:19Z</time>
      </trkpt>
      <trkpt lat="42.006369339" lon="2.471955399">
        <ele>748.52</ele>
        <time>2013-10-20T12:17:23Z</time>
      </trkpt>
      <trkpt lat="42.006726240" lon="2.471815840">
        <ele>748.04</ele>
        <time>2013-10-20T12:17:31Z</time>
      </trkpt>
      <trkpt lat="42.006919443" lon="2.471729087">
        <ele>748.04</ele>
        <time>2013-10-20T12:17:38Z</time>
      </trkpt>
      <trkpt lat="42.007191771" lon="2.471620039">
        <ele>748.04</ele>
        <time>2013-10-20T12:17:48Z</time>
      </trkpt>
      <trkpt lat="42.007467536" lon="2.471508476">
        <ele>748.04</ele>
        <time>2013-10-20T12:17:58Z</time>
      </trkpt>
      <trkpt lat="42.007689656" lon="2.471367743">
        <ele>749.49</ele>
        <time>2013-10-20T12:18:07Z</time>
      </trkpt>
      <trkpt lat="42.007882272" lon="2.471366738">
        <ele>750.45</ele>
        <time>2013-10-20T12:18:15Z</time>
      </trkpt>
      <trkpt lat="42.008060639" lon="2.471291049">
        <ele>750.93</ele>
        <time>2013-10-20T12:18:22Z</time>
      </trkpt>
      <trkpt lat="42.008153175" lon="2.471198848">
        <ele>750.93</ele>
        <time>2013-10-20T12:18:25Z</time>
      </trkpt>
      <trkpt lat="42.008272282" lon="2.470967340">
        <ele>749.49</ele>
        <time>2013-10-20T12:18:29Z</time>
      </trkpt>
      <trkpt lat="42.008346881" lon="2.470589484">
        <ele>747.56</ele>
        <time>2013-10-20T12:18:34Z</time>
      </trkpt>
      <trkpt lat="42.008348138" lon="2.470311205">
        <ele>746.60</ele>
        <time>2013-10-20T12:18:37Z</time>
      </trkpt>
      <trkpt lat="42.008344702" lon="2.470216154">
        <ele>746.60</ele>
        <time>2013-10-20T12:18:38Z</time>
      </trkpt>
      <trkpt lat="42.008308408" lon="2.469846763">
        <ele>746.12</ele>
        <time>2013-10-20T12:18:42Z</time>
      </trkpt>
      <trkpt lat="42.008337158" lon="2.469589187">
        <ele>744.68</ele>
        <time>2013-10-20T12:18:45Z</time>
      </trkpt>
      <trkpt lat="42.008460791" lon="2.469307891">
        <ele>742.76</ele>
        <time>2013-10-20T12:18:49Z</time>
      </trkpt>
      <trkpt lat="42.008494403" lon="2.468912013">
        <ele>742.28</ele>
        <time>2013-10-20T12:18:54Z</time>
      </trkpt>
      <trkpt lat="42.008462803" lon="2.468762564">
        <ele>742.28</ele>
        <time>2013-10-20T12:18:56Z</time>
      </trkpt>
      <trkpt lat="42.008482249" lon="2.468431814">
        <ele>741.79</ele>
        <time>2013-10-20T12:19:01Z</time>
      </trkpt>
      <trkpt lat="42.008559446" lon="2.468362999">
        <ele>741.31</ele>
        <time>2013-10-20T12:19:03Z</time>
      </trkpt>
      <trkpt lat="42.008757846" lon="2.468207850">
        <ele>741.31</ele>
        <time>2013-10-20T12:19:10Z</time>
      </trkpt>
      <trkpt lat="42.008903607" lon="2.468148925">
        <ele>741.31</ele>
        <time>2013-10-20T12:19:16Z</time>
      </trkpt>
      <trkpt lat="42.009076610" lon="2.468124115">
        <ele>741.31</ele>
        <time>2013-10-20T12:19:23Z</time>
      </trkpt>
      <trkpt lat="42.009180880" lon="2.468067118">
        <ele>742.76</ele>
        <time>2013-10-20T12:19:28Z</time>
      </trkpt>
      <trkpt lat="42.009289929" lon="2.467886823">
        <ele>743.24</ele>
        <time>2013-10-20T12:19:35Z</time>
      </trkpt>
      <trkpt lat="42.009332006" lon="2.467610220">
        <ele>743.72</ele>
        <time>2013-10-20T12:19:43Z</time>
      </trkpt>
      <trkpt lat="42.009353967" lon="2.467341077">
        <ele>743.72</ele>
        <time>2013-10-20T12:19:49Z</time>
      </trkpt>
      <trkpt lat="42.009513893" lon="2.467148126">
        <ele>743.72</ele>
        <time>2013-10-20T12:19:56Z</time>
      </trkpt>
      <trkpt lat="42.009745150" lon="2.466864147">
        <ele>741.79</ele>
        <time>2013-10-20T12:20:05Z</time>
      </trkpt>
      <trkpt lat="42.009934916" lon="2.466524009">
        <ele>740.83</ele>
        <time>2013-10-20T12:20:13Z</time>
      </trkpt>
      <trkpt lat="42.010118899" lon="2.466270624">
        <ele>740.83</ele>
        <time>2013-10-20T12:20:20Z</time>
      </trkpt>
      <trkpt lat="42.010203892" lon="2.466061915">
        <ele>740.83</ele>
        <time>2013-10-20T12:20:25Z</time>
      </trkpt>
      <trkpt lat="42.010226271" lon="2.465761340">
        <ele>740.83</ele>
        <time>2013-10-20T12:20:31Z</time>
      </trkpt>
      <trkpt lat="42.010140525" lon="2.465406366">
        <ele>740.35</ele>
        <time>2013-10-20T12:20:39Z</time>
      </trkpt>
      <trkpt lat="42.010047821" lon="2.465123226">
        <ele>740.35</ele>
        <time>2013-10-20T12:20:46Z</time>
      </trkpt>
      <trkpt lat="42.009874986" lon="2.464841091">
        <ele>739.87</ele>
        <time>2013-10-20T12:20:53Z</time>
      </trkpt>
      <trkpt lat="42.009689327" lon="2.464543617">
        <ele>739.39</ele>
        <time>2013-10-20T12:21:01Z</time>
      </trkpt>
      <trkpt lat="42.009665857" lon="2.464289981">
        <ele>739.39</ele>
        <time>2013-10-20T12:21:08Z</time>
      </trkpt>
      <trkpt lat="42.009710952" lon="2.464129467">
        <ele>740.83</ele>
        <time>2013-10-20T12:21:13Z</time>
      </trkpt>
      <trkpt lat="42.009803153" lon="2.464052102">
        <ele>741.79</ele>
        <time>2013-10-20T12:21:18Z</time>
      </trkpt>
      <trkpt lat="42.009882865" lon="2.464087390">
        <ele>742.28</ele>
        <time>2013-10-20T12:21:22Z</time>
      </trkpt>
      <trkpt lat="42.009858390" lon="2.464231140">
        <ele>743.72</ele>
        <time>2013-10-20T12:21:29Z</time>
      </trkpt>
      <trkpt lat="42.009819330" lon="2.464323424">
        <ele>744.68</ele>
        <time>2013-10-20T12:21:33Z</time>
      </trkpt>
      <trkpt lat="42.009831651" lon="2.464469940">
        <ele>746.12</ele>
        <time>2013-10-20T12:21:39Z</time>
      </trkpt>
      <trkpt lat="42.009921170" lon="2.464621233">
        <ele>747.08</ele>
        <time>2013-10-20T12:21:47Z</time>
      </trkpt>
      <trkpt lat="42.010047821" lon="2.464780154">
        <ele>748.04</ele>
        <time>2013-10-20T12:21:55Z</time>
      </trkpt>
      <trkpt lat="42.010131388" lon="2.465009902">
        <ele>748.52</ele>
        <time>2013-10-20T12:22:04Z</time>
      </trkpt>
      <trkpt lat="42.010199785" lon="2.465254821">
        <ele>749.49</ele>
        <time>2013-10-20T12:22:12Z</time>
      </trkpt>
      <trkpt lat="42.010293075" lon="2.465470069">
        <ele>750.45</ele>
        <time>2013-10-20T12:22:20Z</time>
      </trkpt>
      <trkpt lat="42.010338589" lon="2.465632007">
        <ele>750.93</ele>
        <time>2013-10-20T12:22:26Z</time>
      </trkpt>
      <trkpt lat="42.010403297" lon="2.465952280">
        <ele>752.85</ele>
        <time>2013-10-20T12:22:36Z</time>
      </trkpt>
      <trkpt lat="42.010416457" lon="2.466075410">
        <ele>753.33</ele>
        <time>2013-10-20T12:22:40Z</time>
      </trkpt>
      <trkpt lat="42.010409081" lon="2.466191080">
        <ele>753.81</ele>
        <time>2013-10-20T12:22:44Z</time>
      </trkpt>
      <trkpt lat="42.010266924" lon="2.466396353">
        <ele>755.73</ele>
        <time>2013-10-20T12:22:54Z</time>
      </trkpt>
      <trkpt lat="42.010138513" lon="2.466577486">
        <ele>757.66</ele>
        <time>2013-10-20T12:23:03Z</time>
      </trkpt>
      <trkpt lat="42.010068524" lon="2.466814442">
        <ele>758.62</ele>
        <time>2013-10-20T12:23:11Z</time>
      </trkpt>
      <trkpt lat="42.010050000" lon="2.466968418">
        <ele>759.10</ele>
        <time>2013-10-20T12:23:16Z</time>
      </trkpt>
      <trkpt lat="42.010007001" lon="2.467062463">
        <ele>760.54</ele>
        <time>2013-10-20T12:23:20Z</time>
      </trkpt>
      <trkpt lat="42.009900383" lon="2.467261281">
        <ele>762.46</ele>
        <time>2013-10-20T12:23:29Z</time>
      </trkpt>
      <trkpt lat="42.009786389" lon="2.467357506">
        <ele>763.90</ele>
        <time>2013-10-20T12:23:36Z</time>
      </trkpt>
      <trkpt lat="42.009662085" lon="2.467508464">
        <ele>766.31</ele>
        <time>2013-10-20T12:23:44Z</time>
      </trkpt>
      <trkpt lat="42.009634341" lon="2.467703259">
        <ele>767.75</ele>
        <time>2013-10-20T12:23:52Z</time>
      </trkpt>
      <trkpt lat="42.009661583" lon="2.467852038">
        <ele>768.71</ele>
        <time>2013-10-20T12:23:59Z</time>
      </trkpt>
      <trkpt lat="42.009681867" lon="2.467975839">
        <ele>769.19</ele>
        <time>2013-10-20T12:24:04Z</time>
      </trkpt>
      <trkpt lat="42.009686644" lon="2.468092682">
        <ele>770.15</ele>
        <time>2013-10-20T12:24:09Z</time>
      </trkpt>
      <trkpt lat="42.009666779" lon="2.468332740">
        <ele>772.08</ele>
        <time>2013-10-20T12:24:20Z</time>
      </trkpt>
      <trkpt lat="42.009600395" lon="2.468417062">
        <ele>773.04</ele>
        <time>2013-10-20T12:24:26Z</time>
      </trkpt>
      <trkpt lat="42.009549014" lon="2.468457882">
        <ele>773.52</ele>
        <time>2013-10-20T12:24:30Z</time>
      </trkpt>
      <trkpt lat="42.009414233" lon="2.468594339">
        <ele>774.96</ele>
        <time>2013-10-20T12:24:40Z</time>
      </trkpt>
      <trkpt lat="42.009400402" lon="2.468606828">
        <ele>774.96</ele>
        <time>2013-10-20T12:24:41Z</time>
      </trkpt>
      <trkpt lat="42.009306274" lon="2.468730713">
        <ele>775.92</ele>
        <time>2013-10-20T12:24:48Z</time>
      </trkpt>
      <trkpt lat="42.009292611" lon="2.468746387">
        <ele>776.40</ele>
        <time>2013-10-20T12:24:49Z</time>
      </trkpt>
      <trkpt lat="42.009200578" lon="2.468937746">
        <ele>777.36</ele>
        <time>2013-10-20T12:24:58Z</time>
      </trkpt>
      <trkpt lat="42.009145425" lon="2.469196830">
        <ele>778.32</ele>
        <time>2013-10-20T12:25:07Z</time>
      </trkpt>
      <trkpt lat="42.009093290" lon="2.469446360">
        <ele>779.29</ele>
        <time>2013-10-20T12:25:15Z</time>
      </trkpt>
      <trkpt lat="42.009032605" lon="2.469620117">
        <ele>781.21</ele>
        <time>2013-10-20T12:25:22Z</time>
      </trkpt>
      <trkpt lat="42.008967142" lon="2.469744504">
        <ele>781.69</ele>
        <time>2013-10-20T12:25:29Z</time>
      </trkpt>
      <trkpt lat="42.008907798" lon="2.469978108">
        <ele>784.57</ele>
        <time>2013-10-20T12:25:39Z</time>
      </trkpt>
      <trkpt lat="42.008844515" lon="2.470249178">
        <ele>786.98</ele>
        <time>2013-10-20T12:25:49Z</time>
      </trkpt>
      <trkpt lat="42.008897488" lon="2.470393431">
        <ele>787.46</ele>
        <time>2013-10-20T12:25:56Z</time>
      </trkpt>
      <trkpt lat="42.008990024" lon="2.470494852">
        <ele>788.90</ele>
        <time>2013-10-20T12:26:02Z</time>
      </trkpt>
      <trkpt lat="42.009046351" lon="2.470561488">
        <ele>789.38</ele>
        <time>2013-10-20T12:26:07Z</time>
      </trkpt>
      <trkpt lat="42.009056577" lon="2.470732228">
        <ele>793.22</ele>
        <time>2013-10-20T12:26:13Z</time>
      </trkpt>
      <trkpt lat="42.009056493" lon="2.470753015">
        <ele>793.71</ele>
        <time>2013-10-20T12:26:14Z</time>
      </trkpt>
      <trkpt lat="42.009009135" lon="2.470796349">
        <ele>793.71</ele>
        <time>2013-10-20T12:26:18Z</time>
      </trkpt>
      <trkpt lat="42.008923724" lon="2.470875139">
        <ele>793.22</ele>
        <time>2013-10-20T12:26:24Z</time>
      </trkpt>
      <trkpt lat="42.008802270" lon="2.470982008">
        <ele>793.22</ele>
        <time>2013-10-20T12:26:31Z</time>
      </trkpt>
      <trkpt lat="42.008774023" lon="2.471029953">
        <ele>793.22</ele>
        <time>2013-10-20T12:26:33Z</time>
      </trkpt>
      <trkpt lat="42.008673021" lon="2.471235896">
        <ele>794.19</ele>
        <time>2013-10-20T12:26:41Z</time>
      </trkpt>
      <trkpt lat="42.008689785" lon="2.471485844">
        <ele>794.19</ele>
        <time>2013-10-20T12:26:49Z</time>
      </trkpt>
      <trkpt lat="42.008756672" lon="2.471656249">
        <ele>794.19</ele>
        <time>2013-10-20T12:26:55Z</time>
      </trkpt>
      <trkpt lat="42.008912660" lon="2.471821540">
        <ele>794.19</ele>
        <time>2013-10-20T12:27:02Z</time>
      </trkpt>
      <trkpt lat="42.008945517" lon="2.471844841">
        <ele>792.74</ele>
        <time>2013-10-20T12:27:03Z</time>
      </trkpt>
      <trkpt lat="42.009142910" lon="2.472012563">
        <ele>790.82</ele>
        <time>2013-10-20T12:27:08Z</time>
      </trkpt>
      <trkpt lat="42.009225640" lon="2.472097807">
        <ele>789.86</ele>
        <time>2013-10-20T12:27:10Z</time>
      </trkpt>
      <trkpt lat="42.009313734" lon="2.472221105">
        <ele>788.42</ele>
        <time>2013-10-20T12:27:13Z</time>
      </trkpt>
      <trkpt lat="42.009418507" lon="2.472422438">
        <ele>787.94</ele>
        <time>2013-10-20T12:27:19Z</time>
      </trkpt>
      <trkpt lat="42.009429655" lon="2.472467449">
        <ele>787.46</ele>
        <time>2013-10-20T12:27:20Z</time>
      </trkpt>
      <trkpt lat="42.009507775" lon="2.472595525">
        <ele>786.98</ele>
        <time>2013-10-20T12:27:23Z</time>
      </trkpt>
      <trkpt lat="42.009613554" lon="2.472708848">
        <ele>786.02</ele>
        <time>2013-10-20T12:27:26Z</time>
      </trkpt>
      <trkpt lat="42.009710198" lon="2.472838600">
        <ele>785.53</ele>
        <time>2013-10-20T12:27:29Z</time>
      </trkpt>
      <trkpt lat="42.009830562" lon="2.473027696">
        <ele>784.57</ele>
        <time>2013-10-20T12:27:33Z</time>
      </trkpt>
      <trkpt lat="42.009935755" lon="2.473135487">
        <ele>783.13</ele>
        <time>2013-10-20T12:27:36Z</time>
      </trkpt>
      <trkpt lat="42.010059304" lon="2.473300275">
        <ele>781.69</ele>
        <time>2013-10-20T12:27:42Z</time>
      </trkpt>
      <trkpt lat="42.010112110" lon="2.473375964">
        <ele>780.73</ele>
        <time>2013-10-20T12:27:46Z</time>
      </trkpt>
      <trkpt lat="42.010310929" lon="2.473314021">
        <ele>779.77</ele>
        <time>2013-10-20T12:27:53Z</time>
      </trkpt>
      <trkpt lat="42.010344289" lon="2.473271357">
        <ele>779.77</ele>
        <time>2013-10-20T12:27:54Z</time>
      </trkpt>
      <trkpt lat="42.010549561" lon="2.473110173">
        <ele>779.29</ele>
        <time>2013-10-20T12:27:59Z</time>
      </trkpt>
      <trkpt lat="42.010849550" lon="2.473018811">
        <ele>778.32</ele>
        <time>2013-10-20T12:28:05Z</time>
      </trkpt>
      <trkpt lat="42.010994892" lon="2.472983439">
        <ele>776.40</ele>
        <time>2013-10-20T12:28:08Z</time>
      </trkpt>
      <trkpt lat="42.011151633" lon="2.473047058">
        <ele>774.96</ele>
        <time>2013-10-20T12:28:12Z</time>
      </trkpt>
      <trkpt lat="42.011297395" lon="2.473065749">
        <ele>773.52</ele>
        <time>2013-10-20T12:28:15Z</time>
      </trkpt>
      <trkpt lat="42.011482216" lon="2.472996766">
        <ele>772.08</ele>
        <time>2013-10-20T12:28:18Z</time>
      </trkpt>
      <trkpt lat="42.011673407" lon="2.473001712">
        <ele>770.15</ele>
        <time>2013-10-20T12:28:21Z</time>
      </trkpt>
      <trkpt lat="42.011813720" lon="2.472969525">
        <ele>769.67</ele>
        <time>2013-10-20T12:28:23Z</time>
      </trkpt>
      <trkpt lat="42.012166850" lon="2.472917390">
        <ele>766.31</ele>
        <time>2013-10-20T12:28:28Z</time>
      </trkpt>
      <trkpt lat="42.012243376" lon="2.472917222">
        <ele>765.35</ele>
        <time>2013-10-20T12:28:29Z</time>
      </trkpt>
      <trkpt lat="42.012573959" lon="2.472730976">
        <ele>762.94</ele>
        <time>2013-10-20T12:28:34Z</time>
      </trkpt>
      <trkpt lat="42.012776046" lon="2.472563254">
        <ele>761.50</ele>
        <time>2013-10-20T12:28:37Z</time>
      </trkpt>
      <trkpt lat="42.013014260" lon="2.472438783">
        <ele>759.10</ele>
        <time>2013-10-20T12:28:40Z</time>
      </trkpt>
      <trkpt lat="42.013156920" lon="2.472368291">
        <ele>757.66</ele>
        <time>2013-10-20T12:28:42Z</time>
      </trkpt>
      <trkpt lat="42.013388344" lon="2.472419002">
        <ele>757.18</ele>
        <time>2013-10-20T12:28:47Z</time>
      </trkpt>
      <trkpt lat="42.013460932" lon="2.472439621">
        <ele>756.21</ele>
        <time>2013-10-20T12:28:49Z</time>
      </trkpt>
      <trkpt lat="42.013708449" lon="2.472480022">
        <ele>753.33</ele>
        <time>2013-10-20T12:28:54Z</time>
      </trkpt>
      <trkpt lat="42.014132825" lon="2.472523692">
        <ele>750.93</ele>
        <time>2013-10-20T12:29:01Z</time>
      </trkpt>
      <trkpt lat="42.014257045" lon="2.472561326">
        <ele>749.97</ele>
        <time>2013-10-20T12:29:03Z</time>
      </trkpt>
      <trkpt lat="42.014449577" lon="2.472670962">
        <ele>747.08</ele>
        <time>2013-10-20T12:29:06Z</time>
      </trkpt>
      <trkpt lat="42.014636494" lon="2.472912277">
        <ele>745.64</ele>
        <time>2013-10-20T12:29:11Z</time>
      </trkpt>
      <trkpt lat="42.014736490" lon="2.473011602">
        <ele>744.68</ele>
        <time>2013-10-20T12:29:14Z</time>
      </trkpt>
      <trkpt lat="42.014809328" lon="2.473065246">
        <ele>742.28</ele>
        <time>2013-10-20T12:29:16Z</time>
      </trkpt>
      <trkpt lat="42.015022983" lon="2.473148898">
        <ele>741.31</ele>
        <time>2013-10-20T12:29:20Z</time>
      </trkpt>
      <trkpt lat="42.015297910" lon="2.473225508">
        <ele>737.95</ele>
        <time>2013-10-20T12:29:25Z</time>
      </trkpt>
      <trkpt lat="42.015425314" lon="2.473223245">
        <ele>736.99</ele>
        <time>2013-10-20T12:29:27Z</time>
      </trkpt>
      <trkpt lat="42.015667384" lon="2.473158621">
        <ele>733.14</ele>
        <time>2013-10-20T12:29:32Z</time>
      </trkpt>
      <trkpt lat="42.015754807" lon="2.473227772">
        <ele>730.74</ele>
        <time>2013-10-20T12:29:36Z</time>
      </trkpt>
      <trkpt lat="42.015788586" lon="2.473257946">
        <ele>730.74</ele>
        <time>2013-10-20T12:29:38Z</time>
      </trkpt>
      <trkpt lat="42.015872573" lon="2.473443103">
        <ele>731.22</ele>
        <time>2013-10-20T12:29:47Z</time>
      </trkpt>
      <trkpt lat="42.015900568" lon="2.473522228">
        <ele>732.18</ele>
        <time>2013-10-20T12:29:50Z</time>
      </trkpt>
      <trkpt lat="42.015929151" lon="2.473642257">
        <ele>733.62</ele>
        <time>2013-10-20T12:29:56Z</time>
      </trkpt>
      <trkpt lat="42.015948178" lon="2.473783240">
        <ele>734.10</ele>
        <time>2013-10-20T12:30:02Z</time>
      </trkpt>
      <trkpt lat="42.015977598" lon="2.473893881">
        <ele>735.55</ele>
        <time>2013-10-20T12:30:07Z</time>
      </trkpt>
      <trkpt lat="42.015967456" lon="2.473929924">
        <ele>736.03</ele>
        <time>2013-10-20T12:30:09Z</time>
      </trkpt>
      <trkpt lat="42.015916410" lon="2.474006115">
        <ele>737.95</ele>
        <time>2013-10-20T12:30:14Z</time>
      </trkpt>
      <trkpt lat="42.015820186" lon="2.474093874">
        <ele>740.35</ele>
        <time>2013-10-20T12:30:22Z</time>
      </trkpt>
      <trkpt lat="42.015741480" lon="2.474213819">
        <ele>742.76</ele>
        <time>2013-10-20T12:30:30Z</time>
      </trkpt>
      <trkpt lat="42.015742905" lon="2.474303756">
        <ele>744.20</ele>
        <time>2013-10-20T12:30:34Z</time>
      </trkpt>
      <trkpt lat="42.015667216" lon="2.474451026">
        <ele>745.64</ele>
        <time>2013-10-20T12:30:43Z</time>
      </trkpt>
      <trkpt lat="42.015646681" lon="2.474480615">
        <ele>745.64</ele>
        <time>2013-10-20T12:30:45Z</time>
      </trkpt>
      <trkpt lat="42.015585828" lon="2.474568289">
        <ele>747.56</ele>
        <time>2013-10-20T12:30:51Z</time>
      </trkpt>
      <trkpt lat="42.015548277" lon="2.474752775">
        <ele>750.45</ele>
        <time>2013-10-20T12:31:00Z</time>
      </trkpt>
      <trkpt lat="42.015554563" lon="2.474810023">
        <ele>750.45</ele>
        <time>2013-10-20T12:31:03Z</time>
      </trkpt>
      <trkpt lat="42.015518186" lon="2.474910942">
        <ele>751.41</ele>
        <time>2013-10-20T12:31:08Z</time>
      </trkpt>
      <trkpt lat="42.015441994" lon="2.474991073">
        <ele>753.33</ele>
        <time>2013-10-20T12:31:14Z</time>
      </trkpt>
      <trkpt lat="42.015420285" lon="2.475018984">
        <ele>753.81</ele>
        <time>2013-10-20T12:31:16Z</time>
      </trkpt>
      <trkpt lat="42.015264466" lon="2.475113616">
        <ele>755.25</ele>
        <time>2013-10-20T12:31:29Z</time>
      </trkpt>
      <trkpt lat="42.015210570" lon="2.475141360">
        <ele>756.21</ele>
        <time>2013-10-20T12:31:33Z</time>
      </trkpt>
      <trkpt lat="42.015172516" lon="2.475318470">
        <ele>758.62</ele>
        <time>2013-10-20T12:31:43Z</time>
      </trkpt>
      <trkpt lat="42.015176204" lon="2.475342190">
        <ele>758.62</ele>
        <time>2013-10-20T12:31:45Z</time>
      </trkpt>
      <trkpt lat="42.015167822" lon="2.475422741">
        <ele>759.58</ele>
        <time>2013-10-20T12:31:54Z</time>
      </trkpt>
      <trkpt lat="42.015107389" lon="2.475379741">
        <ele>760.54</ele>
        <time>2013-10-20T12:32:02Z</time>
      </trkpt>
      <trkpt lat="42.015105461" lon="2.475379071">
        <ele>760.54</ele>
        <time>2013-10-20T12:32:09Z</time>
      </trkpt>
      <trkpt lat="42.015106383" lon="2.475364402">
        <ele>760.54</ele>
        <time>2013-10-20T12:32:24Z</time>
      </trkpt>
      <trkpt lat="42.015108898" lon="2.475360044">
        <ele>758.62</ele>
        <time>2013-10-20T12:32:47Z</time>
      </trkpt>
      <trkpt lat="42.015109820" lon="2.475367755">
        <ele>760.54</ele>
        <time>2013-10-20T12:33:14Z</time>
      </trkpt>
      <trkpt lat="42.015107389" lon="2.475381502">
        <ele>760.54</ele>
        <time>2013-10-20T12:33:36Z</time>
      </trkpt>
      <trkpt lat="42.015117363" lon="2.475374377">
        <ele>760.54</ele>
        <time>2013-10-20T12:33:56Z</time>
      </trkpt>
      <trkpt lat="42.015120632" lon="2.475360212">
        <ele>760.54</ele>
        <time>2013-10-20T12:34:22Z</time>
      </trkpt>
      <trkpt lat="42.015119124" lon="2.475359709">
        <ele>761.02</ele>
        <time>2013-10-20T12:34:49Z</time>
      </trkpt>
      <trkpt lat="42.015112502" lon="2.475356021">
        <ele>759.58</ele>
        <time>2013-10-20T12:35:04Z</time>
      </trkpt>
      <trkpt lat="42.015111664" lon="2.475352752">
        <ele>760.06</ele>
        <time>2013-10-20T12:35:32Z</time>
      </trkpt>
      <trkpt lat="42.015119626" lon="2.475362307">
        <ele>760.54</ele>
        <time>2013-10-20T12:36:00Z</time>
      </trkpt>
      <trkpt lat="42.015099175" lon="2.475363732">
        <ele>761.02</ele>
        <time>2013-10-20T12:36:29Z</time>
      </trkpt>
      <trkpt lat="42.015102360" lon="2.475365744">
        <ele>761.02</ele>
        <time>2013-10-20T12:36:57Z</time>
      </trkpt>
      <trkpt lat="42.015097498" lon="2.475373455">
        <ele>761.50</ele>
        <time>2013-10-20T12:37:20Z</time>
      </trkpt>
      <trkpt lat="42.015095654" lon="2.475373706">
        <ele>761.02</ele>
        <time>2013-10-20T12:37:48Z</time>
      </trkpt>
      <trkpt lat="42.015107473" lon="2.475372365">
        <ele>761.50</ele>
        <time>2013-10-20T12:38:23Z</time>
      </trkpt>
      <trkpt lat="42.015107892" lon="2.475372030">
        <ele>761.50</ele>
        <time>2013-10-20T12:38:51Z</time>
      </trkpt>
      <trkpt lat="42.015116441" lon="2.475385944">
        <ele>760.54</ele>
        <time>2013-10-20T12:38:57Z</time>
      </trkpt>
      <trkpt lat="42.015113927" lon="2.475386615">
        <ele>760.54</ele>
        <time>2013-10-20T12:39:16Z</time>
      </trkpt>
      <trkpt lat="42.015117615" lon="2.475398433">
        <ele>760.54</ele>
        <time>2013-10-20T12:39:23Z</time>
      </trkpt>
      <trkpt lat="42.015210486" lon="2.475464901">
        <ele>760.54</ele>
        <time>2013-10-20T12:39:30Z</time>
      </trkpt>
      <trkpt lat="42.015390949" lon="2.475582080">
        <ele>760.54</ele>
        <time>2013-10-20T12:39:40Z</time>
      </trkpt>
      <trkpt lat="42.015467559" lon="2.475608651">
        <ele>761.98</ele>
        <time>2013-10-20T12:39:45Z</time>
      </trkpt>
      <trkpt lat="42.015582140" lon="2.475646789">
        <ele>763.42</ele>
        <time>2013-10-20T12:39:53Z</time>
      </trkpt>
      <trkpt lat="42.015654895" lon="2.475706803">
        <ele>764.39</ele>
        <time>2013-10-20T12:40:02Z</time>
      </trkpt>
      <trkpt lat="42.015735696" lon="2.475838734">
        <ele>765.83</ele>
        <time>2013-10-20T12:40:11Z</time>
      </trkpt>
      <trkpt lat="42.015774169" lon="2.475968654">
        <ele>767.75</ele>
        <time>2013-10-20T12:40:18Z</time>
      </trkpt>
      <trkpt lat="42.015798728" lon="2.476104776">
        <ele>768.71</ele>
        <time>2013-10-20T12:40:25Z</time>
      </trkpt>
      <trkpt lat="42.015867292" lon="2.476260093">
        <ele>771.11</ele>
        <time>2013-10-20T12:40:34Z</time>
      </trkpt>
      <trkpt lat="42.015979191" lon="2.476371656">
        <ele>773.04</ele>
        <time>2013-10-20T12:40:45Z</time>
      </trkpt>
      <trkpt lat="42.016079019" lon="2.476452541">
        <ele>775.44</ele>
        <time>2013-10-20T12:40:54Z</time>
      </trkpt>
      <trkpt lat="42.016168538" lon="2.476513142">
        <ele>776.88</ele>
        <time>2013-10-20T12:41:02Z</time>
      </trkpt>
      <trkpt lat="42.016176417" lon="2.476524290">
        <ele>776.88</ele>
        <time>2013-10-20T12:41:03Z</time>
      </trkpt>
      <trkpt lat="42.016211286" lon="2.476594531">
        <ele>777.84</ele>
        <time>2013-10-20T12:41:07Z</time>
      </trkpt>
      <trkpt lat="42.016278089" lon="2.476764180">
        <ele>780.25</ele>
        <time>2013-10-20T12:41:17Z</time>
      </trkpt>
      <trkpt lat="42.016321424" lon="2.476907511">
        <ele>781.69</ele>
        <time>2013-10-20T12:41:26Z</time>
      </trkpt>
      <trkpt lat="42.016381773" lon="2.477023600">
        <ele>782.65</ele>
        <time>2013-10-20T12:41:34Z</time>
      </trkpt>
      <trkpt lat="42.016438435" lon="2.477191154">
        <ele>784.57</ele>
        <time>2013-10-20T12:41:43Z</time>
      </trkpt>
      <trkpt lat="42.016443800" lon="2.477358793">
        <ele>786.02</ele>
        <time>2013-10-20T12:41:51Z</time>
      </trkpt>
      <trkpt lat="42.016465173" lon="2.477517630">
        <ele>787.46</ele>
        <time>2013-10-20T12:41:59Z</time>
      </trkpt>
      <trkpt lat="42.016442877" lon="2.477685603">
        <ele>789.38</ele>
        <time>2013-10-20T12:42:08Z</time>
      </trkpt>
      <trkpt lat="42.016385210" lon="2.477857264">
        <ele>790.34</ele>
        <time>2013-10-20T12:42:16Z</time>
      </trkpt>
      <trkpt lat="42.016395771" lon="2.477959943">
        <ele>791.78</ele>
        <time>2013-10-20T12:42:21Z</time>
      </trkpt>
      <trkpt lat="42.016443800" lon="2.478002020">
        <ele>792.26</ele>
        <time>2013-10-20T12:42:25Z</time>
      </trkpt>
      <trkpt lat="42.016557207" lon="2.477947621">
        <ele>794.19</ele>
        <time>2013-10-20T12:42:33Z</time>
      </trkpt>
      <trkpt lat="42.016656951" lon="2.477944520">
        <ele>795.63</ele>
        <time>2013-10-20T12:42:40Z</time>
      </trkpt>
      <trkpt lat="42.016668602" lon="2.477956590">
        <ele>796.11</ele>
        <time>2013-10-20T12:42:41Z</time>
      </trkpt>
      <trkpt lat="42.016755187" lon="2.478103692">
        <ele>797.55</ele>
        <time>2013-10-20T12:42:50Z</time>
      </trkpt>
      <trkpt lat="42.016881502" lon="2.478202012">
        <ele>800.44</ele>
        <time>2013-10-20T12:43:00Z</time>
      </trkpt>
      <trkpt lat="42.016994910" lon="2.478278120">
        <ele>801.88</ele>
        <time>2013-10-20T12:43:09Z</time>
      </trkpt>
      <trkpt lat="42.017097839" lon="2.478366130">
        <ele>803.80</ele>
        <time>2013-10-20T12:43:18Z</time>
      </trkpt>
      <trkpt lat="42.017148885" lon="2.478480124">
        <ele>804.76</ele>
        <time>2013-10-20T12:43:24Z</time>
      </trkpt>
      <trkpt lat="42.017172103" lon="2.478692605">
        <ele>805.24</ele>
        <time>2013-10-20T12:43:31Z</time>
      </trkpt>
      <trkpt lat="42.017135893" lon="2.478891843">
        <ele>806.20</ele>
        <time>2013-10-20T12:43:39Z</time>
      </trkpt>
      <trkpt lat="42.017089290" lon="2.479014470">
        <ele>807.16</ele>
        <time>2013-10-20T12:43:44Z</time>
      </trkpt>
      <trkpt lat="42.017098342" lon="2.479238350">
        <ele>808.13</ele>
        <time>2013-10-20T12:43:52Z</time>
      </trkpt>
      <trkpt lat="42.017112172" lon="2.479555186">
        <ele>808.61</ele>
        <time>2013-10-20T12:44:02Z</time>
      </trkpt>
      <trkpt lat="42.017102114" lon="2.479774373">
        <ele>810.53</ele>
        <time>2013-10-20T12:44:10Z</time>
      </trkpt>
      <trkpt lat="42.017069425" lon="2.479991129">
        <ele>812.45</ele>
        <time>2013-10-20T12:44:18Z</time>
      </trkpt>
      <trkpt lat="42.017092140" lon="2.480255746">
        <ele>812.93</ele>
        <time>2013-10-20T12:44:27Z</time>
      </trkpt>
      <trkpt lat="42.017129691" lon="2.480408716">
        <ele>814.37</ele>
        <time>2013-10-20T12:44:33Z</time>
      </trkpt>
      <trkpt lat="42.017189621" lon="2.480579371">
        <ele>815.34</ele>
        <time>2013-10-20T12:44:40Z</time>
      </trkpt>
      <trkpt lat="42.017207139" lon="2.480860835">
        <ele>815.82</ele>
        <time>2013-10-20T12:44:50Z</time>
      </trkpt>
      <trkpt lat="42.017300514" lon="2.481185634">
        <ele>815.82</ele>
        <time>2013-10-20T12:44:58Z</time>
      </trkpt>
      <trkpt lat="42.017425739" lon="2.481391494">
        <ele>815.82</ele>
        <time>2013-10-20T12:45:05Z</time>
      </trkpt>
      <trkpt lat="42.017438312" lon="2.481403983">
        <ele>815.82</ele>
        <time>2013-10-20T12:45:06Z</time>
      </trkpt>
      <trkpt lat="42.017517102" lon="2.481431978">
        <ele>815.82</ele>
        <time>2013-10-20T12:45:14Z</time>
      </trkpt>
      <trkpt lat="42.017568232" lon="2.481445557">
        <ele>814.37</ele>
        <time>2013-10-20T12:45:19Z</time>
      </trkpt>
      <trkpt lat="42.017679292" lon="2.481551253">
        <ele>814.37</ele>
        <time>2013-10-20T12:45:27Z</time>
      </trkpt>
      <trkpt lat="42.017799656" lon="2.481830035">
        <ele>813.41</ele>
        <time>2013-10-20T12:45:36Z</time>
      </trkpt>
      <trkpt lat="42.017848523" lon="2.482228678">
        <ele>812.45</ele>
        <time>2013-10-20T12:45:43Z</time>
      </trkpt>
      <trkpt lat="42.017937958" lon="2.482513412">
        <ele>811.97</ele>
        <time>2013-10-20T12:45:50Z</time>
      </trkpt>
      <trkpt lat="42.018074331" lon="2.482658838">
        <ele>812.45</ele>
        <time>2013-10-20T12:45:57Z</time>
      </trkpt>
      <trkpt lat="42.018287231" lon="2.482781549">
        <ele>812.45</ele>
        <time>2013-10-20T12:46:05Z</time>
      </trkpt>
      <trkpt lat="42.018603732" lon="2.482890094">
        <ele>811.97</ele>
        <time>2013-10-20T12:46:14Z</time>
      </trkpt>
      <trkpt lat="42.018833312" lon="2.482968968">
        <ele>811.49</ele>
        <time>2013-10-20T12:46:20Z</time>
      </trkpt>
      <trkpt lat="42.019183089" lon="2.483101318">
        <ele>811.01</ele>
        <time>2013-10-20T12:46:29Z</time>
      </trkpt>
      <trkpt lat="42.019413005" lon="2.483148844">
        <ele>810.53</ele>
        <time>2013-10-20T12:46:36Z</time>
      </trkpt>
      <trkpt lat="42.019717352" lon="2.483156471">
        <ele>810.05</ele>
        <time>2013-10-20T12:46:44Z</time>
      </trkpt>
      <trkpt lat="42.020004516" lon="2.483133840">
        <ele>810.05</ele>
        <time>2013-10-20T12:46:51Z</time>
      </trkpt>
      <trkpt lat="42.020102919" lon="2.483143982">
        <ele>810.05</ele>
        <time>2013-10-20T12:46:53Z</time>
      </trkpt>
      <trkpt lat="42.020449846" lon="2.483101067">
        <ele>808.61</ele>
        <time>2013-10-20T12:47:00Z</time>
      </trkpt>
      <trkpt lat="42.020725108" lon="2.483055050">
        <ele>808.13</ele>
        <time>2013-10-20T12:47:07Z</time>
      </trkpt>
      <trkpt lat="42.020889729" lon="2.483034934">
        <ele>807.16</ele>
        <time>2013-10-20T12:47:13Z</time>
      </trkpt>
      <trkpt lat="42.021064575" lon="2.483082124">
        <ele>805.72</ele>
        <time>2013-10-20T12:47:19Z</time>
      </trkpt>
      <trkpt lat="42.021139761" lon="2.483158399">
        <ele>804.76</ele>
        <time>2013-10-20T12:47:23Z</time>
      </trkpt>
      <trkpt lat="42.021190220" lon="2.483197291">
        <ele>803.80</ele>
        <time>2013-10-20T12:47:25Z</time>
      </trkpt>
      <trkpt lat="42.021334891" lon="2.483205170">
        <ele>802.84</ele>
        <time>2013-10-20T12:47:30Z</time>
      </trkpt>
      <trkpt lat="42.021448382" lon="2.483245822">
        <ele>802.84</ele>
        <time>2013-10-20T12:47:36Z</time>
      </trkpt>
      <trkpt lat="42.021488616" lon="2.483254288">
        <ele>802.36</ele>
        <time>2013-10-20T12:47:44Z</time>
      </trkpt>
      <trkpt lat="42.021526921" lon="2.483254036">
        <ele>802.36</ele>
        <time>2013-10-20T12:47:53Z</time>
      </trkpt>
      <trkpt lat="42.021555084" lon="2.483264933">
        <ele>801.88</ele>
        <time>2013-10-20T12:48:04Z</time>
      </trkpt>
      <trkpt lat="42.021572351" lon="2.483278847">
        <ele>801.88</ele>
        <time>2013-10-20T12:48:16Z</time>
      </trkpt>
      <trkpt lat="42.021580900" lon="2.483285804">
        <ele>801.40</ele>
        <time>2013-10-20T12:48:23Z</time>
      </trkpt>
      <trkpt lat="42.021590288" lon="2.483303071">
        <ele>801.40</ele>
        <time>2013-10-20T12:48:31Z</time>
      </trkpt>
      <trkpt lat="42.021602358" lon="2.483303574">
        <ele>801.40</ele>
        <time>2013-10-20T12:48:39Z</time>
      </trkpt>
      <trkpt lat="42.021610405" lon="2.483320170">
        <ele>801.40</ele>
        <time>2013-10-20T12:48:49Z</time>
      </trkpt>
      <trkpt lat="42.021632449" lon="2.483328468">
        <ele>801.40</ele>
        <time>2013-10-20T12:48:55Z</time>
      </trkpt>
      <trkpt lat="42.021641334" lon="2.483328216">
        <ele>801.40</ele>
        <time>2013-10-20T12:49:06Z</time>
      </trkpt>
      <trkpt lat="42.021645022" lon="2.483341208">
        <ele>802.84</ele>
        <time>2013-10-20T12:49:09Z</time>
      </trkpt>
      <trkpt lat="42.021652901" lon="2.483372808">
        <ele>802.84</ele>
        <time>2013-10-20T12:49:17Z</time>
      </trkpt>
      <trkpt lat="42.021650135" lon="2.483385884">
        <ele>802.84</ele>
        <time>2013-10-20T12:49:29Z</time>
      </trkpt>
      <trkpt lat="42.021655415" lon="2.483411700">
        <ele>802.84</ele>
        <time>2013-10-20T12:49:32Z</time>
      </trkpt>
      <trkpt lat="42.021644016" lon="2.483485293">
        <ele>803.80</ele>
        <time>2013-10-20T12:49:39Z</time>
      </trkpt>
      <trkpt lat="42.021596658" lon="2.483496944">
        <ele>804.28</ele>
        <time>2013-10-20T12:49:43Z</time>
      </trkpt>
      <trkpt lat="42.021488951" lon="2.483511109">
        <ele>804.28</ele>
        <time>2013-10-20T12:49:48Z</time>
      </trkpt>
      <trkpt lat="42.021414855" lon="2.483545308">
        <ele>804.28</ele>
        <time>2013-10-20T12:49:52Z</time>
      </trkpt>
      <trkpt lat="42.021317541" lon="2.483564083">
        <ele>805.24</ele>
        <time>2013-10-20T12:49:58Z</time>
      </trkpt>
      <trkpt lat="42.021289881" lon="2.483574644">
        <ele>805.72</ele>
        <time>2013-10-20T12:50:05Z</time>
      </trkpt>
      <trkpt lat="42.021245624" lon="2.483646226">
        <ele>806.68</ele>
        <time>2013-10-20T12:50:13Z</time>
      </trkpt>
      <trkpt lat="42.021192483" lon="2.483719651">
        <ele>807.16</ele>
        <time>2013-10-20T12:50:21Z</time>
      </trkpt>
      <trkpt lat="42.021182173" lon="2.483757789">
        <ele>808.13</ele>
        <time>2013-10-20T12:50:26Z</time>
      </trkpt>
      <trkpt lat="42.021131714" lon="2.483798357">
        <ele>808.13</ele>
        <time>2013-10-20T12:50:34Z</time>
      </trkpt>
      <trkpt lat="42.021105982" lon="2.483832891">
        <ele>809.09</ele>
        <time>2013-10-20T12:50:41Z</time>
      </trkpt>
      <trkpt lat="42.021066587" lon="2.483876225">
        <ele>809.57</ele>
        <time>2013-10-20T12:50:50Z</time>
      </trkpt>
      <trkpt lat="42.021055774" lon="2.483884775">
        <ele>809.57</ele>
        <time>2013-10-20T12:50:54Z</time>
      </trkpt>
      <trkpt lat="42.021034149" lon="2.483919979">
        <ele>810.05</ele>
        <time>2013-10-20T12:51:00Z</time>
      </trkpt>
      <trkpt lat="42.021020151" lon="2.483930037">
        <ele>810.05</ele>
        <time>2013-10-20T12:51:05Z</time>
      </trkpt>
      <trkpt lat="42.020925268" lon="2.483956608">
        <ele>811.01</ele>
        <time>2013-10-20T12:51:12Z</time>
      </trkpt>
      <trkpt lat="42.020824014" lon="2.484008743">
        <ele>811.49</ele>
        <time>2013-10-20T12:51:18Z</time>
      </trkpt>
      <trkpt lat="42.020794929" lon="2.484085521">
        <ele>812.45</ele>
        <time>2013-10-20T12:51:22Z</time>
      </trkpt>
      <trkpt lat="42.020793253" lon="2.484141931">
        <ele>812.93</ele>
        <time>2013-10-20T12:51:25Z</time>
      </trkpt>
      <trkpt lat="42.020835330" lon="2.484192558">
        <ele>813.89</ele>
        <time>2013-10-20T12:51:32Z</time>
      </trkpt>
      <trkpt lat="42.020853183" lon="2.484227175">
        <ele>815.34</ele>
        <time>2013-10-20T12:51:38Z</time>
      </trkpt>
      <trkpt lat="42.020846394" lon="2.484261625">
        <ele>815.82</ele>
        <time>2013-10-20T12:51:44Z</time>
      </trkpt>
      <trkpt lat="42.020843377" lon="2.484322142">
        <ele>818.22</ele>
        <time>2013-10-20T12:51:52Z</time>
      </trkpt>
      <trkpt lat="42.020832396" lon="2.484412583">
        <ele>818.70</ele>
        <time>2013-10-20T12:52:00Z</time>
      </trkpt>
      <trkpt lat="42.020886460" lon="2.484486009">
        <ele>819.66</ele>
        <time>2013-10-20T12:52:08Z</time>
      </trkpt>
      <trkpt lat="42.020905235" lon="2.484481734">
        <ele>819.66</ele>
        <time>2013-10-20T12:52:10Z</time>
      </trkpt>
      <trkpt lat="42.020974973" lon="2.484469245">
        <ele>820.62</ele>
        <time>2013-10-20T12:52:19Z</time>
      </trkpt>
      <trkpt lat="42.021009087" lon="2.484482823">
        <ele>821.58</ele>
        <time>2013-10-20T12:52:23Z</time>
      </trkpt>
      <trkpt lat="42.020996179" lon="2.484553148">
        <ele>822.55</ele>
        <time>2013-10-20T12:52:30Z</time>
      </trkpt>
      <trkpt lat="42.020959885" lon="2.484592878">
        <ele>823.51</ele>
        <time>2013-10-20T12:52:37Z</time>
      </trkpt>
      <trkpt lat="42.020869444" lon="2.484642750">
        <ele>824.47</ele>
        <time>2013-10-20T12:52:47Z</time>
      </trkpt>
      <trkpt lat="42.020853016" lon="2.484669656">
        <ele>824.95</ele>
        <time>2013-10-20T12:52:50Z</time>
      </trkpt>
      <trkpt lat="42.020837677" lon="2.484672254">
        <ele>824.95</ele>
        <time>2013-10-20T12:52:52Z</time>
      </trkpt>
      <trkpt lat="42.020746817" lon="2.484679128">
        <ele>825.91</ele>
        <time>2013-10-20T12:53:00Z</time>
      </trkpt>
      <trkpt lat="42.020706752" lon="2.484686923">
        <ele>826.39</ele>
        <time>2013-10-20T12:53:06Z</time>
      </trkpt>
      <trkpt lat="42.020601475" lon="2.484798402">
        <ele>827.35</ele>
        <time>2013-10-20T12:53:14Z</time>
      </trkpt>
      <trkpt lat="42.020588064" lon="2.484809802">
        <ele>827.35</ele>
        <time>2013-10-20T12:53:15Z</time>
      </trkpt>
      <trkpt lat="42.020443811" lon="2.484907451">
        <ele>828.79</ele>
        <time>2013-10-20T12:53:23Z</time>
      </trkpt>
      <trkpt lat="42.020363848" lon="2.485029994">
        <ele>829.27</ele>
        <time>2013-10-20T12:53:30Z</time>
      </trkpt>
      <trkpt lat="42.020336439" lon="2.485099899">
        <ele>830.24</ele>
        <time>2013-10-20T12:53:34Z</time>
      </trkpt>
      <trkpt lat="42.020288411" lon="2.485175588">
        <ele>831.68</ele>
        <time>2013-10-20T12:53:39Z</time>
      </trkpt>
      <trkpt lat="42.020190678" lon="2.485335012">
        <ele>833.60</ele>
        <time>2013-10-20T12:53:48Z</time>
      </trkpt>
      <trkpt lat="42.020089341" lon="2.485448922">
        <ele>835.04</ele>
        <time>2013-10-20T12:53:56Z</time>
      </trkpt>
      <trkpt lat="42.019956655" lon="2.485561658">
        <ele>836.48</ele>
        <time>2013-10-20T12:54:05Z</time>
      </trkpt>
      <trkpt lat="42.019792454" lon="2.485686549">
        <ele>837.45</ele>
        <time>2013-10-20T12:54:15Z</time>
      </trkpt>
      <trkpt lat="42.019670497" lon="2.485805655">
        <ele>838.41</ele>
        <time>2013-10-20T12:54:23Z</time>
      </trkpt>
      <trkpt lat="42.019507888" lon="2.486017047">
        <ele>839.37</ele>
        <time>2013-10-20T12:54:34Z</time>
      </trkpt>
      <trkpt lat="42.019447538" lon="2.486105141">
        <ele>839.85</ele>
        <time>2013-10-20T12:54:39Z</time>
      </trkpt>
      <trkpt lat="42.019426667" lon="2.486161132">
        <ele>840.33</ele>
        <time>2013-10-20T12:54:42Z</time>
      </trkpt>
      <trkpt lat="42.019417028" lon="2.486197258">
        <ele>840.81</ele>
        <time>2013-10-20T12:54:44Z</time>
      </trkpt>
      <trkpt lat="42.019386686" lon="2.486291722">
        <ele>841.29</ele>
        <time>2013-10-20T12:54:48Z</time>
      </trkpt>
      <trkpt lat="42.019331784" lon="2.486521219">
        <ele>842.25</ele>
        <time>2013-10-20T12:54:58Z</time>
      </trkpt>
      <trkpt lat="42.019280236" lon="2.486722384">
        <ele>844.18</ele>
        <time>2013-10-20T12:55:07Z</time>
      </trkpt>
      <trkpt lat="42.019255090" lon="2.486874935">
        <ele>845.62</ele>
        <time>2013-10-20T12:55:14Z</time>
      </trkpt>
      <trkpt lat="42.019203122" lon="2.487042824">
        <ele>847.54</ele>
        <time>2013-10-20T12:55:22Z</time>
      </trkpt>
      <trkpt lat="42.019117208" lon="2.487185736">
        <ele>848.50</ele>
        <time>2013-10-20T12:55:31Z</time>
      </trkpt>
      <trkpt lat="42.019038334" lon="2.487307776">
        <ele>849.46</ele>
        <time>2013-10-20T12:55:38Z</time>
      </trkpt>
      <trkpt lat="42.019006399" lon="2.487359828">
        <ele>849.46</ele>
        <time>2013-10-20T12:55:41Z</time>
      </trkpt>
      <trkpt lat="42.018968010" lon="2.487438785">
        <ele>851.38</ele>
        <time>2013-10-20T12:55:46Z</time>
      </trkpt>
      <trkpt lat="42.018870277" lon="2.487516570">
        <ele>852.83</ele>
        <time>2013-10-20T12:55:53Z</time>
      </trkpt>
      <trkpt lat="42.018743794" lon="2.487621427">
        <ele>853.79</ele>
        <time>2013-10-20T12:56:03Z</time>
      </trkpt>
      <trkpt lat="42.018723761" lon="2.487664091">
        <ele>853.79</ele>
        <time>2013-10-20T12:56:06Z</time>
      </trkpt>
      <trkpt lat="42.018643379" lon="2.487809768">
        <ele>855.71</ele>
        <time>2013-10-20T12:56:14Z</time>
      </trkpt>
      <trkpt lat="42.018507424" lon="2.487952764">
        <ele>856.67</ele>
        <time>2013-10-20T12:56:24Z</time>
      </trkpt>
      <trkpt lat="42.018448248" lon="2.488042869">
        <ele>857.15</ele>
        <time>2013-10-20T12:56:29Z</time>
      </trkpt>
      <trkpt lat="42.018424276" lon="2.488160383">
        <ele>858.59</ele>
        <time>2013-10-20T12:56:35Z</time>
      </trkpt>
      <trkpt lat="42.018383120" lon="2.488341600">
        <ele>860.52</ele>
        <time>2013-10-20T12:56:44Z</time>
      </trkpt>
      <trkpt lat="42.018327381" lon="2.488526589">
        <ele>862.44</ele>
        <time>2013-10-20T12:56:53Z</time>
      </trkpt>
      <trkpt lat="42.018285052" lon="2.488663968">
        <ele>863.88</ele>
        <time>2013-10-20T12:57:00Z</time>
      </trkpt>
      <trkpt lat="42.018282286" lon="2.488823643">
        <ele>864.84</ele>
        <time>2013-10-20T12:57:08Z</time>
      </trkpt>
      <trkpt lat="42.018284046" lon="2.488918275">
        <ele>865.32</ele>
        <time>2013-10-20T12:57:12Z</time>
      </trkpt>
      <trkpt lat="42.018340373" lon="2.489018690">
        <ele>865.80</ele>
        <time>2013-10-20T12:57:18Z</time>
      </trkpt>
      <trkpt lat="42.018380606" lon="2.489083566">
        <ele>866.29</ele>
        <time>2013-10-20T12:57:22Z</time>
      </trkpt>
      <trkpt lat="42.018395861" lon="2.489132852">
        <ele>866.77</ele>
        <time>2013-10-20T12:57:25Z</time>
      </trkpt>
      <trkpt lat="42.018404997" lon="2.489199656">
        <ele>866.77</ele>
        <time>2013-10-20T12:57:29Z</time>
      </trkpt>
      <trkpt lat="42.018447242" lon="2.489252629">
        <ele>866.77</ele>
        <time>2013-10-20T12:57:33Z</time>
      </trkpt>
      <trkpt lat="42.018531061" lon="2.489376346">
        <ele>867.25</ele>
        <time>2013-10-20T12:57:42Z</time>
      </trkpt>
      <trkpt lat="42.018611863" lon="2.489498051">
        <ele>868.21</ele>
        <time>2013-10-20T12:57:51Z</time>
      </trkpt>
      <trkpt lat="42.018636505" lon="2.489526215">
        <ele>868.69</ele>
        <time>2013-10-20T12:57:53Z</time>
      </trkpt>
      <trkpt lat="42.018684115" lon="2.489598802">
        <ele>869.17</ele>
        <time>2013-10-20T12:57:57Z</time>
      </trkpt>
      <trkpt lat="42.018734657" lon="2.489669797">
        <ele>869.65</ele>
        <time>2013-10-20T12:58:02Z</time>
      </trkpt>
      <trkpt lat="42.018780004" lon="2.489727632">
        <ele>870.61</ele>
        <time>2013-10-20T12:58:07Z</time>
      </trkpt>
      <trkpt lat="42.018882430" lon="2.489891498">
        <ele>871.09</ele>
        <time>2013-10-20T12:58:16Z</time>
      </trkpt>
      <trkpt lat="42.019000699" lon="2.490076654">
        <ele>872.05</ele>
        <time>2013-10-20T12:58:26Z</time>
      </trkpt>
      <trkpt lat="42.019089044" lon="2.490198862">
        <ele>873.50</ele>
        <time>2013-10-20T12:58:33Z</time>
      </trkpt>
      <trkpt lat="42.019162805" lon="2.490339762">
        <ele>873.98</ele>
        <time>2013-10-20T12:58:40Z</time>
      </trkpt>
      <trkpt lat="42.019276128" lon="2.490540006">
        <ele>874.94</ele>
        <time>2013-10-20T12:58:49Z</time>
      </trkpt>
      <trkpt lat="42.019387105" lon="2.490749972">
        <ele>876.38</ele>
        <time>2013-10-20T12:58:58Z</time>
      </trkpt>
      <trkpt lat="42.019548456" lon="2.491027749">
        <ele>876.86</ele>
        <time>2013-10-20T12:59:09Z</time>
      </trkpt>
      <trkpt lat="42.019664043" lon="2.491227825">
        <ele>877.82</ele>
        <time>2013-10-20T12:59:18Z</time>
      </trkpt>
      <trkpt lat="42.019740989" lon="2.491338131">
        <ele>878.78</ele>
        <time>2013-10-20T12:59:25Z</time>
      </trkpt>
      <trkpt lat="42.019833106" lon="2.491490597">
        <ele>879.74</ele>
        <time>2013-10-20T12:59:33Z</time>
      </trkpt>
      <trkpt lat="42.019893204" lon="2.491733840">
        <ele>880.71</ele>
        <time>2013-10-20T12:59:41Z</time>
      </trkpt>
      <trkpt lat="42.019963612" lon="2.492009270">
        <ele>880.71</ele>
        <time>2013-10-20T12:59:50Z</time>
      </trkpt>
      <trkpt lat="42.020019268" lon="2.492182524">
        <ele>881.67</ele>
        <time>2013-10-20T12:59:58Z</time>
      </trkpt>
      <trkpt lat="42.020020777" lon="2.492181182">
        <ele>881.67</ele>
        <time>2013-10-20T13:00:03Z</time>
      </trkpt>
      <trkpt lat="42.020008874" lon="2.492165592">
        <ele>882.15</ele>
        <time>2013-10-20T13:00:20Z</time>
      </trkpt>
      <trkpt lat="42.019993703" lon="2.492168274">
        <ele>882.15</ele>
        <time>2013-10-20T13:00:39Z</time>
      </trkpt>
      <trkpt lat="42.019999906" lon="2.492177243">
        <ele>882.15</ele>
        <time>2013-10-20T13:00:59Z</time>
      </trkpt>
      <trkpt lat="42.020009293" lon="2.492177494">
        <ele>882.15</ele>
        <time>2013-10-20T13:01:07Z</time>
      </trkpt>
      <trkpt lat="42.020088670" lon="2.492230803">
        <ele>882.15</ele>
        <time>2013-10-20T13:01:14Z</time>
      </trkpt>
      <trkpt lat="42.020204676" lon="2.492241616">
        <ele>882.63</ele>
        <time>2013-10-20T13:01:21Z</time>
      </trkpt>
      <trkpt lat="42.020342726" lon="2.492282939">
        <ele>884.07</ele>
        <time>2013-10-20T13:01:29Z</time>
      </trkpt>
      <trkpt lat="42.020523356" lon="2.492355191">
        <ele>885.03</ele>
        <time>2013-10-20T13:01:38Z</time>
      </trkpt>
      <trkpt lat="42.020716056" lon="2.492344378">
        <ele>886.47</ele>
        <time>2013-10-20T13:01:47Z</time>
      </trkpt>
      <trkpt lat="42.020832313" lon="2.492326022">
        <ele>888.88</ele>
        <time>2013-10-20T13:01:54Z</time>
      </trkpt>
      <trkpt lat="42.020847232" lon="2.492321496">
        <ele>888.88</ele>
        <time>2013-10-20T13:01:55Z</time>
      </trkpt>
      <trkpt lat="42.020877659" lon="2.492330129">
        <ele>889.36</ele>
        <time>2013-10-20T13:01:57Z</time>
      </trkpt>
      <trkpt lat="42.020945133" lon="2.492391820">
        <ele>890.32</ele>
        <time>2013-10-20T13:02:02Z</time>
      </trkpt>
      <trkpt lat="42.021100282" lon="2.492619807">
        <ele>890.80</ele>
        <time>2013-10-20T13:02:12Z</time>
      </trkpt>
      <trkpt lat="42.021202374" lon="2.492784009">
        <ele>891.28</ele>
        <time>2013-10-20T13:02:19Z</time>
      </trkpt>
      <trkpt lat="42.021361211" lon="2.492967237">
        <ele>891.76</ele>
        <time>2013-10-20T13:02:28Z</time>
      </trkpt>
      <trkpt lat="42.021500602" lon="2.493156249">
        <ele>891.76</ele>
        <time>2013-10-20T13:02:36Z</time>
      </trkpt>
      <trkpt lat="42.021546199" lon="2.493430170">
        <ele>891.76</ele>
        <time>2013-10-20T13:02:43Z</time>
      </trkpt>
      <trkpt lat="42.021651811" lon="2.493847086">
        <ele>890.80</ele>
        <time>2013-10-20T13:02:52Z</time>
      </trkpt>
      <trkpt lat="42.021819114" lon="2.494126790">
        <ele>889.84</ele>
        <time>2013-10-20T13:02:59Z</time>
      </trkpt>
      <trkpt lat="42.021843254" lon="2.494350838">
        <ele>888.88</ele>
        <time>2013-10-20T13:03:03Z</time>
      </trkpt>
      <trkpt lat="42.021802266" lon="2.494521242">
        <ele>888.40</ele>
        <time>2013-10-20T13:03:06Z</time>
      </trkpt>
      <trkpt lat="42.021688943" lon="2.494686869">
        <ele>888.40</ele>
        <time>2013-10-20T13:03:10Z</time>
      </trkpt>
      <trkpt lat="42.021430529" lon="2.494888202">
        <ele>889.84</ele>
        <time>2013-10-20T13:03:18Z</time>
      </trkpt>
      <trkpt lat="42.021233303" lon="2.495182574">
        <ele>892.72</ele>
        <time>2013-10-20T13:03:27Z</time>
      </trkpt>
      <trkpt lat="42.021121656" lon="2.495355661">
        <ele>893.68</ele>
        <time>2013-10-20T13:03:33Z</time>
      </trkpt>
      <trkpt lat="42.021043369" lon="2.495651877">
        <ele>895.61</ele>
        <time>2013-10-20T13:03:42Z</time>
      </trkpt>
      <trkpt lat="42.021040435" lon="2.495908363">
        <ele>896.09</ele>
        <time>2013-10-20T13:03:50Z</time>
      </trkpt>
      <trkpt lat="42.021064743" lon="2.496158144">
        <ele>898.01</ele>
        <time>2013-10-20T13:03:58Z</time>
      </trkpt>
      <trkpt lat="42.021119728" lon="2.496381019">
        <ele>899.93</ele>
        <time>2013-10-20T13:04:06Z</time>
      </trkpt>
      <trkpt lat="42.021157363" lon="2.496591824">
        <ele>900.89</ele>
        <time>2013-10-20T13:04:13Z</time>
      </trkpt>
      <trkpt lat="42.021200949" lon="2.496793911">
        <ele>901.37</ele>
        <time>2013-10-20T13:04:20Z</time>
      </trkpt>
      <trkpt lat="42.021232046" lon="2.496995245">
        <ele>903.30</ele>
        <time>2013-10-20T13:04:27Z</time>
      </trkpt>
      <trkpt lat="42.021240511" lon="2.497280984">
        <ele>905.22</ele>
        <time>2013-10-20T13:04:37Z</time>
      </trkpt>
      <trkpt lat="42.021171109" lon="2.497490699">
        <ele>906.18</ele>
        <time>2013-10-20T13:04:45Z</time>
      </trkpt>
      <trkpt lat="42.021157698" lon="2.497693373">
        <ele>906.66</ele>
        <time>2013-10-20T13:04:52Z</time>
      </trkpt>
      <trkpt lat="42.021216958" lon="2.497916835">
        <ele>907.62</ele>
        <time>2013-10-20T13:05:00Z</time>
      </trkpt>
      <trkpt lat="42.021276721" lon="2.498192348">
        <ele>908.10</ele>
        <time>2013-10-20T13:05:09Z</time>
      </trkpt>
      <trkpt lat="42.021326845" lon="2.498458893">
        <ele>909.06</ele>
        <time>2013-10-20T13:05:18Z</time>
      </trkpt>
      <trkpt lat="42.021418375" lon="2.498742452">
        <ele>910.99</ele>
        <time>2013-10-20T13:05:28Z</time>
      </trkpt>
      <trkpt lat="42.021486604" lon="2.498921322">
        <ele>910.99</ele>
        <time>2013-10-20T13:05:34Z</time>
      </trkpt>
      <trkpt lat="42.021574782" lon="2.499104132">
        <ele>911.47</ele>
        <time>2013-10-20T13:05:41Z</time>
      </trkpt>
      <trkpt lat="42.021705455" lon="2.499321977">
        <ele>912.43</ele>
        <time>2013-10-20T13:05:50Z</time>
      </trkpt>
      <trkpt lat="42.021805284" lon="2.499527669">
        <ele>913.39</ele>
        <time>2013-10-20T13:05:58Z</time>
      </trkpt>
      <trkpt lat="42.021818527" lon="2.499575195">
        <ele>913.87</ele>
        <time>2013-10-20T13:06:04Z</time>
      </trkpt>
      <trkpt lat="42.021812408" lon="2.499568992">
        <ele>914.35</ele>
        <time>2013-10-20T13:06:20Z</time>
      </trkpt>
      <trkpt lat="42.021812744" lon="2.499545020">
        <ele>914.35</ele>
        <time>2013-10-20T13:06:36Z</time>
      </trkpt>
      <trkpt lat="42.021812241" lon="2.499551055">
        <ele>914.83</ele>
        <time>2013-10-20T13:06:50Z</time>
      </trkpt>
      <trkpt lat="42.021815258" lon="2.499563879">
        <ele>914.83</ele>
        <time>2013-10-20T13:06:54Z</time>
      </trkpt>
      <trkpt lat="42.021841494" lon="2.499578799">
        <ele>914.83</ele>
        <time>2013-10-20T13:06:57Z</time>
      </trkpt>
      <trkpt lat="42.021898658" lon="2.499634790">
        <ele>915.31</ele>
        <time>2013-10-20T13:07:01Z</time>
      </trkpt>
      <trkpt lat="42.022059339" lon="2.499759848">
        <ele>915.31</ele>
        <time>2013-10-20T13:07:08Z</time>
      </trkpt>
      <trkpt lat="42.022228570" lon="2.499879038">
        <ele>916.75</ele>
        <time>2013-10-20T13:07:16Z</time>
      </trkpt>
      <trkpt lat="42.022375169" lon="2.499950788">
        <ele>918.20</ele>
        <time>2013-10-20T13:07:23Z</time>
      </trkpt>
      <trkpt lat="42.022540293" lon="2.500033014">
        <ele>920.60</ele>
        <time>2013-10-20T13:07:31Z</time>
      </trkpt>
      <trkpt lat="42.022603241" lon="2.500072828">
        <ele>921.08</ele>
        <time>2013-10-20T13:07:34Z</time>
      </trkpt>
      <trkpt lat="42.022664764" lon="2.500290422">
        <ele>923.00</ele>
        <time>2013-10-20T13:07:43Z</time>
      </trkpt>
      <trkpt lat="42.022699717" lon="2.500484631">
        <ele>923.96</ele>
        <time>2013-10-20T13:07:50Z</time>
      </trkpt>
      <trkpt lat="42.022787391" lon="2.500712451">
        <ele>924.45</ele>
        <time>2013-10-20T13:07:59Z</time>
      </trkpt>
      <trkpt lat="42.022841119" lon="2.500791325">
        <ele>924.93</ele>
        <time>2013-10-20T13:08:03Z</time>
      </trkpt>
      <trkpt lat="42.023014792" lon="2.500893416">
        <ele>925.89</ele>
        <time>2013-10-20T13:08:13Z</time>
      </trkpt>
      <trkpt lat="42.023145299" lon="2.500931973">
        <ele>925.89</ele>
        <time>2013-10-20T13:08:19Z</time>
      </trkpt>
      <trkpt lat="42.023316373" lon="2.500944965">
        <ele>925.89</ele>
        <time>2013-10-20T13:08:26Z</time>
      </trkpt>
      <trkpt lat="42.023535141" lon="2.500997520">
        <ele>926.37</ele>
        <time>2013-10-20T13:08:34Z</time>
      </trkpt>
      <trkpt lat="42.023717531" lon="2.501155267">
        <ele>927.81</ele>
        <time>2013-10-20T13:08:43Z</time>
      </trkpt>
      <trkpt lat="42.023920289" lon="2.501323157">
        <ele>928.77</ele>
        <time>2013-10-20T13:08:53Z</time>
      </trkpt>
      <trkpt lat="42.024099578" lon="2.501357690">
        <ele>928.77</ele>
        <time>2013-10-20T13:09:01Z</time>
      </trkpt>
      <trkpt lat="42.024310216" lon="2.501420722">
        <ele>929.25</ele>
        <time>2013-10-20T13:09:09Z</time>
      </trkpt>
      <trkpt lat="42.024497300" lon="2.501569082">
        <ele>929.73</ele>
        <time>2013-10-20T13:09:17Z</time>
      </trkpt>
      <trkpt lat="42.024620430" lon="2.501723225">
        <ele>931.65</ele>
        <time>2013-10-20T13:09:25Z</time>
      </trkpt>
      <trkpt lat="42.024669548" lon="2.501871165">
        <ele>932.14</ele>
        <time>2013-10-20T13:09:31Z</time>
      </trkpt>
      <trkpt lat="42.024720342" lon="2.502123880">
        <ele>933.58</ele>
        <time>2013-10-20T13:09:40Z</time>
      </trkpt>
      <trkpt lat="42.024753702" lon="2.502351784">
        <ele>935.98</ele>
        <time>2013-10-20T13:09:48Z</time>
      </trkpt>
      <trkpt lat="42.024827044" lon="2.502573150">
        <ele>938.38</ele>
        <time>2013-10-20T13:09:57Z</time>
      </trkpt>
      <trkpt lat="42.024907342" lon="2.502718324">
        <ele>940.79</ele>
        <time>2013-10-20T13:10:04Z</time>
      </trkpt>
      <trkpt lat="42.024998538" lon="2.502882274">
        <ele>941.27</ele>
        <time>2013-10-20T13:10:12Z</time>
      </trkpt>
      <trkpt lat="42.025130133" lon="2.503038094">
        <ele>941.27</ele>
        <time>2013-10-20T13:10:19Z</time>
      </trkpt>
      <trkpt lat="42.025190986" lon="2.503095761">
        <ele>941.27</ele>
        <time>2013-10-20T13:10:24Z</time>
      </trkpt>
      <trkpt lat="42.025194255" lon="2.503091151">
        <ele>941.75</ele>
        <time>2013-10-20T13:10:38Z</time>
      </trkpt>
      <trkpt lat="42.025201715" lon="2.503093079">
        <ele>941.75</ele>
        <time>2013-10-20T13:10:55Z</time>
      </trkpt>
      <trkpt lat="42.025214372" lon="2.503100036">
        <ele>941.75</ele>
        <time>2013-10-20T13:11:05Z</time>
      </trkpt>
      <trkpt lat="42.025358373" lon="2.503140856">
        <ele>941.75</ele>
        <time>2013-10-20T13:11:13Z</time>
      </trkpt>
      <trkpt lat="42.025536488" lon="2.503126188">
        <ele>942.23</ele>
        <time>2013-10-20T13:11:20Z</time>
      </trkpt>
      <trkpt lat="42.025725835" lon="2.503153932">
        <ele>943.19</ele>
        <time>2013-10-20T13:11:27Z</time>
      </trkpt>
      <trkpt lat="42.025908058" lon="2.503253677">
        <ele>943.19</ele>
        <time>2013-10-20T13:11:34Z</time>
      </trkpt>
      <trkpt lat="42.026091789" lon="2.503351158">
        <ele>943.19</ele>
        <time>2013-10-20T13:11:42Z</time>
      </trkpt>
      <trkpt lat="42.026332266" lon="2.503466745">
        <ele>943.67</ele>
        <time>2013-10-20T13:11:50Z</time>
      </trkpt>
      <trkpt lat="42.026439973" lon="2.503532459">
        <ele>943.67</ele>
        <time>2013-10-20T13:11:53Z</time>
      </trkpt>
      <trkpt lat="42.026546340" lon="2.503636394">
        <ele>942.23</ele>
        <time>2013-10-20T13:11:56Z</time>
      </trkpt>
      <trkpt lat="42.026717750" lon="2.503978627">
        <ele>940.79</ele>
        <time>2013-10-20T13:12:02Z</time>
      </trkpt>
      <trkpt lat="42.026914641" lon="2.504165711">
        <ele>939.83</ele>
        <time>2013-10-20T13:12:06Z</time>
      </trkpt>
      <trkpt lat="42.026973565" lon="2.504192534">
        <ele>939.83</ele>
        <time>2013-10-20T13:12:07Z</time>
      </trkpt>
      <trkpt lat="42.027430379" lon="2.504506771">
        <ele>938.86</ele>
        <time>2013-10-20T13:12:16Z</time>
      </trkpt>
      <trkpt lat="42.027528699" lon="2.504577347">
        <ele>937.90</ele>
        <time>2013-10-20T13:12:18Z</time>
      </trkpt>
      <trkpt lat="42.027754507" lon="2.504745320">
        <ele>936.94</ele>
        <time>2013-10-20T13:12:22Z</time>
      </trkpt>
      <trkpt lat="42.028172680" lon="2.504878173">
        <ele>935.50</ele>
        <time>2013-10-20T13:12:28Z</time>
      </trkpt>
      <trkpt lat="42.028393041" lon="2.504991580">
        <ele>934.54</ele>
        <time>2013-10-20T13:12:31Z</time>
      </trkpt>
      <trkpt lat="42.028721192" lon="2.505045811">
        <ele>932.62</ele>
        <time>2013-10-20T13:12:36Z</time>
      </trkpt>
      <trkpt lat="42.028852704" lon="2.504997783">
        <ele>931.65</ele>
        <time>2013-10-20T13:12:38Z</time>
      </trkpt>
      <trkpt lat="42.029129810" lon="2.505070286">
        <ele>930.21</ele>
        <time>2013-10-20T13:12:42Z</time>
      </trkpt>
      <trkpt lat="42.029581343" lon="2.505106580">
        <ele>928.29</ele>
        <time>2013-10-20T13:12:48Z</time>
      </trkpt>
      <trkpt lat="42.029654433" lon="2.505102221">
        <ele>927.81</ele>
        <time>2013-10-20T13:12:49Z</time>
      </trkpt>
      <trkpt lat="42.030003288" lon="2.505218814">
        <ele>926.37</ele>
        <time>2013-10-20T13:12:54Z</time>
      </trkpt>
      <trkpt lat="42.030391119" lon="2.505453842">
        <ele>925.41</ele>
        <time>2013-10-20T13:13:00Z</time>
      </trkpt>
      <trkpt lat="42.030630087" lon="2.505579068">
        <ele>924.93</ele>
        <time>2013-10-20T13:13:04Z</time>
      </trkpt>
      <trkpt lat="42.030880538" lon="2.505597508">
        <ele>924.45</ele>
        <time>2013-10-20T13:13:08Z</time>
      </trkpt>
      <trkpt lat="42.031009871" lon="2.505565657">
        <ele>923.96</ele>
        <time>2013-10-20T13:13:10Z</time>
      </trkpt>
      <trkpt lat="42.031367443" lon="2.505576721">
        <ele>922.52</ele>
        <time>2013-10-20T13:13:16Z</time>
      </trkpt>
      <trkpt lat="42.031485292" lon="2.505580158">
        <ele>922.04</ele>
        <time>2013-10-20T13:13:18Z</time>
      </trkpt>
      <trkpt lat="42.031878068" lon="2.505636065">
        <ele>921.56</ele>
        <time>2013-10-20T13:13:25Z</time>
      </trkpt>
      <trkpt lat="42.032070182" lon="2.505719297">
        <ele>921.08</ele>
        <time>2013-10-20T13:13:29Z</time>
      </trkpt>
      <trkpt lat="42.032434124" lon="2.505944938">
        <ele>919.64</ele>
        <time>2013-10-20T13:13:36Z</time>
      </trkpt>
      <trkpt lat="42.032857326" lon="2.506219278">
        <ele>917.72</ele>
        <time>2013-10-20T13:13:45Z</time>
      </trkpt>
      <trkpt lat="42.033119596" lon="2.506409547">
        <ele>917.24</ele>
        <time>2013-10-20T13:13:51Z</time>
      </trkpt>
      <trkpt lat="42.033504493" lon="2.506547932">
        <ele>915.31</ele>
        <time>2013-10-20T13:13:59Z</time>
      </trkpt>
      <trkpt lat="42.033606249" lon="2.506578442">
        <ele>915.31</ele>
        <time>2013-10-20T13:14:01Z</time>
      </trkpt>
      <trkpt lat="42.033929958" lon="2.506698890">
        <ele>914.83</ele>
        <time>2013-10-20T13:14:08Z</time>
      </trkpt>
      <trkpt lat="42.034022159" lon="2.506744907">
        <ele>914.35</ele>
        <time>2013-10-20T13:14:10Z</time>
      </trkpt>
      <trkpt lat="42.034253835" lon="2.506816572">
        <ele>912.91</ele>
        <time>2013-10-20T13:14:14Z</time>
      </trkpt>
      <trkpt lat="42.034445445" lon="2.506812214">
        <ele>911.95</ele>
        <time>2013-10-20T13:14:17Z</time>
      </trkpt>
      <trkpt lat="42.034814165" lon="2.506604007">
        <ele>910.99</ele>
        <time>2013-10-20T13:14:23Z</time>
      </trkpt>
      <trkpt lat="42.034979959" lon="2.506451792">
        <ele>909.54</ele>
        <time>2013-10-20T13:14:26Z</time>
      </trkpt>
      <trkpt lat="42.035148687" lon="2.506182984">
        <ele>909.06</ele>
        <time>2013-10-20T13:14:30Z</time>
      </trkpt>
      <trkpt lat="42.035356139" lon="2.505944100">
        <ele>906.18</ele>
        <time>2013-10-20T13:14:34Z</time>
      </trkpt>
      <trkpt lat="42.035810690" lon="2.505586360">
        <ele>905.22</ele>
        <time>2013-10-20T13:14:41Z</time>
      </trkpt>
      <trkpt lat="42.035928707" lon="2.505512683">
        <ele>904.74</ele>
        <time>2013-10-20T13:14:43Z</time>
      </trkpt>
      <trkpt lat="42.036259205" lon="2.505544535">
        <ele>903.78</ele>
        <time>2013-10-20T13:14:49Z</time>
      </trkpt>
      <trkpt lat="42.036529186" lon="2.505694319">
        <ele>902.33</ele>
        <time>2013-10-20T13:14:54Z</time>
      </trkpt>
      <trkpt lat="42.036831354" lon="2.505669341">
        <ele>899.93</ele>
        <time>2013-10-20T13:14:58Z</time>
      </trkpt>
      <trkpt lat="42.036970829" lon="2.505552749">
        <ele>898.97</ele>
        <time>2013-10-20T13:15:00Z</time>
      </trkpt>
      <trkpt lat="42.037035872" lon="2.505479659">
        <ele>898.97</ele>
        <time>2013-10-20T13:15:01Z</time>
      </trkpt>
      <trkpt lat="42.037240139" lon="2.505288384">
        <ele>896.57</ele>
        <time>2013-10-20T13:15:04Z</time>
      </trkpt>
      <trkpt lat="42.037619337" lon="2.505142874">
        <ele>895.12</ele>
        <time>2013-10-20T13:15:09Z</time>
      </trkpt>
      <trkpt lat="42.038047652" lon="2.504958304">
        <ele>894.64</ele>
        <time>2013-10-20T13:15:16Z</time>
      </trkpt>
      <trkpt lat="42.038143709" lon="2.504930728">
        <ele>894.16</ele>
        <time>2013-10-20T13:15:18Z</time>
      </trkpt>
      <trkpt lat="42.038364488" lon="2.504823942">
        <ele>894.16</ele>
        <time>2013-10-20T13:15:24Z</time>
      </trkpt>
      <trkpt lat="42.038505891" lon="2.504578520">
        <ele>894.16</ele>
        <time>2013-10-20T13:15:32Z</time>
      </trkpt>
      <trkpt lat="42.038600690" lon="2.504331589">
        <ele>894.16</ele>
        <time>2013-10-20T13:15:40Z</time>
      </trkpt>
      <trkpt lat="42.038685347" lon="2.504096896">
        <ele>894.16</ele>
        <time>2013-10-20T13:15:47Z</time>
      </trkpt>
      <trkpt lat="42.038714265" lon="2.504037468">
        <ele>895.12</ele>
        <time>2013-10-20T13:15:49Z</time>
      </trkpt>
      <trkpt lat="42.038822978" lon="2.503758854">
        <ele>895.12</ele>
        <time>2013-10-20T13:15:58Z</time>
      </trkpt>
      <trkpt lat="42.038941833" lon="2.503515527">
        <ele>895.12</ele>
        <time>2013-10-20T13:16:06Z</time>
      </trkpt>
      <trkpt lat="42.039032107" lon="2.503390553">
        <ele>895.61</ele>
        <time>2013-10-20T13:16:11Z</time>
      </trkpt>
      <trkpt lat="42.039190860" lon="2.503415615">
        <ele>897.05</ele>
        <time>2013-10-20T13:16:18Z</time>
      </trkpt>
      <trkpt lat="42.039326060" lon="2.503543858">
        <ele>897.53</ele>
        <time>2013-10-20T13:16:25Z</time>
      </trkpt>
      <trkpt lat="42.039494117" lon="2.503704539">
        <ele>898.01</ele>
        <time>2013-10-20T13:16:34Z</time>
      </trkpt>
      <trkpt lat="42.039628144" lon="2.503802775">
        <ele>898.97</ele>
        <time>2013-10-20T13:16:41Z</time>
      </trkpt>
      <trkpt lat="42.039785053" lon="2.503877206">
        <ele>900.89</ele>
        <time>2013-10-20T13:16:49Z</time>
      </trkpt>
      <trkpt lat="42.039967443" lon="2.503889863">
        <ele>902.33</ele>
        <time>2013-10-20T13:16:58Z</time>
      </trkpt>
      <trkpt lat="42.040122341" lon="2.503884163">
        <ele>904.74</ele>
        <time>2013-10-20T13:17:07Z</time>
      </trkpt>
      <trkpt lat="42.040239352" lon="2.503841583">
        <ele>907.62</ele>
        <time>2013-10-20T13:17:15Z</time>
      </trkpt>
      <trkpt lat="42.040277071" lon="2.503772265">
        <ele>908.58</ele>
        <time>2013-10-20T13:17:19Z</time>
      </trkpt>
      <trkpt lat="42.040295595" lon="2.503533297">
        <ele>910.03</ele>
        <time>2013-10-20T13:17:30Z</time>
      </trkpt>
      <trkpt lat="42.040299953" lon="2.503394241">
        <ele>911.47</ele>
        <time>2013-10-20T13:17:37Z</time>
      </trkpt>
      <trkpt lat="42.040321998" lon="2.503206067">
        <ele>913.87</ele>
        <time>2013-10-20T13:17:46Z</time>
      </trkpt>
      <trkpt lat="42.040351167" lon="2.503151334">
        <ele>914.35</ele>
        <time>2013-10-20T13:17:49Z</time>
      </trkpt>
      <trkpt lat="42.040440099" lon="2.503207492">
        <ele>915.79</ele>
        <time>2013-10-20T13:17:56Z</time>
      </trkpt>
      <trkpt lat="42.040447391" lon="2.503245127">
        <ele>916.27</ele>
        <time>2013-10-20T13:17:58Z</time>
      </trkpt>
      <trkpt lat="42.040455270" lon="2.503429026">
        <ele>917.24</ele>
        <time>2013-10-20T13:18:07Z</time>
      </trkpt>
      <trkpt lat="42.040461137" lon="2.503611416">
        <ele>918.68</ele>
        <time>2013-10-20T13:18:16Z</time>
      </trkpt>
      <trkpt lat="42.040464490" lon="2.503733121">
        <ele>919.64</ele>
        <time>2013-10-20T13:18:22Z</time>
      </trkpt>
      <trkpt lat="42.040475051" lon="2.503815097">
        <ele>920.12</ele>
        <time>2013-10-20T13:18:26Z</time>
      </trkpt>
      <trkpt lat="42.040470190" lon="2.504098070">
        <ele>921.56</ele>
        <time>2013-10-20T13:18:38Z</time>
      </trkpt>
      <trkpt lat="42.040471615" lon="2.504279538">
        <ele>923.00</ele>
        <time>2013-10-20T13:18:47Z</time>
      </trkpt>
      <trkpt lat="42.040487456" lon="2.504424712">
        <ele>923.96</ele>
        <time>2013-10-20T13:18:54Z</time>
      </trkpt>
      <trkpt lat="42.040534395" lon="2.504609366">
        <ele>924.93</ele>
        <time>2013-10-20T13:19:03Z</time>
      </trkpt>
      <trkpt lat="42.040533389" lon="2.504657142">
        <ele>924.93</ele>
        <time>2013-10-20T13:19:05Z</time>
      </trkpt>
      <trkpt lat="42.040535820" lon="2.504888232">
        <ele>924.93</ele>
        <time>2013-10-20T13:19:15Z</time>
      </trkpt>
      <trkpt lat="42.040525929" lon="2.505095767">
        <ele>925.41</ele>
        <time>2013-10-20T13:19:23Z</time>
      </trkpt>
      <trkpt lat="42.040562055" lon="2.505257119">
        <ele>926.85</ele>
        <time>2013-10-20T13:19:30Z</time>
      </trkpt>
      <trkpt lat="42.040578819" lon="2.505265920">
        <ele>926.85</ele>
        <time>2013-10-20T13:19:31Z</time>
      </trkpt>
      <trkpt lat="42.040656100" lon="2.505175982">
        <ele>928.77</ele>
        <time>2013-10-20T13:19:37Z</time>
      </trkpt>
      <trkpt lat="42.040669847" lon="2.505085122">
        <ele>930.21</ele>
        <time>2013-10-20T13:19:41Z</time>
      </trkpt>
      <trkpt lat="42.040675546" lon="2.504984456">
        <ele>931.65</ele>
        <time>2013-10-20T13:19:46Z</time>
      </trkpt>
      <trkpt lat="42.040678312" lon="2.504792678">
        <ele>933.10</ele>
        <time>2013-10-20T13:19:55Z</time>
      </trkpt>
      <trkpt lat="42.040687281" lon="2.504629398">
        <ele>934.06</ele>
        <time>2013-10-20T13:20:03Z</time>
      </trkpt>
      <trkpt lat="42.040691723" lon="2.504406188">
        <ele>935.02</ele>
        <time>2013-10-20T13:20:13Z</time>
      </trkpt>
      <trkpt lat="42.040692562" lon="2.504385066">
        <ele>935.02</ele>
        <time>2013-10-20T13:20:14Z</time>
      </trkpt>
      <trkpt lat="42.040732711" lon="2.504234862">
        <ele>935.02</ele>
        <time>2013-10-20T13:20:22Z</time>
      </trkpt>
      <trkpt lat="42.040734052" lon="2.504211309">
        <ele>935.02</ele>
        <time>2013-10-20T13:20:23Z</time>
      </trkpt>
      <trkpt lat="42.040751235" lon="2.504132100">
        <ele>935.02</ele>
        <time>2013-10-20T13:20:27Z</time>
      </trkpt>
      <trkpt lat="42.040765149" lon="2.504012909">
        <ele>935.98</ele>
        <time>2013-10-20T13:20:33Z</time>
      </trkpt>
      <trkpt lat="42.040817284" lon="2.503780144">
        <ele>937.42</ele>
        <time>2013-10-20T13:20:44Z</time>
      </trkpt>
      <trkpt lat="42.040839832" lon="2.503724907">
        <ele>937.90</ele>
        <time>2013-10-20T13:20:47Z</time>
      </trkpt>
      <trkpt lat="42.040908815" lon="2.503530699">
        <ele>938.86</ele>
        <time>2013-10-20T13:20:56Z</time>
      </trkpt>
      <trkpt lat="42.040978552" lon="2.503386530">
        <ele>940.31</ele>
        <time>2013-10-20T13:21:04Z</time>
      </trkpt>
      <trkpt lat="42.041037896" lon="2.503240768">
        <ele>942.23</ele>
        <time>2013-10-20T13:21:13Z</time>
      </trkpt>
      <trkpt lat="42.041092965" lon="2.503115124">
        <ele>943.67</ele>
        <time>2013-10-20T13:21:21Z</time>
      </trkpt>
      <trkpt lat="42.041140993" lon="2.502985623">
        <ele>945.11</ele>
        <time>2013-10-20T13:21:28Z</time>
      </trkpt>
      <trkpt lat="42.041155578" lon="2.502910522">
        <ele>946.07</ele>
        <time>2013-10-20T13:21:31Z</time>
      </trkpt>
      <trkpt lat="42.041270410" lon="2.502800216">
        <ele>948.48</ele>
        <time>2013-10-20T13:21:40Z</time>
      </trkpt>
      <trkpt lat="42.041295807" lon="2.502874982">
        <ele>949.44</ele>
        <time>2013-10-20T13:21:45Z</time>
      </trkpt>
      <trkpt lat="42.041217772" lon="2.503044632">
        <ele>950.88</ele>
        <time>2013-10-20T13:21:55Z</time>
      </trkpt>
      <trkpt lat="42.041208552" lon="2.503062905">
        <ele>951.36</ele>
        <time>2013-10-20T13:21:56Z</time>
      </trkpt>
      <trkpt lat="42.041183909" lon="2.503171869">
        <ele>951.84</ele>
        <time>2013-10-20T13:22:01Z</time>
      </trkpt>
      <trkpt lat="42.041121380" lon="2.503392313">
        <ele>954.25</ele>
        <time>2013-10-20T13:22:11Z</time>
      </trkpt>
      <trkpt lat="42.041085254" lon="2.503546624">
        <ele>955.69</ele>
        <time>2013-10-20T13:22:18Z</time>
      </trkpt>
      <trkpt lat="42.041042674" lon="2.503737899">
        <ele>956.65</ele>
        <time>2013-10-20T13:22:26Z</time>
      </trkpt>
      <trkpt lat="42.041045104" lon="2.504017436">
        <ele>958.57</ele>
        <time>2013-10-20T13:22:36Z</time>
      </trkpt>
      <trkpt lat="42.041077291" lon="2.504233018">
        <ele>958.57</ele>
        <time>2013-10-20T13:22:44Z</time>
      </trkpt>
      <trkpt lat="42.041140239" lon="2.504459497">
        <ele>959.05</ele>
        <time>2013-10-20T13:22:52Z</time>
      </trkpt>
      <trkpt lat="42.041230344" lon="2.504698884">
        <ele>960.01</ele>
        <time>2013-10-20T13:23:01Z</time>
      </trkpt>
      <trkpt lat="42.041335454" lon="2.504908767">
        <ele>960.98</ele>
        <time>2013-10-20T13:23:10Z</time>
      </trkpt>
      <trkpt lat="42.041472162" lon="2.505082189">
        <ele>961.94</ele>
        <time>2013-10-20T13:23:19Z</time>
      </trkpt>
      <trkpt lat="42.041629155" lon="2.505293916">
        <ele>962.90</ele>
        <time>2013-10-20T13:23:29Z</time>
      </trkpt>
      <trkpt lat="42.041780365" lon="2.505472534">
        <ele>964.34</ele>
        <time>2013-10-20T13:23:38Z</time>
      </trkpt>
      <trkpt lat="42.041921265" lon="2.505675292">
        <ele>965.78</ele>
        <time>2013-10-20T13:23:48Z</time>
      </trkpt>
      <trkpt lat="42.042036767" lon="2.505863047">
        <ele>968.67</ele>
        <time>2013-10-20T13:23:58Z</time>
      </trkpt>
      <trkpt lat="42.042132237" lon="2.505999588">
        <ele>971.07</ele>
        <time>2013-10-20T13:24:06Z</time>
      </trkpt>
      <trkpt lat="42.042242711" lon="2.506143589">
        <ele>973.95</ele>
        <time>2013-10-20T13:24:15Z</time>
      </trkpt>
      <trkpt lat="42.042376067" lon="2.506298068">
        <ele>976.36</ele>
        <time>2013-10-20T13:24:25Z</time>
      </trkpt>
      <trkpt lat="42.042499868" lon="2.506455647">
        <ele>978.76</ele>
        <time>2013-10-20T13:24:35Z</time>
      </trkpt>
      <trkpt lat="42.042585363" lon="2.506592272">
        <ele>981.16</ele>
        <time>2013-10-20T13:24:43Z</time>
      </trkpt>
      <trkpt lat="42.042653508" lon="2.506681875">
        <ele>983.09</ele>
        <time>2013-10-20T13:24:50Z</time>
      </trkpt>
      <trkpt lat="42.042744032" lon="2.506805508">
        <ele>984.53</ele>
        <time>2013-10-20T13:24:58Z</time>
      </trkpt>
      <trkpt lat="42.042847884" lon="2.506960909">
        <ele>986.45</ele>
        <time>2013-10-20T13:25:07Z</time>
      </trkpt>
      <trkpt lat="42.042939498" lon="2.507083703">
        <ele>987.89</ele>
        <time>2013-10-20T13:25:15Z</time>
      </trkpt>
      <trkpt lat="42.043051983" lon="2.507236086">
        <ele>989.33</ele>
        <time>2013-10-20T13:25:24Z</time>
      </trkpt>
      <trkpt lat="42.043147286" lon="2.507382351">
        <ele>990.30</ele>
        <time>2013-10-20T13:25:32Z</time>
      </trkpt>
      <trkpt lat="42.043258514" lon="2.507540266">
        <ele>991.26</ele>
        <time>2013-10-20T13:25:41Z</time>
      </trkpt>
      <trkpt lat="42.043360857" lon="2.507701953">
        <ele>991.74</ele>
        <time>2013-10-20T13:25:49Z</time>
      </trkpt>
      <trkpt lat="42.043488681" lon="2.507904879">
        <ele>993.18</ele>
        <time>2013-10-20T13:25:59Z</time>
      </trkpt>
      <trkpt lat="42.043621450" lon="2.508081401">
        <ele>994.62</ele>
        <time>2013-10-20T13:26:09Z</time>
      </trkpt>
      <trkpt lat="42.043749861" lon="2.508294134">
        <ele>995.58</ele>
        <time>2013-10-20T13:26:20Z</time>
      </trkpt>
      <trkpt lat="42.043879445" lon="2.508498736">
        <ele>997.51</ele>
        <time>2013-10-20T13:26:30Z</time>
      </trkpt>
      <trkpt lat="42.044015735" lon="2.508686575">
        <ele>998.47</ele>
        <time>2013-10-20T13:26:40Z</time>
      </trkpt>
      <trkpt lat="42.044135931" lon="2.508843903">
        <ele>999.43</ele>
        <time>2013-10-20T13:26:48Z</time>
      </trkpt>
      <trkpt lat="42.044260067" lon="2.509016067">
        <ele>1000.39</ele>
        <time>2013-10-20T13:26:57Z</time>
      </trkpt>
      <trkpt lat="42.044360566" lon="2.509120590">
        <ele>1001.83</ele>
        <time>2013-10-20T13:27:04Z</time>
      </trkpt>
      <trkpt lat="42.044486965" lon="2.509252269">
        <ele>1003.27</ele>
        <time>2013-10-20T13:27:13Z</time>
      </trkpt>
      <trkpt lat="42.044568689" lon="2.509314044">
        <ele>1003.75</ele>
        <time>2013-10-20T13:27:20Z</time>
      </trkpt>
      <trkpt lat="42.044730041" lon="2.509413621">
        <ele>1005.68</ele>
        <time>2013-10-20T13:27:30Z</time>
      </trkpt>
      <trkpt lat="42.044921232" lon="2.509487969">
        <ele>1007.12</ele>
        <time>2013-10-20T13:27:41Z</time>
      </trkpt>
      <trkpt lat="42.045133545" lon="2.509542702">
        <ele>1008.56</ele>
        <time>2013-10-20T13:27:52Z</time>
      </trkpt>
      <trkpt lat="42.045242007" lon="2.509576230">
        <ele>1009.04</ele>
        <time>2013-10-20T13:27:58Z</time>
      </trkpt>
      <trkpt lat="42.045401263" lon="2.509621576">
        <ele>1010.48</ele>
        <time>2013-10-20T13:28:07Z</time>
      </trkpt>
      <trkpt lat="42.045471001" lon="2.509622079">
        <ele>1010.96</ele>
        <time>2013-10-20T13:28:11Z</time>
      </trkpt>
      <trkpt lat="42.045643416" lon="2.509681004">
        <ele>1012.41</ele>
        <time>2013-10-20T13:28:21Z</time>
      </trkpt>
      <trkpt lat="42.045762523" lon="2.509712687">
        <ele>1013.37</ele>
        <time>2013-10-20T13:28:28Z</time>
      </trkpt>
      <trkpt lat="42.045829579" lon="2.509717884">
        <ele>1013.37</ele>
        <time>2013-10-20T13:28:32Z</time>
      </trkpt>
      <trkpt lat="42.045934939" lon="2.509755687">
        <ele>1014.81</ele>
        <time>2013-10-20T13:28:41Z</time>
      </trkpt>
      <trkpt lat="42.045936615" lon="2.509761554">
        <ele>1014.81</ele>
        <time>2013-10-20T13:28:49Z</time>
      </trkpt>
      <trkpt lat="42.045938543" lon="2.509768092">
        <ele>1014.81</ele>
        <time>2013-10-20T13:29:04Z</time>
      </trkpt>
      <trkpt lat="42.045949524" lon="2.509770187">
        <ele>1014.81</ele>
        <time>2013-10-20T13:29:19Z</time>
      </trkpt>
      <trkpt lat="42.045967377" lon="2.509812013">
        <ele>1014.81</ele>
        <time>2013-10-20T13:29:30Z</time>
      </trkpt>
      <trkpt lat="42.045961258" lon="2.509809498">
        <ele>1015.29</ele>
        <time>2013-10-20T13:29:42Z</time>
      </trkpt>
      <trkpt lat="42.045947428" lon="2.509778737">
        <ele>1015.29</ele>
        <time>2013-10-20T13:29:56Z</time>
      </trkpt>
      <trkpt lat="42.045943070" lon="2.509776474">
        <ele>1015.29</ele>
        <time>2013-10-20T13:30:13Z</time>
      </trkpt>
      <trkpt lat="42.045949104" lon="2.509778569">
        <ele>1015.29</ele>
        <time>2013-10-20T13:30:24Z</time>
      </trkpt>
      <trkpt lat="42.045989589" lon="2.509780497">
        <ele>1015.29</ele>
        <time>2013-10-20T13:30:35Z</time>
      </trkpt>
      <trkpt lat="42.045993109" lon="2.509787789">
        <ele>1015.29</ele>
        <time>2013-10-20T13:30:49Z</time>
      </trkpt>
      <trkpt lat="42.045978525" lon="2.509778150">
        <ele>1015.29</ele>
        <time>2013-10-20T13:31:05Z</time>
      </trkpt>
      <trkpt lat="42.045986488" lon="2.509788376">
        <ele>1015.77</ele>
        <time>2013-10-20T13:31:20Z</time>
      </trkpt>
      <trkpt lat="42.045994870" lon="2.509781922">
        <ele>1015.77</ele>
        <time>2013-10-20T13:31:38Z</time>
      </trkpt>
      <trkpt lat="42.046021943" lon="2.509799775">
        <ele>1015.77</ele>
        <time>2013-10-20T13:31:51Z</time>
      </trkpt>
      <trkpt lat="42.046131914" lon="2.509890468">
        <ele>1014.33</ele>
        <time>2013-10-20T13:31:55Z</time>
      </trkpt>
      <trkpt lat="42.046175751" lon="2.509918715">
        <ele>1014.33</ele>
        <time>2013-10-20T13:31:56Z</time>
      </trkpt>
      <trkpt lat="42.046223277" lon="2.509949141">
        <ele>1013.85</ele>
        <time>2013-10-20T13:31:57Z</time>
      </trkpt>
      <trkpt lat="42.046531479" lon="2.510132956">
        <ele>1012.89</ele>
        <time>2013-10-20T13:32:03Z</time>
      </trkpt>
      <trkpt lat="42.046806992" lon="2.510470411">
        <ele>1012.89</ele>
        <time>2013-10-20T13:32:10Z</time>
      </trkpt>
      <trkpt lat="42.046861558" lon="2.510545932">
        <ele>1014.33</ele>
        <time>2013-10-20T13:32:12Z</time>
      </trkpt>
      <trkpt lat="42.046939426" lon="2.510704015">
        <ele>1014.33</ele>
        <time>2013-10-20T13:32:18Z</time>
      </trkpt>
      <trkpt lat="42.047038668" lon="2.510899313">
        <ele>1015.77</ele>
        <time>2013-10-20T13:32:27Z</time>
      </trkpt>
      <trkpt lat="42.047042524" lon="2.510977768">
        <ele>1016.73</ele>
        <time>2013-10-20T13:32:34Z</time>
      </trkpt>
      <trkpt lat="42.046974714" lon="2.511031747">
        <ele>1017.21</ele>
        <time>2013-10-20T13:32:42Z</time>
      </trkpt>
      <trkpt lat="42.046931799" lon="2.511054211">
        <ele>1017.21</ele>
        <time>2013-10-20T13:32:46Z</time>
      </trkpt>
      <trkpt lat="42.046807076" lon="2.511071562">
        <ele>1017.21</ele>
        <time>2013-10-20T13:32:53Z</time>
      </trkpt>
      <trkpt lat="42.046783858" lon="2.511079441">
        <ele>1017.21</ele>
        <time>2013-10-20T13:32:54Z</time>
      </trkpt>
      <trkpt lat="42.046590655" lon="2.511095869">
        <ele>1017.69</ele>
        <time>2013-10-20T13:33:02Z</time>
      </trkpt>
      <trkpt lat="42.046360069" lon="2.511038369">
        <ele>1017.69</ele>
        <time>2013-10-20T13:33:10Z</time>
      </trkpt>
      <trkpt lat="42.046096961" lon="2.510932254">
        <ele>1018.65</ele>
        <time>2013-10-20T13:33:19Z</time>
      </trkpt>
      <trkpt lat="42.045849025" lon="2.510859164">
        <ele>1019.13</ele>
        <time>2013-10-20T13:33:27Z</time>
      </trkpt>
      <trkpt lat="42.045636376" lon="2.510822535">
        <ele>1019.62</ele>
        <time>2013-10-20T13:33:34Z</time>
      </trkpt>
      <trkpt lat="42.045416351" lon="2.510798395">
        <ele>1020.10</ele>
        <time>2013-10-20T13:33:42Z</time>
      </trkpt>
      <trkpt lat="42.045223483" lon="2.510772244">
        <ele>1020.58</ele>
        <time>2013-10-20T13:33:50Z</time>
      </trkpt>
      <trkpt lat="42.044950233" lon="2.510764952">
        <ele>1021.54</ele>
        <time>2013-10-20T13:34:00Z</time>
      </trkpt>
      <trkpt lat="42.044676648" lon="2.510769142">
        <ele>1022.98</ele>
        <time>2013-10-20T13:34:10Z</time>
      </trkpt>
      <trkpt lat="42.044381940" lon="2.510765371">
        <ele>1023.94</ele>
        <time>2013-10-20T13:34:20Z</time>
      </trkpt>
      <trkpt lat="42.044172476" lon="2.510755983">
        <ele>1024.90</ele>
        <time>2013-10-20T13:34:27Z</time>
      </trkpt>
      <trkpt lat="42.043927306" lon="2.510652047">
        <ele>1025.38</ele>
        <time>2013-10-20T13:34:35Z</time>
      </trkpt>
      <trkpt lat="42.043729828" lon="2.510455995">
        <ele>1025.38</ele>
        <time>2013-10-20T13:34:43Z</time>
      </trkpt>
      <trkpt lat="42.043498655" lon="2.510260026">
        <ele>1025.38</ele>
        <time>2013-10-20T13:34:51Z</time>
      </trkpt>
      <trkpt lat="42.043308051" lon="2.510148295">
        <ele>1025.38</ele>
        <time>2013-10-20T13:34:58Z</time>
      </trkpt>
      <trkpt lat="42.043067239" lon="2.510071098">
        <ele>1025.38</ele>
        <time>2013-10-20T13:35:07Z</time>
      </trkpt>
      <trkpt lat="42.042877053" lon="2.510060955">
        <ele>1025.38</ele>
        <time>2013-10-20T13:35:15Z</time>
      </trkpt>
      <trkpt lat="42.042666667" lon="2.510121892">
        <ele>1026.34</ele>
        <time>2013-10-20T13:35:24Z</time>
      </trkpt>
      <trkpt lat="42.042419904" lon="2.510137818">
        <ele>1027.79</ele>
        <time>2013-10-20T13:35:34Z</time>
      </trkpt>
      <trkpt lat="42.042238604" lon="2.510127089">
        <ele>1029.23</ele>
        <time>2013-10-20T13:35:41Z</time>
      </trkpt>
      <trkpt lat="42.042015980" lon="2.510135890">
        <ele>1030.67</ele>
        <time>2013-10-20T13:35:50Z</time>
      </trkpt>
      <trkpt lat="42.041804170" lon="2.510161622">
        <ele>1033.07</ele>
        <time>2013-10-20T13:35:59Z</time>
      </trkpt>
      <trkpt lat="42.041644997" lon="2.510181906">
        <ele>1034.04</ele>
        <time>2013-10-20T13:36:06Z</time>
      </trkpt>
      <trkpt lat="42.041436120" lon="2.510263630">
        <ele>1035.96</ele>
        <time>2013-10-20T13:36:15Z</time>
      </trkpt>
      <trkpt lat="42.041259765" lon="2.510470076">
        <ele>1035.96</ele>
        <time>2013-10-20T13:36:23Z</time>
      </trkpt>
      <trkpt lat="42.041121883" lon="2.510733687">
        <ele>1035.96</ele>
        <time>2013-10-20T13:36:31Z</time>
      </trkpt>
      <trkpt lat="42.040949718" lon="2.510998807">
        <ele>1036.44</ele>
        <time>2013-10-20T13:36:38Z</time>
      </trkpt>
      <trkpt lat="42.040854332" lon="2.511167283">
        <ele>1034.52</ele>
        <time>2013-10-20T13:36:41Z</time>
      </trkpt>
      <trkpt lat="42.040717875" lon="2.511340872">
        <ele>1033.07</ele>
        <time>2013-10-20T13:36:44Z</time>
      </trkpt>
      <trkpt lat="42.040342785" lon="2.511729876">
        <ele>1032.11</ele>
        <time>2013-10-20T13:36:51Z</time>
      </trkpt>
      <trkpt lat="42.040151761" lon="2.511938669">
        <ele>1030.19</ele>
        <time>2013-10-20T13:36:54Z</time>
      </trkpt>
      <trkpt lat="42.039720009" lon="2.512612239">
        <ele>1028.27</ele>
        <time>2013-10-20T13:37:02Z</time>
      </trkpt>
      <trkpt lat="42.039484897" lon="2.513161086">
        <ele>1028.27</ele>
        <time>2013-10-20T13:37:09Z</time>
      </trkpt>
      <trkpt lat="42.039416333" lon="2.513432995">
        <ele>1028.27</ele>
        <time>2013-10-20T13:37:14Z</time>
      </trkpt>
      <trkpt lat="42.039358833" lon="2.513703898">
        <ele>1030.67</ele>
        <time>2013-10-20T13:37:22Z</time>
      </trkpt>
      <trkpt lat="42.039317594" lon="2.513952925">
        <ele>1032.59</ele>
        <time>2013-10-20T13:37:30Z</time>
      </trkpt>
      <trkpt lat="42.039272835" lon="2.514239586">
        <ele>1034.52</ele>
        <time>2013-10-20T13:37:39Z</time>
      </trkpt>
      <trkpt lat="42.039216592" lon="2.514488277">
        <ele>1035.96</ele>
        <time>2013-10-20T13:37:48Z</time>
      </trkpt>
      <trkpt lat="42.039123134" lon="2.514736633">
        <ele>1037.40</ele>
        <time>2013-10-20T13:37:57Z</time>
      </trkpt>
      <trkpt lat="42.038996903" lon="2.515014912">
        <ele>1037.88</ele>
        <time>2013-10-20T13:38:06Z</time>
      </trkpt>
      <trkpt lat="42.038834880" lon="2.515263435">
        <ele>1037.88</ele>
        <time>2013-10-20T13:38:13Z</time>
      </trkpt>
      <trkpt lat="42.038564396" lon="2.515618325">
        <ele>1036.92</ele>
        <time>2013-10-20T13:38:23Z</time>
      </trkpt>
      <trkpt lat="42.038333643" lon="2.515951506">
        <ele>1036.44</ele>
        <time>2013-10-20T13:38:33Z</time>
      </trkpt>
      <trkpt lat="42.038219900" lon="2.516134399">
        <ele>1037.88</ele>
        <time>2013-10-20T13:38:40Z</time>
      </trkpt>
      <trkpt lat="42.038094507" lon="2.516404799">
        <ele>1037.88</ele>
        <time>2013-10-20T13:38:48Z</time>
      </trkpt>
      <trkpt lat="42.037849671" lon="2.516760108">
        <ele>1035.96</ele>
        <time>2013-10-20T13:38:55Z</time>
      </trkpt>
      <trkpt lat="42.037698630" lon="2.517057749">
        <ele>1034.04</ele>
        <time>2013-10-20T13:38:59Z</time>
      </trkpt>
      <trkpt lat="42.037558736" lon="2.517357570">
        <ele>1034.04</ele>
        <time>2013-10-20T13:39:04Z</time>
      </trkpt>
      <trkpt lat="42.037462176" lon="2.517580445">
        <ele>1035.96</ele>
        <time>2013-10-20T13:39:11Z</time>
      </trkpt>
      <trkpt lat="42.037340052" lon="2.517764595">
        <ele>1035.96</ele>
        <time>2013-10-20T13:39:17Z</time>
      </trkpt>
      <trkpt lat="42.036998908" lon="2.517923264">
        <ele>1035.96</ele>
        <time>2013-10-20T13:39:26Z</time>
      </trkpt>
      <trkpt lat="42.036846022" lon="2.517987470">
        <ele>1035.00</ele>
        <time>2013-10-20T13:39:31Z</time>
      </trkpt>
      <trkpt lat="42.036799419" lon="2.518014460">
        <ele>1034.52</ele>
        <time>2013-10-20T13:39:35Z</time>
      </trkpt>
      <trkpt lat="42.036804783" lon="2.518002976">
        <ele>1034.04</ele>
        <time>2013-10-20T13:39:56Z</time>
      </trkpt>
      <trkpt lat="42.036808136" lon="2.518013873">
        <ele>1034.04</ele>
        <time>2013-10-20T13:40:17Z</time>
      </trkpt>
      <trkpt lat="42.036807717" lon="2.518018483">
        <ele>1034.04</ele>
        <time>2013-10-20T13:40:42Z</time>
      </trkpt>
      <trkpt lat="42.036777626" lon="2.518052178">
        <ele>1034.04</ele>
        <time>2013-10-20T13:40:50Z</time>
      </trkpt>
      <trkpt lat="42.036663548" lon="2.518240939">
        <ele>1034.04</ele>
        <time>2013-10-20T13:40:57Z</time>
      </trkpt>
      <trkpt lat="42.036564055" lon="2.518488624">
        <ele>1034.04</ele>
        <time>2013-10-20T13:41:05Z</time>
      </trkpt>
      <trkpt lat="42.036388035" lon="2.518850974">
        <ele>1033.07</ele>
        <time>2013-10-20T13:41:13Z</time>
      </trkpt>
      <trkpt lat="42.036176476" lon="2.519298064">
        <ele>1031.63</ele>
        <time>2013-10-20T13:41:19Z</time>
      </trkpt>
      <trkpt lat="42.036128783" lon="2.519391606">
        <ele>1031.15</ele>
        <time>2013-10-20T13:41:20Z</time>
      </trkpt>
      <trkpt lat="42.036004731" lon="2.519742137">
        <ele>1029.71</ele>
        <time>2013-10-20T13:41:23Z</time>
      </trkpt>
      <trkpt lat="42.035934407" lon="2.520000384">
        <ele>1027.79</ele>
        <time>2013-10-20T13:41:25Z</time>
      </trkpt>
      <trkpt lat="42.035889312" lon="2.520546884">
        <ele>1025.86</ele>
        <time>2013-10-20T13:41:29Z</time>
      </trkpt>
      <trkpt lat="42.035896688" lon="2.521121799">
        <ele>1023.94</ele>
        <time>2013-10-20T13:41:33Z</time>
      </trkpt>
      <trkpt lat="42.035728379" lon="2.521494290">
        <ele>1021.54</ele>
        <time>2013-10-20T13:41:37Z</time>
      </trkpt>
      <trkpt lat="42.035580774" lon="2.521795368">
        <ele>1019.62</ele>
        <time>2013-10-20T13:41:40Z</time>
      </trkpt>
      <trkpt lat="42.035505002" lon="2.522023440">
        <ele>1019.62</ele>
        <time>2013-10-20T13:41:42Z</time>
      </trkpt>
      <trkpt lat="42.035268716" lon="2.522360392">
        <ele>1018.65</ele>
        <time>2013-10-20T13:41:46Z</time>
      </trkpt>
      <trkpt lat="42.035014577" lon="2.522354693">
        <ele>1018.65</ele>
        <time>2013-10-20T13:41:49Z</time>
      </trkpt>
      <trkpt lat="42.034863870" lon="2.522290068">
        <ele>1018.17</ele>
        <time>2013-10-20T13:41:51Z</time>
      </trkpt>
      <trkpt lat="42.034467406" lon="2.522072055">
        <ele>1016.73</ele>
        <time>2013-10-20T13:41:58Z</time>
      </trkpt>
      <trkpt lat="42.034278562" lon="2.522022183">
        <ele>1016.73</ele>
        <time>2013-10-20T13:42:04Z</time>
      </trkpt>
      <trkpt lat="42.034065075" lon="2.521972059">
        <ele>1018.65</ele>
        <time>2013-10-20T13:42:13Z</time>
      </trkpt>
      <trkpt lat="42.033841026" lon="2.521948338">
        <ele>1020.10</ele>
        <time>2013-10-20T13:42:23Z</time>
      </trkpt>
      <trkpt lat="42.033634999" lon="2.521911542">
        <ele>1022.02</ele>
        <time>2013-10-20T13:42:33Z</time>
      </trkpt>
      <trkpt lat="42.033447412" lon="2.521891090">
        <ele>1023.94</ele>
        <time>2013-10-20T13:42:42Z</time>
      </trkpt>
      <trkpt lat="42.033262423" lon="2.521867704">
        <ele>1025.38</ele>
        <time>2013-10-20T13:42:51Z</time>
      </trkpt>
      <trkpt lat="42.033124122" lon="2.521820011">
        <ele>1026.83</ele>
        <time>2013-10-20T13:42:58Z</time>
      </trkpt>
      <trkpt lat="42.032931590" lon="2.521754548">
        <ele>1028.75</ele>
        <time>2013-10-20T13:43:07Z</time>
      </trkpt>
      <trkpt lat="42.032731933" lon="2.521693277">
        <ele>1029.71</ele>
        <time>2013-10-20T13:43:16Z</time>
      </trkpt>
      <trkpt lat="42.032502101" lon="2.521658157">
        <ele>1030.67</ele>
        <time>2013-10-20T13:43:26Z</time>
      </trkpt>
      <trkpt lat="42.032297583" lon="2.521683386">
        <ele>1031.63</ele>
        <time>2013-10-20T13:43:35Z</time>
      </trkpt>
      <trkpt lat="42.032065152" lon="2.521726301">
        <ele>1033.55</ele>
        <time>2013-10-20T13:43:45Z</time>
      </trkpt>
      <trkpt lat="42.031816545" lon="2.521800062">
        <ele>1035.00</ele>
        <time>2013-10-20T13:43:56Z</time>
      </trkpt>
      <trkpt lat="42.031629713" lon="2.521943560">
        <ele>1035.48</ele>
        <time>2013-10-20T13:44:05Z</time>
      </trkpt>
      <trkpt lat="42.031408514" lon="2.522056465">
        <ele>1037.40</ele>
        <time>2013-10-20T13:44:15Z</time>
      </trkpt>
      <trkpt lat="42.031168121" lon="2.522145648">
        <ele>1037.88</ele>
        <time>2013-10-20T13:44:25Z</time>
      </trkpt>
      <trkpt lat="42.030995622" lon="2.522219074">
        <ele>1039.80</ele>
        <time>2013-10-20T13:44:33Z</time>
      </trkpt>
      <trkpt lat="42.030802000" lon="2.522368691">
        <ele>1041.73</ele>
        <time>2013-10-20T13:44:43Z</time>
      </trkpt>
      <trkpt lat="42.030594883" lon="2.522511351">
        <ele>1043.65</ele>
        <time>2013-10-20T13:44:53Z</time>
      </trkpt>
      <trkpt lat="42.030431687" lon="2.522680916">
        <ele>1043.65</ele>
        <time>2013-10-20T13:45:01Z</time>
      </trkpt>
      <trkpt lat="42.030319202" lon="2.522940672">
        <ele>1044.13</ele>
        <time>2013-10-20T13:45:09Z</time>
      </trkpt>
      <trkpt lat="42.030236892" lon="2.523167905">
        <ele>1045.09</ele>
        <time>2013-10-20T13:45:17Z</time>
      </trkpt>
      <trkpt lat="42.030148546" lon="2.523422212">
        <ele>1046.53</ele>
        <time>2013-10-20T13:45:26Z</time>
      </trkpt>
      <trkpt lat="42.030068583" lon="2.523649697">
        <ele>1047.97</ele>
        <time>2013-10-20T13:45:34Z</time>
      </trkpt>
      <trkpt lat="42.030003540" lon="2.523872991">
        <ele>1048.45</ele>
        <time>2013-10-20T13:45:42Z</time>
      </trkpt>
      <trkpt lat="42.029975125" lon="2.524129309">
        <ele>1048.94</ele>
        <time>2013-10-20T13:45:50Z</time>
      </trkpt>
      <trkpt lat="42.029929444" lon="2.524436590">
        <ele>1050.86</ele>
        <time>2013-10-20T13:45:59Z</time>
      </trkpt>
      <trkpt lat="42.029878984" lon="2.524797012">
        <ele>1052.30</ele>
        <time>2013-10-20T13:46:10Z</time>
      </trkpt>
      <trkpt lat="42.029813773" lon="2.525037991">
        <ele>1053.74</ele>
        <time>2013-10-20T13:46:18Z</time>
      </trkpt>
      <trkpt lat="42.029738504" lon="2.525307553">
        <ele>1054.22</ele>
        <time>2013-10-20T13:46:26Z</time>
      </trkpt>
      <trkpt lat="42.029627108" lon="2.525646518">
        <ele>1054.22</ele>
        <time>2013-10-20T13:46:35Z</time>
      </trkpt>
      <trkpt lat="42.029572291" lon="2.525973328">
        <ele>1054.22</ele>
        <time>2013-10-20T13:46:43Z</time>
      </trkpt>
      <trkpt lat="42.029572961" lon="2.526226629">
        <ele>1054.22</ele>
        <time>2013-10-20T13:46:50Z</time>
      </trkpt>
      <trkpt lat="42.029542870" lon="2.526420419">
        <ele>1055.18</ele>
        <time>2013-10-20T13:46:57Z</time>
      </trkpt>
      <trkpt lat="42.029501966" lon="2.526561067">
        <ele>1055.67</ele>
        <time>2013-10-20T13:47:02Z</time>
      </trkpt>
      <trkpt lat="42.029468690" lon="2.526717976">
        <ele>1055.67</ele>
        <time>2013-10-20T13:47:07Z</time>
      </trkpt>
      <trkpt lat="42.029429463" lon="2.527003045">
        <ele>1056.15</ele>
        <time>2013-10-20T13:47:15Z</time>
      </trkpt>
      <trkpt lat="42.029437593" lon="2.527319713">
        <ele>1056.63</ele>
        <time>2013-10-20T13:47:23Z</time>
      </trkpt>
      <trkpt lat="42.029455698" lon="2.527673262">
        <ele>1057.11</ele>
        <time>2013-10-20T13:47:32Z</time>
      </trkpt>
      <trkpt lat="42.029453184" lon="2.527941986">
        <ele>1058.07</ele>
        <time>2013-10-20T13:47:39Z</time>
      </trkpt>
      <trkpt lat="42.029426362" lon="2.528174080">
        <ele>1059.03</ele>
        <time>2013-10-20T13:47:46Z</time>
      </trkpt>
      <trkpt lat="42.029379591" lon="2.528458562">
        <ele>1059.99</ele>
        <time>2013-10-20T13:47:54Z</time>
      </trkpt>
      <trkpt lat="42.029321923" lon="2.528696357">
        <ele>1060.47</ele>
        <time>2013-10-20T13:48:02Z</time>
      </trkpt>
      <trkpt lat="42.029275068" lon="2.528928871">
        <ele>1061.91</ele>
        <time>2013-10-20T13:48:09Z</time>
      </trkpt>
      <trkpt lat="42.029221340" lon="2.529213353">
        <ele>1062.39</ele>
        <time>2013-10-20T13:48:18Z</time>
      </trkpt>
      <trkpt lat="42.029157303" lon="2.529587186">
        <ele>1062.87</ele>
        <time>2013-10-20T13:48:28Z</time>
      </trkpt>
      <trkpt lat="42.029095444" lon="2.529936962">
        <ele>1063.36</ele>
        <time>2013-10-20T13:48:38Z</time>
      </trkpt>
      <trkpt lat="42.029047248" lon="2.530220438">
        <ele>1063.84</ele>
        <time>2013-10-20T13:48:45Z</time>
      </trkpt>
      <trkpt lat="42.028942391" lon="2.530522354">
        <ele>1063.84</ele>
        <time>2013-10-20T13:48:53Z</time>
      </trkpt>
      <trkpt lat="42.028742063" lon="2.530680186">
        <ele>1065.28</ele>
        <time>2013-10-20T13:49:02Z</time>
      </trkpt>
      <trkpt lat="42.028554225" lon="2.530843298">
        <ele>1066.72</ele>
        <time>2013-10-20T13:49:11Z</time>
      </trkpt>
      <trkpt lat="42.028353730" lon="2.531050247">
        <ele>1068.16</ele>
        <time>2013-10-20T13:49:21Z</time>
      </trkpt>
      <trkpt lat="42.028164382" lon="2.531229787">
        <ele>1070.08</ele>
        <time>2013-10-20T13:49:30Z</time>
      </trkpt>
      <trkpt lat="42.027937903" lon="2.531411591">
        <ele>1071.53</ele>
        <time>2013-10-20T13:49:41Z</time>
      </trkpt>
      <trkpt lat="42.027796920" lon="2.531540923">
        <ele>1073.45</ele>
        <time>2013-10-20T13:49:48Z</time>
      </trkpt>
      <trkpt lat="42.027658115" lon="2.531690792">
        <ele>1074.41</ele>
        <time>2013-10-20T13:49:56Z</time>
      </trkpt>
      <trkpt lat="42.027509420" lon="2.531824232">
        <ele>1075.37</ele>
        <time>2013-10-20T13:50:04Z</time>
      </trkpt>
      <trkpt lat="42.027362486" lon="2.531957672">
        <ele>1076.33</ele>
        <time>2013-10-20T13:50:12Z</time>
      </trkpt>
      <trkpt lat="42.027235248" lon="2.532123633">
        <ele>1077.78</ele>
        <time>2013-10-20T13:50:20Z</time>
      </trkpt>
      <trkpt lat="42.027130810" lon="2.532292026">
        <ele>1079.70</ele>
        <time>2013-10-20T13:50:27Z</time>
      </trkpt>
      <trkpt lat="42.027030395" lon="2.532484474">
        <ele>1081.14</ele>
        <time>2013-10-20T13:50:35Z</time>
      </trkpt>
      <trkpt lat="42.026934841" lon="2.532719754">
        <ele>1082.10</ele>
        <time>2013-10-20T13:50:44Z</time>
      </trkpt>
      <trkpt lat="42.026876419" lon="2.532917819">
        <ele>1083.06</ele>
        <time>2013-10-20T13:50:52Z</time>
      </trkpt>
      <trkpt lat="42.026816656" lon="2.533127282">
        <ele>1083.54</ele>
        <time>2013-10-20T13:50:59Z</time>
      </trkpt>
      <trkpt lat="42.026689000" lon="2.533347223">
        <ele>1083.54</ele>
        <time>2013-10-20T13:51:06Z</time>
      </trkpt>
      <trkpt lat="42.026525972" lon="2.533663976">
        <ele>1083.54</ele>
        <time>2013-10-20T13:51:15Z</time>
      </trkpt>
      <trkpt lat="42.026360178" lon="2.533845192">
        <ele>1084.02</ele>
        <time>2013-10-20T13:51:23Z</time>
      </trkpt>
      <trkpt lat="42.026167226" lon="2.534016854">
        <ele>1085.95</ele>
        <time>2013-10-20T13:51:33Z</time>
      </trkpt>
      <trkpt lat="42.026007467" lon="2.534201842">
        <ele>1086.91</ele>
        <time>2013-10-20T13:51:42Z</time>
      </trkpt>
      <trkpt lat="42.025840500" lon="2.534406864">
        <ele>1088.83</ele>
        <time>2013-10-20T13:51:52Z</time>
      </trkpt>
      <trkpt lat="42.025749221" lon="2.534564360">
        <ele>1090.75</ele>
        <time>2013-10-20T13:51:59Z</time>
      </trkpt>
      <trkpt lat="42.025672359" lon="2.534826965">
        <ele>1091.71</ele>
        <time>2013-10-20T13:52:08Z</time>
      </trkpt>
      <trkpt lat="42.025649141" lon="2.535035339">
        <ele>1093.16</ele>
        <time>2013-10-20T13:52:15Z</time>
      </trkpt>
      <trkpt lat="42.025569429" lon="2.535297106">
        <ele>1093.16</ele>
        <time>2013-10-20T13:52:23Z</time>
      </trkpt>
      <trkpt lat="42.025506565" lon="2.535430210">
        <ele>1093.16</ele>
        <time>2013-10-20T13:52:26Z</time>
      </trkpt>
      <trkpt lat="42.025450322" lon="2.535520651">
        <ele>1093.16</ele>
        <time>2013-10-20T13:52:28Z</time>
      </trkpt>
      <trkpt lat="42.025198697" lon="2.535670184">
        <ele>1092.20</ele>
        <time>2013-10-20T13:52:34Z</time>
      </trkpt>
      <trkpt lat="42.025094929" lon="2.535653923">
        <ele>1092.20</ele>
        <time>2013-10-20T13:52:37Z</time>
      </trkpt>
      <trkpt lat="42.024956963" lon="2.535632885">
        <ele>1093.64</ele>
        <time>2013-10-20T13:52:43Z</time>
      </trkpt>
      <trkpt lat="42.024767951" lon="2.535608829">
        <ele>1095.56</ele>
        <time>2013-10-20T13:52:52Z</time>
      </trkpt>
      <trkpt lat="42.024591848" lon="2.535585108">
        <ele>1097.48</ele>
        <time>2013-10-20T13:53:00Z</time>
      </trkpt>
      <trkpt lat="42.024426305" lon="2.535551832">
        <ele>1099.40</ele>
        <time>2013-10-20T13:53:08Z</time>
      </trkpt>
      <trkpt lat="42.024270485" lon="2.535445968">
        <ele>1100.85</ele>
        <time>2013-10-20T13:53:16Z</time>
      </trkpt>
      <trkpt lat="42.024162610" lon="2.535265003">
        <ele>1101.33</ele>
        <time>2013-10-20T13:53:23Z</time>
      </trkpt>
      <trkpt lat="42.024025566" lon="2.535039111">
        <ele>1102.29</ele>
        <time>2013-10-20T13:53:31Z</time>
      </trkpt>
      <trkpt lat="42.023819371" lon="2.534925117">
        <ele>1103.73</ele>
        <time>2013-10-20T13:53:40Z</time>
      </trkpt>
      <trkpt lat="42.023651985" lon="2.535001560">
        <ele>1104.69</ele>
        <time>2013-10-20T13:53:48Z</time>
      </trkpt>
      <trkpt lat="42.023503206" lon="2.535186884">
        <ele>1105.65</ele>
        <time>2013-10-20T13:53:57Z</time>
      </trkpt>
      <trkpt lat="42.023344117" lon="2.535369944">
        <ele>1106.13</ele>
        <time>2013-10-20T13:54:06Z</time>
      </trkpt>
      <trkpt lat="42.023237583" lon="2.535511179">
        <ele>1106.13</ele>
        <time>2013-10-20T13:54:12Z</time>
      </trkpt>
      <trkpt lat="42.023062653" lon="2.535742939">
        <ele>1106.13</ele>
        <time>2013-10-20T13:54:21Z</time>
      </trkpt>
      <trkpt lat="42.022892836" lon="2.535976291">
        <ele>1106.13</ele>
        <time>2013-10-20T13:54:30Z</time>
      </trkpt>
      <trkpt lat="42.022692257" lon="2.536249206">
        <ele>1106.13</ele>
        <time>2013-10-20T13:54:40Z</time>
      </trkpt>
      <trkpt lat="42.022528307" lon="2.536318608">
        <ele>1106.13</ele>
        <time>2013-10-20T13:54:46Z</time>
      </trkpt>
      <trkpt lat="42.022357148" lon="2.536263707">
        <ele>1107.58</ele>
        <time>2013-10-20T13:54:54Z</time>
      </trkpt>
      <trkpt lat="42.022289423" lon="2.536119454">
        <ele>1108.54</ele>
        <time>2013-10-20T13:55:00Z</time>
      </trkpt>
      <trkpt lat="42.022226894" lon="2.535839918">
        <ele>1111.42</ele>
        <time>2013-10-20T13:55:10Z</time>
      </trkpt>
      <trkpt lat="42.022152295" lon="2.535627269">
        <ele>1113.82</ele>
        <time>2013-10-20T13:55:18Z</time>
      </trkpt>
      <trkpt lat="42.022033942" lon="2.535587203">
        <ele>1115.75</ele>
        <time>2013-10-20T13:55:24Z</time>
      </trkpt>
      <trkpt lat="42.021950291" lon="2.535688038">
        <ele>1117.67</ele>
        <time>2013-10-20T13:55:30Z</time>
      </trkpt>
      <trkpt lat="42.021922966" lon="2.535908146">
        <ele>1119.11</ele>
        <time>2013-10-20T13:55:38Z</time>
      </trkpt>
      <trkpt lat="42.021899748" lon="2.536088022">
        <ele>1119.11</ele>
        <time>2013-10-20T13:55:45Z</time>
      </trkpt>
      <trkpt lat="42.021848367" lon="2.536233699">
        <ele>1119.59</ele>
        <time>2013-10-20T13:55:51Z</time>
      </trkpt>
      <trkpt lat="42.021827496" lon="2.536284578">
        <ele>1119.59</ele>
        <time>2013-10-20T13:55:53Z</time>
      </trkpt>
      <trkpt lat="42.021691793" lon="2.536417682">
        <ele>1121.03</ele>
        <time>2013-10-20T13:56:01Z</time>
      </trkpt>
      <trkpt lat="42.021547037" lon="2.536481552">
        <ele>1122.96</ele>
        <time>2013-10-20T13:56:09Z</time>
      </trkpt>
      <trkpt lat="42.021413095" lon="2.536459592">
        <ele>1123.92</ele>
        <time>2013-10-20T13:56:17Z</time>
      </trkpt>
      <trkpt lat="42.021308572" lon="2.536456910">
        <ele>1124.88</ele>
        <time>2013-10-20T13:56:24Z</time>
      </trkpt>
      <trkpt lat="42.021162811" lon="2.536433021">
        <ele>1125.84</ele>
        <time>2013-10-20T13:56:31Z</time>
      </trkpt>
      <trkpt lat="42.021058456" lon="2.536451713">
        <ele>1126.32</ele>
        <time>2013-10-20T13:56:36Z</time>
      </trkpt>
      <trkpt lat="42.021019229" lon="2.536572161">
        <ele>1126.32</ele>
        <time>2013-10-20T13:56:43Z</time>
      </trkpt>
      <trkpt lat="42.021020989" lon="2.536565455">
        <ele>1124.88</ele>
        <time>2013-10-20T13:56:53Z</time>
      </trkpt>
      <trkpt lat="42.021014116" lon="2.536565371">
        <ele>1124.88</ele>
        <time>2013-10-20T13:57:00Z</time>
      </trkpt>
      <trkpt lat="42.021018223" lon="2.536562689">
        <ele>1124.40</ele>
        <time>2013-10-20T13:57:14Z</time>
      </trkpt>
      <trkpt lat="42.021030964" lon="2.536566293">
        <ele>1124.40</ele>
        <time>2013-10-20T13:57:24Z</time>
      </trkpt>
      <trkpt lat="42.021032808" lon="2.536566126">
        <ele>1125.36</ele>
        <time>2013-10-20T13:57:27Z</time>
      </trkpt>
      <trkpt lat="42.021040351" lon="2.536564282">
        <ele>1125.36</ele>
        <time>2013-10-20T13:57:35Z</time>
      </trkpt>
      <trkpt lat="42.021042112" lon="2.536566796">
        <ele>1125.36</ele>
        <time>2013-10-20T13:57:46Z</time>
      </trkpt>
      <trkpt lat="42.021037166" lon="2.536567048">
        <ele>1123.92</ele>
        <time>2013-10-20T13:57:51Z</time>
      </trkpt>
      <trkpt lat="42.021033730" lon="2.536560594">
        <ele>1125.36</ele>
        <time>2013-10-20T13:58:08Z</time>
      </trkpt>
      <trkpt lat="42.021040184" lon="2.536577190">
        <ele>1123.92</ele>
        <time>2013-10-20T13:58:25Z</time>
      </trkpt>
      <trkpt lat="42.021041106" lon="2.536579118">
        <ele>1123.92</ele>
        <time>2013-10-20T13:58:32Z</time>
      </trkpt>
      <trkpt lat="42.020973045" lon="2.536597474">
        <ele>1088.35</ele>
        <time>2013-10-20T16:07:33Z</time>
      </trkpt>
      <trkpt lat="42.020976817" lon="2.536592864">
        <ele>1088.35</ele>
        <time>2013-10-20T16:07:36Z</time>
      </trkpt>
      <trkpt lat="42.020979750" lon="2.536539387">
        <ele>1091.23</ele>
        <time>2013-10-20T16:07:46Z</time>
      </trkpt>
      <trkpt lat="42.020978158" lon="2.536554307">
        <ele>1094.60</ele>
        <time>2013-10-20T16:07:49Z</time>
      </trkpt>
      <trkpt lat="42.020975811" lon="2.536560426">
        <ele>1097.48</ele>
        <time>2013-10-20T16:07:52Z</time>
      </trkpt>
      <trkpt lat="42.020974889" lon="2.536569479">
        <ele>1102.29</ele>
        <time>2013-10-20T16:07:56Z</time>
      </trkpt>
      <trkpt lat="42.020974051" lon="2.536553385">
        <ele>1104.21</ele>
        <time>2013-10-20T16:07:59Z</time>
      </trkpt>
      <trkpt lat="42.020972626" lon="2.536545255">
        <ele>1107.58</ele>
        <time>2013-10-20T16:08:04Z</time>
      </trkpt>
      <trkpt lat="42.020967513" lon="2.536537208">
        <ele>1111.42</ele>
        <time>2013-10-20T16:08:10Z</time>
      </trkpt>
      <trkpt lat="42.020964579" lon="2.536530251">
        <ele>1114.31</ele>
        <time>2013-10-20T16:08:18Z</time>
      </trkpt>
      <trkpt lat="42.020965501" lon="2.536529329">
        <ele>1115.75</ele>
        <time>2013-10-20T16:08:22Z</time>
      </trkpt>
      <trkpt lat="42.020962819" lon="2.536524971">
        <ele>1118.15</ele>
        <time>2013-10-20T16:08:28Z</time>
      </trkpt>
      <trkpt lat="42.020947564" lon="2.536503764">
        <ele>1119.59</ele>
        <time>2013-10-20T16:08:54Z</time>
      </trkpt>
      <trkpt lat="42.020950162" lon="2.536503597">
        <ele>1120.55</ele>
        <time>2013-10-20T16:09:15Z</time>
      </trkpt>
      <trkpt lat="42.020947815" lon="2.536486246">
        <ele>1122.48</ele>
        <time>2013-10-20T16:09:38Z</time>
      </trkpt>
      <trkpt lat="42.020953934" lon="2.536481636">
        <ele>1122.48</ele>
        <time>2013-10-20T16:09:59Z</time>
      </trkpt>
      <trkpt lat="42.020959382" lon="2.536500495">
        <ele>1121.03</ele>
        <time>2013-10-20T16:10:18Z</time>
      </trkpt>
      <trkpt lat="42.020963322" lon="2.536509799">
        <ele>1121.03</ele>
        <time>2013-10-20T16:10:37Z</time>
      </trkpt>
      <trkpt lat="42.020980588" lon="2.536511895">
        <ele>1121.03</ele>
        <time>2013-10-20T16:11:01Z</time>
      </trkpt>
      <trkpt lat="42.020973464" lon="2.536515583">
        <ele>1121.03</ele>
        <time>2013-10-20T16:11:24Z</time>
      </trkpt>
      <trkpt lat="42.020977152" lon="2.536507285">
        <ele>1122.00</ele>
        <time>2013-10-20T16:11:49Z</time>
      </trkpt>
      <trkpt lat="42.020984109" lon="2.536494460">
        <ele>1123.44</ele>
        <time>2013-10-20T16:12:10Z</time>
      </trkpt>
      <trkpt lat="42.020987797" lon="2.536490940">
        <ele>1122.00</ele>
        <time>2013-10-20T16:12:29Z</time>
      </trkpt>
      <trkpt lat="42.020980169" lon="2.536486414">
        <ele>1122.00</ele>
        <time>2013-10-20T16:12:48Z</time>
      </trkpt>
      <trkpt lat="42.020972626" lon="2.536492700">
        <ele>1121.03</ele>
        <time>2013-10-20T16:13:09Z</time>
      </trkpt>
      <trkpt lat="42.020965920" lon="2.536498149">
        <ele>1122.48</ele>
        <time>2013-10-20T16:13:31Z</time>
      </trkpt>
      <trkpt lat="42.020979331" lon="2.536514074">
        <ele>1122.96</ele>
        <time>2013-10-20T16:13:56Z</time>
      </trkpt>
      <trkpt lat="42.020978493" lon="2.536519355">
        <ele>1121.52</ele>
        <time>2013-10-20T16:14:07Z</time>
      </trkpt>
      <trkpt lat="42.020974637" lon="2.536510135">
        <ele>1121.52</ele>
        <time>2013-10-20T16:14:29Z</time>
      </trkpt>
      <trkpt lat="42.020969105" lon="2.536496891">
        <ele>1121.52</ele>
        <time>2013-10-20T16:14:49Z</time>
      </trkpt>
      <trkpt lat="42.020969524" lon="2.536494712">
        <ele>1121.52</ele>
        <time>2013-10-20T16:15:01Z</time>
      </trkpt>
      <trkpt lat="42.020942870" lon="2.536476942">
        <ele>1121.03</ele>
        <time>2013-10-20T16:15:12Z</time>
      </trkpt>
      <trkpt lat="42.020931135" lon="2.536470656">
        <ele>1121.03</ele>
        <time>2013-10-20T16:15:30Z</time>
      </trkpt>
      <trkpt lat="42.020957287" lon="2.536478870">
        <ele>1120.55</ele>
        <time>2013-10-20T16:15:53Z</time>
      </trkpt>
      <trkpt lat="42.020979163" lon="2.536485995">
        <ele>1122.00</ele>
        <time>2013-10-20T16:16:14Z</time>
      </trkpt>
      <trkpt lat="42.021009590" lon="2.536465962">
        <ele>1122.00</ele>
        <time>2013-10-20T16:16:21Z</time>
      </trkpt>
      <trkpt lat="42.021065078" lon="2.536458670">
        <ele>1122.00</ele>
        <time>2013-10-20T16:16:26Z</time>
      </trkpt>
      <trkpt lat="42.021159123" lon="2.536470656">
        <ele>1122.00</ele>
        <time>2013-10-20T16:16:32Z</time>
      </trkpt>
      <trkpt lat="42.021248223" lon="2.536501166">
        <ele>1122.00</ele>
        <time>2013-10-20T16:16:36Z</time>
      </trkpt>
      <trkpt lat="42.021408065" lon="2.536520109">
        <ele>1121.03</ele>
        <time>2013-10-20T16:16:41Z</time>
      </trkpt>
      <trkpt lat="42.021496243" lon="2.536521366">
        <ele>1120.55</ele>
        <time>2013-10-20T16:16:43Z</time>
      </trkpt>
      <trkpt lat="42.021773936" lon="2.536394632">
        <ele>1117.67</ele>
        <time>2013-10-20T16:16:48Z</time>
      </trkpt>
      <trkpt lat="42.021894635" lon="2.536078299">
        <ele>1115.75</ele>
        <time>2013-10-20T16:16:52Z</time>
      </trkpt>
      <trkpt lat="42.021905783" lon="2.535973609">
        <ele>1115.27</ele>
        <time>2013-10-20T16:16:53Z</time>
      </trkpt>
      <trkpt lat="42.022047186" lon="2.535595837">
        <ele>1111.42</ele>
        <time>2013-10-20T16:16:58Z</time>
      </trkpt>
      <trkpt lat="42.022096639" lon="2.535603967">
        <ele>1111.42</ele>
        <time>2013-10-20T16:16:59Z</time>
      </trkpt>
      <trkpt lat="42.022177608" lon="2.535757356">
        <ele>1110.46</ele>
        <time>2013-10-20T16:17:02Z</time>
      </trkpt>
      <trkpt lat="42.022192444" lon="2.535829189">
        <ele>1109.98</ele>
        <time>2013-10-20T16:17:03Z</time>
      </trkpt>
      <trkpt lat="42.022243490" lon="2.536079221">
        <ele>1108.06</ele>
        <time>2013-10-20T16:17:06Z</time>
      </trkpt>
      <trkpt lat="42.022427975" lon="2.536357835">
        <ele>1104.21</ele>
        <time>2013-10-20T16:17:10Z</time>
      </trkpt>
      <trkpt lat="42.022592261" lon="2.536358674">
        <ele>1103.73</ele>
        <time>2013-10-20T16:17:12Z</time>
      </trkpt>
      <trkpt lat="42.022722013" lon="2.536247446">
        <ele>1103.73</ele>
        <time>2013-10-20T16:17:14Z</time>
      </trkpt>
      <trkpt lat="42.023014541" lon="2.535881492">
        <ele>1103.73</ele>
        <time>2013-10-20T16:17:20Z</time>
      </trkpt>
      <trkpt lat="42.023289384" lon="2.535527357">
        <ele>1102.77</ele>
        <time>2013-10-20T16:17:27Z</time>
      </trkpt>
      <trkpt lat="42.023565148" lon="2.535123013">
        <ele>1102.29</ele>
        <time>2013-10-20T16:17:35Z</time>
      </trkpt>
      <trkpt lat="42.023801350" lon="2.534975911">
        <ele>1101.33</ele>
        <time>2013-10-20T16:17:40Z</time>
      </trkpt>
      <trkpt lat="42.024020956" lon="2.535113877">
        <ele>1099.89</ele>
        <time>2013-10-20T16:17:44Z</time>
      </trkpt>
      <trkpt lat="42.024055490" lon="2.535187051">
        <ele>1099.89</ele>
        <time>2013-10-20T16:17:45Z</time>
      </trkpt>
      <trkpt lat="42.024374924" lon="2.535557615">
        <ele>1097.00</ele>
        <time>2013-10-20T16:17:52Z</time>
      </trkpt>
      <trkpt lat="42.024445080" lon="2.535577648">
        <ele>1096.52</ele>
        <time>2013-10-20T16:17:53Z</time>
      </trkpt>
      <trkpt lat="42.024954533" lon="2.535670519">
        <ele>1092.68</ele>
        <time>2013-10-20T16:17:59Z</time>
      </trkpt>
      <trkpt lat="42.025146394" lon="2.535698347">
        <ele>1090.75</ele>
        <time>2013-10-20T16:18:01Z</time>
      </trkpt>
      <trkpt lat="42.025455519" lon="2.535538253">
        <ele>1090.27</ele>
        <time>2013-10-20T16:18:05Z</time>
      </trkpt>
      <trkpt lat="42.025599604" lon="2.535279168">
        <ele>1090.27</ele>
        <time>2013-10-20T16:18:09Z</time>
      </trkpt>
      <trkpt lat="42.025704210" lon="2.534734848">
        <ele>1089.79</ele>
        <time>2013-10-20T16:18:17Z</time>
      </trkpt>
      <trkpt lat="42.025853911" lon="2.534425807">
        <ele>1087.39</ele>
        <time>2013-10-20T16:18:21Z</time>
      </trkpt>
      <trkpt lat="42.025968408" lon="2.534282392">
        <ele>1086.43</ele>
        <time>2013-10-20T16:18:23Z</time>
      </trkpt>
      <trkpt lat="42.026339726" lon="2.533935214">
        <ele>1082.58</ele>
        <time>2013-10-20T16:18:29Z</time>
      </trkpt>
      <trkpt lat="42.026437291" lon="2.533845695">
        <ele>1081.62</ele>
        <time>2013-10-20T16:18:31Z</time>
      </trkpt>
      <trkpt lat="42.026585567" lon="2.533697587">
        <ele>1080.18</ele>
        <time>2013-10-20T16:18:36Z</time>
      </trkpt>
      <trkpt lat="42.026635272" lon="2.533640003">
        <ele>1080.18</ele>
        <time>2013-10-20T16:18:42Z</time>
      </trkpt>
      <trkpt lat="42.026627560" lon="2.533641009">
        <ele>1080.18</ele>
        <time>2013-10-20T16:18:57Z</time>
      </trkpt>
      <trkpt lat="42.026618676" lon="2.533625503">
        <ele>1080.18</ele>
        <time>2013-10-20T16:19:04Z</time>
      </trkpt>
      <trkpt lat="42.026591099" lon="2.533632963">
        <ele>1080.18</ele>
        <time>2013-10-20T16:19:12Z</time>
      </trkpt>
      <trkpt lat="42.026580873" lon="2.533643943">
        <ele>1080.18</ele>
        <time>2013-10-20T16:19:20Z</time>
      </trkpt>
      <trkpt lat="42.026584394" lon="2.533664059">
        <ele>1080.18</ele>
        <time>2013-10-20T16:19:36Z</time>
      </trkpt>
      <trkpt lat="42.026581125" lon="2.533666406">
        <ele>1080.18</ele>
        <time>2013-10-20T16:19:44Z</time>
      </trkpt>
      <trkpt lat="42.026573581" lon="2.533668837">
        <ele>1080.18</ele>
        <time>2013-10-20T16:20:05Z</time>
      </trkpt>
      <trkpt lat="42.026576179" lon="2.533671436">
        <ele>1080.18</ele>
        <time>2013-10-20T16:20:18Z</time>
      </trkpt>
      <trkpt lat="42.026576850" lon="2.533669340">
        <ele>1080.18</ele>
        <time>2013-10-20T16:20:31Z</time>
      </trkpt>
      <trkpt lat="42.026567127" lon="2.533660455">
        <ele>1080.18</ele>
        <time>2013-10-20T16:20:53Z</time>
      </trkpt>
      <trkpt lat="42.026540137" lon="2.533665065">
        <ele>1080.18</ele>
        <time>2013-10-20T16:20:57Z</time>
      </trkpt>
      <trkpt lat="42.026534186" lon="2.533720805">
        <ele>1080.18</ele>
        <time>2013-10-20T16:21:03Z</time>
      </trkpt>
      <trkpt lat="42.026609958" lon="2.533687613">
        <ele>1080.18</ele>
        <time>2013-10-20T16:21:09Z</time>
      </trkpt>
      <trkpt lat="42.026627979" lon="2.533671687">
        <ele>1080.18</ele>
        <time>2013-10-20T16:21:11Z</time>
      </trkpt>
      <trkpt lat="42.026667458" lon="2.533661377">
        <ele>1080.18</ele>
        <time>2013-10-20T16:21:15Z</time>
      </trkpt>
      <trkpt lat="42.026696627" lon="2.533677973">
        <ele>1080.18</ele>
        <time>2013-10-20T16:21:17Z</time>
      </trkpt>
      <trkpt lat="42.026769717" lon="2.533743268">
        <ele>1079.70</ele>
        <time>2013-10-20T16:21:25Z</time>
      </trkpt>
      <trkpt lat="42.026803245" lon="2.533776545">
        <ele>1079.70</ele>
        <time>2013-10-20T16:21:29Z</time>
      </trkpt>
      <trkpt lat="42.026883544" lon="2.533822896">
        <ele>1079.22</ele>
        <time>2013-10-20T16:21:38Z</time>
      </trkpt>
      <trkpt lat="42.026917993" lon="2.533849551">
        <ele>1078.74</ele>
        <time>2013-10-20T16:21:50Z</time>
      </trkpt>
      <trkpt lat="42.026947917" lon="2.533876624">
        <ele>1078.26</ele>
        <time>2013-10-20T16:21:58Z</time>
      </trkpt>
      <trkpt lat="42.026987815" lon="2.533873104">
        <ele>1076.81</ele>
        <time>2013-10-20T16:22:06Z</time>
      </trkpt>
      <trkpt lat="42.026963339" lon="2.533863297">
        <ele>1077.29</ele>
        <time>2013-10-20T16:22:15Z</time>
      </trkpt>
      <trkpt lat="42.026961831" lon="2.533878133">
        <ele>1077.29</ele>
        <time>2013-10-20T16:22:27Z</time>
      </trkpt>
      <trkpt lat="42.026980606" lon="2.533853574">
        <ele>1076.81</ele>
        <time>2013-10-20T16:22:39Z</time>
      </trkpt>
      <trkpt lat="42.026972057" lon="2.533796745">
        <ele>1076.33</ele>
        <time>2013-10-20T16:22:47Z</time>
      </trkpt>
      <trkpt lat="42.026944899" lon="2.533761373">
        <ele>1075.85</ele>
        <time>2013-10-20T16:22:56Z</time>
      </trkpt>
      <trkpt lat="42.026903325" lon="2.533709825">
        <ele>1075.37</ele>
        <time>2013-10-20T16:23:06Z</time>
      </trkpt>
      <trkpt lat="42.026884047" lon="2.533678812">
        <ele>1073.93</ele>
        <time>2013-10-20T16:23:16Z</time>
      </trkpt>
      <trkpt lat="42.026908438" lon="2.533692139">
        <ele>1072.49</ele>
        <time>2013-10-20T16:23:26Z</time>
      </trkpt>
      <trkpt lat="42.026921765" lon="2.533671855">
        <ele>1071.53</ele>
        <time>2013-10-20T16:23:35Z</time>
      </trkpt>
      <trkpt lat="42.026935009" lon="2.533648888">
        <ele>1071.05</ele>
        <time>2013-10-20T16:23:43Z</time>
      </trkpt>
      <trkpt lat="42.026948252" lon="2.533667245">
        <ele>1070.08</ele>
        <time>2013-10-20T16:23:50Z</time>
      </trkpt>
      <trkpt lat="42.026957388" lon="2.533670765">
        <ele>1069.12</ele>
        <time>2013-10-20T16:23:56Z</time>
      </trkpt>
      <trkpt lat="42.026978092" lon="2.533636315">
        <ele>1069.12</ele>
        <time>2013-10-20T16:24:03Z</time>
      </trkpt>
      <trkpt lat="42.027006506" lon="2.533656851">
        <ele>1068.16</ele>
        <time>2013-10-20T16:24:10Z</time>
      </trkpt>
      <trkpt lat="42.026995023" lon="2.533694402">
        <ele>1066.72</ele>
        <time>2013-10-20T16:24:17Z</time>
      </trkpt>
      <trkpt lat="42.027024192" lon="2.533660455">
        <ele>1065.28</ele>
        <time>2013-10-20T16:24:24Z</time>
      </trkpt>
      <trkpt lat="42.027065850" lon="2.533661293">
        <ele>1064.32</ele>
        <time>2013-10-20T16:24:32Z</time>
      </trkpt>
      <trkpt lat="42.027063419" lon="2.533679398">
        <ele>1063.84</ele>
        <time>2013-10-20T16:24:34Z</time>
      </trkpt>
      <trkpt lat="42.027051349" lon="2.533730528">
        <ele>1062.87</ele>
        <time>2013-10-20T16:24:42Z</time>
      </trkpt>
      <trkpt lat="42.027069538" lon="2.533712088">
        <ele>1061.91</ele>
        <time>2013-10-20T16:24:49Z</time>
      </trkpt>
      <trkpt lat="42.027100970" lon="2.533671016">
        <ele>1060.47</ele>
        <time>2013-10-20T16:24:57Z</time>
      </trkpt>
      <trkpt lat="42.027133911" lon="2.533660623">
        <ele>1059.03</ele>
        <time>2013-10-20T16:25:06Z</time>
      </trkpt>
      <trkpt lat="42.027134749" lon="2.533700688">
        <ele>1058.07</ele>
        <time>2013-10-20T16:25:12Z</time>
      </trkpt>
      <trkpt lat="42.027128211" lon="2.533740167">
        <ele>1056.63</ele>
        <time>2013-10-20T16:25:20Z</time>
      </trkpt>
      <trkpt lat="42.027158303" lon="2.533710244">
        <ele>1056.15</ele>
        <time>2013-10-20T16:25:28Z</time>
      </trkpt>
      <trkpt lat="42.027185711" lon="2.533706137">
        <ele>1054.70</ele>
        <time>2013-10-20T16:25:36Z</time>
      </trkpt>
      <trkpt lat="42.027182945" lon="2.533749722">
        <ele>1054.22</ele>
        <time>2013-10-20T16:25:43Z</time>
      </trkpt>
      <trkpt lat="42.027196524" lon="2.533751483">
        <ele>1052.78</ele>
        <time>2013-10-20T16:25:52Z</time>
      </trkpt>
      <trkpt lat="42.027219071" lon="2.533719799">
        <ele>1051.82</ele>
        <time>2013-10-20T16:26:01Z</time>
      </trkpt>
      <trkpt lat="42.027241116" lon="2.533729941">
        <ele>1051.34</ele>
        <time>2013-10-20T16:26:09Z</time>
      </trkpt>
      <trkpt lat="42.027266848" lon="2.533763301">
        <ele>1050.38</ele>
        <time>2013-10-20T16:26:16Z</time>
      </trkpt>
      <trkpt lat="42.027264082" lon="2.533800601">
        <ele>1049.42</ele>
        <time>2013-10-20T16:26:24Z</time>
      </trkpt>
      <trkpt lat="42.027280008" lon="2.533809234">
        <ele>1047.97</ele>
        <time>2013-10-20T16:26:32Z</time>
      </trkpt>
      <trkpt lat="42.027296939" lon="2.533767744">
        <ele>1047.01</ele>
        <time>2013-10-20T16:26:40Z</time>
      </trkpt>
      <trkpt lat="42.027320325" lon="2.533751566">
        <ele>1045.57</ele>
        <time>2013-10-20T16:26:48Z</time>
      </trkpt>
      <trkpt lat="42.027345554" lon="2.533788698">
        <ele>1044.13</ele>
        <time>2013-10-20T16:26:54Z</time>
      </trkpt>
      <trkpt lat="42.027338430" lon="2.533827423">
        <ele>1043.17</ele>
        <time>2013-10-20T16:27:02Z</time>
      </trkpt>
      <trkpt lat="42.027355529" lon="2.533821807">
        <ele>1042.21</ele>
        <time>2013-10-20T16:27:09Z</time>
      </trkpt>
      <trkpt lat="42.027376903" lon="2.533780736">
        <ele>1041.73</ele>
        <time>2013-10-20T16:27:17Z</time>
      </trkpt>
      <trkpt lat="42.027388972" lon="2.533750393">
        <ele>1041.25</ele>
        <time>2013-10-20T16:27:26Z</time>
      </trkpt>
      <trkpt lat="42.027431133" lon="2.533732875">
        <ele>1039.80</ele>
        <time>2013-10-20T16:27:35Z</time>
      </trkpt>
      <trkpt lat="42.027442114" lon="2.533788782">
        <ele>1038.84</ele>
        <time>2013-10-20T16:27:44Z</time>
      </trkpt>
      <trkpt lat="42.027432642" lon="2.533856089">
        <ele>1036.92</ele>
        <time>2013-10-20T16:27:53Z</time>
      </trkpt>
      <trkpt lat="42.027446724" lon="2.533898501">
        <ele>1035.96</ele>
        <time>2013-10-20T16:28:00Z</time>
      </trkpt>
      <trkpt lat="42.027470612" lon="2.533888527">
        <ele>1034.04</ele>
        <time>2013-10-20T16:28:09Z</time>
      </trkpt>
      <trkpt lat="42.027502128" lon="2.533841085">
        <ele>1032.59</ele>
        <time>2013-10-20T16:28:17Z</time>
      </trkpt>
      <trkpt lat="42.027528699" lon="2.533834631">
        <ele>1031.15</ele>
        <time>2013-10-20T16:28:25Z</time>
      </trkpt>
      <trkpt lat="42.027541775" lon="2.533866650">
        <ele>1030.67</ele>
        <time>2013-10-20T16:28:32Z</time>
      </trkpt>
      <trkpt lat="42.027522580" lon="2.533915600">
        <ele>1029.71</ele>
        <time>2013-10-20T16:28:39Z</time>
      </trkpt>
      <trkpt lat="42.027504307" lon="2.533991876">
        <ele>1028.75</ele>
        <time>2013-10-20T16:28:47Z</time>
      </trkpt>
      <trkpt lat="42.027535153" lon="2.534060104">
        <ele>1027.31</ele>
        <time>2013-10-20T16:28:55Z</time>
      </trkpt>
      <trkpt lat="42.027559377" lon="2.534104948">
        <ele>1025.86</ele>
        <time>2013-10-20T16:29:03Z</time>
      </trkpt>
      <trkpt lat="42.027584858" lon="2.534104696">
        <ele>1024.90</ele>
        <time>2013-10-20T16:29:10Z</time>
      </trkpt>
      <trkpt lat="42.027589049" lon="2.534043676">
        <ele>1022.98</ele>
        <time>2013-10-20T16:29:19Z</time>
      </trkpt>
      <trkpt lat="42.027613021" lon="2.533974274">
        <ele>1021.54</ele>
        <time>2013-10-20T16:29:27Z</time>
      </trkpt>
      <trkpt lat="42.027632634" lon="2.534010400">
        <ele>1020.58</ele>
        <time>2013-10-20T16:29:34Z</time>
      </trkpt>
      <trkpt lat="42.027646045" lon="2.533950637">
        <ele>1018.65</ele>
        <time>2013-10-20T16:29:44Z</time>
      </trkpt>
      <trkpt lat="42.027670772" lon="2.533960527">
        <ele>1017.21</ele>
        <time>2013-10-20T16:29:51Z</time>
      </trkpt>
      <trkpt lat="42.027706730" lon="2.533900429">
        <ele>1015.77</ele>
        <time>2013-10-20T16:30:00Z</time>
      </trkpt>
      <trkpt lat="42.027711760" lon="2.533888443">
        <ele>1015.29</ele>
        <time>2013-10-20T16:30:01Z</time>
      </trkpt>
      <trkpt lat="42.027756267" lon="2.533827842">
        <ele>1012.89</ele>
        <time>2013-10-20T16:30:10Z</time>
      </trkpt>
      <trkpt lat="42.027769008" lon="2.533839744">
        <ele>1012.89</ele>
        <time>2013-10-20T16:30:16Z</time>
      </trkpt>
      <trkpt lat="42.027775043" lon="2.533877714">
        <ele>1010.96</ele>
        <time>2013-10-20T16:30:23Z</time>
      </trkpt>
      <trkpt lat="42.027817958" lon="2.533887353">
        <ele>1009.52</ele>
        <time>2013-10-20T16:30:33Z</time>
      </trkpt>
      <trkpt lat="42.027854503" lon="2.533824489">
        <ele>1008.08</ele>
        <time>2013-10-20T16:30:41Z</time>
      </trkpt>
      <trkpt lat="42.027881242" lon="2.533792805">
        <ele>1007.12</ele>
        <time>2013-10-20T16:30:49Z</time>
      </trkpt>
      <trkpt lat="42.027893479" lon="2.533765816">
        <ele>1007.12</ele>
        <time>2013-10-20T16:30:53Z</time>
      </trkpt>
      <trkpt lat="42.027977801" lon="2.533633968">
        <ele>1005.20</ele>
        <time>2013-10-20T16:30:59Z</time>
      </trkpt>
      <trkpt lat="42.028107469" lon="2.533450321">
        <ele>1003.27</ele>
        <time>2013-10-20T16:31:06Z</time>
      </trkpt>
      <trkpt lat="42.028166310" lon="2.533370609">
        <ele>1003.27</ele>
        <time>2013-10-20T16:31:11Z</time>
      </trkpt>
      <trkpt lat="42.028195563" lon="2.533381086">
        <ele>1001.83</ele>
        <time>2013-10-20T16:31:14Z</time>
      </trkpt>
      <trkpt lat="42.028186511" lon="2.533390055">
        <ele>1001.35</ele>
        <time>2013-10-20T16:31:18Z</time>
      </trkpt>
      <trkpt lat="42.028115767" lon="2.533551407">
        <ele>997.99</ele>
        <time>2013-10-20T16:31:25Z</time>
      </trkpt>
      <trkpt lat="42.028067152" lon="2.533718877">
        <ele>996.06</ele>
        <time>2013-10-20T16:31:31Z</time>
      </trkpt>
      <trkpt lat="42.028060782" lon="2.533807055">
        <ele>994.14</ele>
        <time>2013-10-20T16:31:34Z</time>
      </trkpt>
      <trkpt lat="42.028022561" lon="2.533899759">
        <ele>993.18</ele>
        <time>2013-10-20T16:31:38Z</time>
      </trkpt>
      <trkpt lat="42.027990206" lon="2.534075359">
        <ele>990.30</ele>
        <time>2013-10-20T16:31:46Z</time>
      </trkpt>
      <trkpt lat="42.027984674" lon="2.534102517">
        <ele>990.30</ele>
        <time>2013-10-20T16:31:47Z</time>
      </trkpt>
      <trkpt lat="42.027940250" lon="2.534339557">
        <ele>987.89</ele>
        <time>2013-10-20T16:31:54Z</time>
      </trkpt>
      <trkpt lat="42.027904795" lon="2.534473416">
        <ele>986.93</ele>
        <time>2013-10-20T16:32:01Z</time>
      </trkpt>
      <trkpt lat="42.027892976" lon="2.534508369">
        <ele>986.93</ele>
        <time>2013-10-20T16:32:03Z</time>
      </trkpt>
      <trkpt lat="42.027871100" lon="2.534701152">
        <ele>986.45</ele>
        <time>2013-10-20T16:32:10Z</time>
      </trkpt>
      <trkpt lat="42.027839751" lon="2.534852278">
        <ele>986.45</ele>
        <time>2013-10-20T16:32:15Z</time>
      </trkpt>
      <trkpt lat="42.027757106" lon="2.535005918">
        <ele>986.45</ele>
        <time>2013-10-20T16:32:22Z</time>
      </trkpt>
      <trkpt lat="42.027630958" lon="2.535166683">
        <ele>986.45</ele>
        <time>2013-10-20T16:32:30Z</time>
      </trkpt>
      <trkpt lat="42.027547223" lon="2.535279420">
        <ele>987.41</ele>
        <time>2013-10-20T16:32:38Z</time>
      </trkpt>
      <trkpt lat="42.027534063" lon="2.535295429">
        <ele>987.41</ele>
        <time>2013-10-20T16:32:40Z</time>
      </trkpt>
      <trkpt lat="42.027523167" lon="2.535321916">
        <ele>985.97</ele>
        <time>2013-10-20T16:32:42Z</time>
      </trkpt>
      <trkpt lat="42.027466337" lon="2.535415374">
        <ele>983.57</ele>
        <time>2013-10-20T16:32:49Z</time>
      </trkpt>
      <trkpt lat="42.027444461" lon="2.535462481">
        <ele>982.12</ele>
        <time>2013-10-20T16:32:52Z</time>
      </trkpt>
      <trkpt lat="42.027425434" lon="2.535487878">
        <ele>981.64</ele>
        <time>2013-10-20T16:32:54Z</time>
      </trkpt>
      <trkpt lat="42.027360642" lon="2.535649648">
        <ele>978.76</ele>
        <time>2013-10-20T16:33:01Z</time>
      </trkpt>
      <trkpt lat="42.027306662" lon="2.535777137">
        <ele>977.32</ele>
        <time>2013-10-20T16:33:07Z</time>
      </trkpt>
      <trkpt lat="42.027286462" lon="2.535822986">
        <ele>976.84</ele>
        <time>2013-10-20T16:33:09Z</time>
      </trkpt>
      <trkpt lat="42.027136174" lon="2.535945949">
        <ele>975.39</ele>
        <time>2013-10-20T16:33:17Z</time>
      </trkpt>
      <trkpt lat="42.027011954" lon="2.536029181">
        <ele>975.39</ele>
        <time>2013-10-20T16:33:23Z</time>
      </trkpt>
      <trkpt lat="42.026972811" lon="2.536041251">
        <ele>976.84</ele>
        <time>2013-10-20T16:33:25Z</time>
      </trkpt>
      <trkpt lat="42.026812214" lon="2.536133787">
        <ele>977.80</ele>
        <time>2013-10-20T16:33:33Z</time>
      </trkpt>
      <trkpt lat="42.026784553" lon="2.536180642">
        <ele>978.28</ele>
        <time>2013-10-20T16:33:40Z</time>
      </trkpt>
      <trkpt lat="42.026766113" lon="2.536219283">
        <ele>978.28</ele>
        <time>2013-10-20T16:33:47Z</time>
      </trkpt>
      <trkpt lat="42.026746164" lon="2.536235711">
        <ele>979.72</ele>
        <time>2013-10-20T16:33:55Z</time>
      </trkpt>
      <trkpt lat="42.026729149" lon="2.536270496">
        <ele>980.20</ele>
        <time>2013-10-20T16:34:03Z</time>
      </trkpt>
      <trkpt lat="42.026666452" lon="2.536320871">
        <ele>980.20</ele>
        <time>2013-10-20T16:34:09Z</time>
      </trkpt>
      <trkpt lat="42.026650024" lon="2.536332354">
        <ele>980.20</ele>
        <time>2013-10-20T16:34:10Z</time>
      </trkpt>
      <trkpt lat="42.026580454" lon="2.536357835">
        <ele>981.16</ele>
        <time>2013-10-20T16:34:17Z</time>
      </trkpt>
      <trkpt lat="42.026538042" lon="2.536387927">
        <ele>982.60</ele>
        <time>2013-10-20T16:34:27Z</time>
      </trkpt>
      <trkpt lat="42.026512309" lon="2.536411899">
        <ele>983.09</ele>
        <time>2013-10-20T16:34:35Z</time>
      </trkpt>
      <trkpt lat="42.026470316" lon="2.536478870">
        <ele>984.05</ele>
        <time>2013-10-20T16:34:45Z</time>
      </trkpt>
      <trkpt lat="42.026433603" lon="2.536507788">
        <ele>984.05</ele>
        <time>2013-10-20T16:34:51Z</time>
      </trkpt>
      <trkpt lat="42.026322878" lon="2.536586997">
        <ele>984.53</ele>
        <time>2013-10-20T16:34:57Z</time>
      </trkpt>
      <trkpt lat="42.026169489" lon="2.536695961">
        <ele>985.49</ele>
        <time>2013-10-20T16:35:04Z</time>
      </trkpt>
      <trkpt lat="42.026020543" lon="2.536750779">
        <ele>986.93</ele>
        <time>2013-10-20T16:35:11Z</time>
      </trkpt>
      <trkpt lat="42.025848211" lon="2.536845578">
        <ele>988.37</ele>
        <time>2013-10-20T16:35:20Z</time>
      </trkpt>
      <trkpt lat="42.025682501" lon="2.536896457">
        <ele>988.85</ele>
        <time>2013-10-20T16:35:28Z</time>
      </trkpt>
      <trkpt lat="42.025471612" lon="2.536932583">
        <ele>990.78</ele>
        <time>2013-10-20T16:35:37Z</time>
      </trkpt>
      <trkpt lat="42.025318139" lon="2.536928643">
        <ele>992.70</ele>
        <time>2013-10-20T16:35:45Z</time>
      </trkpt>
      <trkpt lat="42.025280924" lon="2.536925626">
        <ele>993.18</ele>
        <time>2013-10-20T16:35:47Z</time>
      </trkpt>
      <trkpt lat="42.025141784" lon="2.536995698">
        <ele>993.18</ele>
        <time>2013-10-20T16:35:55Z</time>
      </trkpt>
      <trkpt lat="42.025124098" lon="2.536999805">
        <ele>993.18</ele>
        <time>2013-10-20T16:35:56Z</time>
      </trkpt>
      <trkpt lat="42.025067353" lon="2.537041547">
        <ele>991.74</ele>
        <time>2013-10-20T16:35:59Z</time>
      </trkpt>
      <trkpt lat="42.024964004" lon="2.537088821">
        <ele>990.30</ele>
        <time>2013-10-20T16:36:02Z</time>
      </trkpt>
      <trkpt lat="42.024886891" lon="2.537115560">
        <ele>989.33</ele>
        <time>2013-10-20T16:36:04Z</time>
      </trkpt>
      <trkpt lat="42.024681953" lon="2.537211029">
        <ele>988.85</ele>
        <time>2013-10-20T16:36:09Z</time>
      </trkpt>
      <trkpt lat="42.024525798" lon="2.537285964">
        <ele>985.49</ele>
        <time>2013-10-20T16:36:16Z</time>
      </trkpt>
      <trkpt lat="42.024444410" lon="2.537354192">
        <ele>982.12</ele>
        <time>2013-10-20T16:36:21Z</time>
      </trkpt>
      <trkpt lat="42.024309964" lon="2.537437089">
        <ele>978.76</ele>
        <time>2013-10-20T16:36:27Z</time>
      </trkpt>
      <trkpt lat="42.024249363" lon="2.537468941">
        <ele>977.80</ele>
        <time>2013-10-20T16:36:31Z</time>
      </trkpt>
      <trkpt lat="42.024117180" lon="2.537518226">
        <ele>974.91</ele>
        <time>2013-10-20T16:36:38Z</time>
      </trkpt>
      <trkpt lat="42.024104356" lon="2.537529626">
        <ele>974.91</ele>
        <time>2013-10-20T16:36:39Z</time>
      </trkpt>
      <trkpt lat="42.024092119" lon="2.537583186">
        <ele>972.99</ele>
        <time>2013-10-20T16:36:45Z</time>
      </trkpt>
      <trkpt lat="42.024056915" lon="2.537613277">
        <ele>971.07</ele>
        <time>2013-10-20T16:36:51Z</time>
      </trkpt>
      <trkpt lat="42.023963372" lon="2.537677147">
        <ele>967.22</ele>
        <time>2013-10-20T16:36:57Z</time>
      </trkpt>
      <trkpt lat="42.023853570" lon="2.537774964">
        <ele>963.86</ele>
        <time>2013-10-20T16:37:03Z</time>
      </trkpt>
      <trkpt lat="42.023794142" lon="2.537827602">
        <ele>962.90</ele>
        <time>2013-10-20T16:37:09Z</time>
      </trkpt>
      <trkpt lat="42.023748712" lon="2.537848389">
        <ele>961.94</ele>
        <time>2013-10-20T16:37:18Z</time>
      </trkpt>
      <trkpt lat="42.023711580" lon="2.537873535">
        <ele>961.46</ele>
        <time>2013-10-20T16:37:26Z</time>
      </trkpt>
      <trkpt lat="42.023711077" lon="2.537880827">
        <ele>960.49</ele>
        <time>2013-10-20T16:37:30Z</time>
      </trkpt>
      <trkpt lat="42.023669838" lon="2.537923491">
        <ele>959.53</ele>
        <time>2013-10-20T16:37:35Z</time>
      </trkpt>
      <trkpt lat="42.023631449" lon="2.537955594">
        <ele>957.61</ele>
        <time>2013-10-20T16:37:42Z</time>
      </trkpt>
      <trkpt lat="42.023626504" lon="2.537978225">
        <ele>957.13</ele>
        <time>2013-10-20T16:37:46Z</time>
      </trkpt>
      <trkpt lat="42.023556599" lon="2.538033210">
        <ele>954.73</ele>
        <time>2013-10-20T16:37:52Z</time>
      </trkpt>
      <trkpt lat="42.023428607" lon="2.538087357">
        <ele>952.80</ele>
        <time>2013-10-20T16:38:02Z</time>
      </trkpt>
      <trkpt lat="42.023447802" lon="2.538124657">
        <ele>950.88</ele>
        <time>2013-10-20T16:38:09Z</time>
      </trkpt>
      <trkpt lat="42.023440426" lon="2.538167572">
        <ele>950.40</ele>
        <time>2013-10-20T16:38:16Z</time>
      </trkpt>
      <trkpt lat="42.023391391" lon="2.538190958">
        <ele>948.96</ele>
        <time>2013-10-20T16:38:24Z</time>
      </trkpt>
      <trkpt lat="42.023367084" lon="2.538208057">
        <ele>948.48</ele>
        <time>2013-10-20T16:38:28Z</time>
      </trkpt>
      <trkpt lat="42.023313859" lon="2.538249966">
        <ele>947.52</ele>
        <time>2013-10-20T16:38:32Z</time>
      </trkpt>
      <trkpt lat="42.023256946" lon="2.538274525">
        <ele>946.07</ele>
        <time>2013-10-20T16:38:36Z</time>
      </trkpt>
      <trkpt lat="42.023220903" lon="2.538291876">
        <ele>945.59</ele>
        <time>2013-10-20T16:38:39Z</time>
      </trkpt>
      <trkpt lat="42.023198859" lon="2.538324984">
        <ele>944.63</ele>
        <time>2013-10-20T16:38:41Z</time>
      </trkpt>
      <trkpt lat="42.023166170" lon="2.538351806">
        <ele>944.15</ele>
        <time>2013-10-20T16:38:43Z</time>
      </trkpt>
      <trkpt lat="42.023062066" lon="2.538391201">
        <ele>943.67</ele>
        <time>2013-10-20T16:38:49Z</time>
      </trkpt>
      <trkpt lat="42.022959304" lon="2.538468399">
        <ele>940.79</ele>
        <time>2013-10-20T16:38:56Z</time>
      </trkpt>
      <trkpt lat="42.022875150" lon="2.538587589">
        <ele>937.42</ele>
        <time>2013-10-20T16:39:04Z</time>
      </trkpt>
      <trkpt lat="42.022879257" lon="2.538611562">
        <ele>937.42</ele>
        <time>2013-10-20T16:39:11Z</time>
      </trkpt>
      <trkpt lat="42.022912114" lon="2.538628074">
        <ele>935.50</ele>
        <time>2013-10-20T16:39:20Z</time>
      </trkpt>
      <trkpt lat="42.022914210" lon="2.538660009">
        <ele>934.54</ele>
        <time>2013-10-20T16:39:26Z</time>
      </trkpt>
      <trkpt lat="42.022854782" lon="2.538739972">
        <ele>933.58</ele>
        <time>2013-10-20T16:39:33Z</time>
      </trkpt>
      <trkpt lat="42.022760150" lon="2.538837705">
        <ele>931.65</ele>
        <time>2013-10-20T16:39:39Z</time>
      </trkpt>
      <trkpt lat="42.022605672" lon="2.538992854">
        <ele>929.25</ele>
        <time>2013-10-20T16:39:47Z</time>
      </trkpt>
      <trkpt lat="42.022513136" lon="2.539088743">
        <ele>926.85</ele>
        <time>2013-10-20T16:39:53Z</time>
      </trkpt>
      <trkpt lat="42.022414816" lon="2.539183543">
        <ele>923.96</ele>
        <time>2013-10-20T16:40:01Z</time>
      </trkpt>
      <trkpt lat="42.022476842" lon="2.539228637">
        <ele>922.52</ele>
        <time>2013-10-20T16:40:07Z</time>
      </trkpt>
      <trkpt lat="42.022488912" lon="2.539241965">
        <ele>921.56</ele>
        <time>2013-10-20T16:40:08Z</time>
      </trkpt>
      <trkpt lat="42.022586226" lon="2.539260153">
        <ele>918.68</ele>
        <time>2013-10-20T16:40:15Z</time>
      </trkpt>
      <trkpt lat="42.022632159" lon="2.539262081">
        <ele>917.24</ele>
        <time>2013-10-20T16:40:18Z</time>
      </trkpt>
      <trkpt lat="42.022766185" lon="2.539244982">
        <ele>914.83</ele>
        <time>2013-10-20T16:40:26Z</time>
      </trkpt>
      <trkpt lat="42.022764677" lon="2.539304158">
        <ele>913.39</ele>
        <time>2013-10-20T16:40:30Z</time>
      </trkpt>
      <trkpt lat="42.022697035" lon="2.539343888">
        <ele>912.91</ele>
        <time>2013-10-20T16:40:34Z</time>
      </trkpt>
      <trkpt lat="42.022565187" lon="2.539486129">
        <ele>909.06</ele>
        <time>2013-10-20T16:40:41Z</time>
      </trkpt>
      <trkpt lat="42.022430322" lon="2.539620575">
        <ele>906.66</ele>
        <time>2013-10-20T16:40:47Z</time>
      </trkpt>
      <trkpt lat="42.022317083" lon="2.539690396">
        <ele>906.18</ele>
        <time>2013-10-20T16:40:50Z</time>
      </trkpt>
      <trkpt lat="42.022108206" lon="2.539873625">
        <ele>903.78</ele>
        <time>2013-10-20T16:40:57Z</time>
      </trkpt>
      <trkpt lat="42.022029835" lon="2.539960126">
        <ele>902.33</ele>
        <time>2013-10-20T16:41:02Z</time>
      </trkpt>
      <trkpt lat="42.021914919" lon="2.540132626">
        <ele>899.93</ele>
        <time>2013-10-20T16:41:09Z</time>
      </trkpt>
      <trkpt lat="42.021891785" lon="2.540151569">
        <ele>899.93</ele>
        <time>2013-10-20T16:41:10Z</time>
      </trkpt>
      <trkpt lat="42.021782317" lon="2.540338820">
        <ele>896.09</ele>
        <time>2013-10-20T16:41:19Z</time>
      </trkpt>
      <trkpt lat="42.021723141" lon="2.540433117">
        <ele>894.64</ele>
        <time>2013-10-20T16:41:23Z</time>
      </trkpt>
      <trkpt lat="42.021521808" lon="2.540580303">
        <ele>893.20</ele>
        <time>2013-10-20T16:41:31Z</time>
      </trkpt>
      <trkpt lat="42.021329024" lon="2.540707876">
        <ele>891.76</ele>
        <time>2013-10-20T16:41:37Z</time>
      </trkpt>
      <trkpt lat="42.021261885" lon="2.540808123">
        <ele>889.36</ele>
        <time>2013-10-20T16:41:40Z</time>
      </trkpt>
      <trkpt lat="42.021351991" lon="2.540969810">
        <ele>885.99</ele>
        <time>2013-10-20T16:41:46Z</time>
      </trkpt>
      <trkpt lat="42.021392391" lon="2.540982551">
        <ele>885.03</ele>
        <time>2013-10-20T16:41:48Z</time>
      </trkpt>
      <trkpt lat="42.021529016" lon="2.540990765">
        <ele>881.19</ele>
        <time>2013-10-20T16:41:54Z</time>
      </trkpt>
      <trkpt lat="42.021622391" lon="2.540954890">
        <ele>879.26</ele>
        <time>2013-10-20T16:41:59Z</time>
      </trkpt>
      <trkpt lat="42.021650722" lon="2.541022700">
        <ele>878.78</ele>
        <time>2013-10-20T16:42:04Z</time>
      </trkpt>
      <trkpt lat="42.021641082" lon="2.541080284">
        <ele>877.34</ele>
        <time>2013-10-20T16:42:06Z</time>
      </trkpt>
      <trkpt lat="42.021595317" lon="2.541295279">
        <ele>873.98</ele>
        <time>2013-10-20T16:42:13Z</time>
      </trkpt>
      <trkpt lat="42.021478976" lon="2.541476161">
        <ele>873.01</ele>
        <time>2013-10-20T16:42:19Z</time>
      </trkpt>
      <trkpt lat="42.021360959" lon="2.541698617">
        <ele>870.61</ele>
        <time>2013-10-20T16:42:25Z</time>
      </trkpt>
      <trkpt lat="42.021347297" lon="2.541715799">
        <ele>870.61</ele>
        <time>2013-10-20T16:42:26Z</time>
      </trkpt>
      <trkpt lat="42.021368084" lon="2.541903135">
        <ele>869.65</ele>
        <time>2013-10-20T16:42:32Z</time>
      </trkpt>
      <trkpt lat="42.021370850" lon="2.541940267">
        <ele>869.65</ele>
        <time>2013-10-20T16:42:33Z</time>
      </trkpt>
      <trkpt lat="42.021261801" lon="2.542103462">
        <ele>869.65</ele>
        <time>2013-10-20T16:42:40Z</time>
      </trkpt>
      <trkpt lat="42.021207235" lon="2.542154089">
        <ele>869.17</ele>
        <time>2013-10-20T16:42:42Z</time>
      </trkpt>
      <trkpt lat="42.021041525" lon="2.542297839">
        <ele>866.77</ele>
        <time>2013-10-20T16:42:49Z</time>
      </trkpt>
      <trkpt lat="42.020912444" lon="2.542381658">
        <ele>864.36</ele>
        <time>2013-10-20T16:42:55Z</time>
      </trkpt>
      <trkpt lat="42.020755283" lon="2.542383921">
        <ele>861.96</ele>
        <time>2013-10-20T16:43:02Z</time>
      </trkpt>
      <trkpt lat="42.020737513" lon="2.542367744">
        <ele>861.00</ele>
        <time>2013-10-20T16:43:03Z</time>
      </trkpt>
      <trkpt lat="42.020658891" lon="2.542219133">
        <ele>859.56</ele>
        <time>2013-10-20T16:43:08Z</time>
      </trkpt>
      <trkpt lat="42.020545400" lon="2.542015033">
        <ele>857.15</ele>
        <time>2013-10-20T16:43:13Z</time>
      </trkpt>
      <trkpt lat="42.020357813" lon="2.541811940">
        <ele>854.75</ele>
        <time>2013-10-20T16:43:18Z</time>
      </trkpt>
      <trkpt lat="42.020286986" lon="2.541779250">
        <ele>853.79</ele>
        <time>2013-10-20T16:43:20Z</time>
      </trkpt>
      <trkpt lat="42.020142650" lon="2.541789895">
        <ele>852.35</ele>
        <time>2013-10-20T16:43:23Z</time>
      </trkpt>
      <trkpt lat="42.020054556" lon="2.541841109">
        <ele>850.90</ele>
        <time>2013-10-20T16:43:25Z</time>
      </trkpt>
      <trkpt lat="42.019972832" lon="2.541892155">
        <ele>850.42</ele>
        <time>2013-10-20T16:43:27Z</time>
      </trkpt>
      <trkpt lat="42.019789269" lon="2.541958456">
        <ele>848.02</ele>
        <time>2013-10-20T16:43:30Z</time>
      </trkpt>
      <trkpt lat="42.019697235" lon="2.542021990">
        <ele>847.54</ele>
        <time>2013-10-20T16:43:32Z</time>
      </trkpt>
      <trkpt lat="42.019581481" lon="2.542113688">
        <ele>845.62</ele>
        <time>2013-10-20T16:43:35Z</time>
      </trkpt>
      <trkpt lat="42.019538063" lon="2.542105139">
        <ele>845.14</ele>
        <time>2013-10-20T16:43:36Z</time>
      </trkpt>
      <trkpt lat="42.019442425" lon="2.542068426">
        <ele>843.69</ele>
        <time>2013-10-20T16:43:38Z</time>
      </trkpt>
      <trkpt lat="42.019293395" lon="2.542025511">
        <ele>841.29</ele>
        <time>2013-10-20T16:43:41Z</time>
      </trkpt>
      <trkpt lat="42.019057193" lon="2.542122992">
        <ele>839.85</ele>
        <time>2013-10-20T16:43:46Z</time>
      </trkpt>
      <trkpt lat="42.018872456" lon="2.542395404">
        <ele>837.93</ele>
        <time>2013-10-20T16:43:51Z</time>
      </trkpt>
      <trkpt lat="42.018816381" lon="2.542544099">
        <ele>836.96</ele>
        <time>2013-10-20T16:43:53Z</time>
      </trkpt>
      <trkpt lat="42.018736669" lon="2.542768399">
        <ele>834.08</ele>
        <time>2013-10-20T16:43:56Z</time>
      </trkpt>
      <trkpt lat="42.018637176" lon="2.543036536">
        <ele>831.68</ele>
        <time>2013-10-20T16:44:00Z</time>
      </trkpt>
      <trkpt lat="42.018514465" lon="2.543358233">
        <ele>828.79</ele>
        <time>2013-10-20T16:44:05Z</time>
      </trkpt>
      <trkpt lat="42.018492085" lon="2.543416739">
        <ele>828.31</ele>
        <time>2013-10-20T16:44:06Z</time>
      </trkpt>
      <trkpt lat="42.018380271" lon="2.543649253">
        <ele>825.91</ele>
        <time>2013-10-20T16:44:10Z</time>
      </trkpt>
      <trkpt lat="42.018336517" lon="2.543785710">
        <ele>824.95</ele>
        <time>2013-10-20T16:44:12Z</time>
      </trkpt>
      <trkpt lat="42.018318328" lon="2.543842707">
        <ele>823.51</ele>
        <time>2013-10-20T16:44:13Z</time>
      </trkpt>
      <trkpt lat="42.018162676" lon="2.544068683">
        <ele>820.62</ele>
        <time>2013-10-20T16:44:17Z</time>
      </trkpt>
      <trkpt lat="42.017995793" lon="2.544146635">
        <ele>819.66</ele>
        <time>2013-10-20T16:44:20Z</time>
      </trkpt>
      <trkpt lat="42.017609136" lon="2.544119729">
        <ele>816.78</ele>
        <time>2013-10-20T16:44:26Z</time>
      </trkpt>
      <trkpt lat="42.017537051" lon="2.544113108">
        <ele>816.78</ele>
        <time>2013-10-20T16:44:27Z</time>
      </trkpt>
      <trkpt lat="42.017386261" lon="2.544101960">
        <ele>815.34</ele>
        <time>2013-10-20T16:44:29Z</time>
      </trkpt>
      <trkpt lat="42.016985187" lon="2.544137834">
        <ele>811.97</ele>
        <time>2013-10-20T16:44:34Z</time>
      </trkpt>
      <trkpt lat="42.016665249" lon="2.544197597">
        <ele>811.49</ele>
        <time>2013-10-20T16:44:39Z</time>
      </trkpt>
      <trkpt lat="42.016560559" lon="2.544232298">
        <ele>811.49</ele>
        <time>2013-10-20T16:44:41Z</time>
      </trkpt>
      <trkpt lat="42.016258140" lon="2.544437152">
        <ele>811.49</ele>
        <time>2013-10-20T16:44:49Z</time>
      </trkpt>
      <trkpt lat="42.016007438" lon="2.544595654">
        <ele>812.45</ele>
        <time>2013-10-20T16:44:57Z</time>
      </trkpt>
      <trkpt lat="42.015743827" lon="2.544728088">
        <ele>812.93</ele>
        <time>2013-10-20T16:45:06Z</time>
      </trkpt>
      <trkpt lat="42.015558335" lon="2.544895977">
        <ele>813.41</ele>
        <time>2013-10-20T16:45:13Z</time>
      </trkpt>
      <trkpt lat="42.015441072" lon="2.545140310">
        <ele>813.89</ele>
        <time>2013-10-20T16:45:20Z</time>
      </trkpt>
      <trkpt lat="42.015401594" lon="2.545430575">
        <ele>814.85</ele>
        <time>2013-10-20T16:45:28Z</time>
      </trkpt>
      <trkpt lat="42.015371335" lon="2.545661245">
        <ele>815.82</ele>
        <time>2013-10-20T16:45:34Z</time>
      </trkpt>
      <trkpt lat="42.015339316" lon="2.545947152">
        <ele>815.34</ele>
        <time>2013-10-20T16:45:41Z</time>
      </trkpt>
      <trkpt lat="42.015309979" lon="2.546239932">
        <ele>816.30</ele>
        <time>2013-10-20T16:45:48Z</time>
      </trkpt>
      <trkpt lat="42.015291036" lon="2.546429027">
        <ele>814.85</ele>
        <time>2013-10-20T16:45:52Z</time>
      </trkpt>
      <trkpt lat="42.015178719" lon="2.546792467">
        <ele>816.30</ele>
        <time>2013-10-20T16:46:00Z</time>
      </trkpt>
      <trkpt lat="42.015014769" lon="2.547163366">
        <ele>816.30</ele>
        <time>2013-10-20T16:46:09Z</time>
      </trkpt>
      <trkpt lat="42.014961125" lon="2.547256489">
        <ele>816.78</ele>
        <time>2013-10-20T16:46:12Z</time>
      </trkpt>
      <trkpt lat="42.014888873" lon="2.547386408">
        <ele>816.78</ele>
        <time>2013-10-20T16:46:18Z</time>
      </trkpt>
      <trkpt lat="42.014736154" lon="2.547467797">
        <ele>817.74</ele>
        <time>2013-10-20T16:46:27Z</time>
      </trkpt>
      <trkpt lat="42.014550160" lon="2.547515574">
        <ele>819.66</ele>
        <time>2013-10-20T16:46:36Z</time>
      </trkpt>
      <trkpt lat="42.014338433" lon="2.547530912">
        <ele>822.55</ele>
        <time>2013-10-20T16:46:45Z</time>
      </trkpt>
      <trkpt lat="42.014271462" lon="2.547526135">
        <ele>823.03</ele>
        <time>2013-10-20T16:46:48Z</time>
      </trkpt>
      <trkpt lat="42.014131484" lon="2.547375177">
        <ele>824.47</ele>
        <time>2013-10-20T16:46:56Z</time>
      </trkpt>
      <trkpt lat="42.013951189" lon="2.547278366">
        <ele>823.51</ele>
        <time>2013-10-20T16:47:03Z</time>
      </trkpt>
      <trkpt lat="42.013854630" lon="2.547299153">
        <ele>822.55</ele>
        <time>2013-10-20T16:47:09Z</time>
      </trkpt>
      <trkpt lat="42.013864017" lon="2.547304517">
        <ele>822.06</ele>
        <time>2013-10-20T16:47:21Z</time>
      </trkpt>
      <trkpt lat="42.013864353" lon="2.547312145">
        <ele>822.06</ele>
        <time>2013-10-20T16:47:35Z</time>
      </trkpt>
      <trkpt lat="42.013868711" lon="2.547271073">
        <ele>822.06</ele>
        <time>2013-10-20T16:47:43Z</time>
      </trkpt>
      <trkpt lat="42.013878267" lon="2.547192535">
        <ele>822.06</ele>
        <time>2013-10-20T16:47:52Z</time>
      </trkpt>
      <trkpt lat="42.013875249" lon="2.547192786">
        <ele>822.06</ele>
        <time>2013-10-20T16:48:13Z</time>
      </trkpt>
      <trkpt lat="42.013874327" lon="2.547199911">
        <ele>821.58</ele>
        <time>2013-10-20T16:48:28Z</time>
      </trkpt>
      <trkpt lat="42.013857144" lon="2.547192870">
        <ele>821.58</ele>
        <time>2013-10-20T16:48:33Z</time>
      </trkpt>
      <trkpt lat="42.013830154" lon="2.547157163">
        <ele>821.58</ele>
        <time>2013-10-20T16:48:40Z</time>
      </trkpt>
      <trkpt lat="42.013825293" lon="2.547166383">
        <ele>821.58</ele>
        <time>2013-10-20T16:48:51Z</time>
      </trkpt>
      <trkpt lat="42.013829316" lon="2.547154733">
        <ele>821.58</ele>
        <time>2013-10-20T16:49:04Z</time>
      </trkpt>
      <trkpt lat="42.013824119" lon="2.547172586">
        <ele>821.58</ele>
        <time>2013-10-20T16:49:19Z</time>
      </trkpt>
      <trkpt lat="42.013837614" lon="2.547154146">
        <ele>821.58</ele>
        <time>2013-10-20T16:49:39Z</time>
      </trkpt>
      <trkpt lat="42.013823533" lon="2.547161438">
        <ele>821.58</ele>
        <time>2013-10-20T16:49:56Z</time>
      </trkpt>
      <trkpt lat="42.013833423" lon="2.547155990">
        <ele>822.55</ele>
        <time>2013-10-20T16:50:14Z</time>
      </trkpt>
      <trkpt lat="42.013828646" lon="2.547168814">
        <ele>822.06</ele>
        <time>2013-10-20T16:50:34Z</time>
      </trkpt>
      <trkpt lat="42.013830825" lon="2.547161522">
        <ele>822.06</ele>
        <time>2013-10-20T16:50:49Z</time>
      </trkpt>
      <trkpt lat="42.013822946" lon="2.547178621">
        <ele>822.06</ele>
        <time>2013-10-20T16:51:02Z</time>
      </trkpt>
      <trkpt lat="42.013846248" lon="2.547202174">
        <ele>822.06</ele>
        <time>2013-10-20T16:51:06Z</time>
      </trkpt>
      <trkpt lat="42.013865191" lon="2.547219441">
        <ele>822.06</ele>
        <time>2013-10-20T16:51:08Z</time>
      </trkpt>
      <trkpt lat="42.013791765" lon="2.547307283">
        <ele>823.03</ele>
        <time>2013-10-20T16:51:13Z</time>
      </trkpt>
      <trkpt lat="42.013717585" lon="2.547324885">
        <ele>823.03</ele>
        <time>2013-10-20T16:51:15Z</time>
      </trkpt>
      <trkpt lat="42.013597221" lon="2.547386073">
        <ele>823.03</ele>
        <time>2013-10-20T16:51:18Z</time>
      </trkpt>
      <trkpt lat="42.013465206" lon="2.547456230">
        <ele>821.10</ele>
        <time>2013-10-20T16:51:21Z</time>
      </trkpt>
      <trkpt lat="42.013368060" lon="2.547514819">
        <ele>820.14</ele>
        <time>2013-10-20T16:51:23Z</time>
      </trkpt>
      <trkpt lat="42.012875372" lon="2.547831823">
        <ele>817.74</ele>
        <time>2013-10-20T16:51:32Z</time>
      </trkpt>
      <trkpt lat="42.012666411" lon="2.547886976">
        <ele>817.74</ele>
        <time>2013-10-20T16:51:36Z</time>
      </trkpt>
      <trkpt lat="42.012410847" lon="2.547815729">
        <ele>819.18</ele>
        <time>2013-10-20T16:51:43Z</time>
      </trkpt>
      <trkpt lat="42.012379415" lon="2.547795697">
        <ele>819.18</ele>
        <time>2013-10-20T16:51:44Z</time>
      </trkpt>
      <trkpt lat="42.012161737" lon="2.547580785">
        <ele>821.58</ele>
        <time>2013-10-20T16:51:52Z</time>
      </trkpt>
      <trkpt lat="42.011975658" lon="2.547400825">
        <ele>823.03</ele>
        <time>2013-10-20T16:51:59Z</time>
      </trkpt>
      <trkpt lat="42.011731577" lon="2.547220363">
        <ele>824.95</ele>
        <time>2013-10-20T16:52:08Z</time>
      </trkpt>
      <trkpt lat="42.011471738" lon="2.547094383">
        <ele>826.39</ele>
        <time>2013-10-20T16:52:17Z</time>
      </trkpt>
      <trkpt lat="42.011278452" lon="2.547058844">
        <ele>827.35</ele>
        <time>2013-10-20T16:52:24Z</time>
      </trkpt>
      <trkpt lat="42.011081058" lon="2.547104609">
        <ele>827.83</ele>
        <time>2013-10-20T16:52:31Z</time>
      </trkpt>
      <trkpt lat="42.010807556" lon="2.547300410">
        <ele>828.31</ele>
        <time>2013-10-20T16:52:41Z</time>
      </trkpt>
      <trkpt lat="42.010632626" lon="2.547478274">
        <ele>828.31</ele>
        <time>2013-10-20T16:52:48Z</time>
      </trkpt>
      <trkpt lat="42.010476806" lon="2.547727552">
        <ele>826.39</ele>
        <time>2013-10-20T16:52:54Z</time>
      </trkpt>
      <trkpt lat="42.010444201" lon="2.547781447">
        <ele>826.39</ele>
        <time>2013-10-20T16:52:55Z</time>
      </trkpt>
      <trkpt lat="42.010226271" lon="2.547885215">
        <ele>824.95</ele>
        <time>2013-10-20T16:53:00Z</time>
      </trkpt>
      <trkpt lat="42.010177405" lon="2.547749848">
        <ele>824.95</ele>
        <time>2013-10-20T16:53:03Z</time>
      </trkpt>
      <trkpt lat="42.010122420" lon="2.547413147">
        <ele>825.91</ele>
        <time>2013-10-20T16:53:10Z</time>
      </trkpt>
      <trkpt lat="42.010031476" lon="2.547028166">
        <ele>827.83</ele>
        <time>2013-10-20T16:53:19Z</time>
      </trkpt>
      <trkpt lat="42.009949585" lon="2.546713342">
        <ele>828.79</ele>
        <time>2013-10-20T16:53:27Z</time>
      </trkpt>
      <trkpt lat="42.009846739" lon="2.546527096">
        <ele>830.24</ele>
        <time>2013-10-20T16:53:33Z</time>
      </trkpt>
      <trkpt lat="42.009691171" lon="2.546379323">
        <ele>830.72</ele>
        <time>2013-10-20T16:53:39Z</time>
      </trkpt>
      <trkpt lat="42.009504757" lon="2.546245967">
        <ele>829.27</ele>
        <time>2013-10-20T16:53:45Z</time>
      </trkpt>
      <trkpt lat="42.009400486" lon="2.546151083">
        <ele>829.27</ele>
        <time>2013-10-20T16:53:48Z</time>
      </trkpt>
      <trkpt lat="42.009122123" lon="2.545912786">
        <ele>828.79</ele>
        <time>2013-10-20T16:53:56Z</time>
      </trkpt>
      <trkpt lat="42.009045764" lon="2.545892669">
        <ele>828.79</ele>
        <time>2013-10-20T16:53:58Z</time>
      </trkpt>
      <trkpt lat="42.008926741" lon="2.546017811">
        <ele>828.31</ele>
        <time>2013-10-20T16:54:03Z</time>
      </trkpt>
      <trkpt lat="42.008942164" lon="2.546082352">
        <ele>829.76</ele>
        <time>2013-10-20T16:54:05Z</time>
      </trkpt>
      <trkpt lat="42.009072335" lon="2.546375970">
        <ele>832.64</ele>
        <time>2013-10-20T16:54:15Z</time>
      </trkpt>
      <trkpt lat="42.009122123" lon="2.546489964">
        <ele>833.12</ele>
        <time>2013-10-20T16:54:19Z</time>
      </trkpt>
      <trkpt lat="42.009184736" lon="2.546657686">
        <ele>834.56</ele>
        <time>2013-10-20T16:54:25Z</time>
      </trkpt>
      <trkpt lat="42.009295377" lon="2.546940240">
        <ele>836.00</ele>
        <time>2013-10-20T16:54:35Z</time>
      </trkpt>
      <trkpt lat="42.009365198" lon="2.547218938">
        <ele>837.45</ele>
        <time>2013-10-20T16:54:44Z</time>
      </trkpt>
      <trkpt lat="42.009436612" lon="2.547558154">
        <ele>839.37</ele>
        <time>2013-10-20T16:54:54Z</time>
      </trkpt>
      <trkpt lat="42.009504673" lon="2.547910780">
        <ele>840.81</ele>
        <time>2013-10-20T16:55:04Z</time>
      </trkpt>
      <trkpt lat="42.009568124" lon="2.548221330">
        <ele>842.25</ele>
        <time>2013-10-20T16:55:13Z</time>
      </trkpt>
      <trkpt lat="42.009652782" lon="2.548631121">
        <ele>844.18</ele>
        <time>2013-10-20T16:55:25Z</time>
      </trkpt>
      <trkpt lat="42.009706174" lon="2.548911244">
        <ele>846.10</ele>
        <time>2013-10-20T16:55:34Z</time>
      </trkpt>
      <trkpt lat="42.009787227" lon="2.549250711">
        <ele>848.02</ele>
        <time>2013-10-20T16:55:44Z</time>
      </trkpt>
      <trkpt lat="42.009850175" lon="2.549552376">
        <ele>849.94</ele>
        <time>2013-10-20T16:55:54Z</time>
      </trkpt>
      <trkpt lat="42.009902059" lon="2.549790757">
        <ele>851.87</ele>
        <time>2013-10-20T16:56:02Z</time>
      </trkpt>
      <trkpt lat="42.009968276" lon="2.550076496">
        <ele>853.79</ele>
        <time>2013-10-20T16:56:11Z</time>
      </trkpt>
      <trkpt lat="42.010007588" lon="2.550287888">
        <ele>854.75</ele>
        <time>2013-10-20T16:56:18Z</time>
      </trkpt>
      <trkpt lat="42.010097944" lon="2.550523587">
        <ele>856.19</ele>
        <time>2013-10-20T16:56:26Z</time>
      </trkpt>
      <trkpt lat="42.010187547" lon="2.550729279">
        <ele>857.63</ele>
        <time>2013-10-20T16:56:33Z</time>
      </trkpt>
      <trkpt lat="42.010347558" lon="2.551026669">
        <ele>858.11</ele>
        <time>2013-10-20T16:56:42Z</time>
      </trkpt>
      <trkpt lat="42.010480075" lon="2.551261446">
        <ele>858.11</ele>
        <time>2013-10-20T16:56:49Z</time>
      </trkpt>
      <trkpt lat="42.010649893" lon="2.551592112">
        <ele>859.08</ele>
        <time>2013-10-20T16:56:58Z</time>
      </trkpt>
      <trkpt lat="42.010805293" lon="2.551979524">
        <ele>860.04</ele>
        <time>2013-10-20T16:57:07Z</time>
      </trkpt>
      <trkpt lat="42.010960694" lon="2.552362744">
        <ele>861.48</ele>
        <time>2013-10-20T16:57:16Z</time>
      </trkpt>
      <trkpt lat="42.011101510" lon="2.552768764">
        <ele>861.96</ele>
        <time>2013-10-20T16:57:25Z</time>
      </trkpt>
      <trkpt lat="42.011112825" lon="2.552821486">
        <ele>861.96</ele>
        <time>2013-10-20T16:57:26Z</time>
      </trkpt>
      <trkpt lat="42.011191783" lon="2.553071686">
        <ele>861.96</ele>
        <time>2013-10-20T16:57:31Z</time>
      </trkpt>
      <trkpt lat="42.011299071" lon="2.553241335">
        <ele>861.96</ele>
        <time>2013-10-20T16:57:37Z</time>
      </trkpt>
      <trkpt lat="42.011380543" lon="2.553265140">
        <ele>861.96</ele>
        <time>2013-10-20T16:57:43Z</time>
      </trkpt>
      <trkpt lat="42.011419603" lon="2.553309145">
        <ele>861.00</ele>
        <time>2013-10-20T16:57:47Z</time>
      </trkpt>
      <trkpt lat="42.011426979" lon="2.553371423">
        <ele>861.00</ele>
        <time>2013-10-20T16:57:51Z</time>
      </trkpt>
      <trkpt lat="42.011428488" lon="2.553576528">
        <ele>861.96</ele>
        <time>2013-10-20T16:57:58Z</time>
      </trkpt>
      <trkpt lat="42.011467799" lon="2.553838546">
        <ele>864.36</ele>
        <time>2013-10-20T16:58:06Z</time>
      </trkpt>
      <trkpt lat="42.011536950" lon="2.554073491">
        <ele>865.80</ele>
        <time>2013-10-20T16:58:13Z</time>
      </trkpt>
      <trkpt lat="42.011589839" lon="2.554344394">
        <ele>867.25</ele>
        <time>2013-10-20T16:58:20Z</time>
      </trkpt>
      <trkpt lat="42.011624876" lon="2.554687046">
        <ele>868.21</ele>
        <time>2013-10-20T16:58:29Z</time>
      </trkpt>
      <trkpt lat="42.011641807" lon="2.555005642">
        <ele>869.17</ele>
        <time>2013-10-20T16:58:37Z</time>
      </trkpt>
      <trkpt lat="42.011641388" lon="2.555098262">
        <ele>869.17</ele>
        <time>2013-10-20T16:58:39Z</time>
      </trkpt>
      <trkpt lat="42.011602580" lon="2.555334380">
        <ele>869.17</ele>
        <time>2013-10-20T16:58:43Z</time>
      </trkpt>
      <trkpt lat="42.011610291" lon="2.555535127">
        <ele>868.21</ele>
        <time>2013-10-20T16:58:46Z</time>
      </trkpt>
      <trkpt lat="42.011627055" lon="2.555589777">
        <ele>868.21</ele>
        <time>2013-10-20T16:58:47Z</time>
      </trkpt>
      <trkpt lat="42.011743731" lon="2.555884904">
        <ele>869.17</ele>
        <time>2013-10-20T16:58:54Z</time>
      </trkpt>
      <trkpt lat="42.011956715" lon="2.556174918">
        <ele>868.21</ele>
        <time>2013-10-20T16:59:01Z</time>
      </trkpt>
      <trkpt lat="42.012404141" lon="2.556616393">
        <ele>866.77</ele>
        <time>2013-10-20T16:59:10Z</time>
      </trkpt>
      <trkpt lat="42.012519141" lon="2.556787216">
        <ele>866.77</ele>
        <time>2013-10-20T16:59:13Z</time>
      </trkpt>
      <trkpt lat="42.012635566" lon="2.557193403">
        <ele>866.29</ele>
        <time>2013-10-20T16:59:20Z</time>
      </trkpt>
      <trkpt lat="42.012661130" lon="2.557583832">
        <ele>865.80</ele>
        <time>2013-10-20T16:59:26Z</time>
      </trkpt>
      <trkpt lat="42.012655347" lon="2.557929921">
        <ele>865.80</ele>
        <time>2013-10-20T16:59:33Z</time>
      </trkpt>
      <trkpt lat="42.012688707" lon="2.558007202">
        <ele>865.80</ele>
        <time>2013-10-20T16:59:37Z</time>
      </trkpt>
      <trkpt lat="42.012807897" lon="2.557992198">
        <ele>864.84</ele>
        <time>2013-10-20T16:59:44Z</time>
      </trkpt>
      <trkpt lat="42.012830948" lon="2.557986247">
        <ele>864.84</ele>
        <time>2013-10-20T16:59:45Z</time>
      </trkpt>
      <trkpt lat="42.012899595" lon="2.557947858">
        <ele>863.40</ele>
        <time>2013-10-20T16:59:48Z</time>
      </trkpt>
      <trkpt lat="42.012944103" lon="2.557921874">
        <ele>863.40</ele>
        <time>2013-10-20T16:59:50Z</time>
      </trkpt>
      <trkpt lat="42.013006465" lon="2.558033018">
        <ele>862.44</ele>
        <time>2013-10-20T16:59:56Z</time>
      </trkpt>
      <trkpt lat="42.013006213" lon="2.558061349">
        <ele>862.44</ele>
        <time>2013-10-20T16:59:57Z</time>
      </trkpt>
      <trkpt lat="42.012978134" lon="2.558331246">
        <ele>861.48</ele>
        <time>2013-10-20T17:00:04Z</time>
      </trkpt>
      <trkpt lat="42.012906050" lon="2.558511373">
        <ele>860.52</ele>
        <time>2013-10-20T17:00:08Z</time>
      </trkpt>
      <trkpt lat="42.012787278" lon="2.558736511">
        <ele>860.04</ele>
        <time>2013-10-20T17:00:13Z</time>
      </trkpt>
      <trkpt lat="42.012504724" lon="2.558971623">
        <ele>860.04</ele>
        <time>2013-10-20T17:00:22Z</time>
      </trkpt>
      <trkpt lat="42.012368518" lon="2.559119145">
        <ele>860.04</ele>
        <time>2013-10-20T17:00:27Z</time>
      </trkpt>
      <trkpt lat="42.012278077" lon="2.559402956">
        <ele>860.04</ele>
        <time>2013-10-20T17:00:33Z</time>
      </trkpt>
      <trkpt lat="42.012017065" lon="2.559591884">
        <ele>859.08</ele>
        <time>2013-10-20T17:00:40Z</time>
      </trkpt>
      <trkpt lat="42.011715903" lon="2.559898243">
        <ele>860.52</ele>
        <time>2013-10-20T17:00:48Z</time>
      </trkpt>
      <trkpt lat="42.011401414" lon="2.560223293">
        <ele>861.00</ele>
        <time>2013-10-20T17:00:56Z</time>
      </trkpt>
      <trkpt lat="42.011122381" lon="2.560463099">
        <ele>861.48</ele>
        <time>2013-10-20T17:01:04Z</time>
      </trkpt>
      <trkpt lat="42.010946444" lon="2.560603831">
        <ele>861.96</ele>
        <time>2013-10-20T17:01:09Z</time>
      </trkpt>
      <trkpt lat="42.010653748" lon="2.560844392">
        <ele>862.92</ele>
        <time>2013-10-20T17:01:17Z</time>
      </trkpt>
      <trkpt lat="42.010398268" lon="2.561183440">
        <ele>862.44</ele>
        <time>2013-10-20T17:01:25Z</time>
      </trkpt>
      <trkpt lat="42.010208502" lon="2.561543275">
        <ele>861.48</ele>
        <time>2013-10-20T17:01:32Z</time>
      </trkpt>
      <trkpt lat="42.010082941" lon="2.561872433">
        <ele>861.00</ele>
        <time>2013-10-20T17:01:39Z</time>
      </trkpt>
      <trkpt lat="42.009941622" lon="2.562151634">
        <ele>860.52</ele>
        <time>2013-10-20T17:01:46Z</time>
      </trkpt>
      <trkpt lat="42.009925864" lon="2.562190107">
        <ele>859.56</ele>
        <time>2013-10-20T17:01:51Z</time>
      </trkpt>
      <trkpt lat="42.009924690" lon="2.562216593">
        <ele>859.08</ele>
        <time>2013-10-20T17:02:04Z</time>
      </trkpt>
      <trkpt lat="42.009921841" lon="2.562219611">
        <ele>859.08</ele>
        <time>2013-10-20T17:02:15Z</time>
      </trkpt>
      <trkpt lat="42.009924858" lon="2.562220868">
        <ele>859.08</ele>
        <time>2013-10-20T17:02:25Z</time>
      </trkpt>
      <trkpt lat="42.009922763" lon="2.562225478">
        <ele>859.08</ele>
        <time>2013-10-20T17:02:29Z</time>
      </trkpt>
      <trkpt lat="42.009862413" lon="2.562336874">
        <ele>859.08</ele>
        <time>2013-10-20T17:02:36Z</time>
      </trkpt>
      <trkpt lat="42.009774990" lon="2.562541141">
        <ele>859.08</ele>
        <time>2013-10-20T17:02:44Z</time>
      </trkpt>
      <trkpt lat="42.009724531" lon="2.562684136">
        <ele>859.08</ele>
        <time>2013-10-20T17:02:50Z</time>
      </trkpt>
      <trkpt lat="42.009653368" lon="2.562883877">
        <ele>859.08</ele>
        <time>2013-10-20T17:02:56Z</time>
      </trkpt>
      <trkpt lat="42.009603664" lon="2.563126114">
        <ele>858.59</ele>
        <time>2013-10-20T17:03:01Z</time>
      </trkpt>
      <trkpt lat="42.009535938" lon="2.563483183">
        <ele>856.67</ele>
        <time>2013-10-20T17:03:07Z</time>
      </trkpt>
      <trkpt lat="42.009525879" lon="2.563558369">
        <ele>856.19</ele>
        <time>2013-10-20T17:03:08Z</time>
      </trkpt>
      <trkpt lat="42.009514480" lon="2.563705722">
        <ele>855.71</ele>
        <time>2013-10-20T17:03:10Z</time>
      </trkpt>
      <trkpt lat="42.009522191" lon="2.564008477">
        <ele>854.75</ele>
        <time>2013-10-20T17:03:15Z</time>
      </trkpt>
      <trkpt lat="42.009513474" lon="2.564326402">
        <ele>852.35</ele>
        <time>2013-10-20T17:03:21Z</time>
      </trkpt>
      <trkpt lat="42.009583212" lon="2.564299916">
        <ele>850.90</ele>
        <time>2013-10-20T17:03:25Z</time>
      </trkpt>
      <trkpt lat="42.009623529" lon="2.564244008">
        <ele>849.94</ele>
        <time>2013-10-20T17:03:27Z</time>
      </trkpt>
      <trkpt lat="42.009643561" lon="2.564202602">
        <ele>849.46</ele>
        <time>2013-10-20T17:03:28Z</time>
      </trkpt>
      <trkpt lat="42.009800974" lon="2.563813011">
        <ele>845.62</ele>
        <time>2013-10-20T17:03:35Z</time>
      </trkpt>
      <trkpt lat="42.009863000" lon="2.563727012">
        <ele>845.14</ele>
        <time>2013-10-20T17:03:37Z</time>
      </trkpt>
      <trkpt lat="42.009992751" lon="2.563609163">
        <ele>841.77</ele>
        <time>2013-10-20T17:03:40Z</time>
      </trkpt>
      <trkpt lat="42.010229121" lon="2.563383271">
        <ele>837.45</ele>
        <time>2013-10-20T17:03:45Z</time>
      </trkpt>
      <trkpt lat="42.010317550" lon="2.563313785">
        <ele>835.52</ele>
        <time>2013-10-20T17:03:47Z</time>
      </trkpt>
      <trkpt lat="42.010394664" lon="2.563234073">
        <ele>834.56</ele>
        <time>2013-10-20T17:03:49Z</time>
      </trkpt>
      <trkpt lat="42.010589711" lon="2.562992842">
        <ele>830.72</ele>
        <time>2013-10-20T17:03:55Z</time>
      </trkpt>
      <trkpt lat="42.010655257" lon="2.562910867">
        <ele>830.24</ele>
        <time>2013-10-20T17:03:57Z</time>
      </trkpt>
      <trkpt lat="42.010715523" lon="2.562822186">
        <ele>828.31</ele>
        <time>2013-10-20T17:03:59Z</time>
      </trkpt>
      <trkpt lat="42.010843431" lon="2.562416753">
        <ele>826.87</ele>
        <time>2013-10-20T17:04:06Z</time>
      </trkpt>
      <trkpt lat="42.010877713" lon="2.562271076">
        <ele>826.87</ele>
        <time>2013-10-20T17:04:09Z</time>
      </trkpt>
      <trkpt lat="42.010978296" lon="2.561991288">
        <ele>825.43</ele>
        <time>2013-10-20T17:04:14Z</time>
      </trkpt>
      <trkpt lat="42.011118357" lon="2.561847371">
        <ele>822.55</ele>
        <time>2013-10-20T17:04:18Z</time>
      </trkpt>
      <trkpt lat="42.011201170" lon="2.561959437">
        <ele>819.66</ele>
        <time>2013-10-20T17:04:22Z</time>
      </trkpt>
      <trkpt lat="42.011236458" lon="2.562220030">
        <ele>817.74</ele>
        <time>2013-10-20T17:04:26Z</time>
      </trkpt>
      <trkpt lat="42.011220700" lon="2.562372581">
        <ele>816.30</ele>
        <time>2013-10-20T17:04:29Z</time>
      </trkpt>
      <trkpt lat="42.011207541" lon="2.562453969">
        <ele>814.85</ele>
        <time>2013-10-20T17:04:31Z</time>
      </trkpt>
      <trkpt lat="42.011213157" lon="2.562641724">
        <ele>813.89</ele>
        <time>2013-10-20T17:04:34Z</time>
      </trkpt>
      <trkpt lat="42.011270992" lon="2.562816486">
        <ele>811.97</ele>
        <time>2013-10-20T17:04:37Z</time>
      </trkpt>
      <trkpt lat="42.011363444" lon="2.563004492">
        <ele>809.09</ele>
        <time>2013-10-20T17:04:41Z</time>
      </trkpt>
      <trkpt lat="42.011319942" lon="2.563256871">
        <ele>806.20</ele>
        <time>2013-10-20T17:04:48Z</time>
      </trkpt>
      <trkpt lat="42.011292868" lon="2.563466838">
        <ele>802.36</ele>
        <time>2013-10-20T17:04:52Z</time>
      </trkpt>
      <trkpt lat="42.011261185" lon="2.563732377">
        <ele>798.99</ele>
        <time>2013-10-20T17:04:57Z</time>
      </trkpt>
      <trkpt lat="42.011222125" lon="2.563967825">
        <ele>797.55</ele>
        <time>2013-10-20T17:05:01Z</time>
      </trkpt>
      <trkpt lat="42.011197482" lon="2.564071425">
        <ele>796.11</ele>
        <time>2013-10-20T17:05:03Z</time>
      </trkpt>
      <trkpt lat="42.011166386" lon="2.564395804">
        <ele>793.71</ele>
        <time>2013-10-20T17:05:08Z</time>
      </trkpt>
      <trkpt lat="42.011159848" lon="2.564467134">
        <ele>793.22</ele>
        <time>2013-10-20T17:05:09Z</time>
      </trkpt>
      <trkpt lat="42.011044680" lon="2.564875333">
        <ele>789.38</ele>
        <time>2013-10-20T17:05:15Z</time>
      </trkpt>
      <trkpt lat="42.011060187" lon="2.565148499">
        <ele>786.02</ele>
        <time>2013-10-20T17:05:20Z</time>
      </trkpt>
      <trkpt lat="42.011099582" lon="2.565373553">
        <ele>782.65</ele>
        <time>2013-10-20T17:05:24Z</time>
      </trkpt>
      <trkpt lat="42.011200332" lon="2.565592405">
        <ele>779.77</ele>
        <time>2013-10-20T17:05:29Z</time>
      </trkpt>
      <trkpt lat="42.011220533" lon="2.565864817">
        <ele>776.40</ele>
        <time>2013-10-20T17:05:34Z</time>
      </trkpt>
      <trkpt lat="42.011197818" lon="2.565981744">
        <ele>775.44</ele>
        <time>2013-10-20T17:05:37Z</time>
      </trkpt>
      <trkpt lat="42.011148700" lon="2.566243092">
        <ele>773.52</ele>
        <time>2013-10-20T17:05:42Z</time>
      </trkpt>
      <trkpt lat="42.011084075" lon="2.566519360">
        <ele>769.67</ele>
        <time>2013-10-20T17:05:47Z</time>
      </trkpt>
      <trkpt lat="42.010983492" lon="2.566757154">
        <ele>766.31</ele>
        <time>2013-10-20T17:05:52Z</time>
      </trkpt>
      <trkpt lat="42.010997909" lon="2.566909202">
        <ele>765.35</ele>
        <time>2013-10-20T17:05:55Z</time>
      </trkpt>
      <trkpt lat="42.011144593" lon="2.567399627">
        <ele>762.94</ele>
        <time>2013-10-20T17:06:03Z</time>
      </trkpt>
      <trkpt lat="42.011252216" lon="2.567723755">
        <ele>759.58</ele>
        <time>2013-10-20T17:06:08Z</time>
      </trkpt>
      <trkpt lat="42.011284989" lon="2.568000861">
        <ele>757.18</ele>
        <time>2013-10-20T17:06:13Z</time>
      </trkpt>
      <trkpt lat="42.011286247" lon="2.568121309">
        <ele>755.25</ele>
        <time>2013-10-20T17:06:15Z</time>
      </trkpt>
      <trkpt lat="42.011258167" lon="2.568309399">
        <ele>753.81</ele>
        <time>2013-10-20T17:06:18Z</time>
      </trkpt>
      <trkpt lat="42.011248025" lon="2.568604777">
        <ele>752.85</ele>
        <time>2013-10-20T17:06:22Z</time>
      </trkpt>
      <trkpt lat="42.011220700" lon="2.569049689">
        <ele>750.93</ele>
        <time>2013-10-20T17:06:28Z</time>
      </trkpt>
      <trkpt lat="42.011159261" lon="2.569400052">
        <ele>750.93</ele>
        <time>2013-10-20T17:06:34Z</time>
      </trkpt>
      <trkpt lat="42.011117435" lon="2.569709596">
        <ele>750.45</ele>
        <time>2013-10-20T17:06:40Z</time>
      </trkpt>
      <trkpt lat="42.011087428" lon="2.569983181">
        <ele>749.97</ele>
        <time>2013-10-20T17:06:46Z</time>
      </trkpt>
      <trkpt lat="42.011081309" lon="2.570243775">
        <ele>749.49</ele>
        <time>2013-10-20T17:06:52Z</time>
      </trkpt>
      <trkpt lat="42.011089188" lon="2.570572764">
        <ele>749.00</ele>
        <time>2013-10-20T17:06:58Z</time>
      </trkpt>
      <trkpt lat="42.011125063" lon="2.570898653">
        <ele>746.60</ele>
        <time>2013-10-20T17:07:04Z</time>
      </trkpt>
      <trkpt lat="42.011123805" lon="2.571025052">
        <ele>745.64</ele>
        <time>2013-10-20T17:07:06Z</time>
      </trkpt>
      <trkpt lat="42.011027330" lon="2.571491588">
        <ele>742.76</ele>
        <time>2013-10-20T17:07:14Z</time>
      </trkpt>
      <trkpt lat="42.010995143" lon="2.571659059">
        <ele>741.79</ele>
        <time>2013-10-20T17:07:17Z</time>
      </trkpt>
      <trkpt lat="42.010869247" lon="2.572151328">
        <ele>739.39</ele>
        <time>2013-10-20T17:07:24Z</time>
      </trkpt>
      <trkpt lat="42.010848544" lon="2.572220982">
        <ele>739.39</ele>
        <time>2013-10-20T17:07:25Z</time>
      </trkpt>
      <trkpt lat="42.010733125" lon="2.572627085">
        <ele>737.95</ele>
        <time>2013-10-20T17:07:31Z</time>
      </trkpt>
      <trkpt lat="42.010643187" lon="2.572895390">
        <ele>736.99</ele>
        <time>2013-10-20T17:07:35Z</time>
      </trkpt>
      <trkpt lat="42.010518632" lon="2.573217925">
        <ele>736.99</ele>
        <time>2013-10-20T17:07:41Z</time>
      </trkpt>
      <trkpt lat="42.010437495" lon="2.573367626">
        <ele>736.03</ele>
        <time>2013-10-20T17:07:44Z</time>
      </trkpt>
      <trkpt lat="42.010114038" lon="2.573802312">
        <ele>733.62</ele>
        <time>2013-10-20T17:07:52Z</time>
      </trkpt>
      <trkpt lat="42.009918572" lon="2.574156950">
        <ele>731.22</ele>
        <time>2013-10-20T17:07:57Z</time>
      </trkpt>
      <trkpt lat="42.009836848" lon="2.574282175">
        <ele>730.26</ele>
        <time>2013-10-20T17:07:59Z</time>
      </trkpt>
      <trkpt lat="42.009792927" lon="2.574346716">
        <ele>729.30</ele>
        <time>2013-10-20T17:08:00Z</time>
      </trkpt>
      <trkpt lat="42.009412388" lon="2.574899670">
        <ele>726.41</ele>
        <time>2013-10-20T17:08:08Z</time>
      </trkpt>
      <trkpt lat="42.009059846" lon="2.575485398">
        <ele>724.49</ele>
        <time>2013-10-20T17:08:15Z</time>
      </trkpt>
      <trkpt lat="42.008915845" lon="2.575698047">
        <ele>723.05</ele>
        <time>2013-10-20T17:08:18Z</time>
      </trkpt>
      <trkpt lat="42.008714846" lon="2.575960819">
        <ele>721.13</ele>
        <time>2013-10-20T17:08:23Z</time>
      </trkpt>
      <trkpt lat="42.008630105" lon="2.576121500">
        <ele>718.24</ele>
        <time>2013-10-20T17:08:28Z</time>
      </trkpt>
      <trkpt lat="42.008603116" lon="2.576341525">
        <ele>715.84</ele>
        <time>2013-10-20T17:08:32Z</time>
      </trkpt>
      <trkpt lat="42.008596745" lon="2.576420734">
        <ele>714.88</ele>
        <time>2013-10-20T17:08:33Z</time>
      </trkpt>
      <trkpt lat="42.008540503" lon="2.576714352">
        <ele>711.99</ele>
        <time>2013-10-20T17:08:37Z</time>
      </trkpt>
      <trkpt lat="42.008478309" lon="2.576997074">
        <ele>709.11</ele>
        <time>2013-10-20T17:08:42Z</time>
      </trkpt>
      <trkpt lat="42.008418295" lon="2.577174184">
        <ele>705.26</ele>
        <time>2013-10-20T17:08:46Z</time>
      </trkpt>
      <trkpt lat="42.008384013" lon="2.577351880">
        <ele>701.90</ele>
        <time>2013-10-20T17:08:50Z</time>
      </trkpt>
      <trkpt lat="42.008377810" lon="2.577391778">
        <ele>701.90</ele>
        <time>2013-10-20T17:08:51Z</time>
      </trkpt>
      <trkpt lat="42.008364818" lon="2.577459420">
        <ele>700.46</ele>
        <time>2013-10-20T17:08:53Z</time>
      </trkpt>
      <trkpt lat="42.008326261" lon="2.577580119">
        <ele>699.02</ele>
        <time>2013-10-20T17:08:59Z</time>
      </trkpt>
      <trkpt lat="42.008216710" lon="2.577733592">
        <ele>696.61</ele>
        <time>2013-10-20T17:09:05Z</time>
      </trkpt>
      <trkpt lat="42.008162731" lon="2.577920341">
        <ele>694.21</ele>
        <time>2013-10-20T17:09:09Z</time>
      </trkpt>
      <trkpt lat="42.008100537" lon="2.578161404">
        <ele>690.84</ele>
        <time>2013-10-20T17:09:14Z</time>
      </trkpt>
      <trkpt lat="42.008015377" lon="2.578315380">
        <ele>688.44</ele>
        <time>2013-10-20T17:09:18Z</time>
      </trkpt>
      <trkpt lat="42.007919572" lon="2.578550157">
        <ele>687.96</ele>
        <time>2013-10-20T17:09:22Z</time>
      </trkpt>
      <trkpt lat="42.007850840" lon="2.578785856">
        <ele>686.04</ele>
        <time>2013-10-20T17:09:25Z</time>
      </trkpt>
      <trkpt lat="42.007765009" lon="2.579088443">
        <ele>684.60</ele>
        <time>2013-10-20T17:09:29Z</time>
      </trkpt>
      <trkpt lat="42.007712622" lon="2.579226576">
        <ele>683.63</ele>
        <time>2013-10-20T17:09:31Z</time>
      </trkpt>
      <trkpt lat="42.007638862" lon="2.579413996">
        <ele>681.23</ele>
        <time>2013-10-20T17:09:34Z</time>
      </trkpt>
      <trkpt lat="42.007543895" lon="2.579721695">
        <ele>678.35</ele>
        <time>2013-10-20T17:09:39Z</time>
      </trkpt>
      <trkpt lat="42.007452113" lon="2.579869804">
        <ele>676.42</ele>
        <time>2013-10-20T17:09:42Z</time>
      </trkpt>
      <trkpt lat="42.007355889" lon="2.580125284">
        <ele>673.06</ele>
        <time>2013-10-20T17:09:48Z</time>
      </trkpt>
      <trkpt lat="42.007323031" lon="2.580266603">
        <ele>670.66</ele>
        <time>2013-10-20T17:09:53Z</time>
      </trkpt>
      <trkpt lat="42.007273578" lon="2.580466847">
        <ele>667.77</ele>
        <time>2013-10-20T17:09:59Z</time>
      </trkpt>
      <trkpt lat="42.007262430" lon="2.580500793">
        <ele>667.77</ele>
        <time>2013-10-20T17:10:00Z</time>
      </trkpt>
      <trkpt lat="42.007159165" lon="2.580682345">
        <ele>664.89</ele>
        <time>2013-10-20T17:10:06Z</time>
      </trkpt>
      <trkpt lat="42.007056655" lon="2.580854090">
        <ele>663.93</ele>
        <time>2013-10-20T17:10:10Z</time>
      </trkpt>
      <trkpt lat="42.006912151" lon="2.581132873">
        <ele>660.08</ele>
        <time>2013-10-20T17:10:17Z</time>
      </trkpt>
      <trkpt lat="42.006651473" lon="2.581529588">
        <ele>657.20</ele>
        <time>2013-10-20T17:10:25Z</time>
      </trkpt>
      <trkpt lat="42.006554076" lon="2.581675768">
        <ele>656.72</ele>
        <time>2013-10-20T17:10:28Z</time>
      </trkpt>
      <trkpt lat="42.006373362" lon="2.581952623">
        <ele>655.28</ele>
        <time>2013-10-20T17:10:35Z</time>
      </trkpt>
      <trkpt lat="42.006174711" lon="2.582140126">
        <ele>653.83</ele>
        <time>2013-10-20T17:10:40Z</time>
      </trkpt>
      <trkpt lat="42.006097849" lon="2.582201230">
        <ele>653.35</ele>
        <time>2013-10-20T17:10:42Z</time>
      </trkpt>
      <trkpt lat="42.005935240" lon="2.582335340">
        <ele>651.91</ele>
        <time>2013-10-20T17:10:48Z</time>
      </trkpt>
      <trkpt lat="42.005781264" lon="2.582469786">
        <ele>650.47</ele>
        <time>2013-10-20T17:10:52Z</time>
      </trkpt>
      <trkpt lat="42.005507427" lon="2.582753178">
        <ele>648.07</ele>
        <time>2013-10-20T17:10:57Z</time>
      </trkpt>
      <trkpt lat="42.005322523" lon="2.582966665">
        <ele>645.66</ele>
        <time>2013-10-20T17:11:01Z</time>
      </trkpt>
      <trkpt lat="42.005253037" lon="2.583073367">
        <ele>644.22</ele>
        <time>2013-10-20T17:11:03Z</time>
      </trkpt>
      <trkpt lat="42.005140635" lon="2.583255925">
        <ele>639.41</ele>
        <time>2013-10-20T17:11:07Z</time>
      </trkpt>
      <trkpt lat="42.005015913" lon="2.583468490">
        <ele>636.05</ele>
        <time>2013-10-20T17:11:11Z</time>
      </trkpt>
      <trkpt lat="42.004885993" lon="2.583684827">
        <ele>632.68</ele>
        <time>2013-10-20T17:11:16Z</time>
      </trkpt>
      <trkpt lat="42.004854393" lon="2.583727491">
        <ele>631.72</ele>
        <time>2013-10-20T17:11:17Z</time>
      </trkpt>
      <trkpt lat="42.004706285" lon="2.583902924">
        <ele>627.40</ele>
        <time>2013-10-20T17:11:22Z</time>
      </trkpt>
      <trkpt lat="42.004663202" lon="2.583957909">
        <ele>626.44</ele>
        <time>2013-10-20T17:11:24Z</time>
      </trkpt>
      <trkpt lat="42.004573683" lon="2.584022785">
        <ele>624.99</ele>
        <time>2013-10-20T17:11:27Z</time>
      </trkpt>
      <trkpt lat="42.004396574" lon="2.584232668">
        <ele>621.15</ele>
        <time>2013-10-20T17:11:32Z</time>
      </trkpt>
      <trkpt lat="42.004339996" lon="2.584364432">
        <ele>619.23</ele>
        <time>2013-10-20T17:11:35Z</time>
      </trkpt>
      <trkpt lat="42.004282077" lon="2.584602226">
        <ele>614.90</ele>
        <time>2013-10-20T17:11:39Z</time>
      </trkpt>
      <trkpt lat="42.004227343" lon="2.584723680">
        <ele>613.94</ele>
        <time>2013-10-20T17:11:41Z</time>
      </trkpt>
      <trkpt lat="42.003973036" lon="2.585036325">
        <ele>612.02</ele>
        <time>2013-10-20T17:11:47Z</time>
      </trkpt>
      <trkpt lat="42.003897851" lon="2.585135650">
        <ele>611.54</ele>
        <time>2013-10-20T17:11:49Z</time>
      </trkpt>
      <trkpt lat="42.003769775" lon="2.585387946">
        <ele>610.09</ele>
        <time>2013-10-20T17:11:53Z</time>
      </trkpt>
      <trkpt lat="42.003647315" lon="2.585516859">
        <ele>609.13</ele>
        <time>2013-10-20T17:11:56Z</time>
      </trkpt>
      <trkpt lat="42.003498788" lon="2.585587351">
        <ele>608.65</ele>
        <time>2013-10-20T17:11:59Z</time>
      </trkpt>
      <trkpt lat="42.003278763" lon="2.585776615">
        <ele>606.25</ele>
        <time>2013-10-20T17:12:04Z</time>
      </trkpt>
      <trkpt lat="42.003125123" lon="2.585932937">
        <ele>602.88</ele>
        <time>2013-10-20T17:12:09Z</time>
      </trkpt>
      <trkpt lat="42.002915994" lon="2.586056486">
        <ele>600.96</ele>
        <time>2013-10-20T17:12:14Z</time>
      </trkpt>
      <trkpt lat="42.002869223" lon="2.586081883">
        <ele>600.00</ele>
        <time>2013-10-20T17:12:15Z</time>
      </trkpt>
      <trkpt lat="42.002776017" lon="2.586118596">
        <ele>599.52</ele>
        <time>2013-10-20T17:12:17Z</time>
      </trkpt>
      <trkpt lat="42.002612989" lon="2.586132259">
        <ele>599.04</ele>
        <time>2013-10-20T17:12:23Z</time>
      </trkpt>
      <trkpt lat="42.002615419" lon="2.586131840">
        <ele>599.52</ele>
        <time>2013-10-20T17:12:32Z</time>
      </trkpt>
      <trkpt lat="42.002617934" lon="2.586122787">
        <ele>599.04</ele>
        <time>2013-10-20T17:12:47Z</time>
      </trkpt>
      <trkpt lat="42.002625897" lon="2.586134438">
        <ele>599.04</ele>
        <time>2013-10-20T17:13:05Z</time>
      </trkpt>
      <trkpt lat="42.002625561" lon="2.586139216">
        <ele>599.04</ele>
        <time>2013-10-20T17:13:15Z</time>
      </trkpt>
      <trkpt lat="42.002627405" lon="2.586155057">
        <ele>599.04</ele>
        <time>2013-10-20T17:13:27Z</time>
      </trkpt>
      <trkpt lat="42.002616509" lon="2.586151872">
        <ele>599.04</ele>
        <time>2013-10-20T17:13:36Z</time>
      </trkpt>
      <trkpt lat="42.002611480" lon="2.586155225">
        <ele>599.04</ele>
        <time>2013-10-20T17:13:38Z</time>
      </trkpt>
      <trkpt lat="42.002479297" lon="2.586122452">
        <ele>599.04</ele>
        <time>2013-10-20T17:13:47Z</time>
      </trkpt>
      <trkpt lat="42.002360107" lon="2.586104766">
        <ele>598.56</ele>
        <time>2013-10-20T17:13:54Z</time>
      </trkpt>
      <trkpt lat="42.002253656" lon="2.586157404">
        <ele>598.56</ele>
        <time>2013-10-20T17:14:02Z</time>
      </trkpt>
      <trkpt lat="42.002122731" lon="2.586273242">
        <ele>598.08</ele>
        <time>2013-10-20T17:14:09Z</time>
      </trkpt>
      <trkpt lat="42.001932965" lon="2.586493938">
        <ele>597.60</ele>
        <time>2013-10-20T17:14:18Z</time>
      </trkpt>
      <trkpt lat="42.001880494" lon="2.586561580">
        <ele>597.60</ele>
        <time>2013-10-20T17:14:20Z</time>
      </trkpt>
      <trkpt lat="42.001617051" lon="2.586858718">
        <ele>595.67</ele>
        <time>2013-10-20T17:14:28Z</time>
      </trkpt>
      <trkpt lat="42.001474139" lon="2.587017052">
        <ele>593.27</ele>
        <time>2013-10-20T17:14:34Z</time>
      </trkpt>
      <trkpt lat="42.001442372" lon="2.587065835">
        <ele>592.79</ele>
        <time>2013-10-20T17:14:38Z</time>
      </trkpt>
      <trkpt lat="42.001440779" lon="2.587123000">
        <ele>591.83</ele>
        <time>2013-10-20T17:14:42Z</time>
      </trkpt>
      <trkpt lat="42.001470200" lon="2.587161221">
        <ele>590.39</ele>
        <time>2013-10-20T17:14:49Z</time>
      </trkpt>
      <trkpt lat="42.001458549" lon="2.587154767">
        <ele>590.39</ele>
        <time>2013-10-20T17:15:09Z</time>
      </trkpt>
      <trkpt lat="42.001465590" lon="2.587142278">
        <ele>590.39</ele>
        <time>2013-10-20T17:15:23Z</time>
      </trkpt>
      <trkpt lat="42.001476319" lon="2.587138087">
        <ele>590.39</ele>
        <time>2013-10-20T17:15:39Z</time>
      </trkpt>
      <trkpt lat="42.001467853" lon="2.587160048">
        <ele>590.39</ele>
        <time>2013-10-20T17:15:51Z</time>
      </trkpt>
      <trkpt lat="42.001468859" lon="2.587187876">
        <ele>590.39</ele>
        <time>2013-10-20T17:16:06Z</time>
      </trkpt>
      <trkpt lat="42.001490065" lon="2.587168094">
        <ele>589.91</ele>
        <time>2013-10-20T17:16:22Z</time>
      </trkpt>
      <trkpt lat="42.001489478" lon="2.587163065">
        <ele>589.91</ele>
        <time>2013-10-20T17:16:36Z</time>
      </trkpt>
      <trkpt lat="42.001491993" lon="2.587190223">
        <ele>589.91</ele>
        <time>2013-10-20T17:16:46Z</time>
      </trkpt>
      <trkpt lat="42.001493418" lon="2.587222241">
        <ele>588.95</ele>
        <time>2013-10-20T17:16:52Z</time>
      </trkpt>
      <trkpt lat="42.001481599" lon="2.587237748">
        <ele>588.95</ele>
        <time>2013-10-20T17:17:02Z</time>
      </trkpt>
      <trkpt lat="42.001489562" lon="2.587244705">
        <ele>588.46</ele>
        <time>2013-10-20T17:17:18Z</time>
      </trkpt>
      <trkpt lat="42.001479169" lon="2.587231545">
        <ele>588.46</ele>
        <time>2013-10-20T17:17:35Z</time>
      </trkpt>
      <trkpt lat="42.001475481" lon="2.587218805">
        <ele>588.46</ele>
        <time>2013-10-20T17:17:46Z</time>
      </trkpt>
      <trkpt lat="42.001480091" lon="2.587267671">
        <ele>587.98</ele>
        <time>2013-10-20T17:17:56Z</time>
      </trkpt>
      <trkpt lat="42.001492663" lon="2.587250237">
        <ele>587.98</ele>
        <time>2013-10-20T17:18:10Z</time>
      </trkpt>
      <trkpt lat="42.001495262" lon="2.587252668">
        <ele>587.98</ele>
        <time>2013-10-20T17:18:21Z</time>
      </trkpt>
      <trkpt lat="42.001492831" lon="2.587264151">
        <ele>587.98</ele>
        <time>2013-10-20T17:18:34Z</time>
      </trkpt>
      <trkpt lat="42.001490652" lon="2.587269599">
        <ele>587.98</ele>
        <time>2013-10-20T17:18:36Z</time>
      </trkpt>
      <trkpt lat="42.001393925" lon="2.587416282">
        <ele>586.54</ele>
        <time>2013-10-20T17:18:44Z</time>
      </trkpt>
      <trkpt lat="42.001278003" lon="2.587661621">
        <ele>585.10</ele>
        <time>2013-10-20T17:18:50Z</time>
      </trkpt>
      <trkpt lat="42.001254450" lon="2.587703949">
        <ele>584.62</ele>
        <time>2013-10-20T17:18:51Z</time>
      </trkpt>
      <trkpt lat="42.001178510" lon="2.587963034">
        <ele>583.66</ele>
        <time>2013-10-20T17:18:57Z</time>
      </trkpt>
      <trkpt lat="42.001169625" lon="2.588220275">
        <ele>581.73</ele>
        <time>2013-10-20T17:19:02Z</time>
      </trkpt>
      <trkpt lat="42.001176163" lon="2.588496123">
        <ele>578.37</ele>
        <time>2013-10-20T17:19:07Z</time>
      </trkpt>
      <trkpt lat="42.001179851" lon="2.588740204">
        <ele>574.53</ele>
        <time>2013-10-20T17:19:12Z</time>
      </trkpt>
      <trkpt lat="42.001124614" lon="2.588984620">
        <ele>571.64</ele>
        <time>2013-10-20T17:19:17Z</time>
      </trkpt>
      <trkpt lat="42.000984217" lon="2.589147816">
        <ele>569.24</ele>
        <time>2013-10-20T17:19:21Z</time>
      </trkpt>
      <trkpt lat="42.000910373" lon="2.589204310">
        <ele>567.80</ele>
        <time>2013-10-20T17:19:23Z</time>
      </trkpt>
      <trkpt lat="42.000894531" lon="2.589340600">
        <ele>566.83</ele>
        <time>2013-10-20T17:19:27Z</time>
      </trkpt>
      <trkpt lat="42.001021433" lon="2.589342444">
        <ele>565.39</ele>
        <time>2013-10-20T17:19:31Z</time>
      </trkpt>
      <trkpt lat="42.001164763" lon="2.589381923">
        <ele>562.99</ele>
        <time>2013-10-20T17:19:35Z</time>
      </trkpt>
      <trkpt lat="42.001404653" lon="2.589498263">
        <ele>558.66</ele>
        <time>2013-10-20T17:19:41Z</time>
      </trkpt>
      <trkpt lat="42.001402558" lon="2.589717702">
        <ele>555.30</ele>
        <time>2013-10-20T17:19:46Z</time>
      </trkpt>
      <trkpt lat="42.001291749" lon="2.589793809">
        <ele>553.86</ele>
        <time>2013-10-20T17:19:49Z</time>
      </trkpt>
      <trkpt lat="42.001207595" lon="2.589834964">
        <ele>552.41</ele>
        <time>2013-10-20T17:19:51Z</time>
      </trkpt>
      <trkpt lat="42.001026965" lon="2.589890453">
        <ele>549.05</ele>
        <time>2013-10-20T17:19:56Z</time>
      </trkpt>
      <trkpt lat="42.001001903" lon="2.589894979">
        <ele>549.05</ele>
        <time>2013-10-20T17:19:57Z</time>
      </trkpt>
      <trkpt lat="42.000943314" lon="2.589889195">
        <ele>548.09</ele>
        <time>2013-10-20T17:19:59Z</time>
      </trkpt>
      <trkpt lat="42.000857148" lon="2.589892464">
        <ele>546.17</ele>
        <time>2013-10-20T17:20:02Z</time>
      </trkpt>
      <trkpt lat="42.000803336" lon="2.590036801">
        <ele>544.72</ele>
        <time>2013-10-20T17:20:07Z</time>
      </trkpt>
      <trkpt lat="42.000823033" lon="2.590218101">
        <ele>543.28</ele>
        <time>2013-10-20T17:20:13Z</time>
      </trkpt>
      <trkpt lat="42.000823536" lon="2.590279373">
        <ele>543.28</ele>
        <time>2013-10-20T17:20:21Z</time>
      </trkpt>
      <trkpt lat="42.000818591" lon="2.590288425">
        <ele>543.28</ele>
        <time>2013-10-20T17:20:30Z</time>
      </trkpt>
      <trkpt lat="42.000818423" lon="2.590273506">
        <ele>543.28</ele>
        <time>2013-10-20T17:20:40Z</time>
      </trkpt>
      <trkpt lat="42.000800905" lon="2.590324384">
        <ele>542.80</ele>
        <time>2013-10-20T17:20:50Z</time>
      </trkpt>
      <trkpt lat="42.000793613" lon="2.590327904">
        <ele>542.80</ele>
        <time>2013-10-20T17:20:53Z</time>
      </trkpt>
      <trkpt lat="42.000775759" lon="2.590339471">
        <ele>542.80</ele>
        <time>2013-10-20T17:20:55Z</time>
      </trkpt>
      <trkpt lat="42.000667800" lon="2.590371658">
        <ele>541.36</ele>
        <time>2013-10-20T17:21:01Z</time>
      </trkpt>
      <trkpt lat="42.000604852" lon="2.590401330">
        <ele>540.88</ele>
        <time>2013-10-20T17:21:04Z</time>
      </trkpt>
      <trkpt lat="42.000473843" lon="2.590613224">
        <ele>536.55</ele>
        <time>2013-10-20T17:21:12Z</time>
      </trkpt>
      <trkpt lat="42.000451463" lon="2.590680950">
        <ele>535.59</ele>
        <time>2013-10-20T17:21:14Z</time>
      </trkpt>
      <trkpt lat="42.000410308" lon="2.590829058">
        <ele>533.67</ele>
        <time>2013-10-20T17:21:18Z</time>
      </trkpt>
      <trkpt lat="42.000375020" lon="2.591032403">
        <ele>530.30</ele>
        <time>2013-10-20T17:21:23Z</time>
      </trkpt>
      <trkpt lat="42.000258093" lon="2.591214039">
        <ele>527.90</ele>
        <time>2013-10-20T17:21:30Z</time>
      </trkpt>
      <trkpt lat="42.000194977" lon="2.591319567">
        <ele>526.46</ele>
        <time>2013-10-20T17:21:33Z</time>
      </trkpt>
      <trkpt lat="42.000095568" lon="2.591476309">
        <ele>523.58</ele>
        <time>2013-10-20T17:21:39Z</time>
      </trkpt>
      <trkpt lat="41.999994147" lon="2.591591225">
        <ele>521.65</ele>
        <time>2013-10-20T17:21:45Z</time>
      </trkpt>
      <trkpt lat="41.999849308" lon="2.591744362">
        <ele>519.73</ele>
        <time>2013-10-20T17:21:51Z</time>
      </trkpt>
      <trkpt lat="41.999759454" lon="2.591818207">
        <ele>518.29</ele>
        <time>2013-10-20T17:21:54Z</time>
      </trkpt>
      <trkpt lat="41.999642610" lon="2.592010487">
        <ele>516.85</ele>
        <time>2013-10-20T17:21:59Z</time>
      </trkpt>
      <trkpt lat="41.999540267" lon="2.592271751">
        <ele>513.96</ele>
        <time>2013-10-20T17:22:05Z</time>
      </trkpt>
      <trkpt lat="41.999481510" lon="2.592417261">
        <ele>511.08</ele>
        <time>2013-10-20T17:22:09Z</time>
      </trkpt>
      <trkpt lat="41.999442450" lon="2.592475599">
        <ele>510.60</ele>
        <time>2013-10-20T17:22:11Z</time>
      </trkpt>
      <trkpt lat="41.999314542" lon="2.592652709">
        <ele>507.71</ele>
        <time>2013-10-20T17:22:16Z</time>
      </trkpt>
      <trkpt lat="41.999129973" lon="2.592721943">
        <ele>506.75</ele>
        <time>2013-10-20T17:22:21Z</time>
      </trkpt>
      <trkpt lat="41.998903661" lon="2.592841888">
        <ele>505.79</ele>
        <time>2013-10-20T17:22:28Z</time>
      </trkpt>
      <trkpt lat="41.998713811" lon="2.592820515">
        <ele>505.31</ele>
        <time>2013-10-20T17:22:34Z</time>
      </trkpt>
      <trkpt lat="41.998537372" lon="2.592815653">
        <ele>504.83</ele>
        <time>2013-10-20T17:22:39Z</time>
      </trkpt>
      <trkpt lat="41.998383061" lon="2.592833339">
        <ele>504.83</ele>
        <time>2013-10-20T17:22:46Z</time>
      </trkpt>
      <trkpt lat="41.998211065" lon="2.592832752">
        <ele>504.83</ele>
        <time>2013-10-20T17:22:53Z</time>
      </trkpt>
      <trkpt lat="41.998157588" lon="2.592835853">
        <ele>504.35</ele>
        <time>2013-10-20T17:22:55Z</time>
      </trkpt>
      <trkpt lat="41.998054910" lon="2.592989578">
        <ele>501.95</ele>
        <time>2013-10-20T17:23:01Z</time>
      </trkpt>
      <trkpt lat="41.997995063" lon="2.593205998">
        <ele>499.06</ele>
        <time>2013-10-20T17:23:07Z</time>
      </trkpt>
      <trkpt lat="41.997953908" lon="2.593308341">
        <ele>497.14</ele>
        <time>2013-10-20T17:23:10Z</time>
      </trkpt>
      <trkpt lat="41.997905963" lon="2.593444044">
        <ele>494.26</ele>
        <time>2013-10-20T17:23:14Z</time>
      </trkpt>
      <trkpt lat="41.997893726" lon="2.593470363">
        <ele>494.26</ele>
        <time>2013-10-20T17:23:15Z</time>
      </trkpt>
      <trkpt lat="41.997822228" lon="2.593602881">
        <ele>491.37</ele>
        <time>2013-10-20T17:23:20Z</time>
      </trkpt>
      <trkpt lat="41.997772523" lon="2.593761970">
        <ele>488.01</ele>
        <time>2013-10-20T17:23:24Z</time>
      </trkpt>
      <trkpt lat="41.997749138" lon="2.593892057">
        <ele>485.12</ele>
        <time>2013-10-20T17:23:27Z</time>
      </trkpt>
      <trkpt lat="41.997635060" lon="2.593962968">
        <ele>481.76</ele>
        <time>2013-10-20T17:23:32Z</time>
      </trkpt>
      <trkpt lat="41.997543446" lon="2.594035890">
        <ele>478.87</ele>
        <time>2013-10-20T17:23:35Z</time>
      </trkpt>
      <trkpt lat="41.997537998" lon="2.594168241">
        <ele>476.95</ele>
        <time>2013-10-20T17:23:38Z</time>
      </trkpt>
      <trkpt lat="41.997570687" lon="2.594276116">
        <ele>475.99</ele>
        <time>2013-10-20T17:23:40Z</time>
      </trkpt>
      <trkpt lat="41.997651489" lon="2.594426152">
        <ele>473.11</ele>
        <time>2013-10-20T17:23:43Z</time>
      </trkpt>
      <trkpt lat="41.997841339" lon="2.594547522">
        <ele>469.26</ele>
        <time>2013-10-20T17:23:48Z</time>
      </trkpt>
      <trkpt lat="41.998005289" lon="2.594565208">
        <ele>465.90</ele>
        <time>2013-10-20T17:23:52Z</time>
      </trkpt>
      <trkpt lat="41.998052395" lon="2.594567806">
        <ele>465.90</ele>
        <time>2013-10-20T17:23:53Z</time>
      </trkpt>
      <trkpt lat="41.998176112" lon="2.594546013">
        <ele>464.93</ele>
        <time>2013-10-20T17:23:56Z</time>
      </trkpt>
      <trkpt lat="41.998264457" lon="2.594501505">
        <ele>463.49</ele>
        <time>2013-10-20T17:23:59Z</time>
      </trkpt>
      <trkpt lat="41.998288765" lon="2.594486250">
        <ele>462.53</ele>
        <time>2013-10-20T17:24:00Z</time>
      </trkpt>
      <trkpt lat="41.998377445" lon="2.594606279">
        <ele>460.13</ele>
        <time>2013-10-20T17:24:05Z</time>
      </trkpt>
      <trkpt lat="41.998425055" lon="2.594726224">
        <ele>459.17</ele>
        <time>2013-10-20T17:24:07Z</time>
      </trkpt>
      <trkpt lat="41.998567379" lon="2.594959660">
        <ele>456.76</ele>
        <time>2013-10-20T17:24:11Z</time>
      </trkpt>
      <trkpt lat="41.998636362" lon="2.595131070">
        <ele>455.32</ele>
        <time>2013-10-20T17:24:14Z</time>
      </trkpt>
      <trkpt lat="41.998723869" lon="2.595463832">
        <ele>451.00</ele>
        <time>2013-10-20T17:24:21Z</time>
      </trkpt>
      <trkpt lat="41.998777597" lon="2.595631889">
        <ele>447.63</ele>
        <time>2013-10-20T17:24:25Z</time>
      </trkpt>
      <trkpt lat="41.998815316" lon="2.595764323">
        <ele>446.19</ele>
        <time>2013-10-20T17:24:28Z</time>
      </trkpt>
      <trkpt lat="41.998863847" lon="2.595944366">
        <ele>442.82</ele>
        <time>2013-10-20T17:24:32Z</time>
      </trkpt>
      <trkpt lat="41.998847083" lon="2.596019468">
        <ele>442.34</ele>
        <time>2013-10-20T17:24:34Z</time>
      </trkpt>
      <trkpt lat="41.998647594" lon="2.596166235">
        <ele>438.98</ele>
        <time>2013-10-20T17:24:41Z</time>
      </trkpt>
      <trkpt lat="41.998482806" lon="2.596393552">
        <ele>437.06</ele>
        <time>2013-10-20T17:24:47Z</time>
      </trkpt>
      <trkpt lat="41.998388509" lon="2.596524058">
        <ele>433.21</ele>
        <time>2013-10-20T17:24:51Z</time>
      </trkpt>
      <trkpt lat="41.998373506" lon="2.596560771">
        <ele>432.25</ele>
        <time>2013-10-20T17:24:52Z</time>
      </trkpt>
      <trkpt lat="41.998439220" lon="2.596656493">
        <ele>430.33</ele>
        <time>2013-10-20T17:24:56Z</time>
      </trkpt>
      <trkpt lat="41.998652204" lon="2.596673759">
        <ele>426.00</ele>
        <time>2013-10-20T17:25:02Z</time>
      </trkpt>
      <trkpt lat="41.998723031" lon="2.596645680">
        <ele>425.04</ele>
        <time>2013-10-20T17:25:04Z</time>
      </trkpt>
      <trkpt lat="41.998857980" lon="2.596684823">
        <ele>420.23</ele>
        <time>2013-10-20T17:25:08Z</time>
      </trkpt>
      <trkpt lat="41.998849430" lon="2.596771660">
        <ele>419.75</ele>
        <time>2013-10-20T17:25:10Z</time>
      </trkpt>
      <trkpt lat="41.998817747" lon="2.596866292">
        <ele>418.31</ele>
        <time>2013-10-20T17:25:12Z</time>
      </trkpt>
      <trkpt lat="41.998695958" lon="2.597156138">
        <ele>413.02</ele>
        <time>2013-10-20T17:25:17Z</time>
      </trkpt>
      <trkpt lat="41.998611552" lon="2.597260325">
        <ele>411.10</ele>
        <time>2013-10-20T17:25:19Z</time>
      </trkpt>
      <trkpt lat="41.998536115" lon="2.597388484">
        <ele>409.18</ele>
        <time>2013-10-20T17:25:22Z</time>
      </trkpt>
      <trkpt lat="41.998531002" lon="2.597423018">
        <ele>408.70</ele>
        <time>2013-10-20T17:25:23Z</time>
      </trkpt>
      <trkpt lat="41.998533013" lon="2.597505495">
        <ele>407.26</ele>
        <time>2013-10-20T17:25:29Z</time>
      </trkpt>
      <trkpt lat="41.998542234" lon="2.597564336">
        <ele>406.77</ele>
        <time>2013-10-20T17:25:39Z</time>
      </trkpt>
      <trkpt lat="41.998550867" lon="2.597571210">
        <ele>406.77</ele>
        <time>2013-10-20T17:25:50Z</time>
      </trkpt>
      <trkpt lat="41.998552711" lon="2.597565258">
        <ele>406.77</ele>
        <time>2013-10-20T17:26:01Z</time>
      </trkpt>
      <trkpt lat="41.998537791" lon="2.597560900">
        <ele>406.29</ele>
        <time>2013-10-20T17:26:15Z</time>
      </trkpt>
      <trkpt lat="41.998540054" lon="2.597576825">
        <ele>406.29</ele>
        <time>2013-10-20T17:26:28Z</time>
      </trkpt>
      <trkpt lat="41.998537372" lon="2.597583782">
        <ele>406.29</ele>
        <time>2013-10-20T17:26:41Z</time>
      </trkpt>
      <trkpt lat="41.998537288" lon="2.597582441">
        <ele>406.29</ele>
        <time>2013-10-20T17:26:52Z</time>
      </trkpt>
      <trkpt lat="41.998537791" lon="2.597594008">
        <ele>406.29</ele>
        <time>2013-10-20T17:27:03Z</time>
      </trkpt>
      <trkpt lat="41.998543491" lon="2.597595433">
        <ele>405.81</ele>
        <time>2013-10-20T17:27:13Z</time>
      </trkpt>
      <trkpt lat="41.998554303" lon="2.597604821">
        <ele>405.33</ele>
        <time>2013-10-20T17:27:19Z</time>
      </trkpt>
      <trkpt lat="41.998686067" lon="2.597681851">
        <ele>402.93</ele>
        <time>2013-10-20T17:27:25Z</time>
      </trkpt>
      <trkpt lat="41.998738286" lon="2.597668021">
        <ele>401.49</ele>
        <time>2013-10-20T17:27:27Z</time>
      </trkpt>
      <trkpt lat="41.998875163" lon="2.597629967">
        <ele>398.60</ele>
        <time>2013-10-20T17:27:33Z</time>
      </trkpt>
      <trkpt lat="41.998991587" lon="2.597519829">
        <ele>397.64</ele>
        <time>2013-10-20T17:27:39Z</time>
      </trkpt>
      <trkpt lat="41.999050680" lon="2.597472219">
        <ele>396.68</ele>
        <time>2013-10-20T17:27:41Z</time>
      </trkpt>
      <trkpt lat="41.999163081" lon="2.597438608">
        <ele>395.72</ele>
        <time>2013-10-20T17:27:44Z</time>
      </trkpt>
      <trkpt lat="41.999205661" lon="2.597438105">
        <ele>394.28</ele>
        <time>2013-10-20T17:27:46Z</time>
      </trkpt>
      <trkpt lat="41.999357374" lon="2.597478338">
        <ele>392.36</ele>
        <time>2013-10-20T17:27:54Z</time>
      </trkpt>
      <trkpt lat="41.999519647" lon="2.597462329">
        <ele>389.95</ele>
        <time>2013-10-20T17:27:59Z</time>
      </trkpt>
      <trkpt lat="41.999542614" lon="2.597453360">
        <ele>389.95</ele>
        <time>2013-10-20T17:28:00Z</time>
      </trkpt>
      <trkpt lat="41.999623750" lon="2.597519912">
        <ele>387.55</ele>
        <time>2013-10-20T17:28:04Z</time>
      </trkpt>
      <trkpt lat="41.999664403" lon="2.597705320">
        <ele>384.18</ele>
        <time>2013-10-20T17:28:10Z</time>
      </trkpt>
      <trkpt lat="41.999747132" lon="2.597668775">
        <ele>383.22</ele>
        <time>2013-10-20T17:28:15Z</time>
      </trkpt>
      <trkpt lat="41.999797004" lon="2.597494515">
        <ele>381.78</ele>
        <time>2013-10-20T17:28:20Z</time>
      </trkpt>
      <trkpt lat="41.999786527" lon="2.597318579">
        <ele>380.82</ele>
        <time>2013-10-20T17:28:24Z</time>
      </trkpt>
      <trkpt lat="41.999881662" lon="2.597198550">
        <ele>378.90</ele>
        <time>2013-10-20T17:28:29Z</time>
      </trkpt>
      <trkpt lat="42.000057598" lon="2.597134429">
        <ele>375.53</ele>
        <time>2013-10-20T17:28:35Z</time>
      </trkpt>
      <trkpt lat="42.000232612" lon="2.597192096">
        <ele>373.61</ele>
        <time>2013-10-20T17:28:40Z</time>
      </trkpt>
      <trkpt lat="42.000284999" lon="2.597401811">
        <ele>370.24</ele>
        <time>2013-10-20T17:28:44Z</time>
      </trkpt>
      <trkpt lat="42.000251471" lon="2.597589315">
        <ele>367.84</ele>
        <time>2013-10-20T17:28:47Z</time>
      </trkpt>
      <trkpt lat="42.000140243" lon="2.597894416">
        <ele>362.55</ele>
        <time>2013-10-20T17:28:53Z</time>
      </trkpt>
      <trkpt lat="42.000150637" lon="2.598120895">
        <ele>358.23</ele>
        <time>2013-10-20T17:28:58Z</time>
      </trkpt>
      <trkpt lat="42.000147536" lon="2.598325162">
        <ele>354.86</ele>
        <time>2013-10-20T17:29:02Z</time>
      </trkpt>
      <trkpt lat="42.000170418" lon="2.598509061">
        <ele>351.50</ele>
        <time>2013-10-20T17:29:06Z</time>
      </trkpt>
      <trkpt lat="42.000194642" lon="2.598735707">
        <ele>348.13</ele>
        <time>2013-10-20T17:29:11Z</time>
      </trkpt>
      <trkpt lat="42.000198330" lon="2.598786921">
        <ele>347.17</ele>
        <time>2013-10-20T17:29:12Z</time>
      </trkpt>
      <trkpt lat="42.000211573" lon="2.598973251">
        <ele>344.77</ele>
        <time>2013-10-20T17:29:15Z</time>
      </trkpt>
      <trkpt lat="42.000268319" lon="2.599374157">
        <ele>340.44</ele>
        <time>2013-10-20T17:29:20Z</time>
      </trkpt>
      <trkpt lat="42.000286675" lon="2.599468034">
        <ele>339.00</ele>
        <time>2013-10-20T17:29:21Z</time>
      </trkpt>
      <trkpt lat="42.000312827" lon="2.599831557">
        <ele>333.71</ele>
        <time>2013-10-20T17:29:25Z</time>
      </trkpt>
      <trkpt lat="42.000269828" lon="2.600081087">
        <ele>331.31</ele>
        <time>2013-10-20T17:29:28Z</time>
      </trkpt>
      <trkpt lat="41.999983586" lon="2.600455255">
        <ele>327.47</ele>
        <time>2013-10-20T17:29:34Z</time>
      </trkpt>
      <trkpt lat="41.999899431" lon="2.600571931">
        <ele>326.50</ele>
        <time>2013-10-20T17:29:36Z</time>
      </trkpt>
      <trkpt lat="41.999878225" lon="2.600651810">
        <ele>325.06</ele>
        <time>2013-10-20T17:29:37Z</time>
      </trkpt>
      <trkpt lat="41.999815361" lon="2.601276095">
        <ele>320.74</ele>
        <time>2013-10-20T17:29:43Z</time>
      </trkpt>
      <trkpt lat="41.999806895" lon="2.601368966">
        <ele>319.78</ele>
        <time>2013-10-20T17:29:44Z</time>
      </trkpt>
      <trkpt lat="41.999769847" lon="2.601530821">
        <ele>318.33</ele>
        <time>2013-10-20T17:29:46Z</time>
      </trkpt>
      <trkpt lat="41.999628528" lon="2.601831312">
        <ele>314.01</ele>
        <time>2013-10-20T17:29:50Z</time>
      </trkpt>
      <trkpt lat="41.999527610" lon="2.601971122">
        <ele>311.60</ele>
        <time>2013-10-20T17:29:52Z</time>
      </trkpt>
      <trkpt lat="41.999200129" lon="2.602123254">
        <ele>307.28</ele>
        <time>2013-10-20T17:29:57Z</time>
      </trkpt>
      <trkpt lat="41.998911708" lon="2.602219645">
        <ele>302.95</ele>
        <time>2013-10-20T17:30:01Z</time>
      </trkpt>
      <trkpt lat="41.998628819" lon="2.602480658">
        <ele>299.11</ele>
        <time>2013-10-20T17:30:06Z</time>
      </trkpt>
      <trkpt lat="41.998535193" lon="2.602564393">
        <ele>297.18</ele>
        <time>2013-10-20T17:30:08Z</time>
      </trkpt>
      <trkpt lat="41.998546089" lon="2.602677297">
        <ele>294.78</ele>
        <time>2013-10-20T17:30:12Z</time>
      </trkpt>
      <trkpt lat="41.998614988" lon="2.602669754">
        <ele>293.34</ele>
        <time>2013-10-20T17:30:14Z</time>
      </trkpt>
      <trkpt lat="41.998925370" lon="2.602611751">
        <ele>289.01</ele>
        <time>2013-10-20T17:30:19Z</time>
      </trkpt>
      <trkpt lat="41.999029306" lon="2.602601357">
        <ele>287.09</ele>
        <time>2013-10-20T17:30:21Z</time>
      </trkpt>
      <trkpt lat="41.999085046" lon="2.602660114">
        <ele>285.17</ele>
        <time>2013-10-20T17:30:24Z</time>
      </trkpt>
      <trkpt lat="41.999033413" lon="2.602714094">
        <ele>284.21</ele>
        <time>2013-10-20T17:30:26Z</time>
      </trkpt>
      <trkpt lat="41.998717248" lon="2.602955996">
        <ele>279.40</ele>
        <time>2013-10-20T17:30:31Z</time>
      </trkpt>
      <trkpt lat="41.998591519" lon="2.603082311">
        <ele>276.52</ele>
        <time>2013-10-20T17:30:33Z</time>
      </trkpt>
      <trkpt lat="41.998328914" lon="2.603378779">
        <ele>271.23</ele>
        <time>2013-10-20T17:30:38Z</time>
      </trkpt>
      <trkpt lat="41.998163874" lon="2.603698381">
        <ele>267.38</ele>
        <time>2013-10-20T17:30:42Z</time>
      </trkpt>
      <trkpt lat="41.998014677" lon="2.603965261">
        <ele>262.58</ele>
        <time>2013-10-20T17:30:45Z</time>
      </trkpt>
      <trkpt lat="41.997903868" lon="2.604217891">
        <ele>257.29</ele>
        <time>2013-10-20T17:30:48Z</time>
      </trkpt>
      <trkpt lat="41.997842848" lon="2.604396845">
        <ele>252.96</ele>
        <time>2013-10-20T17:30:51Z</time>
      </trkpt>
      <trkpt lat="41.997874280" lon="2.604492901">
        <ele>252.00</ele>
        <time>2013-10-20T17:30:53Z</time>
      </trkpt>
      <trkpt lat="41.998061867" lon="2.604634975">
        <ele>248.64</ele>
        <time>2013-10-20T17:30:57Z</time>
      </trkpt>
      <trkpt lat="41.998156079" lon="2.604624833">
        <ele>246.72</ele>
        <time>2013-10-20T17:30:59Z</time>
      </trkpt>
      <trkpt lat="41.998414493" lon="2.604687194">
        <ele>241.43</ele>
        <time>2013-10-20T17:31:04Z</time>
      </trkpt>
      <trkpt lat="41.998557824" lon="2.604738156">
        <ele>239.02</ele>
        <time>2013-10-20T17:31:06Z</time>
      </trkpt>
      <trkpt lat="41.998859656" lon="2.604793728">
        <ele>234.22</ele>
        <time>2013-10-20T17:31:10Z</time>
      </trkpt>
      <trkpt lat="41.999104911" lon="2.604740587">
        <ele>228.45</ele>
        <time>2013-10-20T17:31:14Z</time>
      </trkpt>
      <trkpt lat="41.999343376" lon="2.604784256">
        <ele>224.12</ele>
        <time>2013-10-20T17:31:19Z</time>
      </trkpt>
      <trkpt lat="41.999389141" lon="2.604807055">
        <ele>223.16</ele>
        <time>2013-10-20T17:31:20Z</time>
      </trkpt>
      <trkpt lat="41.999532304" lon="2.604851982">
        <ele>221.72</ele>
        <time>2013-10-20T17:31:25Z</time>
      </trkpt>
      <trkpt lat="41.999537836" lon="2.604859358">
        <ele>221.24</ele>
        <time>2013-10-20T17:31:33Z</time>
      </trkpt>
      <trkpt lat="41.999603299" lon="2.604854664">
        <ele>220.76</ele>
        <time>2013-10-20T17:31:38Z</time>
      </trkpt>
      <trkpt lat="41.999767249" lon="2.604858101">
        <ele>219.32</ele>
        <time>2013-10-20T17:31:43Z</time>
      </trkpt>
      <trkpt lat="42.000010575" lon="2.604874613">
        <ele>219.32</ele>
        <time>2013-10-20T17:31:50Z</time>
      </trkpt>
      <trkpt lat="42.000211909" lon="2.604915014">
        <ele>218.84</ele>
        <time>2013-10-20T17:31:57Z</time>
      </trkpt>
      <trkpt lat="42.000424641" lon="2.604954912">
        <ele>218.84</ele>
        <time>2013-10-20T17:32:04Z</time>
      </trkpt>
      <trkpt lat="42.000668303" lon="2.604933119">
        <ele>218.36</ele>
        <time>2013-10-20T17:32:12Z</time>
      </trkpt>
      <trkpt lat="42.000892268" lon="2.604967652">
        <ele>217.88</ele>
        <time>2013-10-20T17:32:20Z</time>
      </trkpt>
      <trkpt lat="42.000950690" lon="2.604973268">
        <ele>217.88</ele>
        <time>2013-10-20T17:32:22Z</time>
      </trkpt>
      <trkpt lat="42.001011123" lon="2.605084831">
        <ele>216.91</ele>
        <time>2013-10-20T17:32:27Z</time>
      </trkpt>
      <trkpt lat="42.000947588" lon="2.605113749">
        <ele>216.91</ele>
        <time>2013-10-20T17:32:31Z</time>
      </trkpt>
      <trkpt lat="42.000660089" lon="2.605141325">
        <ele>216.43</ele>
        <time>2013-10-20T17:32:40Z</time>
      </trkpt>
      <trkpt lat="42.000352892" lon="2.605217685">
        <ele>214.51</ele>
        <time>2013-10-20T17:32:46Z</time>
      </trkpt>
      <trkpt lat="41.999880991" lon="2.605430920">
        <ele>212.59</ele>
        <time>2013-10-20T17:32:53Z</time>
      </trkpt>
      <trkpt lat="41.999401714" lon="2.605794946">
        <ele>210.67</ele>
        <time>2013-10-20T17:33:00Z</time>
      </trkpt>
      <trkpt lat="41.998971638" lon="2.606257208">
        <ele>210.67</ele>
        <time>2013-10-20T17:33:08Z</time>
      </trkpt>
      <trkpt lat="41.998715655" lon="2.606537667">
        <ele>210.19</ele>
        <time>2013-10-20T17:33:15Z</time>
      </trkpt>
      <trkpt lat="41.998572744" lon="2.606705221">
        <ele>211.63</ele>
        <time>2013-10-20T17:33:20Z</time>
      </trkpt>
      <trkpt lat="41.998389851" lon="2.606927425">
        <ele>212.59</ele>
        <time>2013-10-20T17:33:27Z</time>
      </trkpt>
      <trkpt lat="41.998127916" lon="2.607214841">
        <ele>213.55</ele>
        <time>2013-10-20T17:33:37Z</time>
      </trkpt>
      <trkpt lat="41.997827006" lon="2.607475937">
        <ele>214.03</ele>
        <time>2013-10-20T17:33:47Z</time>
      </trkpt>
      <trkpt lat="41.997530286" lon="2.607674504">
        <ele>214.51</ele>
        <time>2013-10-20T17:33:56Z</time>
      </trkpt>
      <trkpt lat="41.997461555" lon="2.607712726">
        <ele>214.51</ele>
        <time>2013-10-20T17:33:58Z</time>
      </trkpt>
      <trkpt lat="41.997067438" lon="2.607939205">
        <ele>214.51</ele>
        <time>2013-10-20T17:34:08Z</time>
      </trkpt>
      <trkpt lat="41.996697209" lon="2.608145232">
        <ele>213.07</ele>
        <time>2013-10-20T17:34:16Z</time>
      </trkpt>
      <trkpt lat="41.996161522" lon="2.608437509">
        <ele>212.11</ele>
        <time>2013-10-20T17:34:26Z</time>
      </trkpt>
      <trkpt lat="41.995716275" lon="2.608712519">
        <ele>210.19</ele>
        <time>2013-10-20T17:34:34Z</time>
      </trkpt>
      <trkpt lat="41.995250409" lon="2.609148210">
        <ele>209.22</ele>
        <time>2013-10-20T17:34:43Z</time>
      </trkpt>
      <trkpt lat="41.994792002" lon="2.609653723">
        <ele>208.74</ele>
        <time>2013-10-20T17:34:53Z</time>
      </trkpt>
      <trkpt lat="41.994709189" lon="2.609750869">
        <ele>207.78</ele>
        <time>2013-10-20T17:34:55Z</time>
      </trkpt>
      <trkpt lat="41.994450607" lon="2.609989837">
        <ele>207.78</ele>
        <time>2013-10-20T17:35:01Z</time>
      </trkpt>
      <trkpt lat="41.993985915" lon="2.610291083">
        <ele>206.82</ele>
        <time>2013-10-20T17:35:12Z</time>
      </trkpt>
      <trkpt lat="41.993532705" lon="2.610515969">
        <ele>206.34</ele>
        <time>2013-10-20T17:35:22Z</time>
      </trkpt>
      <trkpt lat="41.993229280" lon="2.610662988">
        <ele>205.86</ele>
        <time>2013-10-20T17:35:29Z</time>
      </trkpt>
      <trkpt lat="41.992674063" lon="2.610807660">
        <ele>205.38</ele>
        <time>2013-10-20T17:35:41Z</time>
      </trkpt>
      <trkpt lat="41.992299644" lon="2.610779748">
        <ele>205.38</ele>
        <time>2013-10-20T17:35:49Z</time>
      </trkpt>
      <trkpt lat="41.991912651" lon="2.610629544">
        <ele>204.42</ele>
        <time>2013-10-20T17:35:58Z</time>
      </trkpt>
      <trkpt lat="41.991526078" lon="2.610332657">
        <ele>203.94</ele>
        <time>2013-10-20T17:36:08Z</time>
      </trkpt>
      <trkpt lat="41.991233214" lon="2.609926638">
        <ele>203.46</ele>
        <time>2013-10-20T17:36:17Z</time>
      </trkpt>
      <trkpt lat="41.990979661" lon="2.609416767">
        <ele>202.49</ele>
        <time>2013-10-20T17:36:27Z</time>
      </trkpt>
      <trkpt lat="41.990769359" lon="2.608988200">
        <ele>202.01</ele>
        <time>2013-10-20T17:36:35Z</time>
      </trkpt>
      <trkpt lat="41.990464342" lon="2.608462487">
        <ele>201.05</ele>
        <time>2013-10-20T17:36:45Z</time>
      </trkpt>
      <trkpt lat="41.990059161" lon="2.607934679">
        <ele>200.09</ele>
        <time>2013-10-20T17:36:56Z</time>
      </trkpt>
      <trkpt lat="41.989677617" lon="2.607517176">
        <ele>198.65</ele>
        <time>2013-10-20T17:37:04Z</time>
      </trkpt>
      <trkpt lat="41.989136649" lon="2.606944105">
        <ele>197.21</ele>
        <time>2013-10-20T17:37:15Z</time>
      </trkpt>
      <trkpt lat="41.988800450" lon="2.606571613">
        <ele>197.21</ele>
        <time>2013-10-20T17:37:24Z</time>
      </trkpt>
      <trkpt lat="41.988497864" lon="2.606232398">
        <ele>197.21</ele>
        <time>2013-10-20T17:37:33Z</time>
      </trkpt>
      <trkpt lat="41.988127216" lon="2.605815901">
        <ele>196.73</ele>
        <time>2013-10-20T17:37:44Z</time>
      </trkpt>
      <trkpt lat="41.988035350" lon="2.605699728">
        <ele>196.73</ele>
        <time>2013-10-20T17:37:47Z</time>
      </trkpt>
      <trkpt lat="41.987822785" lon="2.605401835">
        <ele>196.25</ele>
        <time>2013-10-20T17:37:54Z</time>
      </trkpt>
      <trkpt lat="41.987511230" lon="2.604858436">
        <ele>195.77</ele>
        <time>2013-10-20T17:38:05Z</time>
      </trkpt>
      <trkpt lat="41.987262455" lon="2.604434480">
        <ele>195.28</ele>
        <time>2013-10-20T17:38:14Z</time>
      </trkpt>
      <trkpt lat="41.986933968" lon="2.604045978">
        <ele>194.80</ele>
        <time>2013-10-20T17:38:24Z</time>
      </trkpt>
      <trkpt lat="41.986607745" lon="2.603871635">
        <ele>194.32</ele>
        <time>2013-10-20T17:38:33Z</time>
      </trkpt>
      <trkpt lat="41.986486207" lon="2.603742051">
        <ele>194.32</ele>
        <time>2013-10-20T17:38:37Z</time>
      </trkpt>
      <trkpt lat="41.986401047" lon="2.603499897">
        <ele>193.36</ele>
        <time>2013-10-20T17:38:41Z</time>
      </trkpt>
      <trkpt lat="41.986193176" lon="2.603015759">
        <ele>190.96</ele>
        <time>2013-10-20T17:38:47Z</time>
      </trkpt>
      <trkpt lat="41.985991172" lon="2.602975609">
        <ele>190.48</ele>
        <time>2013-10-20T17:38:50Z</time>
      </trkpt>
      <trkpt lat="41.985927553" lon="2.603000336">
        <ele>190.48</ele>
        <time>2013-10-20T17:38:51Z</time>
      </trkpt>
      <trkpt lat="41.985639551" lon="2.603141068">
        <ele>190.00</ele>
        <time>2013-10-20T17:38:56Z</time>
      </trkpt>
      <trkpt lat="41.985350124" lon="2.603300408">
        <ele>190.00</ele>
        <time>2013-10-20T17:39:02Z</time>
      </trkpt>
      <trkpt lat="41.985256917" lon="2.603520098">
        <ele>189.52</ele>
        <time>2013-10-20T17:39:07Z</time>
      </trkpt>
      <trkpt lat="41.985341658" lon="2.603930476">
        <ele>189.52</ele>
        <time>2013-10-20T17:39:14Z</time>
      </trkpt>
      <trkpt lat="41.985305616" lon="2.604356612">
        <ele>188.56</ele>
        <time>2013-10-20T17:39:20Z</time>
      </trkpt>
      <trkpt lat="41.985276195" lon="2.604411262">
        <ele>188.56</ele>
        <time>2013-10-20T17:39:21Z</time>
      </trkpt>
      <trkpt lat="41.985140828" lon="2.604643524">
        <ele>190.00</ele>
        <time>2013-10-20T17:39:27Z</time>
      </trkpt>
      <trkpt lat="41.984894232" lon="2.605014088">
        <ele>191.44</ele>
        <time>2013-10-20T17:39:38Z</time>
      </trkpt>
      <trkpt lat="41.984583347" lon="2.605234951">
        <ele>192.88</ele>
        <time>2013-10-20T17:39:48Z</time>
      </trkpt>
      <trkpt lat="41.984416966" lon="2.605413989">
        <ele>192.88</ele>
        <time>2013-10-20T17:39:54Z</time>
      </trkpt>
      <trkpt lat="41.984243545" lon="2.605784553">
        <ele>192.88</ele>
        <time>2013-10-20T17:40:02Z</time>
      </trkpt>
      <trkpt lat="41.985064971" lon="2.604778054">
        <ele>213.07</ele>
        <time>2013-10-20T17:41:11Z</time>
      </trkpt>
      <trkpt lat="41.983845405" lon="2.606171126">
        <ele>213.07</ele>
        <time>2013-10-20T17:41:12Z</time>
      </trkpt>
      <trkpt lat="41.984001643" lon="2.606195350">
        <ele>213.07</ele>
        <time>2013-10-20T17:41:21Z</time>
      </trkpt>
      <trkpt lat="41.984093006" lon="2.606227452">
        <ele>209.22</ele>
        <time>2013-10-20T17:41:29Z</time>
      </trkpt>
      <trkpt lat="41.984062915" lon="2.606233487">
        <ele>204.42</ele>
        <time>2013-10-20T17:41:34Z</time>
      </trkpt>
      <trkpt lat="41.984054533" lon="2.606236505">
        <ele>204.42</ele>
        <time>2013-10-20T17:41:35Z</time>
      </trkpt>
    </trkseg>
  </trk>
</gpx>
